<?xml version="1.0" encoding="UTF-8" standalone="no" ?>
<gpx xmlns="http://www.topografix.com/GPX/1/1" xmlns:xsi="http://www.w3.org/2001/XMLSchema-instance" xsi:schemaLocation="http://www.topografix.com/GPX/1/1 http://www.topografix.com/GPX/1/1/gpx.xsd" version="1.1" creator="VisuGPX - https://www.visugpx.com">
  <metadata>
    <name>Jolie sortie</name>
    <desc><![CDATA[Du coté de Maîche]]></desc>
  </metadata>
  <trk>
    <name><![CDATA[Jolie sortie_1]]></name>
    <trkseg>
      <trkpt lat="47.2489" lon="6.81509">
        <ele>796.2</ele>
        <time>2020-08-29T08:56:33Z</time>
      </trkpt>
      <trkpt lat="47.24917" lon="6.81497">
        <ele>796.2</ele>
        <time>2020-08-29T08:56:41Z</time>
      </trkpt>
      <trkpt lat="47.24937" lon="6.81487">
        <ele>796.6</ele>
        <time>2020-08-29T08:56:47Z</time>
      </trkpt>
      <trkpt lat="47.24941" lon="6.81486">
        <ele>797</ele>
        <time>2020-08-29T08:56:48Z</time>
      </trkpt>
      <trkpt lat="47.24944" lon="6.81485">
        <ele>797.4</ele>
        <time>2020-08-29T08:56:49Z</time>
      </trkpt>
      <trkpt lat="47.24947" lon="6.81483">
        <ele>797.8</ele>
        <time>2020-08-29T08:56:50Z</time>
      </trkpt>
      <trkpt lat="47.24951" lon="6.81482">
        <ele>798.2</ele>
        <time>2020-08-29T08:56:51Z</time>
      </trkpt>
      <trkpt lat="47.24977" lon="6.81469">
        <ele>798.2</ele>
        <time>2020-08-29T08:56:59Z</time>
      </trkpt>
      <trkpt lat="47.24996" lon="6.81455">
        <ele>798.6</ele>
        <time>2020-08-29T08:57:06Z</time>
      </trkpt>
      <trkpt lat="47.24998" lon="6.81452">
        <ele>799</ele>
        <time>2020-08-29T08:57:07Z</time>
      </trkpt>
      <trkpt lat="47.25" lon="6.81448">
        <ele>799.4</ele>
        <time>2020-08-29T08:57:08Z</time>
      </trkpt>
      <trkpt lat="47.25" lon="6.81443">
        <ele>799.8</ele>
        <time>2020-08-29T08:57:09Z</time>
      </trkpt>
      <trkpt lat="47.25001" lon="6.81439">
        <ele>800.2</ele>
        <time>2020-08-29T08:57:10Z</time>
      </trkpt>
      <trkpt lat="47.25002" lon="6.8143">
        <ele>800.2</ele>
        <time>2020-08-29T08:57:12Z</time>
      </trkpt>
      <trkpt lat="47.24997" lon="6.81402">
        <ele>800.2</ele>
        <time>2020-08-29T08:57:18Z</time>
      </trkpt>
      <trkpt lat="47.24996" lon="6.81397">
        <ele>800.6</ele>
        <time>2020-08-29T08:57:19Z</time>
      </trkpt>
      <trkpt lat="47.24995" lon="6.81392">
        <ele>801.6</ele>
        <time>2020-08-29T08:57:20Z</time>
      </trkpt>
      <trkpt lat="47.24993" lon="6.81384">
        <ele>802</ele>
        <time>2020-08-29T08:57:22Z</time>
      </trkpt>
      <trkpt lat="47.24992" lon="6.81379">
        <ele>802.4</ele>
        <time>2020-08-29T08:57:23Z</time>
      </trkpt>
      <trkpt lat="47.24988" lon="6.81366">
        <ele>802.4</ele>
        <time>2020-08-29T08:57:26Z</time>
      </trkpt>
      <trkpt lat="47.24978" lon="6.81327">
        <ele>802.4</ele>
        <time>2020-08-29T08:57:35Z</time>
      </trkpt>
      <trkpt lat="47.24973" lon="6.81296">
        <ele>802.4</ele>
        <time>2020-08-29T08:57:42Z</time>
      </trkpt>
      <trkpt lat="47.24971" lon="6.81284">
        <ele>802.8</ele>
        <time>2020-08-29T08:57:45Z</time>
      </trkpt>
      <trkpt lat="47.24971" lon="6.8128">
        <ele>803.2</ele>
        <time>2020-08-29T08:57:46Z</time>
      </trkpt>
      <trkpt lat="47.24971" lon="6.81275">
        <ele>803.6</ele>
        <time>2020-08-29T08:57:47Z</time>
      </trkpt>
      <trkpt lat="47.2497" lon="6.81271">
        <ele>804.6</ele>
        <time>2020-08-29T08:57:48Z</time>
      </trkpt>
      <trkpt lat="47.24969" lon="6.81259">
        <ele>804.6</ele>
        <time>2020-08-29T08:57:51Z</time>
      </trkpt>
      <trkpt lat="47.24969" lon="6.8125">
        <ele>805</ele>
        <time>2020-08-29T08:57:53Z</time>
      </trkpt>
      <trkpt lat="47.24969" lon="6.81246">
        <ele>805.4</ele>
        <time>2020-08-29T08:57:54Z</time>
      </trkpt>
      <trkpt lat="47.24969" lon="6.81242">
        <ele>805.8</ele>
        <time>2020-08-29T08:57:55Z</time>
      </trkpt>
      <trkpt lat="47.24969" lon="6.81238">
        <ele>806.2</ele>
        <time>2020-08-29T08:57:56Z</time>
      </trkpt>
      <trkpt lat="47.24968" lon="6.81234">
        <ele>806.6</ele>
        <time>2020-08-29T08:57:57Z</time>
      </trkpt>
      <trkpt lat="47.24968" lon="6.81225">
        <ele>806.6</ele>
        <time>2020-08-29T08:57:59Z</time>
      </trkpt>
      <trkpt lat="47.24967" lon="6.8119">
        <ele>806.6</ele>
        <time>2020-08-29T08:58:07Z</time>
      </trkpt>
      <trkpt lat="47.24969" lon="6.81164">
        <ele>806.6</ele>
        <time>2020-08-29T08:58:13Z</time>
      </trkpt>
      <trkpt lat="47.24981" lon="6.81155">
        <ele>806.6</ele>
        <time>2020-08-29T08:58:17Z</time>
      </trkpt>
      <trkpt lat="47.24984" lon="6.81154">
        <ele>806.6</ele>
        <time>2020-08-29T08:58:18Z</time>
      </trkpt>
      <trkpt lat="47.25001" lon="6.81148">
        <ele>807</ele>
        <time>2020-08-29T08:58:23Z</time>
      </trkpt>
      <trkpt lat="47.25004" lon="6.81146">
        <ele>807.4</ele>
        <time>2020-08-29T08:58:24Z</time>
      </trkpt>
      <trkpt lat="47.25007" lon="6.81145">
        <ele>807.8</ele>
        <time>2020-08-29T08:58:25Z</time>
      </trkpt>
      <trkpt lat="47.2501" lon="6.81144">
        <ele>808.2</ele>
        <time>2020-08-29T08:58:26Z</time>
      </trkpt>
      <trkpt lat="47.25013" lon="6.81142">
        <ele>808.6</ele>
        <time>2020-08-29T08:58:27Z</time>
      </trkpt>
      <trkpt lat="47.25025" lon="6.81137">
        <ele>808.6</ele>
        <time>2020-08-29T08:58:31Z</time>
      </trkpt>
      <trkpt lat="47.25047" lon="6.81125">
        <ele>808.6</ele>
        <time>2020-08-29T08:58:39Z</time>
      </trkpt>
      <trkpt lat="47.25064" lon="6.81114">
        <ele>808.6</ele>
        <time>2020-08-29T08:58:48Z</time>
      </trkpt>
      <trkpt lat="47.25064" lon="6.81114">
        <ele>808.6</ele>
        <time>2020-08-29T08:59:29Z</time>
      </trkpt>
      <trkpt lat="47.25065" lon="6.81114">
        <ele>808.6</ele>
        <time>2020-08-29T08:59:30Z</time>
      </trkpt>
      <trkpt lat="47.25069" lon="6.81112">
        <ele>808.6</ele>
        <time>2020-08-29T08:59:32Z</time>
      </trkpt>
      <trkpt lat="47.25079" lon="6.81117">
        <ele>808.6</ele>
        <time>2020-08-29T08:59:36Z</time>
      </trkpt>
      <trkpt lat="47.25082" lon="6.81122">
        <ele>809.2</ele>
        <time>2020-08-29T08:59:39Z</time>
      </trkpt>
      <trkpt lat="47.25083" lon="6.81124">
        <ele>809.6</ele>
        <time>2020-08-29T08:59:40Z</time>
      </trkpt>
      <trkpt lat="47.25084" lon="6.81126">
        <ele>810</ele>
        <time>2020-08-29T08:59:41Z</time>
      </trkpt>
      <trkpt lat="47.25086" lon="6.81127">
        <ele>810.4</ele>
        <time>2020-08-29T08:59:42Z</time>
      </trkpt>
      <trkpt lat="47.25087" lon="6.81128">
        <ele>810.8</ele>
        <time>2020-08-29T08:59:43Z</time>
      </trkpt>
      <trkpt lat="47.25091" lon="6.81133">
        <ele>811.2</ele>
        <time>2020-08-29T08:59:46Z</time>
      </trkpt>
      <trkpt lat="47.25092" lon="6.81136">
        <ele>811.8</ele>
        <time>2020-08-29T08:59:47Z</time>
      </trkpt>
      <trkpt lat="47.25093" lon="6.81138">
        <ele>812.2</ele>
        <time>2020-08-29T08:59:48Z</time>
      </trkpt>
      <trkpt lat="47.25094" lon="6.8114">
        <ele>812.6</ele>
        <time>2020-08-29T08:59:49Z</time>
      </trkpt>
      <trkpt lat="47.25095" lon="6.81143">
        <ele>813</ele>
        <time>2020-08-29T08:59:50Z</time>
      </trkpt>
      <trkpt lat="47.25097" lon="6.81151">
        <ele>813.4</ele>
        <time>2020-08-29T08:59:53Z</time>
      </trkpt>
      <trkpt lat="47.25098" lon="6.81153">
        <ele>813.8</ele>
        <time>2020-08-29T08:59:54Z</time>
      </trkpt>
      <trkpt lat="47.25098" lon="6.81156">
        <ele>814.2</ele>
        <time>2020-08-29T08:59:55Z</time>
      </trkpt>
      <trkpt lat="47.25098" lon="6.81159">
        <ele>814.6</ele>
        <time>2020-08-29T08:59:56Z</time>
      </trkpt>
      <trkpt lat="47.25098" lon="6.81161">
        <ele>815.2</ele>
        <time>2020-08-29T08:59:57Z</time>
      </trkpt>
      <trkpt lat="47.25099" lon="6.81172">
        <ele>815.2</ele>
        <time>2020-08-29T09:00:01Z</time>
      </trkpt>
      <trkpt lat="47.25099" lon="6.81174">
        <ele>815.6</ele>
        <time>2020-08-29T09:00:02Z</time>
      </trkpt>
      <trkpt lat="47.25099" lon="6.81176">
        <ele>816</ele>
        <time>2020-08-29T09:00:03Z</time>
      </trkpt>
      <trkpt lat="47.25099" lon="6.81179">
        <ele>816.4</ele>
        <time>2020-08-29T09:00:04Z</time>
      </trkpt>
      <trkpt lat="47.25098" lon="6.81182">
        <ele>816.8</ele>
        <time>2020-08-29T09:00:05Z</time>
      </trkpt>
      <trkpt lat="47.25098" lon="6.81184">
        <ele>817.2</ele>
        <time>2020-08-29T09:00:06Z</time>
      </trkpt>
      <trkpt lat="47.25098" lon="6.8119">
        <ele>817.2</ele>
        <time>2020-08-29T09:00:08Z</time>
      </trkpt>
      <trkpt lat="47.25098" lon="6.81195">
        <ele>817.6</ele>
        <time>2020-08-29T09:00:10Z</time>
      </trkpt>
      <trkpt lat="47.25097" lon="6.81198">
        <ele>818</ele>
        <time>2020-08-29T09:00:11Z</time>
      </trkpt>
      <trkpt lat="47.25098" lon="6.81201">
        <ele>818.4</ele>
        <time>2020-08-29T09:00:12Z</time>
      </trkpt>
      <trkpt lat="47.25097" lon="6.81204">
        <ele>818.8</ele>
        <time>2020-08-29T09:00:13Z</time>
      </trkpt>
      <trkpt lat="47.25097" lon="6.81207">
        <ele>819.2</ele>
        <time>2020-08-29T09:00:14Z</time>
      </trkpt>
      <trkpt lat="47.25096" lon="6.81212">
        <ele>819.2</ele>
        <time>2020-08-29T09:00:16Z</time>
      </trkpt>
      <trkpt lat="47.25095" lon="6.8123">
        <ele>819.8</ele>
        <time>2020-08-29T09:00:22Z</time>
      </trkpt>
      <trkpt lat="47.25095" lon="6.81232">
        <ele>820.2</ele>
        <time>2020-08-29T09:00:23Z</time>
      </trkpt>
      <trkpt lat="47.25095" lon="6.81235">
        <ele>820.6</ele>
        <time>2020-08-29T09:00:24Z</time>
      </trkpt>
      <trkpt lat="47.25095" lon="6.81238">
        <ele>821</ele>
        <time>2020-08-29T09:00:25Z</time>
      </trkpt>
      <trkpt lat="47.25094" lon="6.81241">
        <ele>821.4</ele>
        <time>2020-08-29T09:00:26Z</time>
      </trkpt>
      <trkpt lat="47.25092" lon="6.81255">
        <ele>821.4</ele>
        <time>2020-08-29T09:00:31Z</time>
      </trkpt>
      <trkpt lat="47.25092" lon="6.8128">
        <ele>821.4</ele>
        <time>2020-08-29T09:00:39Z</time>
      </trkpt>
      <trkpt lat="47.25098" lon="6.81297">
        <ele>821.4</ele>
        <time>2020-08-29T09:00:45Z</time>
      </trkpt>
      <trkpt lat="47.25107" lon="6.81301">
        <ele>821.8</ele>
        <time>2020-08-29T09:00:49Z</time>
      </trkpt>
      <trkpt lat="47.25108" lon="6.81301">
        <ele>822.2</ele>
        <time>2020-08-29T09:00:50Z</time>
      </trkpt>
      <trkpt lat="47.2511" lon="6.81301">
        <ele>822.6</ele>
        <time>2020-08-29T09:00:51Z</time>
      </trkpt>
      <trkpt lat="47.25112" lon="6.81302">
        <ele>823</ele>
        <time>2020-08-29T09:00:52Z</time>
      </trkpt>
      <trkpt lat="47.25114" lon="6.81302">
        <ele>823.4</ele>
        <time>2020-08-29T09:00:53Z</time>
      </trkpt>
      <trkpt lat="47.25123" lon="6.81303">
        <ele>823.8</ele>
        <time>2020-08-29T09:00:58Z</time>
      </trkpt>
      <trkpt lat="47.25124" lon="6.81304">
        <ele>824.2</ele>
        <time>2020-08-29T09:00:59Z</time>
      </trkpt>
      <trkpt lat="47.25126" lon="6.81303">
        <ele>824.6</ele>
        <time>2020-08-29T09:01:00Z</time>
      </trkpt>
      <trkpt lat="47.25127" lon="6.81303">
        <ele>825</ele>
        <time>2020-08-29T09:01:01Z</time>
      </trkpt>
      <trkpt lat="47.25129" lon="6.81303">
        <ele>825.4</ele>
        <time>2020-08-29T09:01:02Z</time>
      </trkpt>
      <trkpt lat="47.25138" lon="6.81303">
        <ele>825.8</ele>
        <time>2020-08-29T09:01:07Z</time>
      </trkpt>
      <trkpt lat="47.25139" lon="6.81302">
        <ele>826.2</ele>
        <time>2020-08-29T09:01:08Z</time>
      </trkpt>
      <trkpt lat="47.25141" lon="6.81303">
        <ele>826.6</ele>
        <time>2020-08-29T09:01:09Z</time>
      </trkpt>
      <trkpt lat="47.25143" lon="6.81303">
        <ele>827</ele>
        <time>2020-08-29T09:01:10Z</time>
      </trkpt>
      <trkpt lat="47.25144" lon="6.81303">
        <ele>827.6</ele>
        <time>2020-08-29T09:01:11Z</time>
      </trkpt>
      <trkpt lat="47.25151" lon="6.81303">
        <ele>827.6</ele>
        <time>2020-08-29T09:01:15Z</time>
      </trkpt>
      <trkpt lat="47.25156" lon="6.81303">
        <ele>828</ele>
        <time>2020-08-29T09:01:18Z</time>
      </trkpt>
      <trkpt lat="47.25157" lon="6.81303">
        <ele>828.4</ele>
        <time>2020-08-29T09:01:19Z</time>
      </trkpt>
      <trkpt lat="47.25159" lon="6.81303">
        <ele>828.8</ele>
        <time>2020-08-29T09:01:20Z</time>
      </trkpt>
      <trkpt lat="47.25161" lon="6.81302">
        <ele>829.2</ele>
        <time>2020-08-29T09:01:21Z</time>
      </trkpt>
      <trkpt lat="47.25162" lon="6.81303">
        <ele>829.6</ele>
        <time>2020-08-29T09:01:22Z</time>
      </trkpt>
      <trkpt lat="47.25164" lon="6.81303">
        <ele>829.6</ele>
        <time>2020-08-29T09:01:23Z</time>
      </trkpt>
      <trkpt lat="47.2517" lon="6.81302">
        <ele>830</ele>
        <time>2020-08-29T09:01:27Z</time>
      </trkpt>
      <trkpt lat="47.25172" lon="6.81303">
        <ele>830.4</ele>
        <time>2020-08-29T09:01:28Z</time>
      </trkpt>
      <trkpt lat="47.25173" lon="6.81303">
        <ele>830.8</ele>
        <time>2020-08-29T09:01:29Z</time>
      </trkpt>
      <trkpt lat="47.25175" lon="6.81303">
        <ele>831.4</ele>
        <time>2020-08-29T09:01:30Z</time>
      </trkpt>
      <trkpt lat="47.25177" lon="6.81303">
        <ele>831.8</ele>
        <time>2020-08-29T09:01:31Z</time>
      </trkpt>
      <trkpt lat="47.25181" lon="6.81303">
        <ele>832.2</ele>
        <time>2020-08-29T09:01:34Z</time>
      </trkpt>
      <trkpt lat="47.25183" lon="6.81304">
        <ele>832.6</ele>
        <time>2020-08-29T09:01:35Z</time>
      </trkpt>
      <trkpt lat="47.25185" lon="6.81304">
        <ele>833</ele>
        <time>2020-08-29T09:01:36Z</time>
      </trkpt>
      <trkpt lat="47.25186" lon="6.81304">
        <ele>833.4</ele>
        <time>2020-08-29T09:01:37Z</time>
      </trkpt>
      <trkpt lat="47.25188" lon="6.81304">
        <ele>833.8</ele>
        <time>2020-08-29T09:01:38Z</time>
      </trkpt>
      <trkpt lat="47.25195" lon="6.81306">
        <ele>834.4</ele>
        <time>2020-08-29T09:01:43Z</time>
      </trkpt>
      <trkpt lat="47.25197" lon="6.81306">
        <ele>834.8</ele>
        <time>2020-08-29T09:01:44Z</time>
      </trkpt>
      <trkpt lat="47.25198" lon="6.81306">
        <ele>835.2</ele>
        <time>2020-08-29T09:01:45Z</time>
      </trkpt>
      <trkpt lat="47.25199" lon="6.81307">
        <ele>835.6</ele>
        <time>2020-08-29T09:01:46Z</time>
      </trkpt>
      <trkpt lat="47.252" lon="6.81307">
        <ele>836</ele>
        <time>2020-08-29T09:01:47Z</time>
      </trkpt>
      <trkpt lat="47.25207" lon="6.81308">
        <ele>836.4</ele>
        <time>2020-08-29T09:01:52Z</time>
      </trkpt>
      <trkpt lat="47.25208" lon="6.81309">
        <ele>836.8</ele>
        <time>2020-08-29T09:01:53Z</time>
      </trkpt>
      <trkpt lat="47.25209" lon="6.81309">
        <ele>837.2</ele>
        <time>2020-08-29T09:01:54Z</time>
      </trkpt>
      <trkpt lat="47.2521" lon="6.81309">
        <ele>837.6</ele>
        <time>2020-08-29T09:01:55Z</time>
      </trkpt>
      <trkpt lat="47.25211" lon="6.8131">
        <ele>838.2</ele>
        <time>2020-08-29T09:01:56Z</time>
      </trkpt>
      <trkpt lat="47.25216" lon="6.81313">
        <ele>838.2</ele>
        <time>2020-08-29T09:02:00Z</time>
      </trkpt>
      <trkpt lat="47.25222" lon="6.81317">
        <ele>838.2</ele>
        <time>2020-08-29T09:02:06Z</time>
      </trkpt>
      <trkpt lat="47.25222" lon="6.81318">
        <ele>838.2</ele>
        <time>2020-08-29T09:02:07Z</time>
      </trkpt>
      <trkpt lat="47.25227" lon="6.81322">
        <ele>838.6</ele>
        <time>2020-08-29T09:02:11Z</time>
      </trkpt>
      <trkpt lat="47.25228" lon="6.81323">
        <ele>839</ele>
        <time>2020-08-29T09:02:12Z</time>
      </trkpt>
      <trkpt lat="47.25229" lon="6.81324">
        <ele>839.4</ele>
        <time>2020-08-29T09:02:13Z</time>
      </trkpt>
      <trkpt lat="47.2523" lon="6.81325">
        <ele>839.8</ele>
        <time>2020-08-29T09:02:14Z</time>
      </trkpt>
      <trkpt lat="47.25232" lon="6.81326">
        <ele>840.2</ele>
        <time>2020-08-29T09:02:15Z</time>
      </trkpt>
      <trkpt lat="47.25241" lon="6.81333">
        <ele>840.2</ele>
        <time>2020-08-29T09:02:22Z</time>
      </trkpt>
      <trkpt lat="47.25246" lon="6.81338">
        <ele>840.2</ele>
        <time>2020-08-29T09:02:28Z</time>
      </trkpt>
      <trkpt lat="47.25254" lon="6.81344">
        <ele>840.6</ele>
        <time>2020-08-29T09:02:33Z</time>
      </trkpt>
      <trkpt lat="47.25256" lon="6.81345">
        <ele>841</ele>
        <time>2020-08-29T09:02:34Z</time>
      </trkpt>
      <trkpt lat="47.25257" lon="6.81347">
        <ele>841.4</ele>
        <time>2020-08-29T09:02:35Z</time>
      </trkpt>
      <trkpt lat="47.25259" lon="6.81348">
        <ele>841.8</ele>
        <time>2020-08-29T09:02:36Z</time>
      </trkpt>
      <trkpt lat="47.2526" lon="6.81349">
        <ele>842.2</ele>
        <time>2020-08-29T09:02:37Z</time>
      </trkpt>
      <trkpt lat="47.25264" lon="6.81354">
        <ele>842.2</ele>
        <time>2020-08-29T09:02:40Z</time>
      </trkpt>
      <trkpt lat="47.25269" lon="6.81359">
        <ele>842.2</ele>
        <time>2020-08-29T09:02:44Z</time>
      </trkpt>
      <trkpt lat="47.2527" lon="6.8136">
        <ele>843</ele>
        <time>2020-08-29T09:02:45Z</time>
      </trkpt>
      <trkpt lat="47.25271" lon="6.81362">
        <ele>843.4</ele>
        <time>2020-08-29T09:02:46Z</time>
      </trkpt>
      <trkpt lat="47.25272" lon="6.81363">
        <ele>843.8</ele>
        <time>2020-08-29T09:02:47Z</time>
      </trkpt>
      <trkpt lat="47.25273" lon="6.81365">
        <ele>844.2</ele>
        <time>2020-08-29T09:02:48Z</time>
      </trkpt>
      <trkpt lat="47.25277" lon="6.8137">
        <ele>844.2</ele>
        <time>2020-08-29T09:02:50Z</time>
      </trkpt>
      <trkpt lat="47.25283" lon="6.81378">
        <ele>844.2</ele>
        <time>2020-08-29T09:02:53Z</time>
      </trkpt>
      <trkpt lat="47.25286" lon="6.81382">
        <ele>844.6</ele>
        <time>2020-08-29T09:02:56Z</time>
      </trkpt>
      <trkpt lat="47.25287" lon="6.81384">
        <ele>845</ele>
        <time>2020-08-29T09:02:57Z</time>
      </trkpt>
      <trkpt lat="47.25288" lon="6.81385">
        <ele>845.6</ele>
        <time>2020-08-29T09:02:58Z</time>
      </trkpt>
      <trkpt lat="47.25289" lon="6.81387">
        <ele>846</ele>
        <time>2020-08-29T09:02:59Z</time>
      </trkpt>
      <trkpt lat="47.2529" lon="6.81389">
        <ele>846.4</ele>
        <time>2020-08-29T09:03:00Z</time>
      </trkpt>
      <trkpt lat="47.25291" lon="6.81391">
        <ele>846.4</ele>
        <time>2020-08-29T09:03:01Z</time>
      </trkpt>
      <trkpt lat="47.25296" lon="6.81397">
        <ele>846.8</ele>
        <time>2020-08-29T09:03:06Z</time>
      </trkpt>
      <trkpt lat="47.25297" lon="6.81398">
        <ele>847.2</ele>
        <time>2020-08-29T09:03:07Z</time>
      </trkpt>
      <trkpt lat="47.25297" lon="6.81399">
        <ele>847.6</ele>
        <time>2020-08-29T09:03:08Z</time>
      </trkpt>
      <trkpt lat="47.25298" lon="6.81401">
        <ele>848</ele>
        <time>2020-08-29T09:03:09Z</time>
      </trkpt>
      <trkpt lat="47.25299" lon="6.81403">
        <ele>848.4</ele>
        <time>2020-08-29T09:03:10Z</time>
      </trkpt>
      <trkpt lat="47.25302" lon="6.81412">
        <ele>848.4</ele>
        <time>2020-08-29T09:03:15Z</time>
      </trkpt>
      <trkpt lat="47.25302" lon="6.81414">
        <ele>848.4</ele>
        <time>2020-08-29T09:03:16Z</time>
      </trkpt>
      <trkpt lat="47.25302" lon="6.81416">
        <ele>848.8</ele>
        <time>2020-08-29T09:03:17Z</time>
      </trkpt>
      <trkpt lat="47.25303" lon="6.81417">
        <ele>849.2</ele>
        <time>2020-08-29T09:03:18Z</time>
      </trkpt>
      <trkpt lat="47.25304" lon="6.81419">
        <ele>849.8</ele>
        <time>2020-08-29T09:03:19Z</time>
      </trkpt>
      <trkpt lat="47.25304" lon="6.81421">
        <ele>850.2</ele>
        <time>2020-08-29T09:03:20Z</time>
      </trkpt>
      <trkpt lat="47.25305" lon="6.81422">
        <ele>850.6</ele>
        <time>2020-08-29T09:03:21Z</time>
      </trkpt>
      <trkpt lat="47.25307" lon="6.81428">
        <ele>850.6</ele>
        <time>2020-08-29T09:03:24Z</time>
      </trkpt>
      <trkpt lat="47.25311" lon="6.81437">
        <ele>851</ele>
        <time>2020-08-29T09:03:29Z</time>
      </trkpt>
      <trkpt lat="47.25312" lon="6.81439">
        <ele>851.4</ele>
        <time>2020-08-29T09:03:30Z</time>
      </trkpt>
      <trkpt lat="47.25313" lon="6.8144">
        <ele>851.8</ele>
        <time>2020-08-29T09:03:31Z</time>
      </trkpt>
      <trkpt lat="47.25314" lon="6.81442">
        <ele>852.2</ele>
        <time>2020-08-29T09:03:32Z</time>
      </trkpt>
      <trkpt lat="47.25314" lon="6.81443">
        <ele>852.6</ele>
        <time>2020-08-29T09:03:33Z</time>
      </trkpt>
      <trkpt lat="47.25319" lon="6.81455">
        <ele>852.6</ele>
        <time>2020-08-29T09:03:40Z</time>
      </trkpt>
      <trkpt lat="47.2532" lon="6.81456">
        <ele>853</ele>
        <time>2020-08-29T09:03:41Z</time>
      </trkpt>
      <trkpt lat="47.25321" lon="6.81458">
        <ele>853.4</ele>
        <time>2020-08-29T09:03:42Z</time>
      </trkpt>
      <trkpt lat="47.25321" lon="6.8146">
        <ele>854</ele>
        <time>2020-08-29T09:03:43Z</time>
      </trkpt>
      <trkpt lat="47.25322" lon="6.81461">
        <ele>854.4</ele>
        <time>2020-08-29T09:03:44Z</time>
      </trkpt>
      <trkpt lat="47.25322" lon="6.81463">
        <ele>854.8</ele>
        <time>2020-08-29T09:03:45Z</time>
      </trkpt>
      <trkpt lat="47.25323" lon="6.81466">
        <ele>854.8</ele>
        <time>2020-08-29T09:03:47Z</time>
      </trkpt>
      <trkpt lat="47.25325" lon="6.81476">
        <ele>854.8</ele>
        <time>2020-08-29T09:03:54Z</time>
      </trkpt>
      <trkpt lat="47.25326" lon="6.8148">
        <ele>855.2</ele>
        <time>2020-08-29T09:03:56Z</time>
      </trkpt>
      <trkpt lat="47.25326" lon="6.81481">
        <ele>855.6</ele>
        <time>2020-08-29T09:03:57Z</time>
      </trkpt>
      <trkpt lat="47.25327" lon="6.81483">
        <ele>856</ele>
        <time>2020-08-29T09:03:58Z</time>
      </trkpt>
      <trkpt lat="47.25328" lon="6.81483">
        <ele>856.4</ele>
        <time>2020-08-29T09:03:59Z</time>
      </trkpt>
      <trkpt lat="47.25329" lon="6.81485">
        <ele>856.8</ele>
        <time>2020-08-29T09:04:00Z</time>
      </trkpt>
      <trkpt lat="47.25329" lon="6.81486">
        <ele>856.8</ele>
        <time>2020-08-29T09:04:01Z</time>
      </trkpt>
      <trkpt lat="47.25332" lon="6.81493">
        <ele>856.8</ele>
        <time>2020-08-29T09:04:05Z</time>
      </trkpt>
      <trkpt lat="47.25334" lon="6.81497">
        <ele>856.8</ele>
        <time>2020-08-29T09:04:07Z</time>
      </trkpt>
      <trkpt lat="47.25338" lon="6.81506">
        <ele>857.2</ele>
        <time>2020-08-29T09:04:13Z</time>
      </trkpt>
      <trkpt lat="47.25338" lon="6.81508">
        <ele>857.8</ele>
        <time>2020-08-29T09:04:14Z</time>
      </trkpt>
      <trkpt lat="47.25339" lon="6.8151">
        <ele>858.2</ele>
        <time>2020-08-29T09:04:15Z</time>
      </trkpt>
      <trkpt lat="47.2534" lon="6.8151">
        <ele>858.6</ele>
        <time>2020-08-29T09:04:16Z</time>
      </trkpt>
      <trkpt lat="47.25341" lon="6.81512">
        <ele>859</ele>
        <time>2020-08-29T09:04:17Z</time>
      </trkpt>
      <trkpt lat="47.25344" lon="6.81517">
        <ele>859</ele>
        <time>2020-08-29T09:04:20Z</time>
      </trkpt>
      <trkpt lat="47.25345" lon="6.81519">
        <ele>859</ele>
        <time>2020-08-29T09:04:21Z</time>
      </trkpt>
      <trkpt lat="47.25349" lon="6.8153">
        <ele>859.4</ele>
        <time>2020-08-29T09:04:27Z</time>
      </trkpt>
      <trkpt lat="47.2535" lon="6.81532">
        <ele>859.8</ele>
        <time>2020-08-29T09:04:28Z</time>
      </trkpt>
      <trkpt lat="47.25352" lon="6.81536">
        <ele>860.2</ele>
        <time>2020-08-29T09:04:29Z</time>
      </trkpt>
      <trkpt lat="47.25353" lon="6.81539">
        <ele>860.6</ele>
        <time>2020-08-29T09:04:30Z</time>
      </trkpt>
      <trkpt lat="47.25355" lon="6.81541">
        <ele>861</ele>
        <time>2020-08-29T09:04:31Z</time>
      </trkpt>
      <trkpt lat="47.25358" lon="6.81546">
        <ele>861</ele>
        <time>2020-08-29T09:04:33Z</time>
      </trkpt>
      <trkpt lat="47.25359" lon="6.81547">
        <ele>861</ele>
        <time>2020-08-29T09:04:34Z</time>
      </trkpt>
      <trkpt lat="47.25361" lon="6.81553">
        <ele>861</ele>
        <time>2020-08-29T09:04:37Z</time>
      </trkpt>
      <trkpt lat="47.25365" lon="6.81562">
        <ele>861</ele>
        <time>2020-08-29T09:04:41Z</time>
      </trkpt>
      <trkpt lat="47.25366" lon="6.81564">
        <ele>861.4</ele>
        <time>2020-08-29T09:04:42Z</time>
      </trkpt>
      <trkpt lat="47.25367" lon="6.81566">
        <ele>861.8</ele>
        <time>2020-08-29T09:04:43Z</time>
      </trkpt>
      <trkpt lat="47.25367" lon="6.81568">
        <ele>862.2</ele>
        <time>2020-08-29T09:04:44Z</time>
      </trkpt>
      <trkpt lat="47.25369" lon="6.8157">
        <ele>862.6</ele>
        <time>2020-08-29T09:04:45Z</time>
      </trkpt>
      <trkpt lat="47.2537" lon="6.81571">
        <ele>863</ele>
        <time>2020-08-29T09:04:46Z</time>
      </trkpt>
      <trkpt lat="47.25374" lon="6.81576">
        <ele>863</ele>
        <time>2020-08-29T09:04:49Z</time>
      </trkpt>
      <trkpt lat="47.25381" lon="6.81591">
        <ele>863</ele>
        <time>2020-08-29T09:04:57Z</time>
      </trkpt>
      <trkpt lat="47.25382" lon="6.81593">
        <ele>863.4</ele>
        <time>2020-08-29T09:04:58Z</time>
      </trkpt>
      <trkpt lat="47.25383" lon="6.81594">
        <ele>863.8</ele>
        <time>2020-08-29T09:04:59Z</time>
      </trkpt>
      <trkpt lat="47.25384" lon="6.81595">
        <ele>864.2</ele>
        <time>2020-08-29T09:05:00Z</time>
      </trkpt>
      <trkpt lat="47.25385" lon="6.81597">
        <ele>864.6</ele>
        <time>2020-08-29T09:05:01Z</time>
      </trkpt>
      <trkpt lat="47.25385" lon="6.81598">
        <ele>865</ele>
        <time>2020-08-29T09:05:02Z</time>
      </trkpt>
      <trkpt lat="47.25387" lon="6.816">
        <ele>865</ele>
        <time>2020-08-29T09:05:04Z</time>
      </trkpt>
      <trkpt lat="47.25394" lon="6.81611">
        <ele>865</ele>
        <time>2020-08-29T09:05:11Z</time>
      </trkpt>
      <trkpt lat="47.25401" lon="6.81619">
        <ele>865.6</ele>
        <time>2020-08-29T09:05:16Z</time>
      </trkpt>
      <trkpt lat="47.25402" lon="6.8162">
        <ele>866</ele>
        <time>2020-08-29T09:05:17Z</time>
      </trkpt>
      <trkpt lat="47.25403" lon="6.81621">
        <ele>866.4</ele>
        <time>2020-08-29T09:05:18Z</time>
      </trkpt>
      <trkpt lat="47.25405" lon="6.81623">
        <ele>866.8</ele>
        <time>2020-08-29T09:05:19Z</time>
      </trkpt>
      <trkpt lat="47.25406" lon="6.81624">
        <ele>867.2</ele>
        <time>2020-08-29T09:05:20Z</time>
      </trkpt>
      <trkpt lat="47.2541" lon="6.81629">
        <ele>867.2</ele>
        <time>2020-08-29T09:05:24Z</time>
      </trkpt>
      <trkpt lat="47.25412" lon="6.81632">
        <ele>867.2</ele>
        <time>2020-08-29T09:05:26Z</time>
      </trkpt>
      <trkpt lat="47.25415" lon="6.81639">
        <ele>867.6</ele>
        <time>2020-08-29T09:05:30Z</time>
      </trkpt>
      <trkpt lat="47.25416" lon="6.8164">
        <ele>868</ele>
        <time>2020-08-29T09:05:31Z</time>
      </trkpt>
      <trkpt lat="47.25417" lon="6.81642">
        <ele>868.4</ele>
        <time>2020-08-29T09:05:32Z</time>
      </trkpt>
      <trkpt lat="47.25418" lon="6.81643">
        <ele>868.8</ele>
        <time>2020-08-29T09:05:33Z</time>
      </trkpt>
      <trkpt lat="47.25419" lon="6.81644">
        <ele>869.2</ele>
        <time>2020-08-29T09:05:34Z</time>
      </trkpt>
      <trkpt lat="47.2542" lon="6.81649">
        <ele>869.2</ele>
        <time>2020-08-29T09:05:37Z</time>
      </trkpt>
      <trkpt lat="47.25423" lon="6.81658">
        <ele>869.2</ele>
        <time>2020-08-29T09:05:43Z</time>
      </trkpt>
      <trkpt lat="47.25424" lon="6.8166">
        <ele>869.6</ele>
        <time>2020-08-29T09:05:44Z</time>
      </trkpt>
      <trkpt lat="47.25424" lon="6.81662">
        <ele>870</ele>
        <time>2020-08-29T09:05:45Z</time>
      </trkpt>
      <trkpt lat="47.25424" lon="6.81664">
        <ele>870.4</ele>
        <time>2020-08-29T09:05:46Z</time>
      </trkpt>
      <trkpt lat="47.25424" lon="6.81666">
        <ele>870.8</ele>
        <time>2020-08-29T09:05:47Z</time>
      </trkpt>
      <trkpt lat="47.25424" lon="6.81667">
        <ele>871.2</ele>
        <time>2020-08-29T09:05:48Z</time>
      </trkpt>
      <trkpt lat="47.25425" lon="6.81668">
        <ele>871.2</ele>
        <time>2020-08-29T09:05:49Z</time>
      </trkpt>
      <trkpt lat="47.25426" lon="6.81672">
        <ele>871.2</ele>
        <time>2020-08-29T09:05:52Z</time>
      </trkpt>
      <trkpt lat="47.2543" lon="6.81678">
        <ele>871.2</ele>
        <time>2020-08-29T09:05:56Z</time>
      </trkpt>
      <trkpt lat="47.25431" lon="6.81679">
        <ele>871.2</ele>
        <time>2020-08-29T09:05:57Z</time>
      </trkpt>
      <trkpt lat="47.25434" lon="6.81687">
        <ele>872</ele>
        <time>2020-08-29T09:06:03Z</time>
      </trkpt>
      <trkpt lat="47.25435" lon="6.81687">
        <ele>872.4</ele>
        <time>2020-08-29T09:06:04Z</time>
      </trkpt>
      <trkpt lat="47.25436" lon="6.81689">
        <ele>873</ele>
        <time>2020-08-29T09:06:05Z</time>
      </trkpt>
      <trkpt lat="47.25436" lon="6.81689">
        <ele>873.4</ele>
        <time>2020-08-29T09:06:06Z</time>
      </trkpt>
      <trkpt lat="47.25439" lon="6.81692">
        <ele>873.4</ele>
        <time>2020-08-29T09:06:09Z</time>
      </trkpt>
      <trkpt lat="47.2544" lon="6.81694">
        <ele>873.4</ele>
        <time>2020-08-29T09:06:11Z</time>
      </trkpt>
      <trkpt lat="47.25441" lon="6.81694">
        <ele>873.4</ele>
        <time>2020-08-29T09:06:12Z</time>
      </trkpt>
      <trkpt lat="47.25443" lon="6.81696">
        <ele>873.4</ele>
        <time>2020-08-29T09:06:15Z</time>
      </trkpt>
      <trkpt lat="47.25447" lon="6.81698">
        <ele>873.8</ele>
        <time>2020-08-29T09:06:18Z</time>
      </trkpt>
      <trkpt lat="47.25448" lon="6.81699">
        <ele>874.2</ele>
        <time>2020-08-29T09:06:19Z</time>
      </trkpt>
      <trkpt lat="47.25449" lon="6.817">
        <ele>874.6</ele>
        <time>2020-08-29T09:06:20Z</time>
      </trkpt>
      <trkpt lat="47.2545" lon="6.81702">
        <ele>875</ele>
        <time>2020-08-29T09:06:21Z</time>
      </trkpt>
      <trkpt lat="47.2545" lon="6.81703">
        <ele>875.4</ele>
        <time>2020-08-29T09:06:22Z</time>
      </trkpt>
      <trkpt lat="47.25453" lon="6.8171">
        <ele>875.4</ele>
        <time>2020-08-29T09:06:28Z</time>
      </trkpt>
      <trkpt lat="47.25454" lon="6.81715">
        <ele>875.8</ele>
        <time>2020-08-29T09:06:31Z</time>
      </trkpt>
      <trkpt lat="47.25455" lon="6.81716">
        <ele>876.2</ele>
        <time>2020-08-29T09:06:32Z</time>
      </trkpt>
      <trkpt lat="47.25455" lon="6.81718">
        <ele>876.6</ele>
        <time>2020-08-29T09:06:33Z</time>
      </trkpt>
      <trkpt lat="47.25455" lon="6.8172">
        <ele>877</ele>
        <time>2020-08-29T09:06:34Z</time>
      </trkpt>
      <trkpt lat="47.25456" lon="6.81721">
        <ele>877.4</ele>
        <time>2020-08-29T09:06:35Z</time>
      </trkpt>
      <trkpt lat="47.25457" lon="6.81724">
        <ele>877.4</ele>
        <time>2020-08-29T09:06:36Z</time>
      </trkpt>
      <trkpt lat="47.25464" lon="6.81735">
        <ele>877.4</ele>
        <time>2020-08-29T09:06:41Z</time>
      </trkpt>
      <trkpt lat="47.25467" lon="6.81741">
        <ele>877.4</ele>
        <time>2020-08-29T09:06:44Z</time>
      </trkpt>
      <trkpt lat="47.25469" lon="6.81746">
        <ele>877.4</ele>
        <time>2020-08-29T09:06:47Z</time>
      </trkpt>
      <trkpt lat="47.2547" lon="6.8175">
        <ele>877.4</ele>
        <time>2020-08-29T09:06:49Z</time>
      </trkpt>
      <trkpt lat="47.2547" lon="6.81758">
        <ele>877.4</ele>
        <time>2020-08-29T09:06:53Z</time>
      </trkpt>
      <trkpt lat="47.25473" lon="6.81772">
        <ele>877.4</ele>
        <time>2020-08-29T09:06:58Z</time>
      </trkpt>
      <trkpt lat="47.25477" lon="6.81781">
        <ele>878</ele>
        <time>2020-08-29T09:07:03Z</time>
      </trkpt>
      <trkpt lat="47.25477" lon="6.81783">
        <ele>878.4</ele>
        <time>2020-08-29T09:07:04Z</time>
      </trkpt>
      <trkpt lat="47.25478" lon="6.81785">
        <ele>878.8</ele>
        <time>2020-08-29T09:07:05Z</time>
      </trkpt>
      <trkpt lat="47.25478" lon="6.81788">
        <ele>879.2</ele>
        <time>2020-08-29T09:07:06Z</time>
      </trkpt>
      <trkpt lat="47.25478" lon="6.8179">
        <ele>879.6</ele>
        <time>2020-08-29T09:07:07Z</time>
      </trkpt>
      <trkpt lat="47.25479" lon="6.81798">
        <ele>879.6</ele>
        <time>2020-08-29T09:07:10Z</time>
      </trkpt>
      <trkpt lat="47.25481" lon="6.81808">
        <ele>879.6</ele>
        <time>2020-08-29T09:07:16Z</time>
      </trkpt>
      <trkpt lat="47.25481" lon="6.81811">
        <ele>879.6</ele>
        <time>2020-08-29T09:07:17Z</time>
      </trkpt>
      <trkpt lat="47.25481" lon="6.81812">
        <ele>879.6</ele>
        <time>2020-08-29T09:07:18Z</time>
      </trkpt>
      <trkpt lat="47.25484" lon="6.8182">
        <ele>879.6</ele>
        <time>2020-08-29T09:07:21Z</time>
      </trkpt>
      <trkpt lat="47.25485" lon="6.81827">
        <ele>879.6</ele>
        <time>2020-08-29T09:07:24Z</time>
      </trkpt>
      <trkpt lat="47.25486" lon="6.81837">
        <ele>879.6</ele>
        <time>2020-08-29T09:07:28Z</time>
      </trkpt>
      <trkpt lat="47.25488" lon="6.81844">
        <ele>879.6</ele>
        <time>2020-08-29T09:07:30Z</time>
      </trkpt>
      <trkpt lat="47.25489" lon="6.81855">
        <ele>879.6</ele>
        <time>2020-08-29T09:07:33Z</time>
      </trkpt>
      <trkpt lat="47.25493" lon="6.81875">
        <ele>879.6</ele>
        <time>2020-08-29T09:07:38Z</time>
      </trkpt>
      <trkpt lat="47.25497" lon="6.81891">
        <ele>879.6</ele>
        <time>2020-08-29T09:07:43Z</time>
      </trkpt>
      <trkpt lat="47.25498" lon="6.81912">
        <ele>879.6</ele>
        <time>2020-08-29T09:07:48Z</time>
      </trkpt>
      <trkpt lat="47.25498" lon="6.81938">
        <ele>879.6</ele>
        <time>2020-08-29T09:07:53Z</time>
      </trkpt>
      <trkpt lat="47.25499" lon="6.81956">
        <ele>879.2</ele>
        <time>2020-08-29T09:07:56Z</time>
      </trkpt>
      <trkpt lat="47.255" lon="6.81962">
        <ele>878.8</ele>
        <time>2020-08-29T09:07:57Z</time>
      </trkpt>
      <trkpt lat="47.255" lon="6.81969">
        <ele>878.4</ele>
        <time>2020-08-29T09:07:58Z</time>
      </trkpt>
      <trkpt lat="47.25502" lon="6.81975">
        <ele>878</ele>
        <time>2020-08-29T09:07:59Z</time>
      </trkpt>
      <trkpt lat="47.25505" lon="6.81981">
        <ele>877.4</ele>
        <time>2020-08-29T09:08:00Z</time>
      </trkpt>
      <trkpt lat="47.25514" lon="6.82007">
        <ele>877.4</ele>
        <time>2020-08-29T09:08:05Z</time>
      </trkpt>
      <trkpt lat="47.25521" lon="6.82039">
        <ele>877.4</ele>
        <time>2020-08-29T09:08:11Z</time>
      </trkpt>
      <trkpt lat="47.25529" lon="6.82068">
        <ele>877.4</ele>
        <time>2020-08-29T09:08:16Z</time>
      </trkpt>
      <trkpt lat="47.25536" lon="6.82098">
        <ele>877.4</ele>
        <time>2020-08-29T09:08:22Z</time>
      </trkpt>
      <trkpt lat="47.25541" lon="6.82119">
        <ele>877.4</ele>
        <time>2020-08-29T09:08:26Z</time>
      </trkpt>
      <trkpt lat="47.25548" lon="6.82143">
        <ele>877.4</ele>
        <time>2020-08-29T09:08:31Z</time>
      </trkpt>
      <trkpt lat="47.25554" lon="6.82166">
        <ele>877.4</ele>
        <time>2020-08-29T09:08:36Z</time>
      </trkpt>
      <trkpt lat="47.25564" lon="6.82191">
        <ele>877.4</ele>
        <time>2020-08-29T09:08:42Z</time>
      </trkpt>
      <trkpt lat="47.25571" lon="6.82211">
        <ele>877.4</ele>
        <time>2020-08-29T09:08:47Z</time>
      </trkpt>
      <trkpt lat="47.25575" lon="6.82231">
        <ele>877.4</ele>
        <time>2020-08-29T09:08:52Z</time>
      </trkpt>
      <trkpt lat="47.2558" lon="6.82248">
        <ele>877.4</ele>
        <time>2020-08-29T09:08:56Z</time>
      </trkpt>
      <trkpt lat="47.25592" lon="6.82272">
        <ele>877.4</ele>
        <time>2020-08-29T09:09:02Z</time>
      </trkpt>
      <trkpt lat="47.256" lon="6.82292">
        <ele>877.4</ele>
        <time>2020-08-29T09:09:07Z</time>
      </trkpt>
      <trkpt lat="47.25608" lon="6.8231">
        <ele>877.8</ele>
        <time>2020-08-29T09:09:12Z</time>
      </trkpt>
      <trkpt lat="47.2561" lon="6.82314">
        <ele>878.2</ele>
        <time>2020-08-29T09:09:13Z</time>
      </trkpt>
      <trkpt lat="47.25612" lon="6.82317">
        <ele>878.6</ele>
        <time>2020-08-29T09:09:14Z</time>
      </trkpt>
      <trkpt lat="47.25613" lon="6.82321">
        <ele>879</ele>
        <time>2020-08-29T09:09:15Z</time>
      </trkpt>
      <trkpt lat="47.25614" lon="6.82325">
        <ele>879.4</ele>
        <time>2020-08-29T09:09:16Z</time>
      </trkpt>
      <trkpt lat="47.25617" lon="6.82333">
        <ele>879.4</ele>
        <time>2020-08-29T09:09:18Z</time>
      </trkpt>
      <trkpt lat="47.25628" lon="6.8236">
        <ele>879.4</ele>
        <time>2020-08-29T09:09:25Z</time>
      </trkpt>
      <trkpt lat="47.25635" lon="6.82377">
        <ele>879.4</ele>
        <time>2020-08-29T09:09:30Z</time>
      </trkpt>
      <trkpt lat="47.25644" lon="6.82392">
        <ele>879.4</ele>
        <time>2020-08-29T09:09:36Z</time>
      </trkpt>
      <trkpt lat="47.25645" lon="6.82394">
        <ele>879.8</ele>
        <time>2020-08-29T09:09:37Z</time>
      </trkpt>
      <trkpt lat="47.25646" lon="6.82395">
        <ele>880.4</ele>
        <time>2020-08-29T09:09:38Z</time>
      </trkpt>
      <trkpt lat="47.25647" lon="6.82397">
        <ele>880.8</ele>
        <time>2020-08-29T09:09:39Z</time>
      </trkpt>
      <trkpt lat="47.25647" lon="6.82398">
        <ele>881.2</ele>
        <time>2020-08-29T09:09:40Z</time>
      </trkpt>
      <trkpt lat="47.25648" lon="6.824">
        <ele>881.6</ele>
        <time>2020-08-29T09:09:41Z</time>
      </trkpt>
      <trkpt lat="47.25648" lon="6.82403">
        <ele>881.6</ele>
        <time>2020-08-29T09:09:42Z</time>
      </trkpt>
      <trkpt lat="47.25653" lon="6.82421">
        <ele>881.6</ele>
        <time>2020-08-29T09:09:48Z</time>
      </trkpt>
      <trkpt lat="47.25658" lon="6.82439">
        <ele>881.6</ele>
        <time>2020-08-29T09:09:53Z</time>
      </trkpt>
      <trkpt lat="47.25665" lon="6.82463">
        <ele>881.6</ele>
        <time>2020-08-29T09:09:59Z</time>
      </trkpt>
      <trkpt lat="47.25668" lon="6.82477">
        <ele>881.6</ele>
        <time>2020-08-29T09:10:03Z</time>
      </trkpt>
      <trkpt lat="47.25675" lon="6.82498">
        <ele>881.6</ele>
        <time>2020-08-29T09:10:08Z</time>
      </trkpt>
      <trkpt lat="47.25681" lon="6.82505">
        <ele>881.6</ele>
        <time>2020-08-29T09:10:12Z</time>
      </trkpt>
      <trkpt lat="47.25681" lon="6.82509">
        <ele>881.2</ele>
        <time>2020-08-29T09:10:14Z</time>
      </trkpt>
      <trkpt lat="47.25681" lon="6.8251">
        <ele>880.6</ele>
        <time>2020-08-29T09:10:15Z</time>
      </trkpt>
      <trkpt lat="47.25681" lon="6.82513">
        <ele>880.2</ele>
        <time>2020-08-29T09:10:16Z</time>
      </trkpt>
      <trkpt lat="47.2568" lon="6.82516">
        <ele>879.8</ele>
        <time>2020-08-29T09:10:17Z</time>
      </trkpt>
      <trkpt lat="47.25679" lon="6.8252">
        <ele>879.4</ele>
        <time>2020-08-29T09:10:18Z</time>
      </trkpt>
      <trkpt lat="47.25678" lon="6.82528">
        <ele>879.4</ele>
        <time>2020-08-29T09:10:20Z</time>
      </trkpt>
      <trkpt lat="47.25682" lon="6.82536">
        <ele>879.4</ele>
        <time>2020-08-29T09:10:22Z</time>
      </trkpt>
      <trkpt lat="47.25687" lon="6.82546">
        <ele>879.4</ele>
        <time>2020-08-29T09:10:25Z</time>
      </trkpt>
      <trkpt lat="47.25694" lon="6.82559">
        <ele>879.4</ele>
        <time>2020-08-29T09:10:29Z</time>
      </trkpt>
      <trkpt lat="47.25705" lon="6.82576">
        <ele>879</ele>
        <time>2020-08-29T09:10:34Z</time>
      </trkpt>
      <trkpt lat="47.25707" lon="6.8258">
        <ele>878.6</ele>
        <time>2020-08-29T09:10:35Z</time>
      </trkpt>
      <trkpt lat="47.2571" lon="6.82585">
        <ele>878.2</ele>
        <time>2020-08-29T09:10:36Z</time>
      </trkpt>
      <trkpt lat="47.25712" lon="6.8259">
        <ele>877.8</ele>
        <time>2020-08-29T09:10:37Z</time>
      </trkpt>
      <trkpt lat="47.25716" lon="6.82595">
        <ele>877.4</ele>
        <time>2020-08-29T09:10:38Z</time>
      </trkpt>
      <trkpt lat="47.25719" lon="6.826">
        <ele>877</ele>
        <time>2020-08-29T09:10:39Z</time>
      </trkpt>
      <trkpt lat="47.25723" lon="6.82606">
        <ele>876.4</ele>
        <time>2020-08-29T09:10:40Z</time>
      </trkpt>
      <trkpt lat="47.25728" lon="6.82612">
        <ele>876</ele>
        <time>2020-08-29T09:10:41Z</time>
      </trkpt>
      <trkpt lat="47.25732" lon="6.82618">
        <ele>875.6</ele>
        <time>2020-08-29T09:10:42Z</time>
      </trkpt>
      <trkpt lat="47.25737" lon="6.82625">
        <ele>875</ele>
        <time>2020-08-29T09:10:43Z</time>
      </trkpt>
      <trkpt lat="47.25741" lon="6.8263">
        <ele>874.4</ele>
        <time>2020-08-29T09:10:44Z</time>
      </trkpt>
      <trkpt lat="47.25745" lon="6.82636">
        <ele>874</ele>
        <time>2020-08-29T09:10:45Z</time>
      </trkpt>
      <trkpt lat="47.25749" lon="6.82642">
        <ele>873.4</ele>
        <time>2020-08-29T09:10:46Z</time>
      </trkpt>
      <trkpt lat="47.25753" lon="6.82647">
        <ele>872.8</ele>
        <time>2020-08-29T09:10:47Z</time>
      </trkpt>
      <trkpt lat="47.25757" lon="6.82653">
        <ele>872.8</ele>
        <time>2020-08-29T09:10:48Z</time>
      </trkpt>
      <trkpt lat="47.25764" lon="6.82665">
        <ele>872.8</ele>
        <time>2020-08-29T09:10:50Z</time>
      </trkpt>
      <trkpt lat="47.25768" lon="6.82671">
        <ele>872.4</ele>
        <time>2020-08-29T09:10:51Z</time>
      </trkpt>
      <trkpt lat="47.25771" lon="6.82678">
        <ele>872</ele>
        <time>2020-08-29T09:10:52Z</time>
      </trkpt>
      <trkpt lat="47.25776" lon="6.82685">
        <ele>871.6</ele>
        <time>2020-08-29T09:10:53Z</time>
      </trkpt>
      <trkpt lat="47.2578" lon="6.82692">
        <ele>871.2</ele>
        <time>2020-08-29T09:10:54Z</time>
      </trkpt>
      <trkpt lat="47.25784" lon="6.82698">
        <ele>870.8</ele>
        <time>2020-08-29T09:10:55Z</time>
      </trkpt>
      <trkpt lat="47.25795" lon="6.82715">
        <ele>870.2</ele>
        <time>2020-08-29T09:10:58Z</time>
      </trkpt>
      <trkpt lat="47.25798" lon="6.82721">
        <ele>869.4</ele>
        <time>2020-08-29T09:10:59Z</time>
      </trkpt>
      <trkpt lat="47.25801" lon="6.82727">
        <ele>869</ele>
        <time>2020-08-29T09:11:00Z</time>
      </trkpt>
      <trkpt lat="47.25804" lon="6.82732">
        <ele>868.6</ele>
        <time>2020-08-29T09:11:01Z</time>
      </trkpt>
      <trkpt lat="47.25806" lon="6.82737">
        <ele>868.6</ele>
        <time>2020-08-29T09:11:02Z</time>
      </trkpt>
      <trkpt lat="47.25818" lon="6.82758">
        <ele>868.6</ele>
        <time>2020-08-29T09:11:08Z</time>
      </trkpt>
      <trkpt lat="47.25829" lon="6.8277">
        <ele>868.6</ele>
        <time>2020-08-29T09:11:14Z</time>
      </trkpt>
      <trkpt lat="47.25832" lon="6.82775">
        <ele>868.6</ele>
        <time>2020-08-29T09:11:18Z</time>
      </trkpt>
      <trkpt lat="47.25832" lon="6.82775">
        <ele>869.8</ele>
        <time>2020-08-29T09:11:22Z</time>
      </trkpt>
      <trkpt lat="47.25832" lon="6.82775">
        <ele>870.6</ele>
        <time>2020-08-29T09:11:23Z</time>
      </trkpt>
      <trkpt lat="47.25832" lon="6.82775">
        <ele>870.6</ele>
        <time>2020-08-29T09:11:24Z</time>
      </trkpt>
      <trkpt lat="47.25832" lon="6.82775">
        <ele>870.6</ele>
        <time>2020-08-29T09:11:25Z</time>
      </trkpt>
      <trkpt lat="47.25832" lon="6.82775">
        <ele>870.6</ele>
        <time>2020-08-29T09:11:29Z</time>
      </trkpt>
      <trkpt lat="47.25832" lon="6.8278">
        <ele>870.6</ele>
        <time>2020-08-29T09:11:33Z</time>
      </trkpt>
      <trkpt lat="47.25832" lon="6.8278">
        <ele>870.6</ele>
        <time>2020-08-29T09:12:10Z</time>
      </trkpt>
      <trkpt lat="47.25834" lon="6.82789">
        <ele>870.6</ele>
        <time>2020-08-29T09:12:14Z</time>
      </trkpt>
      <trkpt lat="47.25837" lon="6.82806">
        <ele>870.6</ele>
        <time>2020-08-29T09:12:19Z</time>
      </trkpt>
      <trkpt lat="47.25838" lon="6.82811">
        <ele>870.2</ele>
        <time>2020-08-29T09:12:20Z</time>
      </trkpt>
      <trkpt lat="47.25838" lon="6.82816">
        <ele>869.8</ele>
        <time>2020-08-29T09:12:21Z</time>
      </trkpt>
      <trkpt lat="47.25838" lon="6.82822">
        <ele>869.4</ele>
        <time>2020-08-29T09:12:22Z</time>
      </trkpt>
      <trkpt lat="47.2584" lon="6.82828">
        <ele>869</ele>
        <time>2020-08-29T09:12:23Z</time>
      </trkpt>
      <trkpt lat="47.25843" lon="6.82832">
        <ele>868.6</ele>
        <time>2020-08-29T09:12:24Z</time>
      </trkpt>
      <trkpt lat="47.25847" lon="6.82836">
        <ele>868.2</ele>
        <time>2020-08-29T09:12:25Z</time>
      </trkpt>
      <trkpt lat="47.2585" lon="6.82839">
        <ele>867.8</ele>
        <time>2020-08-29T09:12:26Z</time>
      </trkpt>
      <trkpt lat="47.25852" lon="6.82841">
        <ele>867.2</ele>
        <time>2020-08-29T09:12:27Z</time>
      </trkpt>
      <trkpt lat="47.25854" lon="6.82842">
        <ele>866.8</ele>
        <time>2020-08-29T09:12:28Z</time>
      </trkpt>
      <trkpt lat="47.25856" lon="6.82844">
        <ele>866.4</ele>
        <time>2020-08-29T09:12:29Z</time>
      </trkpt>
      <trkpt lat="47.25862" lon="6.82851">
        <ele>866.8</ele>
        <time>2020-08-29T09:12:33Z</time>
      </trkpt>
      <trkpt lat="47.25863" lon="6.82853">
        <ele>867.2</ele>
        <time>2020-08-29T09:12:34Z</time>
      </trkpt>
      <trkpt lat="47.25865" lon="6.82855">
        <ele>867.8</ele>
        <time>2020-08-29T09:12:35Z</time>
      </trkpt>
      <trkpt lat="47.25866" lon="6.82857">
        <ele>868.2</ele>
        <time>2020-08-29T09:12:36Z</time>
      </trkpt>
      <trkpt lat="47.25867" lon="6.82859">
        <ele>868.6</ele>
        <time>2020-08-29T09:12:37Z</time>
      </trkpt>
      <trkpt lat="47.25871" lon="6.82863">
        <ele>868.6</ele>
        <time>2020-08-29T09:12:40Z</time>
      </trkpt>
      <trkpt lat="47.25874" lon="6.82867">
        <ele>869</ele>
        <time>2020-08-29T09:12:42Z</time>
      </trkpt>
      <trkpt lat="47.25876" lon="6.82869">
        <ele>869.4</ele>
        <time>2020-08-29T09:12:43Z</time>
      </trkpt>
      <trkpt lat="47.25877" lon="6.82871">
        <ele>869.8</ele>
        <time>2020-08-29T09:12:44Z</time>
      </trkpt>
      <trkpt lat="47.25879" lon="6.82873">
        <ele>870.2</ele>
        <time>2020-08-29T09:12:45Z</time>
      </trkpt>
      <trkpt lat="47.2588" lon="6.82874">
        <ele>870.6</ele>
        <time>2020-08-29T09:12:46Z</time>
      </trkpt>
      <trkpt lat="47.25882" lon="6.82875">
        <ele>870.6</ele>
        <time>2020-08-29T09:12:47Z</time>
      </trkpt>
      <trkpt lat="47.25891" lon="6.82886">
        <ele>871.2</ele>
        <time>2020-08-29T09:12:53Z</time>
      </trkpt>
      <trkpt lat="47.25893" lon="6.82887">
        <ele>871.6</ele>
        <time>2020-08-29T09:12:54Z</time>
      </trkpt>
      <trkpt lat="47.25894" lon="6.82889">
        <ele>872</ele>
        <time>2020-08-29T09:12:55Z</time>
      </trkpt>
      <trkpt lat="47.25896" lon="6.82891">
        <ele>872.4</ele>
        <time>2020-08-29T09:12:56Z</time>
      </trkpt>
      <trkpt lat="47.25897" lon="6.82893">
        <ele>872.8</ele>
        <time>2020-08-29T09:12:57Z</time>
      </trkpt>
      <trkpt lat="47.259" lon="6.82898">
        <ele>872.8</ele>
        <time>2020-08-29T09:13:00Z</time>
      </trkpt>
      <trkpt lat="47.25905" lon="6.82903">
        <ele>873.6</ele>
        <time>2020-08-29T09:13:04Z</time>
      </trkpt>
      <trkpt lat="47.25906" lon="6.82904">
        <ele>874.2</ele>
        <time>2020-08-29T09:13:05Z</time>
      </trkpt>
      <trkpt lat="47.25908" lon="6.82906">
        <ele>874.6</ele>
        <time>2020-08-29T09:13:06Z</time>
      </trkpt>
      <trkpt lat="47.25909" lon="6.82907">
        <ele>875</ele>
        <time>2020-08-29T09:13:07Z</time>
      </trkpt>
      <trkpt lat="47.25916" lon="6.82915">
        <ele>875.4</ele>
        <time>2020-08-29T09:13:13Z</time>
      </trkpt>
      <trkpt lat="47.25917" lon="6.82916">
        <ele>875.8</ele>
        <time>2020-08-29T09:13:14Z</time>
      </trkpt>
      <trkpt lat="47.25918" lon="6.82917">
        <ele>876.2</ele>
        <time>2020-08-29T09:13:15Z</time>
      </trkpt>
      <trkpt lat="47.2592" lon="6.82918">
        <ele>876.6</ele>
        <time>2020-08-29T09:13:16Z</time>
      </trkpt>
      <trkpt lat="47.25921" lon="6.82919">
        <ele>877</ele>
        <time>2020-08-29T09:13:17Z</time>
      </trkpt>
      <trkpt lat="47.25924" lon="6.8292">
        <ele>877</ele>
        <time>2020-08-29T09:13:19Z</time>
      </trkpt>
      <trkpt lat="47.25925" lon="6.82921">
        <ele>877</ele>
        <time>2020-08-29T09:13:20Z</time>
      </trkpt>
      <trkpt lat="47.25926" lon="6.82923">
        <ele>877</ele>
        <time>2020-08-29T09:13:22Z</time>
      </trkpt>
      <trkpt lat="47.25928" lon="6.82927">
        <ele>877.6</ele>
        <time>2020-08-29T09:13:25Z</time>
      </trkpt>
      <trkpt lat="47.25929" lon="6.82928">
        <ele>878</ele>
        <time>2020-08-29T09:13:26Z</time>
      </trkpt>
      <trkpt lat="47.2593" lon="6.82929">
        <ele>878.4</ele>
        <time>2020-08-29T09:13:27Z</time>
      </trkpt>
      <trkpt lat="47.25931" lon="6.8293">
        <ele>879.2</ele>
        <time>2020-08-29T09:13:28Z</time>
      </trkpt>
      <trkpt lat="47.25936" lon="6.82935">
        <ele>879.2</ele>
        <time>2020-08-29T09:13:33Z</time>
      </trkpt>
      <trkpt lat="47.25941" lon="6.82939">
        <ele>879.6</ele>
        <time>2020-08-29T09:13:37Z</time>
      </trkpt>
      <trkpt lat="47.25942" lon="6.8294">
        <ele>880</ele>
        <time>2020-08-29T09:13:38Z</time>
      </trkpt>
      <trkpt lat="47.25943" lon="6.8294">
        <ele>880.4</ele>
        <time>2020-08-29T09:13:39Z</time>
      </trkpt>
      <trkpt lat="47.25944" lon="6.82941">
        <ele>880.8</ele>
        <time>2020-08-29T09:13:40Z</time>
      </trkpt>
      <trkpt lat="47.25945" lon="6.82942">
        <ele>881.2</ele>
        <time>2020-08-29T09:13:41Z</time>
      </trkpt>
      <trkpt lat="47.2595" lon="6.82947">
        <ele>881.2</ele>
        <time>2020-08-29T09:13:46Z</time>
      </trkpt>
      <trkpt lat="47.25953" lon="6.8295">
        <ele>881.6</ele>
        <time>2020-08-29T09:13:49Z</time>
      </trkpt>
      <trkpt lat="47.25954" lon="6.82951">
        <ele>882</ele>
        <time>2020-08-29T09:13:50Z</time>
      </trkpt>
      <trkpt lat="47.25955" lon="6.82952">
        <ele>882.4</ele>
        <time>2020-08-29T09:13:51Z</time>
      </trkpt>
      <trkpt lat="47.25956" lon="6.82953">
        <ele>883</ele>
        <time>2020-08-29T09:13:52Z</time>
      </trkpt>
      <trkpt lat="47.25957" lon="6.82954">
        <ele>883.4</ele>
        <time>2020-08-29T09:13:53Z</time>
      </trkpt>
      <trkpt lat="47.25965" lon="6.82962">
        <ele>883.4</ele>
        <time>2020-08-29T09:14:02Z</time>
      </trkpt>
      <trkpt lat="47.25968" lon="6.82965">
        <ele>883.8</ele>
        <time>2020-08-29T09:14:04Z</time>
      </trkpt>
      <trkpt lat="47.25969" lon="6.82965">
        <ele>884.2</ele>
        <time>2020-08-29T09:14:05Z</time>
      </trkpt>
      <trkpt lat="47.2597" lon="6.82966">
        <ele>884.6</ele>
        <time>2020-08-29T09:14:06Z</time>
      </trkpt>
      <trkpt lat="47.25972" lon="6.82967">
        <ele>885</ele>
        <time>2020-08-29T09:14:07Z</time>
      </trkpt>
      <trkpt lat="47.25973" lon="6.82968">
        <ele>885.4</ele>
        <time>2020-08-29T09:14:08Z</time>
      </trkpt>
      <trkpt lat="47.25981" lon="6.82975">
        <ele>885.4</ele>
        <time>2020-08-29T09:14:16Z</time>
      </trkpt>
      <trkpt lat="47.25986" lon="6.8298">
        <ele>885.8</ele>
        <time>2020-08-29T09:14:20Z</time>
      </trkpt>
      <trkpt lat="47.25987" lon="6.82982">
        <ele>886.2</ele>
        <time>2020-08-29T09:14:21Z</time>
      </trkpt>
      <trkpt lat="47.25988" lon="6.82983">
        <ele>886.6</ele>
        <time>2020-08-29T09:14:22Z</time>
      </trkpt>
      <trkpt lat="47.25989" lon="6.82984">
        <ele>887</ele>
        <time>2020-08-29T09:14:23Z</time>
      </trkpt>
      <trkpt lat="47.2599" lon="6.82985">
        <ele>887.4</ele>
        <time>2020-08-29T09:14:24Z</time>
      </trkpt>
      <trkpt lat="47.25991" lon="6.82987">
        <ele>887.4</ele>
        <time>2020-08-29T09:14:25Z</time>
      </trkpt>
      <trkpt lat="47.25997" lon="6.82995">
        <ele>887.4</ele>
        <time>2020-08-29T09:14:31Z</time>
      </trkpt>
      <trkpt lat="47.25999" lon="6.82997">
        <ele>887.4</ele>
        <time>2020-08-29T09:14:33Z</time>
      </trkpt>
      <trkpt lat="47.26001" lon="6.83">
        <ele>887.4</ele>
        <time>2020-08-29T09:14:35Z</time>
      </trkpt>
      <trkpt lat="47.26003" lon="6.83002">
        <ele>887.8</ele>
        <time>2020-08-29T09:14:37Z</time>
      </trkpt>
      <trkpt lat="47.26004" lon="6.83003">
        <ele>888.4</ele>
        <time>2020-08-29T09:14:38Z</time>
      </trkpt>
      <trkpt lat="47.26005" lon="6.83005">
        <ele>888.8</ele>
        <time>2020-08-29T09:14:39Z</time>
      </trkpt>
      <trkpt lat="47.26006" lon="6.83006">
        <ele>889.2</ele>
        <time>2020-08-29T09:14:40Z</time>
      </trkpt>
      <trkpt lat="47.26007" lon="6.83008">
        <ele>889.6</ele>
        <time>2020-08-29T09:14:41Z</time>
      </trkpt>
      <trkpt lat="47.26009" lon="6.83009">
        <ele>889.6</ele>
        <time>2020-08-29T09:14:42Z</time>
      </trkpt>
      <trkpt lat="47.26013" lon="6.83018">
        <ele>889.6</ele>
        <time>2020-08-29T09:14:48Z</time>
      </trkpt>
      <trkpt lat="47.26016" lon="6.83021">
        <ele>889.6</ele>
        <time>2020-08-29T09:14:50Z</time>
      </trkpt>
      <trkpt lat="47.26019" lon="6.83027">
        <ele>890</ele>
        <time>2020-08-29T09:14:54Z</time>
      </trkpt>
      <trkpt lat="47.2602" lon="6.83028">
        <ele>890.4</ele>
        <time>2020-08-29T09:14:55Z</time>
      </trkpt>
      <trkpt lat="47.26021" lon="6.8303">
        <ele>890.8</ele>
        <time>2020-08-29T09:14:56Z</time>
      </trkpt>
      <trkpt lat="47.26022" lon="6.83031">
        <ele>891.2</ele>
        <time>2020-08-29T09:14:57Z</time>
      </trkpt>
      <trkpt lat="47.26023" lon="6.83032">
        <ele>891.6</ele>
        <time>2020-08-29T09:14:58Z</time>
      </trkpt>
      <trkpt lat="47.26032" lon="6.83045">
        <ele>891.6</ele>
        <time>2020-08-29T09:15:07Z</time>
      </trkpt>
      <trkpt lat="47.26039" lon="6.83053">
        <ele>891.6</ele>
        <time>2020-08-29T09:15:14Z</time>
      </trkpt>
      <trkpt lat="47.26041" lon="6.83055">
        <ele>892</ele>
        <time>2020-08-29T09:15:15Z</time>
      </trkpt>
      <trkpt lat="47.26042" lon="6.83056">
        <ele>892.4</ele>
        <time>2020-08-29T09:15:16Z</time>
      </trkpt>
      <trkpt lat="47.26043" lon="6.83057">
        <ele>892.8</ele>
        <time>2020-08-29T09:15:17Z</time>
      </trkpt>
      <trkpt lat="47.26044" lon="6.83058">
        <ele>893.2</ele>
        <time>2020-08-29T09:15:18Z</time>
      </trkpt>
      <trkpt lat="47.26046" lon="6.83059">
        <ele>893.6</ele>
        <time>2020-08-29T09:15:19Z</time>
      </trkpt>
      <trkpt lat="47.26048" lon="6.83061">
        <ele>893.6</ele>
        <time>2020-08-29T09:15:21Z</time>
      </trkpt>
      <trkpt lat="47.26056" lon="6.83072">
        <ele>893.6</ele>
        <time>2020-08-29T09:15:29Z</time>
      </trkpt>
      <trkpt lat="47.26062" lon="6.83077">
        <ele>894</ele>
        <time>2020-08-29T09:15:34Z</time>
      </trkpt>
      <trkpt lat="47.26063" lon="6.83078">
        <ele>894.4</ele>
        <time>2020-08-29T09:15:35Z</time>
      </trkpt>
      <trkpt lat="47.26064" lon="6.83079">
        <ele>894.8</ele>
        <time>2020-08-29T09:15:36Z</time>
      </trkpt>
      <trkpt lat="47.26065" lon="6.8308">
        <ele>895.4</ele>
        <time>2020-08-29T09:15:37Z</time>
      </trkpt>
      <trkpt lat="47.26066" lon="6.83081">
        <ele>895.8</ele>
        <time>2020-08-29T09:15:38Z</time>
      </trkpt>
      <trkpt lat="47.26071" lon="6.83087">
        <ele>895.8</ele>
        <time>2020-08-29T09:15:43Z</time>
      </trkpt>
      <trkpt lat="47.26078" lon="6.83092">
        <ele>895.8</ele>
        <time>2020-08-29T09:15:49Z</time>
      </trkpt>
      <trkpt lat="47.26079" lon="6.83093">
        <ele>896.2</ele>
        <time>2020-08-29T09:15:50Z</time>
      </trkpt>
      <trkpt lat="47.2608" lon="6.83094">
        <ele>896.6</ele>
        <time>2020-08-29T09:15:51Z</time>
      </trkpt>
      <trkpt lat="47.26081" lon="6.83095">
        <ele>897</ele>
        <time>2020-08-29T09:15:52Z</time>
      </trkpt>
      <trkpt lat="47.26082" lon="6.83096">
        <ele>897.4</ele>
        <time>2020-08-29T09:15:53Z</time>
      </trkpt>
      <trkpt lat="47.26083" lon="6.83096">
        <ele>897.8</ele>
        <time>2020-08-29T09:15:54Z</time>
      </trkpt>
      <trkpt lat="47.26085" lon="6.83097">
        <ele>897.8</ele>
        <time>2020-08-29T09:15:56Z</time>
      </trkpt>
      <trkpt lat="47.26093" lon="6.83102">
        <ele>898.4</ele>
        <time>2020-08-29T09:16:03Z</time>
      </trkpt>
      <trkpt lat="47.26095" lon="6.83102">
        <ele>898.8</ele>
        <time>2020-08-29T09:16:04Z</time>
      </trkpt>
      <trkpt lat="47.26096" lon="6.83103">
        <ele>899.2</ele>
        <time>2020-08-29T09:16:05Z</time>
      </trkpt>
      <trkpt lat="47.26097" lon="6.83103">
        <ele>899.6</ele>
        <time>2020-08-29T09:16:06Z</time>
      </trkpt>
      <trkpt lat="47.26099" lon="6.83103">
        <ele>900</ele>
        <time>2020-08-29T09:16:07Z</time>
      </trkpt>
      <trkpt lat="47.26104" lon="6.83102">
        <ele>900</ele>
        <time>2020-08-29T09:16:11Z</time>
      </trkpt>
      <trkpt lat="47.26109" lon="6.831">
        <ele>900.6</ele>
        <time>2020-08-29T09:16:15Z</time>
      </trkpt>
      <trkpt lat="47.26111" lon="6.831">
        <ele>901</ele>
        <time>2020-08-29T09:16:16Z</time>
      </trkpt>
      <trkpt lat="47.26112" lon="6.83099">
        <ele>901.4</ele>
        <time>2020-08-29T09:16:17Z</time>
      </trkpt>
      <trkpt lat="47.26113" lon="6.83099">
        <ele>901.8</ele>
        <time>2020-08-29T09:16:18Z</time>
      </trkpt>
      <trkpt lat="47.26114" lon="6.83098">
        <ele>902.2</ele>
        <time>2020-08-29T09:16:19Z</time>
      </trkpt>
      <trkpt lat="47.26122" lon="6.83091">
        <ele>902.2</ele>
        <time>2020-08-29T09:16:25Z</time>
      </trkpt>
      <trkpt lat="47.26124" lon="6.83089">
        <ele>902.6</ele>
        <time>2020-08-29T09:16:27Z</time>
      </trkpt>
      <trkpt lat="47.26126" lon="6.83088">
        <ele>903</ele>
        <time>2020-08-29T09:16:28Z</time>
      </trkpt>
      <trkpt lat="47.26127" lon="6.83086">
        <ele>903.4</ele>
        <time>2020-08-29T09:16:29Z</time>
      </trkpt>
      <trkpt lat="47.26129" lon="6.83085">
        <ele>903.8</ele>
        <time>2020-08-29T09:16:30Z</time>
      </trkpt>
      <trkpt lat="47.2613" lon="6.83083">
        <ele>904.2</ele>
        <time>2020-08-29T09:16:31Z</time>
      </trkpt>
      <trkpt lat="47.2614" lon="6.83068">
        <ele>904.2</ele>
        <time>2020-08-29T09:16:38Z</time>
      </trkpt>
      <trkpt lat="47.26149" lon="6.83045">
        <ele>904.2</ele>
        <time>2020-08-29T09:16:42Z</time>
      </trkpt>
      <trkpt lat="47.26152" lon="6.83024">
        <ele>903.8</ele>
        <time>2020-08-29T09:16:44Z</time>
      </trkpt>
      <trkpt lat="47.26153" lon="6.83012">
        <ele>903.4</ele>
        <time>2020-08-29T09:16:45Z</time>
      </trkpt>
      <trkpt lat="47.26154" lon="6.82999">
        <ele>902.2</ele>
        <time>2020-08-29T09:16:46Z</time>
      </trkpt>
      <trkpt lat="47.26156" lon="6.82985">
        <ele>901.4</ele>
        <time>2020-08-29T09:16:47Z</time>
      </trkpt>
      <trkpt lat="47.26157" lon="6.8297">
        <ele>900.4</ele>
        <time>2020-08-29T09:16:48Z</time>
      </trkpt>
      <trkpt lat="47.2616" lon="6.82955">
        <ele>899.6</ele>
        <time>2020-08-29T09:16:49Z</time>
      </trkpt>
      <trkpt lat="47.26162" lon="6.82939">
        <ele>898.6</ele>
        <time>2020-08-29T09:16:50Z</time>
      </trkpt>
      <trkpt lat="47.26166" lon="6.82924">
        <ele>897.6</ele>
        <time>2020-08-29T09:16:51Z</time>
      </trkpt>
      <trkpt lat="47.26172" lon="6.82909">
        <ele>896.6</ele>
        <time>2020-08-29T09:16:52Z</time>
      </trkpt>
      <trkpt lat="47.26178" lon="6.82894">
        <ele>895.4</ele>
        <time>2020-08-29T09:16:53Z</time>
      </trkpt>
      <trkpt lat="47.26185" lon="6.8288">
        <ele>894.4</ele>
        <time>2020-08-29T09:16:54Z</time>
      </trkpt>
      <trkpt lat="47.26192" lon="6.82866">
        <ele>893.4</ele>
        <time>2020-08-29T09:16:55Z</time>
      </trkpt>
      <trkpt lat="47.26199" lon="6.82853">
        <ele>892.4</ele>
        <time>2020-08-29T09:16:56Z</time>
      </trkpt>
      <trkpt lat="47.26205" lon="6.82839">
        <ele>891.6</ele>
        <time>2020-08-29T09:16:57Z</time>
      </trkpt>
      <trkpt lat="47.26212" lon="6.82826">
        <ele>890.8</ele>
        <time>2020-08-29T09:16:58Z</time>
      </trkpt>
      <trkpt lat="47.26219" lon="6.82811">
        <ele>889.8</ele>
        <time>2020-08-29T09:16:59Z</time>
      </trkpt>
      <trkpt lat="47.26225" lon="6.82797">
        <ele>889</ele>
        <time>2020-08-29T09:17:00Z</time>
      </trkpt>
      <trkpt lat="47.26232" lon="6.82785">
        <ele>888.2</ele>
        <time>2020-08-29T09:17:01Z</time>
      </trkpt>
      <trkpt lat="47.26239" lon="6.82775">
        <ele>887.6</ele>
        <time>2020-08-29T09:17:02Z</time>
      </trkpt>
      <trkpt lat="47.26245" lon="6.82767">
        <ele>887.2</ele>
        <time>2020-08-29T09:17:03Z</time>
      </trkpt>
      <trkpt lat="47.26252" lon="6.82763">
        <ele>886.6</ele>
        <time>2020-08-29T09:17:04Z</time>
      </trkpt>
      <trkpt lat="47.26258" lon="6.82762">
        <ele>886</ele>
        <time>2020-08-29T09:17:05Z</time>
      </trkpt>
      <trkpt lat="47.26265" lon="6.82763">
        <ele>885.6</ele>
        <time>2020-08-29T09:17:06Z</time>
      </trkpt>
      <trkpt lat="47.26278" lon="6.8277">
        <ele>885.6</ele>
        <time>2020-08-29T09:17:08Z</time>
      </trkpt>
      <trkpt lat="47.26287" lon="6.82769">
        <ele>886</ele>
        <time>2020-08-29T09:17:10Z</time>
      </trkpt>
      <trkpt lat="47.26291" lon="6.82767">
        <ele>886.8</ele>
        <time>2020-08-29T09:17:11Z</time>
      </trkpt>
      <trkpt lat="47.26293" lon="6.82764">
        <ele>887.4</ele>
        <time>2020-08-29T09:17:12Z</time>
      </trkpt>
      <trkpt lat="47.26296" lon="6.82762">
        <ele>887.8</ele>
        <time>2020-08-29T09:17:13Z</time>
      </trkpt>
      <trkpt lat="47.26305" lon="6.82753">
        <ele>887.8</ele>
        <time>2020-08-29T09:17:17Z</time>
      </trkpt>
      <trkpt lat="47.26309" lon="6.82748">
        <ele>888.2</ele>
        <time>2020-08-29T09:17:19Z</time>
      </trkpt>
      <trkpt lat="47.26311" lon="6.82745">
        <ele>888.6</ele>
        <time>2020-08-29T09:17:20Z</time>
      </trkpt>
      <trkpt lat="47.26313" lon="6.82743">
        <ele>889</ele>
        <time>2020-08-29T09:17:21Z</time>
      </trkpt>
      <trkpt lat="47.26315" lon="6.82742">
        <ele>889.4</ele>
        <time>2020-08-29T09:17:22Z</time>
      </trkpt>
      <trkpt lat="47.26317" lon="6.8274">
        <ele>889.8</ele>
        <time>2020-08-29T09:17:23Z</time>
      </trkpt>
      <trkpt lat="47.26327" lon="6.82738">
        <ele>889.8</ele>
        <time>2020-08-29T09:17:27Z</time>
      </trkpt>
      <trkpt lat="47.26336" lon="6.82745">
        <ele>889.8</ele>
        <time>2020-08-29T09:17:34Z</time>
      </trkpt>
      <trkpt lat="47.26336" lon="6.82747">
        <ele>889.8</ele>
        <time>2020-08-29T09:17:36Z</time>
      </trkpt>
      <trkpt lat="47.26337" lon="6.82747">
        <ele>889.8</ele>
        <time>2020-08-29T09:17:39Z</time>
      </trkpt>
      <trkpt lat="47.26337" lon="6.82749">
        <ele>889.8</ele>
        <time>2020-08-29T09:17:41Z</time>
      </trkpt>
      <trkpt lat="47.26337" lon="6.82749">
        <ele>889.8</ele>
        <time>2020-08-29T09:17:48Z</time>
      </trkpt>
      <trkpt lat="47.26336" lon="6.82749">
        <ele>889.8</ele>
        <time>2020-08-29T09:17:49Z</time>
      </trkpt>
      <trkpt lat="47.26337" lon="6.82749">
        <ele>889.8</ele>
        <time>2020-08-29T09:17:50Z</time>
      </trkpt>
      <trkpt lat="47.26337" lon="6.82749">
        <ele>889.8</ele>
        <time>2020-08-29T09:17:51Z</time>
      </trkpt>
      <trkpt lat="47.26337" lon="6.82751">
        <ele>889.8</ele>
        <time>2020-08-29T09:17:53Z</time>
      </trkpt>
      <trkpt lat="47.26337" lon="6.82751">
        <ele>889.8</ele>
        <time>2020-08-29T09:17:54Z</time>
      </trkpt>
      <trkpt lat="47.26337" lon="6.82752">
        <ele>889.8</ele>
        <time>2020-08-29T09:17:55Z</time>
      </trkpt>
      <trkpt lat="47.26337" lon="6.82752">
        <ele>889.8</ele>
        <time>2020-08-29T09:17:56Z</time>
      </trkpt>
      <trkpt lat="47.26337" lon="6.82752">
        <ele>889.8</ele>
        <time>2020-08-29T09:18:01Z</time>
      </trkpt>
      <trkpt lat="47.26337" lon="6.82752">
        <ele>889.8</ele>
        <time>2020-08-29T09:18:02Z</time>
      </trkpt>
      <trkpt lat="47.26337" lon="6.82752">
        <ele>889.8</ele>
        <time>2020-08-29T09:18:03Z</time>
      </trkpt>
      <trkpt lat="47.26337" lon="6.82752">
        <ele>889.8</ele>
        <time>2020-08-29T09:18:04Z</time>
      </trkpt>
      <trkpt lat="47.26337" lon="6.82753">
        <ele>889.8</ele>
        <time>2020-08-29T09:18:18Z</time>
      </trkpt>
      <trkpt lat="47.26336" lon="6.82756">
        <ele>889.8</ele>
        <time>2020-08-29T09:18:20Z</time>
      </trkpt>
      <trkpt lat="47.2634" lon="6.82772">
        <ele>889.8</ele>
        <time>2020-08-29T09:18:24Z</time>
      </trkpt>
      <trkpt lat="47.26344" lon="6.82786">
        <ele>889.4</ele>
        <time>2020-08-29T09:18:26Z</time>
      </trkpt>
      <trkpt lat="47.26346" lon="6.82792">
        <ele>889</ele>
        <time>2020-08-29T09:18:27Z</time>
      </trkpt>
      <trkpt lat="47.26346" lon="6.82798">
        <ele>888.4</ele>
        <time>2020-08-29T09:18:28Z</time>
      </trkpt>
      <trkpt lat="47.26346" lon="6.82804">
        <ele>888</ele>
        <time>2020-08-29T09:18:29Z</time>
      </trkpt>
      <trkpt lat="47.26346" lon="6.82809">
        <ele>887.6</ele>
        <time>2020-08-29T09:18:30Z</time>
      </trkpt>
      <trkpt lat="47.26347" lon="6.82816">
        <ele>887.6</ele>
        <time>2020-08-29T09:18:31Z</time>
      </trkpt>
      <trkpt lat="47.26349" lon="6.8283">
        <ele>887.6</ele>
        <time>2020-08-29T09:18:33Z</time>
      </trkpt>
      <trkpt lat="47.26349" lon="6.82838">
        <ele>887</ele>
        <time>2020-08-29T09:18:34Z</time>
      </trkpt>
      <trkpt lat="47.26349" lon="6.82847">
        <ele>886.6</ele>
        <time>2020-08-29T09:18:35Z</time>
      </trkpt>
      <trkpt lat="47.2635" lon="6.82856">
        <ele>886.2</ele>
        <time>2020-08-29T09:18:36Z</time>
      </trkpt>
      <trkpt lat="47.2635" lon="6.82864">
        <ele>885.6</ele>
        <time>2020-08-29T09:18:37Z</time>
      </trkpt>
      <trkpt lat="47.2635" lon="6.82871">
        <ele>884.8</ele>
        <time>2020-08-29T09:18:38Z</time>
      </trkpt>
      <trkpt lat="47.26351" lon="6.82877">
        <ele>884</ele>
        <time>2020-08-29T09:18:39Z</time>
      </trkpt>
      <trkpt lat="47.26352" lon="6.82883">
        <ele>883.4</ele>
        <time>2020-08-29T09:18:40Z</time>
      </trkpt>
      <trkpt lat="47.26353" lon="6.82889">
        <ele>882.6</ele>
        <time>2020-08-29T09:18:41Z</time>
      </trkpt>
      <trkpt lat="47.26355" lon="6.82895">
        <ele>882.6</ele>
        <time>2020-08-29T09:18:42Z</time>
      </trkpt>
      <trkpt lat="47.26357" lon="6.82902">
        <ele>882.6</ele>
        <time>2020-08-29T09:18:43Z</time>
      </trkpt>
      <trkpt lat="47.2636" lon="6.82907">
        <ele>882.6</ele>
        <time>2020-08-29T09:18:44Z</time>
      </trkpt>
      <trkpt lat="47.26364" lon="6.82913">
        <ele>882.2</ele>
        <time>2020-08-29T09:18:45Z</time>
      </trkpt>
      <trkpt lat="47.26368" lon="6.82919">
        <ele>881.8</ele>
        <time>2020-08-29T09:18:46Z</time>
      </trkpt>
      <trkpt lat="47.26371" lon="6.82925">
        <ele>881.4</ele>
        <time>2020-08-29T09:18:47Z</time>
      </trkpt>
      <trkpt lat="47.26372" lon="6.82931">
        <ele>881</ele>
        <time>2020-08-29T09:18:48Z</time>
      </trkpt>
      <trkpt lat="47.26373" lon="6.82938">
        <ele>880.6</ele>
        <time>2020-08-29T09:18:49Z</time>
      </trkpt>
      <trkpt lat="47.26375" lon="6.82945">
        <ele>880.6</ele>
        <time>2020-08-29T09:18:50Z</time>
      </trkpt>
      <trkpt lat="47.26376" lon="6.82953">
        <ele>880.2</ele>
        <time>2020-08-29T09:18:51Z</time>
      </trkpt>
      <trkpt lat="47.26377" lon="6.82962">
        <ele>879.8</ele>
        <time>2020-08-29T09:18:52Z</time>
      </trkpt>
      <trkpt lat="47.2638" lon="6.8297">
        <ele>879.4</ele>
        <time>2020-08-29T09:18:53Z</time>
      </trkpt>
      <trkpt lat="47.26382" lon="6.82979">
        <ele>879</ele>
        <time>2020-08-29T09:18:54Z</time>
      </trkpt>
      <trkpt lat="47.26384" lon="6.82989">
        <ele>878.4</ele>
        <time>2020-08-29T09:18:55Z</time>
      </trkpt>
      <trkpt lat="47.26387" lon="6.82998">
        <ele>877.8</ele>
        <time>2020-08-29T09:18:56Z</time>
      </trkpt>
      <trkpt lat="47.2639" lon="6.83008">
        <ele>877.4</ele>
        <time>2020-08-29T09:18:57Z</time>
      </trkpt>
      <trkpt lat="47.26393" lon="6.83019">
        <ele>876.8</ele>
        <time>2020-08-29T09:18:58Z</time>
      </trkpt>
      <trkpt lat="47.26396" lon="6.8303">
        <ele>876.4</ele>
        <time>2020-08-29T09:18:59Z</time>
      </trkpt>
      <trkpt lat="47.26399" lon="6.8304">
        <ele>875.8</ele>
        <time>2020-08-29T09:19:00Z</time>
      </trkpt>
      <trkpt lat="47.26402" lon="6.83051">
        <ele>875.2</ele>
        <time>2020-08-29T09:19:01Z</time>
      </trkpt>
      <trkpt lat="47.26405" lon="6.83061">
        <ele>874.6</ele>
        <time>2020-08-29T09:19:02Z</time>
      </trkpt>
      <trkpt lat="47.26409" lon="6.83071">
        <ele>874</ele>
        <time>2020-08-29T09:19:03Z</time>
      </trkpt>
      <trkpt lat="47.26412" lon="6.83081">
        <ele>873.4</ele>
        <time>2020-08-29T09:19:04Z</time>
      </trkpt>
      <trkpt lat="47.26415" lon="6.83089">
        <ele>872.8</ele>
        <time>2020-08-29T09:19:05Z</time>
      </trkpt>
      <trkpt lat="47.26418" lon="6.83098">
        <ele>872.2</ele>
        <time>2020-08-29T09:19:06Z</time>
      </trkpt>
      <trkpt lat="47.2642" lon="6.83107">
        <ele>871.6</ele>
        <time>2020-08-29T09:19:07Z</time>
      </trkpt>
      <trkpt lat="47.26423" lon="6.83117">
        <ele>871.2</ele>
        <time>2020-08-29T09:19:08Z</time>
      </trkpt>
      <trkpt lat="47.26426" lon="6.83127">
        <ele>870.8</ele>
        <time>2020-08-29T09:19:09Z</time>
      </trkpt>
      <trkpt lat="47.26428" lon="6.83136">
        <ele>870.4</ele>
        <time>2020-08-29T09:19:10Z</time>
      </trkpt>
      <trkpt lat="47.2643" lon="6.83145">
        <ele>870</ele>
        <time>2020-08-29T09:19:11Z</time>
      </trkpt>
      <trkpt lat="47.26433" lon="6.83152">
        <ele>869.6</ele>
        <time>2020-08-29T09:19:12Z</time>
      </trkpt>
      <trkpt lat="47.26436" lon="6.83161">
        <ele>869</ele>
        <time>2020-08-29T09:19:13Z</time>
      </trkpt>
      <trkpt lat="47.2644" lon="6.83171">
        <ele>868.6</ele>
        <time>2020-08-29T09:19:14Z</time>
      </trkpt>
      <trkpt lat="47.26442" lon="6.8318">
        <ele>868</ele>
        <time>2020-08-29T09:19:15Z</time>
      </trkpt>
      <trkpt lat="47.26444" lon="6.83189">
        <ele>867.6</ele>
        <time>2020-08-29T09:19:16Z</time>
      </trkpt>
      <trkpt lat="47.26446" lon="6.83199">
        <ele>867</ele>
        <time>2020-08-29T09:19:17Z</time>
      </trkpt>
      <trkpt lat="47.26447" lon="6.83207">
        <ele>866.6</ele>
        <time>2020-08-29T09:19:18Z</time>
      </trkpt>
      <trkpt lat="47.26449" lon="6.83216">
        <ele>866</ele>
        <time>2020-08-29T09:19:19Z</time>
      </trkpt>
      <trkpt lat="47.2645" lon="6.83225">
        <ele>865.4</ele>
        <time>2020-08-29T09:19:20Z</time>
      </trkpt>
      <trkpt lat="47.26451" lon="6.83235">
        <ele>865</ele>
        <time>2020-08-29T09:19:21Z</time>
      </trkpt>
      <trkpt lat="47.26455" lon="6.83255">
        <ele>864.6</ele>
        <time>2020-08-29T09:19:23Z</time>
      </trkpt>
      <trkpt lat="47.26456" lon="6.83264">
        <ele>864</ele>
        <time>2020-08-29T09:19:24Z</time>
      </trkpt>
      <trkpt lat="47.26458" lon="6.83271">
        <ele>863.6</ele>
        <time>2020-08-29T09:19:25Z</time>
      </trkpt>
      <trkpt lat="47.2646" lon="6.83279">
        <ele>863.2</ele>
        <time>2020-08-29T09:19:26Z</time>
      </trkpt>
      <trkpt lat="47.26461" lon="6.83288">
        <ele>862.8</ele>
        <time>2020-08-29T09:19:27Z</time>
      </trkpt>
      <trkpt lat="47.26463" lon="6.83296">
        <ele>862.2</ele>
        <time>2020-08-29T09:19:28Z</time>
      </trkpt>
      <trkpt lat="47.26465" lon="6.83304">
        <ele>861.8</ele>
        <time>2020-08-29T09:19:29Z</time>
      </trkpt>
      <trkpt lat="47.26466" lon="6.8331">
        <ele>861.2</ele>
        <time>2020-08-29T09:19:30Z</time>
      </trkpt>
      <trkpt lat="47.26466" lon="6.83316">
        <ele>860.6</ele>
        <time>2020-08-29T09:19:31Z</time>
      </trkpt>
      <trkpt lat="47.26466" lon="6.83321">
        <ele>860.2</ele>
        <time>2020-08-29T09:19:32Z</time>
      </trkpt>
      <trkpt lat="47.26466" lon="6.83325">
        <ele>859.6</ele>
        <time>2020-08-29T09:19:33Z</time>
      </trkpt>
      <trkpt lat="47.26466" lon="6.83329">
        <ele>859</ele>
        <time>2020-08-29T09:19:34Z</time>
      </trkpt>
      <trkpt lat="47.26467" lon="6.83333">
        <ele>858.4</ele>
        <time>2020-08-29T09:19:35Z</time>
      </trkpt>
      <trkpt lat="47.26467" lon="6.83336">
        <ele>858.4</ele>
        <time>2020-08-29T09:19:37Z</time>
      </trkpt>
      <trkpt lat="47.26467" lon="6.83338">
        <ele>858.4</ele>
        <time>2020-08-29T09:19:40Z</time>
      </trkpt>
      <trkpt lat="47.26467" lon="6.83338">
        <ele>858</ele>
        <time>2020-08-29T09:19:44Z</time>
      </trkpt>
      <trkpt lat="47.26467" lon="6.8334">
        <ele>857.6</ele>
        <time>2020-08-29T09:19:45Z</time>
      </trkpt>
      <trkpt lat="47.26467" lon="6.8334">
        <ele>857.2</ele>
        <time>2020-08-29T09:19:46Z</time>
      </trkpt>
      <trkpt lat="47.26467" lon="6.83341">
        <ele>856.4</ele>
        <time>2020-08-29T09:19:53Z</time>
      </trkpt>
      <trkpt lat="47.26466" lon="6.83342">
        <ele>856.4</ele>
        <time>2020-08-29T09:19:54Z</time>
      </trkpt>
      <trkpt lat="47.26467" lon="6.83342">
        <ele>856.4</ele>
        <time>2020-08-29T09:19:55Z</time>
      </trkpt>
      <trkpt lat="47.26467" lon="6.83342">
        <ele>856.4</ele>
        <time>2020-08-29T09:20:01Z</time>
      </trkpt>
      <trkpt lat="47.26466" lon="6.83343">
        <ele>856.4</ele>
        <time>2020-08-29T09:20:04Z</time>
      </trkpt>
      <trkpt lat="47.26466" lon="6.83343">
        <ele>856.4</ele>
        <time>2020-08-29T09:20:06Z</time>
      </trkpt>
      <trkpt lat="47.26467" lon="6.8335">
        <ele>856.4</ele>
        <time>2020-08-29T09:20:11Z</time>
      </trkpt>
      <trkpt lat="47.26468" lon="6.83353">
        <ele>856.4</ele>
        <time>2020-08-29T09:20:12Z</time>
      </trkpt>
      <trkpt lat="47.26469" lon="6.83356">
        <ele>856.4</ele>
        <time>2020-08-29T09:20:13Z</time>
      </trkpt>
      <trkpt lat="47.26475" lon="6.83367">
        <ele>856.4</ele>
        <time>2020-08-29T09:20:16Z</time>
      </trkpt>
      <trkpt lat="47.2648" lon="6.83382">
        <ele>856</ele>
        <time>2020-08-29T09:20:19Z</time>
      </trkpt>
      <trkpt lat="47.26482" lon="6.83387">
        <ele>855.4</ele>
        <time>2020-08-29T09:20:20Z</time>
      </trkpt>
      <trkpt lat="47.26484" lon="6.83393">
        <ele>855</ele>
        <time>2020-08-29T09:20:21Z</time>
      </trkpt>
      <trkpt lat="47.26488" lon="6.83398">
        <ele>854.6</ele>
        <time>2020-08-29T09:20:22Z</time>
      </trkpt>
      <trkpt lat="47.26491" lon="6.83403">
        <ele>854.2</ele>
        <time>2020-08-29T09:20:23Z</time>
      </trkpt>
      <trkpt lat="47.26495" lon="6.83413">
        <ele>854.2</ele>
        <time>2020-08-29T09:20:25Z</time>
      </trkpt>
      <trkpt lat="47.26498" lon="6.83419">
        <ele>854.2</ele>
        <time>2020-08-29T09:20:26Z</time>
      </trkpt>
      <trkpt lat="47.26506" lon="6.83435">
        <ele>854.2</ele>
        <time>2020-08-29T09:20:30Z</time>
      </trkpt>
      <trkpt lat="47.26516" lon="6.83449">
        <ele>854.2</ele>
        <time>2020-08-29T09:20:35Z</time>
      </trkpt>
      <trkpt lat="47.26524" lon="6.83457">
        <ele>854.2</ele>
        <time>2020-08-29T09:20:39Z</time>
      </trkpt>
      <trkpt lat="47.26533" lon="6.83465">
        <ele>854.2</ele>
        <time>2020-08-29T09:20:44Z</time>
      </trkpt>
      <trkpt lat="47.26546" lon="6.8348">
        <ele>854.2</ele>
        <time>2020-08-29T09:20:49Z</time>
      </trkpt>
      <trkpt lat="47.2656" lon="6.83499">
        <ele>854.2</ele>
        <time>2020-08-29T09:20:55Z</time>
      </trkpt>
      <trkpt lat="47.26568" lon="6.83536">
        <ele>854.2</ele>
        <time>2020-08-29T09:21:01Z</time>
      </trkpt>
      <trkpt lat="47.26572" lon="6.8355">
        <ele>853.8</ele>
        <time>2020-08-29T09:21:03Z</time>
      </trkpt>
      <trkpt lat="47.26574" lon="6.83557">
        <ele>853.2</ele>
        <time>2020-08-29T09:21:04Z</time>
      </trkpt>
      <trkpt lat="47.26577" lon="6.83565">
        <ele>852.8</ele>
        <time>2020-08-29T09:21:05Z</time>
      </trkpt>
      <trkpt lat="47.26579" lon="6.83573">
        <ele>852.4</ele>
        <time>2020-08-29T09:21:06Z</time>
      </trkpt>
      <trkpt lat="47.26582" lon="6.8358">
        <ele>852</ele>
        <time>2020-08-29T09:21:07Z</time>
      </trkpt>
      <trkpt lat="47.26585" lon="6.83586">
        <ele>852</ele>
        <time>2020-08-29T09:21:08Z</time>
      </trkpt>
      <trkpt lat="47.26593" lon="6.83605">
        <ele>852</ele>
        <time>2020-08-29T09:21:11Z</time>
      </trkpt>
      <trkpt lat="47.26597" lon="6.83612">
        <ele>851.6</ele>
        <time>2020-08-29T09:21:12Z</time>
      </trkpt>
      <trkpt lat="47.266" lon="6.83619">
        <ele>851.2</ele>
        <time>2020-08-29T09:21:13Z</time>
      </trkpt>
      <trkpt lat="47.26603" lon="6.83625">
        <ele>850.8</ele>
        <time>2020-08-29T09:21:14Z</time>
      </trkpt>
      <trkpt lat="47.26606" lon="6.8363">
        <ele>850.4</ele>
        <time>2020-08-29T09:21:15Z</time>
      </trkpt>
      <trkpt lat="47.26609" lon="6.83635">
        <ele>850</ele>
        <time>2020-08-29T09:21:16Z</time>
      </trkpt>
      <trkpt lat="47.26616" lon="6.83649">
        <ele>850</ele>
        <time>2020-08-29T09:21:20Z</time>
      </trkpt>
      <trkpt lat="47.26619" lon="6.83659">
        <ele>850</ele>
        <time>2020-08-29T09:21:25Z</time>
      </trkpt>
      <trkpt lat="47.2662" lon="6.83659">
        <ele>850</ele>
        <time>2020-08-29T09:21:26Z</time>
      </trkpt>
      <trkpt lat="47.2662" lon="6.83659">
        <ele>850</ele>
        <time>2020-08-29T09:21:29Z</time>
      </trkpt>
      <trkpt lat="47.2662" lon="6.83659">
        <ele>850</ele>
        <time>2020-08-29T09:21:30Z</time>
      </trkpt>
      <trkpt lat="47.26621" lon="6.83659">
        <ele>850</ele>
        <time>2020-08-29T09:21:31Z</time>
      </trkpt>
      <trkpt lat="47.26621" lon="6.8366">
        <ele>850</ele>
        <time>2020-08-29T09:21:32Z</time>
      </trkpt>
      <trkpt lat="47.26623" lon="6.8366">
        <ele>850</ele>
        <time>2020-08-29T09:21:34Z</time>
      </trkpt>
      <trkpt lat="47.26622" lon="6.8366">
        <ele>850</ele>
        <time>2020-08-29T09:21:36Z</time>
      </trkpt>
      <trkpt lat="47.26623" lon="6.8366">
        <ele>850</ele>
        <time>2020-08-29T09:21:37Z</time>
      </trkpt>
      <trkpt lat="47.26622" lon="6.8366">
        <ele>850</ele>
        <time>2020-08-29T09:21:38Z</time>
      </trkpt>
      <trkpt lat="47.26623" lon="6.83661">
        <ele>850</ele>
        <time>2020-08-29T09:21:39Z</time>
      </trkpt>
      <trkpt lat="47.26624" lon="6.83662">
        <ele>850</ele>
        <time>2020-08-29T09:21:40Z</time>
      </trkpt>
      <trkpt lat="47.26626" lon="6.83663">
        <ele>850</ele>
        <time>2020-08-29T09:21:41Z</time>
      </trkpt>
      <trkpt lat="47.26635" lon="6.83677">
        <ele>850</ele>
        <time>2020-08-29T09:21:46Z</time>
      </trkpt>
      <trkpt lat="47.26637" lon="6.83684">
        <ele>850</ele>
        <time>2020-08-29T09:21:48Z</time>
      </trkpt>
      <trkpt lat="47.26643" lon="6.83699">
        <ele>850</ele>
        <time>2020-08-29T09:21:52Z</time>
      </trkpt>
      <trkpt lat="47.26646" lon="6.83708">
        <ele>849.6</ele>
        <time>2020-08-29T09:21:54Z</time>
      </trkpt>
      <trkpt lat="47.26648" lon="6.83712">
        <ele>849.2</ele>
        <time>2020-08-29T09:21:55Z</time>
      </trkpt>
      <trkpt lat="47.2665" lon="6.83716">
        <ele>848.8</ele>
        <time>2020-08-29T09:21:56Z</time>
      </trkpt>
      <trkpt lat="47.26652" lon="6.8372">
        <ele>848.2</ele>
        <time>2020-08-29T09:21:57Z</time>
      </trkpt>
      <trkpt lat="47.26654" lon="6.83724">
        <ele>847.8</ele>
        <time>2020-08-29T09:21:58Z</time>
      </trkpt>
      <trkpt lat="47.26656" lon="6.83729">
        <ele>847.8</ele>
        <time>2020-08-29T09:21:59Z</time>
      </trkpt>
      <trkpt lat="47.26667" lon="6.83754">
        <ele>847.8</ele>
        <time>2020-08-29T09:22:04Z</time>
      </trkpt>
      <trkpt lat="47.26669" lon="6.83759">
        <ele>847.8</ele>
        <time>2020-08-29T09:22:05Z</time>
      </trkpt>
      <trkpt lat="47.26676" lon="6.83775">
        <ele>847.4</ele>
        <time>2020-08-29T09:22:08Z</time>
      </trkpt>
      <trkpt lat="47.26679" lon="6.83781">
        <ele>847</ele>
        <time>2020-08-29T09:22:09Z</time>
      </trkpt>
      <trkpt lat="47.26681" lon="6.83786">
        <ele>846.6</ele>
        <time>2020-08-29T09:22:10Z</time>
      </trkpt>
      <trkpt lat="47.26684" lon="6.83791">
        <ele>846.2</ele>
        <time>2020-08-29T09:22:11Z</time>
      </trkpt>
      <trkpt lat="47.26687" lon="6.83797">
        <ele>845.8</ele>
        <time>2020-08-29T09:22:12Z</time>
      </trkpt>
      <trkpt lat="47.26698" lon="6.83821">
        <ele>845.4</ele>
        <time>2020-08-29T09:22:16Z</time>
      </trkpt>
      <trkpt lat="47.26701" lon="6.83827">
        <ele>845</ele>
        <time>2020-08-29T09:22:17Z</time>
      </trkpt>
      <trkpt lat="47.26704" lon="6.83833">
        <ele>844.4</ele>
        <time>2020-08-29T09:22:18Z</time>
      </trkpt>
      <trkpt lat="47.26707" lon="6.83841">
        <ele>844</ele>
        <time>2020-08-29T09:22:19Z</time>
      </trkpt>
      <trkpt lat="47.26711" lon="6.83848">
        <ele>843.6</ele>
        <time>2020-08-29T09:22:20Z</time>
      </trkpt>
      <trkpt lat="47.26714" lon="6.83854">
        <ele>843.6</ele>
        <time>2020-08-29T09:22:21Z</time>
      </trkpt>
      <trkpt lat="47.26718" lon="6.83861">
        <ele>843.2</ele>
        <time>2020-08-29T09:22:22Z</time>
      </trkpt>
      <trkpt lat="47.26722" lon="6.8387">
        <ele>842.8</ele>
        <time>2020-08-29T09:22:23Z</time>
      </trkpt>
      <trkpt lat="47.26726" lon="6.83878">
        <ele>842.4</ele>
        <time>2020-08-29T09:22:24Z</time>
      </trkpt>
      <trkpt lat="47.26731" lon="6.83886">
        <ele>841.6</ele>
        <time>2020-08-29T09:22:25Z</time>
      </trkpt>
      <trkpt lat="47.26734" lon="6.83895">
        <ele>841</ele>
        <time>2020-08-29T09:22:26Z</time>
      </trkpt>
      <trkpt lat="47.26738" lon="6.83903">
        <ele>840.4</ele>
        <time>2020-08-29T09:22:27Z</time>
      </trkpt>
      <trkpt lat="47.26746" lon="6.83912">
        <ele>839.8</ele>
        <time>2020-08-29T09:22:28Z</time>
      </trkpt>
      <trkpt lat="47.26751" lon="6.8392">
        <ele>839.2</ele>
        <time>2020-08-29T09:22:29Z</time>
      </trkpt>
      <trkpt lat="47.26755" lon="6.8393">
        <ele>838.6</ele>
        <time>2020-08-29T09:22:30Z</time>
      </trkpt>
      <trkpt lat="47.2676" lon="6.8394">
        <ele>837.8</ele>
        <time>2020-08-29T09:22:31Z</time>
      </trkpt>
      <trkpt lat="47.26765" lon="6.8395">
        <ele>836.6</ele>
        <time>2020-08-29T09:22:32Z</time>
      </trkpt>
      <trkpt lat="47.2677" lon="6.8396">
        <ele>836</ele>
        <time>2020-08-29T09:22:33Z</time>
      </trkpt>
      <trkpt lat="47.26775" lon="6.83971">
        <ele>835.2</ele>
        <time>2020-08-29T09:22:34Z</time>
      </trkpt>
      <trkpt lat="47.26781" lon="6.83982">
        <ele>834.4</ele>
        <time>2020-08-29T09:22:35Z</time>
      </trkpt>
      <trkpt lat="47.26786" lon="6.83994">
        <ele>833.8</ele>
        <time>2020-08-29T09:22:36Z</time>
      </trkpt>
      <trkpt lat="47.26792" lon="6.84005">
        <ele>833</ele>
        <time>2020-08-29T09:22:37Z</time>
      </trkpt>
      <trkpt lat="47.26799" lon="6.84015">
        <ele>832.2</ele>
        <time>2020-08-29T09:22:38Z</time>
      </trkpt>
      <trkpt lat="47.26806" lon="6.84025">
        <ele>831.4</ele>
        <time>2020-08-29T09:22:39Z</time>
      </trkpt>
      <trkpt lat="47.26813" lon="6.84035">
        <ele>830.6</ele>
        <time>2020-08-29T09:22:40Z</time>
      </trkpt>
      <trkpt lat="47.2682" lon="6.84045">
        <ele>830</ele>
        <time>2020-08-29T09:22:41Z</time>
      </trkpt>
      <trkpt lat="47.26827" lon="6.84055">
        <ele>829.4</ele>
        <time>2020-08-29T09:22:42Z</time>
      </trkpt>
      <trkpt lat="47.26834" lon="6.84066">
        <ele>828.8</ele>
        <time>2020-08-29T09:22:43Z</time>
      </trkpt>
      <trkpt lat="47.2684" lon="6.84077">
        <ele>828</ele>
        <time>2020-08-29T09:22:44Z</time>
      </trkpt>
      <trkpt lat="47.26846" lon="6.84089">
        <ele>827.2</ele>
        <time>2020-08-29T09:22:45Z</time>
      </trkpt>
      <trkpt lat="47.26851" lon="6.84103">
        <ele>826.4</ele>
        <time>2020-08-29T09:22:46Z</time>
      </trkpt>
      <trkpt lat="47.26855" lon="6.84118">
        <ele>825.6</ele>
        <time>2020-08-29T09:22:47Z</time>
      </trkpt>
      <trkpt lat="47.2686" lon="6.84131">
        <ele>824.8</ele>
        <time>2020-08-29T09:22:48Z</time>
      </trkpt>
      <trkpt lat="47.26864" lon="6.84144">
        <ele>824</ele>
        <time>2020-08-29T09:22:49Z</time>
      </trkpt>
      <trkpt lat="47.2687" lon="6.84158">
        <ele>823</ele>
        <time>2020-08-29T09:22:50Z</time>
      </trkpt>
      <trkpt lat="47.26875" lon="6.84171">
        <ele>822.4</ele>
        <time>2020-08-29T09:22:51Z</time>
      </trkpt>
      <trkpt lat="47.26879" lon="6.84185">
        <ele>821.8</ele>
        <time>2020-08-29T09:22:52Z</time>
      </trkpt>
      <trkpt lat="47.26883" lon="6.84198">
        <ele>821.2</ele>
        <time>2020-08-29T09:22:53Z</time>
      </trkpt>
      <trkpt lat="47.26887" lon="6.8421">
        <ele>820.6</ele>
        <time>2020-08-29T09:22:54Z</time>
      </trkpt>
      <trkpt lat="47.2689" lon="6.84221">
        <ele>820</ele>
        <time>2020-08-29T09:22:55Z</time>
      </trkpt>
      <trkpt lat="47.26896" lon="6.84231">
        <ele>820</ele>
        <time>2020-08-29T09:22:56Z</time>
      </trkpt>
      <trkpt lat="47.26902" lon="6.84241">
        <ele>819.6</ele>
        <time>2020-08-29T09:22:57Z</time>
      </trkpt>
      <trkpt lat="47.26909" lon="6.84249">
        <ele>819</ele>
        <time>2020-08-29T09:22:58Z</time>
      </trkpt>
      <trkpt lat="47.26915" lon="6.84256">
        <ele>818.6</ele>
        <time>2020-08-29T09:22:59Z</time>
      </trkpt>
      <trkpt lat="47.26921" lon="6.84264">
        <ele>818</ele>
        <time>2020-08-29T09:23:00Z</time>
      </trkpt>
      <trkpt lat="47.26927" lon="6.84271">
        <ele>817.6</ele>
        <time>2020-08-29T09:23:01Z</time>
      </trkpt>
      <trkpt lat="47.26932" lon="6.84276">
        <ele>817.2</ele>
        <time>2020-08-29T09:23:02Z</time>
      </trkpt>
      <trkpt lat="47.26935" lon="6.84281">
        <ele>816.6</ele>
        <time>2020-08-29T09:23:03Z</time>
      </trkpt>
      <trkpt lat="47.26937" lon="6.84283">
        <ele>816.2</ele>
        <time>2020-08-29T09:23:04Z</time>
      </trkpt>
      <trkpt lat="47.26939" lon="6.84285">
        <ele>815.8</ele>
        <time>2020-08-29T09:23:05Z</time>
      </trkpt>
      <trkpt lat="47.26941" lon="6.84287">
        <ele>815.4</ele>
        <time>2020-08-29T09:23:06Z</time>
      </trkpt>
      <trkpt lat="47.26954" lon="6.84302">
        <ele>815</ele>
        <time>2020-08-29T09:23:10Z</time>
      </trkpt>
      <trkpt lat="47.26959" lon="6.84306">
        <ele>814.6</ele>
        <time>2020-08-29T09:23:11Z</time>
      </trkpt>
      <trkpt lat="47.26963" lon="6.84311">
        <ele>814.2</ele>
        <time>2020-08-29T09:23:12Z</time>
      </trkpt>
      <trkpt lat="47.26968" lon="6.84316">
        <ele>813.6</ele>
        <time>2020-08-29T09:23:13Z</time>
      </trkpt>
      <trkpt lat="47.26972" lon="6.84322">
        <ele>813.2</ele>
        <time>2020-08-29T09:23:14Z</time>
      </trkpt>
      <trkpt lat="47.26983" lon="6.84333">
        <ele>812.8</ele>
        <time>2020-08-29T09:23:16Z</time>
      </trkpt>
      <trkpt lat="47.2699" lon="6.84339">
        <ele>812.4</ele>
        <time>2020-08-29T09:23:17Z</time>
      </trkpt>
      <trkpt lat="47.26996" lon="6.84346">
        <ele>812</ele>
        <time>2020-08-29T09:23:18Z</time>
      </trkpt>
      <trkpt lat="47.27002" lon="6.84352">
        <ele>811.6</ele>
        <time>2020-08-29T09:23:19Z</time>
      </trkpt>
      <trkpt lat="47.27009" lon="6.84359">
        <ele>811.2</ele>
        <time>2020-08-29T09:23:20Z</time>
      </trkpt>
      <trkpt lat="47.27016" lon="6.84365">
        <ele>810.6</ele>
        <time>2020-08-29T09:23:21Z</time>
      </trkpt>
      <trkpt lat="47.27023" lon="6.84371">
        <ele>809.6</ele>
        <time>2020-08-29T09:23:22Z</time>
      </trkpt>
      <trkpt lat="47.27029" lon="6.84378">
        <ele>809</ele>
        <time>2020-08-29T09:23:23Z</time>
      </trkpt>
      <trkpt lat="47.27036" lon="6.84384">
        <ele>808.6</ele>
        <time>2020-08-29T09:23:24Z</time>
      </trkpt>
      <trkpt lat="47.27043" lon="6.8439">
        <ele>808</ele>
        <time>2020-08-29T09:23:25Z</time>
      </trkpt>
      <trkpt lat="47.27048" lon="6.84396">
        <ele>807.4</ele>
        <time>2020-08-29T09:23:26Z</time>
      </trkpt>
      <trkpt lat="47.27053" lon="6.84399">
        <ele>807</ele>
        <time>2020-08-29T09:23:27Z</time>
      </trkpt>
      <trkpt lat="47.27057" lon="6.84402">
        <ele>807</ele>
        <time>2020-08-29T09:23:28Z</time>
      </trkpt>
      <trkpt lat="47.27067" lon="6.84415">
        <ele>807</ele>
        <time>2020-08-29T09:23:32Z</time>
      </trkpt>
      <trkpt lat="47.27068" lon="6.84419">
        <ele>807</ele>
        <time>2020-08-29T09:23:35Z</time>
      </trkpt>
      <trkpt lat="47.27069" lon="6.84419">
        <ele>807</ele>
        <time>2020-08-29T09:23:36Z</time>
      </trkpt>
      <trkpt lat="47.27069" lon="6.8442">
        <ele>807</ele>
        <time>2020-08-29T09:23:41Z</time>
      </trkpt>
      <trkpt lat="47.27069" lon="6.8442">
        <ele>807</ele>
        <time>2020-08-29T09:23:42Z</time>
      </trkpt>
      <trkpt lat="47.27069" lon="6.8442">
        <ele>805.8</ele>
        <time>2020-08-29T09:23:46Z</time>
      </trkpt>
      <trkpt lat="47.27069" lon="6.84421">
        <ele>805.4</ele>
        <time>2020-08-29T09:23:47Z</time>
      </trkpt>
      <trkpt lat="47.2707" lon="6.84421">
        <ele>805</ele>
        <time>2020-08-29T09:23:48Z</time>
      </trkpt>
      <trkpt lat="47.27069" lon="6.84421">
        <ele>805</ele>
        <time>2020-08-29T09:23:50Z</time>
      </trkpt>
      <trkpt lat="47.27069" lon="6.84421">
        <ele>805</ele>
        <time>2020-08-29T09:23:51Z</time>
      </trkpt>
      <trkpt lat="47.27069" lon="6.84421">
        <ele>805</ele>
        <time>2020-08-29T09:23:55Z</time>
      </trkpt>
      <trkpt lat="47.27071" lon="6.84421">
        <ele>805</ele>
        <time>2020-08-29T09:23:56Z</time>
      </trkpt>
      <trkpt lat="47.27072" lon="6.84422">
        <ele>805</ele>
        <time>2020-08-29T09:23:57Z</time>
      </trkpt>
      <trkpt lat="47.27072" lon="6.84421">
        <ele>805</ele>
        <time>2020-08-29T09:23:58Z</time>
      </trkpt>
      <trkpt lat="47.27072" lon="6.84422">
        <ele>805</ele>
        <time>2020-08-29T09:23:59Z</time>
      </trkpt>
      <trkpt lat="47.27072" lon="6.84421">
        <ele>805</ele>
        <time>2020-08-29T09:24:00Z</time>
      </trkpt>
      <trkpt lat="47.27073" lon="6.84422">
        <ele>805</ele>
        <time>2020-08-29T09:24:01Z</time>
      </trkpt>
      <trkpt lat="47.27073" lon="6.84422">
        <ele>805</ele>
        <time>2020-08-29T09:24:02Z</time>
      </trkpt>
      <trkpt lat="47.27074" lon="6.84422">
        <ele>805</ele>
        <time>2020-08-29T09:24:17Z</time>
      </trkpt>
      <trkpt lat="47.27077" lon="6.84425">
        <ele>805</ele>
        <time>2020-08-29T09:24:19Z</time>
      </trkpt>
      <trkpt lat="47.27092" lon="6.8444">
        <ele>805</ele>
        <time>2020-08-29T09:24:25Z</time>
      </trkpt>
      <trkpt lat="47.271" lon="6.84446">
        <ele>804.6</ele>
        <time>2020-08-29T09:24:27Z</time>
      </trkpt>
      <trkpt lat="47.27104" lon="6.84451">
        <ele>804.2</ele>
        <time>2020-08-29T09:24:28Z</time>
      </trkpt>
      <trkpt lat="47.27108" lon="6.84455">
        <ele>803.8</ele>
        <time>2020-08-29T09:24:29Z</time>
      </trkpt>
      <trkpt lat="47.27111" lon="6.84458">
        <ele>803.2</ele>
        <time>2020-08-29T09:24:30Z</time>
      </trkpt>
      <trkpt lat="47.27115" lon="6.84461">
        <ele>802.8</ele>
        <time>2020-08-29T09:24:31Z</time>
      </trkpt>
      <trkpt lat="47.27122" lon="6.84468">
        <ele>802.8</ele>
        <time>2020-08-29T09:24:33Z</time>
      </trkpt>
      <trkpt lat="47.27134" lon="6.8448">
        <ele>802.8</ele>
        <time>2020-08-29T09:24:36Z</time>
      </trkpt>
      <trkpt lat="47.27138" lon="6.84484">
        <ele>802.4</ele>
        <time>2020-08-29T09:24:37Z</time>
      </trkpt>
      <trkpt lat="47.27142" lon="6.84488">
        <ele>802</ele>
        <time>2020-08-29T09:24:38Z</time>
      </trkpt>
      <trkpt lat="47.27146" lon="6.84492">
        <ele>801.6</ele>
        <time>2020-08-29T09:24:39Z</time>
      </trkpt>
      <trkpt lat="47.2715" lon="6.84496">
        <ele>801.2</ele>
        <time>2020-08-29T09:24:40Z</time>
      </trkpt>
      <trkpt lat="47.27154" lon="6.845">
        <ele>800.8</ele>
        <time>2020-08-29T09:24:41Z</time>
      </trkpt>
      <trkpt lat="47.27175" lon="6.84518">
        <ele>800.8</ele>
        <time>2020-08-29T09:24:46Z</time>
      </trkpt>
      <trkpt lat="47.27184" lon="6.84525">
        <ele>800.8</ele>
        <time>2020-08-29T09:24:48Z</time>
      </trkpt>
      <trkpt lat="47.27189" lon="6.84528">
        <ele>800.4</ele>
        <time>2020-08-29T09:24:49Z</time>
      </trkpt>
      <trkpt lat="47.27193" lon="6.84531">
        <ele>800</ele>
        <time>2020-08-29T09:24:50Z</time>
      </trkpt>
      <trkpt lat="47.27198" lon="6.84534">
        <ele>799.6</ele>
        <time>2020-08-29T09:24:51Z</time>
      </trkpt>
      <trkpt lat="47.27202" lon="6.84538">
        <ele>799.2</ele>
        <time>2020-08-29T09:24:52Z</time>
      </trkpt>
      <trkpt lat="47.27207" lon="6.84541">
        <ele>798.8</ele>
        <time>2020-08-29T09:24:53Z</time>
      </trkpt>
      <trkpt lat="47.27234" lon="6.84563">
        <ele>798.2</ele>
        <time>2020-08-29T09:24:59Z</time>
      </trkpt>
      <trkpt lat="47.27238" lon="6.84566">
        <ele>797.8</ele>
        <time>2020-08-29T09:25:00Z</time>
      </trkpt>
      <trkpt lat="47.27243" lon="6.84568">
        <ele>797</ele>
        <time>2020-08-29T09:25:01Z</time>
      </trkpt>
      <trkpt lat="47.27247" lon="6.84571">
        <ele>796.6</ele>
        <time>2020-08-29T09:25:02Z</time>
      </trkpt>
      <trkpt lat="47.27264" lon="6.84582">
        <ele>796.6</ele>
        <time>2020-08-29T09:25:06Z</time>
      </trkpt>
      <trkpt lat="47.27277" lon="6.8459">
        <ele>796.2</ele>
        <time>2020-08-29T09:25:09Z</time>
      </trkpt>
      <trkpt lat="47.27282" lon="6.84593">
        <ele>795.8</ele>
        <time>2020-08-29T09:25:10Z</time>
      </trkpt>
      <trkpt lat="47.27286" lon="6.84596">
        <ele>795.4</ele>
        <time>2020-08-29T09:25:11Z</time>
      </trkpt>
      <trkpt lat="47.27291" lon="6.84598">
        <ele>795</ele>
        <time>2020-08-29T09:25:12Z</time>
      </trkpt>
      <trkpt lat="47.27295" lon="6.84601">
        <ele>794.6</ele>
        <time>2020-08-29T09:25:13Z</time>
      </trkpt>
      <trkpt lat="47.27314" lon="6.84611">
        <ele>794.6</ele>
        <time>2020-08-29T09:25:17Z</time>
      </trkpt>
      <trkpt lat="47.27327" lon="6.84619">
        <ele>794.6</ele>
        <time>2020-08-29T09:25:20Z</time>
      </trkpt>
      <trkpt lat="47.27331" lon="6.84622">
        <ele>794.2</ele>
        <time>2020-08-29T09:25:21Z</time>
      </trkpt>
      <trkpt lat="47.27334" lon="6.84624">
        <ele>793.8</ele>
        <time>2020-08-29T09:25:22Z</time>
      </trkpt>
      <trkpt lat="47.27337" lon="6.84626">
        <ele>793.4</ele>
        <time>2020-08-29T09:25:23Z</time>
      </trkpt>
      <trkpt lat="47.27339" lon="6.84627">
        <ele>793</ele>
        <time>2020-08-29T09:25:24Z</time>
      </trkpt>
      <trkpt lat="47.2734" lon="6.84627">
        <ele>792.6</ele>
        <time>2020-08-29T09:25:25Z</time>
      </trkpt>
      <trkpt lat="47.2734" lon="6.84627">
        <ele>792.6</ele>
        <time>2020-08-29T09:25:26Z</time>
      </trkpt>
      <trkpt lat="47.2734" lon="6.84627">
        <ele>792.6</ele>
        <time>2020-08-29T09:25:32Z</time>
      </trkpt>
      <trkpt lat="47.27341" lon="6.84628">
        <ele>792.6</ele>
        <time>2020-08-29T09:25:33Z</time>
      </trkpt>
      <trkpt lat="47.27341" lon="6.84628">
        <ele>792.6</ele>
        <time>2020-08-29T09:25:35Z</time>
      </trkpt>
      <trkpt lat="47.27342" lon="6.84629">
        <ele>792.6</ele>
        <time>2020-08-29T09:25:36Z</time>
      </trkpt>
      <trkpt lat="47.27342" lon="6.84629">
        <ele>792.6</ele>
        <time>2020-08-29T09:25:37Z</time>
      </trkpt>
      <trkpt lat="47.27341" lon="6.8463">
        <ele>792.6</ele>
        <time>2020-08-29T09:25:40Z</time>
      </trkpt>
      <trkpt lat="47.27341" lon="6.84629">
        <ele>792.6</ele>
        <time>2020-08-29T09:25:41Z</time>
      </trkpt>
      <trkpt lat="47.27342" lon="6.8463">
        <ele>792.6</ele>
        <time>2020-08-29T09:25:42Z</time>
      </trkpt>
      <trkpt lat="47.27342" lon="6.84632">
        <ele>792.6</ele>
        <time>2020-08-29T09:25:43Z</time>
      </trkpt>
      <trkpt lat="47.27342" lon="6.84633">
        <ele>792.6</ele>
        <time>2020-08-29T09:25:45Z</time>
      </trkpt>
      <trkpt lat="47.27341" lon="6.84633">
        <ele>792.6</ele>
        <time>2020-08-29T09:25:55Z</time>
      </trkpt>
      <trkpt lat="47.27342" lon="6.84633">
        <ele>792.6</ele>
        <time>2020-08-29T09:25:56Z</time>
      </trkpt>
      <trkpt lat="47.27342" lon="6.84633">
        <ele>792.6</ele>
        <time>2020-08-29T09:26:15Z</time>
      </trkpt>
      <trkpt lat="47.27344" lon="6.84636">
        <ele>792.6</ele>
        <time>2020-08-29T09:26:17Z</time>
      </trkpt>
      <trkpt lat="47.27355" lon="6.84643">
        <ele>792.6</ele>
        <time>2020-08-29T09:26:22Z</time>
      </trkpt>
      <trkpt lat="47.27357" lon="6.84645">
        <ele>792.6</ele>
        <time>2020-08-29T09:26:23Z</time>
      </trkpt>
      <trkpt lat="47.27377" lon="6.84654">
        <ele>792.6</ele>
        <time>2020-08-29T09:26:30Z</time>
      </trkpt>
      <trkpt lat="47.27399" lon="6.84651">
        <ele>792.6</ele>
        <time>2020-08-29T09:26:37Z</time>
      </trkpt>
      <trkpt lat="47.27406" lon="6.84648">
        <ele>792.2</ele>
        <time>2020-08-29T09:26:39Z</time>
      </trkpt>
      <trkpt lat="47.27409" lon="6.84645">
        <ele>791.6</ele>
        <time>2020-08-29T09:26:40Z</time>
      </trkpt>
      <trkpt lat="47.27413" lon="6.84644">
        <ele>791.2</ele>
        <time>2020-08-29T09:26:41Z</time>
      </trkpt>
      <trkpt lat="47.27417" lon="6.84642">
        <ele>790.8</ele>
        <time>2020-08-29T09:26:42Z</time>
      </trkpt>
      <trkpt lat="47.27421" lon="6.84639">
        <ele>790.4</ele>
        <time>2020-08-29T09:26:43Z</time>
      </trkpt>
      <trkpt lat="47.27443" lon="6.84625">
        <ele>790.4</ele>
        <time>2020-08-29T09:26:48Z</time>
      </trkpt>
      <trkpt lat="47.27448" lon="6.84621">
        <ele>790</ele>
        <time>2020-08-29T09:26:49Z</time>
      </trkpt>
      <trkpt lat="47.27452" lon="6.84617">
        <ele>789.6</ele>
        <time>2020-08-29T09:26:50Z</time>
      </trkpt>
      <trkpt lat="47.27457" lon="6.84614">
        <ele>789.2</ele>
        <time>2020-08-29T09:26:51Z</time>
      </trkpt>
      <trkpt lat="47.27462" lon="6.8461">
        <ele>788.8</ele>
        <time>2020-08-29T09:26:52Z</time>
      </trkpt>
      <trkpt lat="47.27466" lon="6.84606">
        <ele>788.4</ele>
        <time>2020-08-29T09:26:53Z</time>
      </trkpt>
      <trkpt lat="47.27471" lon="6.84604">
        <ele>788.4</ele>
        <time>2020-08-29T09:26:54Z</time>
      </trkpt>
      <trkpt lat="47.27479" lon="6.84599">
        <ele>788.4</ele>
        <time>2020-08-29T09:26:56Z</time>
      </trkpt>
      <trkpt lat="47.27484" lon="6.84598">
        <ele>788</ele>
        <time>2020-08-29T09:26:57Z</time>
      </trkpt>
      <trkpt lat="47.27489" lon="6.84597">
        <ele>787.6</ele>
        <time>2020-08-29T09:26:58Z</time>
      </trkpt>
      <trkpt lat="47.27493" lon="6.84596">
        <ele>787</ele>
        <time>2020-08-29T09:26:59Z</time>
      </trkpt>
      <trkpt lat="47.27497" lon="6.84593">
        <ele>786.6</ele>
        <time>2020-08-29T09:27:00Z</time>
      </trkpt>
      <trkpt lat="47.27501" lon="6.84591">
        <ele>786.2</ele>
        <time>2020-08-29T09:27:01Z</time>
      </trkpt>
      <trkpt lat="47.27512" lon="6.84582">
        <ele>786.2</ele>
        <time>2020-08-29T09:27:04Z</time>
      </trkpt>
      <trkpt lat="47.2752" lon="6.84577">
        <ele>786.2</ele>
        <time>2020-08-29T09:27:06Z</time>
      </trkpt>
      <trkpt lat="47.27535" lon="6.84567">
        <ele>786.2</ele>
        <time>2020-08-29T09:27:10Z</time>
      </trkpt>
      <trkpt lat="47.27547" lon="6.8456">
        <ele>786.2</ele>
        <time>2020-08-29T09:27:13Z</time>
      </trkpt>
      <trkpt lat="47.27563" lon="6.84554">
        <ele>786.2</ele>
        <time>2020-08-29T09:27:18Z</time>
      </trkpt>
      <trkpt lat="47.27578" lon="6.84555">
        <ele>785.8</ele>
        <time>2020-08-29T09:27:23Z</time>
      </trkpt>
      <trkpt lat="47.27582" lon="6.84556">
        <ele>785.4</ele>
        <time>2020-08-29T09:27:24Z</time>
      </trkpt>
      <trkpt lat="47.27587" lon="6.84557">
        <ele>785</ele>
        <time>2020-08-29T09:27:25Z</time>
      </trkpt>
      <trkpt lat="47.2759" lon="6.8456">
        <ele>784.6</ele>
        <time>2020-08-29T09:27:26Z</time>
      </trkpt>
      <trkpt lat="47.27595" lon="6.84563">
        <ele>784.2</ele>
        <time>2020-08-29T09:27:27Z</time>
      </trkpt>
      <trkpt lat="47.27619" lon="6.84586">
        <ele>784.2</ele>
        <time>2020-08-29T09:27:33Z</time>
      </trkpt>
      <trkpt lat="47.27635" lon="6.84602">
        <ele>783.8</ele>
        <time>2020-08-29T09:27:37Z</time>
      </trkpt>
      <trkpt lat="47.2764" lon="6.84605">
        <ele>783.4</ele>
        <time>2020-08-29T09:27:38Z</time>
      </trkpt>
      <trkpt lat="47.27644" lon="6.84609">
        <ele>783</ele>
        <time>2020-08-29T09:27:39Z</time>
      </trkpt>
      <trkpt lat="47.27648" lon="6.84614">
        <ele>782.6</ele>
        <time>2020-08-29T09:27:40Z</time>
      </trkpt>
      <trkpt lat="47.27652" lon="6.84619">
        <ele>782.2</ele>
        <time>2020-08-29T09:27:41Z</time>
      </trkpt>
      <trkpt lat="47.27659" lon="6.84627">
        <ele>782.2</ele>
        <time>2020-08-29T09:27:43Z</time>
      </trkpt>
      <trkpt lat="47.27668" lon="6.84632">
        <ele>782.2</ele>
        <time>2020-08-29T09:27:45Z</time>
      </trkpt>
      <trkpt lat="47.27677" lon="6.84635">
        <ele>782.2</ele>
        <time>2020-08-29T09:27:47Z</time>
      </trkpt>
      <trkpt lat="47.27697" lon="6.84641">
        <ele>782.2</ele>
        <time>2020-08-29T09:27:51Z</time>
      </trkpt>
      <trkpt lat="47.27702" lon="6.84641">
        <ele>782.2</ele>
        <time>2020-08-29T09:27:52Z</time>
      </trkpt>
      <trkpt lat="47.27722" lon="6.84637">
        <ele>781.8</ele>
        <time>2020-08-29T09:27:56Z</time>
      </trkpt>
      <trkpt lat="47.27726" lon="6.84636">
        <ele>781.2</ele>
        <time>2020-08-29T09:27:57Z</time>
      </trkpt>
      <trkpt lat="47.27731" lon="6.84635">
        <ele>780.8</ele>
        <time>2020-08-29T09:27:58Z</time>
      </trkpt>
      <trkpt lat="47.27736" lon="6.84634">
        <ele>780.4</ele>
        <time>2020-08-29T09:27:59Z</time>
      </trkpt>
      <trkpt lat="47.27741" lon="6.84632">
        <ele>780</ele>
        <time>2020-08-29T09:28:00Z</time>
      </trkpt>
      <trkpt lat="47.27756" lon="6.84629">
        <ele>780</ele>
        <time>2020-08-29T09:28:03Z</time>
      </trkpt>
      <trkpt lat="47.27794" lon="6.84619">
        <ele>780</ele>
        <time>2020-08-29T09:28:11Z</time>
      </trkpt>
      <trkpt lat="47.27803" lon="6.84616">
        <ele>780</ele>
        <time>2020-08-29T09:28:13Z</time>
      </trkpt>
      <trkpt lat="47.2782" lon="6.84608">
        <ele>780</ele>
        <time>2020-08-29T09:28:17Z</time>
      </trkpt>
      <trkpt lat="47.27825" lon="6.84605">
        <ele>779.6</ele>
        <time>2020-08-29T09:28:18Z</time>
      </trkpt>
      <trkpt lat="47.27829" lon="6.84603">
        <ele>779.2</ele>
        <time>2020-08-29T09:28:19Z</time>
      </trkpt>
      <trkpt lat="47.27833" lon="6.84599">
        <ele>778.8</ele>
        <time>2020-08-29T09:28:20Z</time>
      </trkpt>
      <trkpt lat="47.27838" lon="6.84596">
        <ele>778.4</ele>
        <time>2020-08-29T09:28:21Z</time>
      </trkpt>
      <trkpt lat="47.27843" lon="6.84593">
        <ele>778</ele>
        <time>2020-08-29T09:28:22Z</time>
      </trkpt>
      <trkpt lat="47.27856" lon="6.84584">
        <ele>778</ele>
        <time>2020-08-29T09:28:25Z</time>
      </trkpt>
      <trkpt lat="47.27894" lon="6.8456">
        <ele>778</ele>
        <time>2020-08-29T09:28:34Z</time>
      </trkpt>
      <trkpt lat="47.27915" lon="6.84547">
        <ele>778</ele>
        <time>2020-08-29T09:28:39Z</time>
      </trkpt>
      <trkpt lat="47.27926" lon="6.84538">
        <ele>778</ele>
        <time>2020-08-29T09:28:42Z</time>
      </trkpt>
      <trkpt lat="47.27931" lon="6.84535">
        <ele>778</ele>
        <time>2020-08-29T09:28:43Z</time>
      </trkpt>
      <trkpt lat="47.27937" lon="6.84527">
        <ele>778</ele>
        <time>2020-08-29T09:28:45Z</time>
      </trkpt>
      <trkpt lat="47.27946" lon="6.84516">
        <ele>778</ele>
        <time>2020-08-29T09:28:48Z</time>
      </trkpt>
      <trkpt lat="47.27956" lon="6.84498">
        <ele>778</ele>
        <time>2020-08-29T09:28:53Z</time>
      </trkpt>
      <trkpt lat="47.27956" lon="6.84493">
        <ele>778</ele>
        <time>2020-08-29T09:28:54Z</time>
      </trkpt>
      <trkpt lat="47.2795" lon="6.84486">
        <ele>778</ele>
        <time>2020-08-29T09:28:56Z</time>
      </trkpt>
      <trkpt lat="47.27942" lon="6.84482">
        <ele>778</ele>
        <time>2020-08-29T09:28:58Z</time>
      </trkpt>
      <trkpt lat="47.27932" lon="6.84474">
        <ele>778</ele>
        <time>2020-08-29T09:29:01Z</time>
      </trkpt>
      <trkpt lat="47.27915" lon="6.84452">
        <ele>778</ele>
        <time>2020-08-29T09:29:07Z</time>
      </trkpt>
      <trkpt lat="47.27901" lon="6.84417">
        <ele>778</ele>
        <time>2020-08-29T09:29:14Z</time>
      </trkpt>
      <trkpt lat="47.2788" lon="6.84362">
        <ele>778</ele>
        <time>2020-08-29T09:29:24Z</time>
      </trkpt>
      <trkpt lat="47.27863" lon="6.84313">
        <ele>778.4</ele>
        <time>2020-08-29T09:29:33Z</time>
      </trkpt>
      <trkpt lat="47.27861" lon="6.84308">
        <ele>778.8</ele>
        <time>2020-08-29T09:29:34Z</time>
      </trkpt>
      <trkpt lat="47.27859" lon="6.84303">
        <ele>779.2</ele>
        <time>2020-08-29T09:29:35Z</time>
      </trkpt>
      <trkpt lat="47.27858" lon="6.84297">
        <ele>779.6</ele>
        <time>2020-08-29T09:29:36Z</time>
      </trkpt>
      <trkpt lat="47.27856" lon="6.84292">
        <ele>780</ele>
        <time>2020-08-29T09:29:37Z</time>
      </trkpt>
      <trkpt lat="47.2785" lon="6.84264">
        <ele>780</ele>
        <time>2020-08-29T09:29:42Z</time>
      </trkpt>
      <trkpt lat="47.27846" lon="6.84217">
        <ele>780</ele>
        <time>2020-08-29T09:29:50Z</time>
      </trkpt>
      <trkpt lat="47.27846" lon="6.84196">
        <ele>780.4</ele>
        <time>2020-08-29T09:29:54Z</time>
      </trkpt>
      <trkpt lat="47.27846" lon="6.8419">
        <ele>781.2</ele>
        <time>2020-08-29T09:29:55Z</time>
      </trkpt>
      <trkpt lat="47.27846" lon="6.84185">
        <ele>781.6</ele>
        <time>2020-08-29T09:29:56Z</time>
      </trkpt>
      <trkpt lat="47.27846" lon="6.84179">
        <ele>782.2</ele>
        <time>2020-08-29T09:29:57Z</time>
      </trkpt>
      <trkpt lat="47.2785" lon="6.84133">
        <ele>782.2</ele>
        <time>2020-08-29T09:30:06Z</time>
      </trkpt>
      <trkpt lat="47.27851" lon="6.84106">
        <ele>782.2</ele>
        <time>2020-08-29T09:30:12Z</time>
      </trkpt>
      <trkpt lat="47.27852" lon="6.84102">
        <ele>782.6</ele>
        <time>2020-08-29T09:30:13Z</time>
      </trkpt>
      <trkpt lat="47.27851" lon="6.84098">
        <ele>783</ele>
        <time>2020-08-29T09:30:14Z</time>
      </trkpt>
      <trkpt lat="47.2785" lon="6.84095">
        <ele>783.4</ele>
        <time>2020-08-29T09:30:15Z</time>
      </trkpt>
      <trkpt lat="47.27849" lon="6.84091">
        <ele>783.8</ele>
        <time>2020-08-29T09:30:16Z</time>
      </trkpt>
      <trkpt lat="47.27847" lon="6.84088">
        <ele>784.2</ele>
        <time>2020-08-29T09:30:17Z</time>
      </trkpt>
      <trkpt lat="47.27844" lon="6.84086">
        <ele>784.2</ele>
        <time>2020-08-29T09:30:18Z</time>
      </trkpt>
      <trkpt lat="47.27835" lon="6.84078">
        <ele>784.2</ele>
        <time>2020-08-29T09:30:23Z</time>
      </trkpt>
      <trkpt lat="47.27832" lon="6.84063">
        <ele>784.2</ele>
        <time>2020-08-29T09:30:28Z</time>
      </trkpt>
      <trkpt lat="47.27828" lon="6.84047">
        <ele>784.2</ele>
        <time>2020-08-29T09:30:33Z</time>
      </trkpt>
      <trkpt lat="47.27822" lon="6.84029">
        <ele>784.6</ele>
        <time>2020-08-29T09:30:39Z</time>
      </trkpt>
      <trkpt lat="47.27821" lon="6.84027">
        <ele>785</ele>
        <time>2020-08-29T09:30:40Z</time>
      </trkpt>
      <trkpt lat="47.2782" lon="6.84024">
        <ele>785.4</ele>
        <time>2020-08-29T09:30:41Z</time>
      </trkpt>
      <trkpt lat="47.27819" lon="6.84021">
        <ele>785.8</ele>
        <time>2020-08-29T09:30:42Z</time>
      </trkpt>
      <trkpt lat="47.27818" lon="6.84019">
        <ele>786.2</ele>
        <time>2020-08-29T09:30:43Z</time>
      </trkpt>
      <trkpt lat="47.27816" lon="6.84011">
        <ele>786.2</ele>
        <time>2020-08-29T09:30:46Z</time>
      </trkpt>
      <trkpt lat="47.27811" lon="6.83996">
        <ele>786.2</ele>
        <time>2020-08-29T09:30:51Z</time>
      </trkpt>
      <trkpt lat="47.27804" lon="6.83979">
        <ele>786.2</ele>
        <time>2020-08-29T09:30:57Z</time>
      </trkpt>
      <trkpt lat="47.27795" lon="6.83954">
        <ele>786.2</ele>
        <time>2020-08-29T09:31:06Z</time>
      </trkpt>
      <trkpt lat="47.27787" lon="6.83931">
        <ele>786.2</ele>
        <time>2020-08-29T09:31:14Z</time>
      </trkpt>
      <trkpt lat="47.27778" lon="6.83912">
        <ele>786.2</ele>
        <time>2020-08-29T09:31:21Z</time>
      </trkpt>
      <trkpt lat="47.27765" lon="6.83889">
        <ele>786.2</ele>
        <time>2020-08-29T09:31:30Z</time>
      </trkpt>
      <trkpt lat="47.27754" lon="6.83873">
        <ele>786.2</ele>
        <time>2020-08-29T09:31:37Z</time>
      </trkpt>
      <trkpt lat="47.27748" lon="6.83867">
        <ele>786.6</ele>
        <time>2020-08-29T09:31:40Z</time>
      </trkpt>
      <trkpt lat="47.27747" lon="6.83865">
        <ele>787.2</ele>
        <time>2020-08-29T09:31:41Z</time>
      </trkpt>
      <trkpt lat="47.27745" lon="6.83864">
        <ele>787.6</ele>
        <time>2020-08-29T09:31:42Z</time>
      </trkpt>
      <trkpt lat="47.27743" lon="6.83862">
        <ele>788</ele>
        <time>2020-08-29T09:31:43Z</time>
      </trkpt>
      <trkpt lat="47.27742" lon="6.8386">
        <ele>788.4</ele>
        <time>2020-08-29T09:31:44Z</time>
      </trkpt>
      <trkpt lat="47.27732" lon="6.8385">
        <ele>788.4</ele>
        <time>2020-08-29T09:31:49Z</time>
      </trkpt>
      <trkpt lat="47.27717" lon="6.83836">
        <ele>788.4</ele>
        <time>2020-08-29T09:31:57Z</time>
      </trkpt>
      <trkpt lat="47.27702" lon="6.8382">
        <ele>788.4</ele>
        <time>2020-08-29T09:32:05Z</time>
      </trkpt>
      <trkpt lat="47.27691" lon="6.83809">
        <ele>788.4</ele>
        <time>2020-08-29T09:32:11Z</time>
      </trkpt>
      <trkpt lat="47.27689" lon="6.83808">
        <ele>788.8</ele>
        <time>2020-08-29T09:32:12Z</time>
      </trkpt>
      <trkpt lat="47.27686" lon="6.83806">
        <ele>789.2</ele>
        <time>2020-08-29T09:32:13Z</time>
      </trkpt>
      <trkpt lat="47.27684" lon="6.83804">
        <ele>789.6</ele>
        <time>2020-08-29T09:32:14Z</time>
      </trkpt>
      <trkpt lat="47.27682" lon="6.83802">
        <ele>790</ele>
        <time>2020-08-29T09:32:15Z</time>
      </trkpt>
      <trkpt lat="47.2768" lon="6.838">
        <ele>790.4</ele>
        <time>2020-08-29T09:32:16Z</time>
      </trkpt>
      <trkpt lat="47.27675" lon="6.83795">
        <ele>790.4</ele>
        <time>2020-08-29T09:32:19Z</time>
      </trkpt>
      <trkpt lat="47.27662" lon="6.83782">
        <ele>790.4</ele>
        <time>2020-08-29T09:32:26Z</time>
      </trkpt>
      <trkpt lat="47.27648" lon="6.83768">
        <ele>790.4</ele>
        <time>2020-08-29T09:32:33Z</time>
      </trkpt>
      <trkpt lat="47.27636" lon="6.83753">
        <ele>790.4</ele>
        <time>2020-08-29T09:32:40Z</time>
      </trkpt>
      <trkpt lat="47.27627" lon="6.83742">
        <ele>790.8</ele>
        <time>2020-08-29T09:32:45Z</time>
      </trkpt>
      <trkpt lat="47.27625" lon="6.8374">
        <ele>791.2</ele>
        <time>2020-08-29T09:32:46Z</time>
      </trkpt>
      <trkpt lat="47.27623" lon="6.83738">
        <ele>791.6</ele>
        <time>2020-08-29T09:32:47Z</time>
      </trkpt>
      <trkpt lat="47.27621" lon="6.83736">
        <ele>792</ele>
        <time>2020-08-29T09:32:48Z</time>
      </trkpt>
      <trkpt lat="47.27619" lon="6.83734">
        <ele>792.4</ele>
        <time>2020-08-29T09:32:49Z</time>
      </trkpt>
      <trkpt lat="47.27608" lon="6.83722">
        <ele>792.4</ele>
        <time>2020-08-29T09:32:55Z</time>
      </trkpt>
      <trkpt lat="47.27593" lon="6.83708">
        <ele>792.4</ele>
        <time>2020-08-29T09:33:03Z</time>
      </trkpt>
      <trkpt lat="47.2758" lon="6.83691">
        <ele>792.4</ele>
        <time>2020-08-29T09:33:12Z</time>
      </trkpt>
      <trkpt lat="47.27574" lon="6.83682">
        <ele>792.8</ele>
        <time>2020-08-29T09:33:17Z</time>
      </trkpt>
      <trkpt lat="47.27573" lon="6.8368">
        <ele>793.2</ele>
        <time>2020-08-29T09:33:18Z</time>
      </trkpt>
      <trkpt lat="47.27572" lon="6.83678">
        <ele>793.6</ele>
        <time>2020-08-29T09:33:19Z</time>
      </trkpt>
      <trkpt lat="47.27571" lon="6.83677">
        <ele>794</ele>
        <time>2020-08-29T09:33:20Z</time>
      </trkpt>
      <trkpt lat="47.2757" lon="6.83676">
        <ele>794.4</ele>
        <time>2020-08-29T09:33:21Z</time>
      </trkpt>
      <trkpt lat="47.27567" lon="6.83672">
        <ele>794.4</ele>
        <time>2020-08-29T09:33:24Z</time>
      </trkpt>
      <trkpt lat="47.27564" lon="6.83668">
        <ele>794.4</ele>
        <time>2020-08-29T09:33:29Z</time>
      </trkpt>
      <trkpt lat="47.27564" lon="6.83668">
        <ele>794.4</ele>
        <time>2020-08-29T09:33:36Z</time>
      </trkpt>
      <trkpt lat="47.27564" lon="6.83667">
        <ele>794.4</ele>
        <time>2020-08-29T09:33:37Z</time>
      </trkpt>
      <trkpt lat="47.27564" lon="6.83667">
        <ele>796.6</ele>
        <time>2020-08-29T09:33:42Z</time>
      </trkpt>
      <trkpt lat="47.27564" lon="6.83667">
        <ele>796.6</ele>
        <time>2020-08-29T09:33:43Z</time>
      </trkpt>
      <trkpt lat="47.27564" lon="6.83666">
        <ele>796.6</ele>
        <time>2020-08-29T09:33:45Z</time>
      </trkpt>
      <trkpt lat="47.27564" lon="6.83665">
        <ele>796.6</ele>
        <time>2020-08-29T09:33:46Z</time>
      </trkpt>
      <trkpt lat="47.27564" lon="6.83664">
        <ele>796.6</ele>
        <time>2020-08-29T09:33:48Z</time>
      </trkpt>
      <trkpt lat="47.27566" lon="6.83663">
        <ele>796.6</ele>
        <time>2020-08-29T09:33:50Z</time>
      </trkpt>
      <trkpt lat="47.27565" lon="6.83663">
        <ele>796.6</ele>
        <time>2020-08-29T09:35:09Z</time>
      </trkpt>
      <trkpt lat="47.27565" lon="6.83663">
        <ele>796.6</ele>
        <time>2020-08-29T09:35:10Z</time>
      </trkpt>
      <trkpt lat="47.27565" lon="6.83662">
        <ele>796.6</ele>
        <time>2020-08-29T09:35:12Z</time>
      </trkpt>
      <trkpt lat="47.27565" lon="6.83661">
        <ele>796.6</ele>
        <time>2020-08-29T09:35:13Z</time>
      </trkpt>
      <trkpt lat="47.27565" lon="6.83658">
        <ele>796.6</ele>
        <time>2020-08-29T09:35:15Z</time>
      </trkpt>
      <trkpt lat="47.27561" lon="6.83644">
        <ele>796.6</ele>
        <time>2020-08-29T09:35:21Z</time>
      </trkpt>
      <trkpt lat="47.27559" lon="6.83629">
        <ele>796.6</ele>
        <time>2020-08-29T09:35:27Z</time>
      </trkpt>
      <trkpt lat="47.27555" lon="6.83606">
        <ele>796.6</ele>
        <time>2020-08-29T09:35:35Z</time>
      </trkpt>
      <trkpt lat="47.27551" lon="6.83583">
        <ele>796.6</ele>
        <time>2020-08-29T09:35:43Z</time>
      </trkpt>
      <trkpt lat="47.27549" lon="6.83569">
        <ele>797</ele>
        <time>2020-08-29T09:35:48Z</time>
      </trkpt>
      <trkpt lat="47.27548" lon="6.83567">
        <ele>797.4</ele>
        <time>2020-08-29T09:35:49Z</time>
      </trkpt>
      <trkpt lat="47.27547" lon="6.83564">
        <ele>797.8</ele>
        <time>2020-08-29T09:35:50Z</time>
      </trkpt>
      <trkpt lat="47.27547" lon="6.83561">
        <ele>798.2</ele>
        <time>2020-08-29T09:35:51Z</time>
      </trkpt>
      <trkpt lat="47.27546" lon="6.83559">
        <ele>798.6</ele>
        <time>2020-08-29T09:35:52Z</time>
      </trkpt>
      <trkpt lat="47.2754" lon="6.8354">
        <ele>798.6</ele>
        <time>2020-08-29T09:35:59Z</time>
      </trkpt>
      <trkpt lat="47.27533" lon="6.8352">
        <ele>798.6</ele>
        <time>2020-08-29T09:36:07Z</time>
      </trkpt>
      <trkpt lat="47.27525" lon="6.835">
        <ele>799</ele>
        <time>2020-08-29T09:36:15Z</time>
      </trkpt>
      <trkpt lat="47.27523" lon="6.83498">
        <ele>799.4</ele>
        <time>2020-08-29T09:36:16Z</time>
      </trkpt>
      <trkpt lat="47.27522" lon="6.83496">
        <ele>799.8</ele>
        <time>2020-08-29T09:36:17Z</time>
      </trkpt>
      <trkpt lat="47.27521" lon="6.83493">
        <ele>800.2</ele>
        <time>2020-08-29T09:36:18Z</time>
      </trkpt>
      <trkpt lat="47.2752" lon="6.83491">
        <ele>800.6</ele>
        <time>2020-08-29T09:36:19Z</time>
      </trkpt>
      <trkpt lat="47.27516" lon="6.83484">
        <ele>800.6</ele>
        <time>2020-08-29T09:36:22Z</time>
      </trkpt>
      <trkpt lat="47.2751" lon="6.8347">
        <ele>800.6</ele>
        <time>2020-08-29T09:36:28Z</time>
      </trkpt>
      <trkpt lat="47.27504" lon="6.83456">
        <ele>800.6</ele>
        <time>2020-08-29T09:36:34Z</time>
      </trkpt>
      <trkpt lat="47.27497" lon="6.83441">
        <ele>801</ele>
        <time>2020-08-29T09:36:40Z</time>
      </trkpt>
      <trkpt lat="47.27496" lon="6.83439">
        <ele>801.4</ele>
        <time>2020-08-29T09:36:41Z</time>
      </trkpt>
      <trkpt lat="47.27495" lon="6.83437">
        <ele>801.8</ele>
        <time>2020-08-29T09:36:42Z</time>
      </trkpt>
      <trkpt lat="47.27494" lon="6.83434">
        <ele>802.2</ele>
        <time>2020-08-29T09:36:43Z</time>
      </trkpt>
      <trkpt lat="47.27493" lon="6.83432">
        <ele>802.6</ele>
        <time>2020-08-29T09:36:44Z</time>
      </trkpt>
      <trkpt lat="47.2749" lon="6.83428">
        <ele>802.6</ele>
        <time>2020-08-29T09:36:46Z</time>
      </trkpt>
      <trkpt lat="47.2748" lon="6.83417">
        <ele>802.6</ele>
        <time>2020-08-29T09:36:53Z</time>
      </trkpt>
      <trkpt lat="47.27474" lon="6.83408">
        <ele>802.6</ele>
        <time>2020-08-29T09:36:58Z</time>
      </trkpt>
      <trkpt lat="47.27472" lon="6.83406">
        <ele>802.6</ele>
        <time>2020-08-29T09:36:59Z</time>
      </trkpt>
      <trkpt lat="47.27461" lon="6.83391">
        <ele>802.6</ele>
        <time>2020-08-29T09:37:07Z</time>
      </trkpt>
      <trkpt lat="47.2746" lon="6.83389">
        <ele>803</ele>
        <time>2020-08-29T09:37:08Z</time>
      </trkpt>
      <trkpt lat="47.27459" lon="6.83387">
        <ele>803.4</ele>
        <time>2020-08-29T09:37:09Z</time>
      </trkpt>
      <trkpt lat="47.27457" lon="6.83386">
        <ele>803.8</ele>
        <time>2020-08-29T09:37:10Z</time>
      </trkpt>
      <trkpt lat="47.27456" lon="6.83384">
        <ele>804.2</ele>
        <time>2020-08-29T09:37:11Z</time>
      </trkpt>
      <trkpt lat="47.27454" lon="6.83382">
        <ele>804.6</ele>
        <time>2020-08-29T09:37:12Z</time>
      </trkpt>
      <trkpt lat="47.27452" lon="6.83378">
        <ele>804.6</ele>
        <time>2020-08-29T09:37:14Z</time>
      </trkpt>
      <trkpt lat="47.27444" lon="6.83363">
        <ele>804.6</ele>
        <time>2020-08-29T09:37:21Z</time>
      </trkpt>
      <trkpt lat="47.27436" lon="6.83349">
        <ele>804.6</ele>
        <time>2020-08-29T09:37:27Z</time>
      </trkpt>
      <trkpt lat="47.27432" lon="6.83337">
        <ele>804.6</ele>
        <time>2020-08-29T09:37:32Z</time>
      </trkpt>
      <trkpt lat="47.27431" lon="6.83335">
        <ele>805</ele>
        <time>2020-08-29T09:37:33Z</time>
      </trkpt>
      <trkpt lat="47.27431" lon="6.83332">
        <ele>805.6</ele>
        <time>2020-08-29T09:37:34Z</time>
      </trkpt>
      <trkpt lat="47.27431" lon="6.8333">
        <ele>806</ele>
        <time>2020-08-29T09:37:35Z</time>
      </trkpt>
      <trkpt lat="47.2743" lon="6.83327">
        <ele>806.4</ele>
        <time>2020-08-29T09:37:36Z</time>
      </trkpt>
      <trkpt lat="47.2743" lon="6.83324">
        <ele>806.8</ele>
        <time>2020-08-29T09:37:37Z</time>
      </trkpt>
      <trkpt lat="47.27426" lon="6.83305">
        <ele>806.8</ele>
        <time>2020-08-29T09:37:45Z</time>
      </trkpt>
      <trkpt lat="47.27422" lon="6.83287">
        <ele>806.8</ele>
        <time>2020-08-29T09:37:52Z</time>
      </trkpt>
      <trkpt lat="47.27412" lon="6.83272">
        <ele>806.8</ele>
        <time>2020-08-29T09:37:59Z</time>
      </trkpt>
      <trkpt lat="47.27407" lon="6.83265">
        <ele>807.2</ele>
        <time>2020-08-29T09:38:02Z</time>
      </trkpt>
      <trkpt lat="47.27406" lon="6.83263">
        <ele>807.6</ele>
        <time>2020-08-29T09:38:03Z</time>
      </trkpt>
      <trkpt lat="47.27404" lon="6.83261">
        <ele>808</ele>
        <time>2020-08-29T09:38:04Z</time>
      </trkpt>
      <trkpt lat="47.27404" lon="6.83259">
        <ele>808.4</ele>
        <time>2020-08-29T09:38:05Z</time>
      </trkpt>
      <trkpt lat="47.27403" lon="6.83257">
        <ele>808.8</ele>
        <time>2020-08-29T09:38:06Z</time>
      </trkpt>
      <trkpt lat="47.27402" lon="6.83255">
        <ele>808.8</ele>
        <time>2020-08-29T09:38:07Z</time>
      </trkpt>
      <trkpt lat="47.27396" lon="6.83244">
        <ele>808.8</ele>
        <time>2020-08-29T09:38:12Z</time>
      </trkpt>
      <trkpt lat="47.27389" lon="6.83227">
        <ele>808.8</ele>
        <time>2020-08-29T09:38:19Z</time>
      </trkpt>
      <trkpt lat="47.27382" lon="6.8321">
        <ele>808.8</ele>
        <time>2020-08-29T09:38:26Z</time>
      </trkpt>
      <trkpt lat="47.27381" lon="6.83207">
        <ele>809.2</ele>
        <time>2020-08-29T09:38:27Z</time>
      </trkpt>
      <trkpt lat="47.2738" lon="6.83204">
        <ele>809.6</ele>
        <time>2020-08-29T09:38:28Z</time>
      </trkpt>
      <trkpt lat="47.2738" lon="6.83202">
        <ele>810</ele>
        <time>2020-08-29T09:38:29Z</time>
      </trkpt>
      <trkpt lat="47.27378" lon="6.83199">
        <ele>810.4</ele>
        <time>2020-08-29T09:38:30Z</time>
      </trkpt>
      <trkpt lat="47.27377" lon="6.83197">
        <ele>811</ele>
        <time>2020-08-29T09:38:31Z</time>
      </trkpt>
      <trkpt lat="47.27376" lon="6.83195">
        <ele>811</ele>
        <time>2020-08-29T09:38:32Z</time>
      </trkpt>
      <trkpt lat="47.2737" lon="6.83182">
        <ele>811</ele>
        <time>2020-08-29T09:38:38Z</time>
      </trkpt>
      <trkpt lat="47.27359" lon="6.83171">
        <ele>811</ele>
        <time>2020-08-29T09:38:45Z</time>
      </trkpt>
      <trkpt lat="47.27353" lon="6.83168">
        <ele>811</ele>
        <time>2020-08-29T09:38:49Z</time>
      </trkpt>
      <trkpt lat="47.27352" lon="6.83168">
        <ele>811</ele>
        <time>2020-08-29T09:38:50Z</time>
      </trkpt>
      <trkpt lat="47.2735" lon="6.83168">
        <ele>811.4</ele>
        <time>2020-08-29T09:38:51Z</time>
      </trkpt>
      <trkpt lat="47.2735" lon="6.83168">
        <ele>811.8</ele>
        <time>2020-08-29T09:38:52Z</time>
      </trkpt>
      <trkpt lat="47.27349" lon="6.83168">
        <ele>812.2</ele>
        <time>2020-08-29T09:38:53Z</time>
      </trkpt>
      <trkpt lat="47.27348" lon="6.83168">
        <ele>812.6</ele>
        <time>2020-08-29T09:38:54Z</time>
      </trkpt>
      <trkpt lat="47.27347" lon="6.83168">
        <ele>813</ele>
        <time>2020-08-29T09:38:55Z</time>
      </trkpt>
      <trkpt lat="47.27346" lon="6.83168">
        <ele>813</ele>
        <time>2020-08-29T09:38:56Z</time>
      </trkpt>
      <trkpt lat="47.27338" lon="6.83164">
        <ele>813</ele>
        <time>2020-08-29T09:39:03Z</time>
      </trkpt>
      <trkpt lat="47.27337" lon="6.83163">
        <ele>813.4</ele>
        <time>2020-08-29T09:39:04Z</time>
      </trkpt>
      <trkpt lat="47.27336" lon="6.83162">
        <ele>813.8</ele>
        <time>2020-08-29T09:39:05Z</time>
      </trkpt>
      <trkpt lat="47.27335" lon="6.83161">
        <ele>814.2</ele>
        <time>2020-08-29T09:39:06Z</time>
      </trkpt>
      <trkpt lat="47.27334" lon="6.8316">
        <ele>814.6</ele>
        <time>2020-08-29T09:39:07Z</time>
      </trkpt>
      <trkpt lat="47.27333" lon="6.8316">
        <ele>815</ele>
        <time>2020-08-29T09:39:08Z</time>
      </trkpt>
      <trkpt lat="47.27332" lon="6.8316">
        <ele>815</ele>
        <time>2020-08-29T09:39:09Z</time>
      </trkpt>
      <trkpt lat="47.27323" lon="6.83157">
        <ele>815</ele>
        <time>2020-08-29T09:39:15Z</time>
      </trkpt>
      <trkpt lat="47.27316" lon="6.83149">
        <ele>815</ele>
        <time>2020-08-29T09:39:21Z</time>
      </trkpt>
      <trkpt lat="47.27313" lon="6.8313">
        <ele>815</ele>
        <time>2020-08-29T09:39:27Z</time>
      </trkpt>
      <trkpt lat="47.27311" lon="6.83127">
        <ele>815.6</ele>
        <time>2020-08-29T09:39:29Z</time>
      </trkpt>
      <trkpt lat="47.27309" lon="6.83126">
        <ele>816</ele>
        <time>2020-08-29T09:39:30Z</time>
      </trkpt>
      <trkpt lat="47.27308" lon="6.83125">
        <ele>816.4</ele>
        <time>2020-08-29T09:39:31Z</time>
      </trkpt>
      <trkpt lat="47.27307" lon="6.83124">
        <ele>816.8</ele>
        <time>2020-08-29T09:39:32Z</time>
      </trkpt>
      <trkpt lat="47.27306" lon="6.83124">
        <ele>817.2</ele>
        <time>2020-08-29T09:39:33Z</time>
      </trkpt>
      <trkpt lat="47.27302" lon="6.83123">
        <ele>817.2</ele>
        <time>2020-08-29T09:39:37Z</time>
      </trkpt>
      <trkpt lat="47.27302" lon="6.83123">
        <ele>817.2</ele>
        <time>2020-08-29T09:39:40Z</time>
      </trkpt>
      <trkpt lat="47.27302" lon="6.83123">
        <ele>817.2</ele>
        <time>2020-08-29T09:39:41Z</time>
      </trkpt>
      <trkpt lat="47.27302" lon="6.83123">
        <ele>817.2</ele>
        <time>2020-08-29T09:39:42Z</time>
      </trkpt>
      <trkpt lat="47.27302" lon="6.83123">
        <ele>817.2</ele>
        <time>2020-08-29T09:39:48Z</time>
      </trkpt>
      <trkpt lat="47.27302" lon="6.83122">
        <ele>817.2</ele>
        <time>2020-08-29T09:39:50Z</time>
      </trkpt>
      <trkpt lat="47.27302" lon="6.83122">
        <ele>817.2</ele>
        <time>2020-08-29T09:39:53Z</time>
      </trkpt>
      <trkpt lat="47.27302" lon="6.83122">
        <ele>817.2</ele>
        <time>2020-08-29T09:39:54Z</time>
      </trkpt>
      <trkpt lat="47.27302" lon="6.83122">
        <ele>817.2</ele>
        <time>2020-08-29T09:39:55Z</time>
      </trkpt>
      <trkpt lat="47.27302" lon="6.8312">
        <ele>817.2</ele>
        <time>2020-08-29T09:39:59Z</time>
      </trkpt>
      <trkpt lat="47.27302" lon="6.83118">
        <ele>817.2</ele>
        <time>2020-08-29T09:40:00Z</time>
      </trkpt>
      <trkpt lat="47.27302" lon="6.83116">
        <ele>817.2</ele>
        <time>2020-08-29T09:40:02Z</time>
      </trkpt>
      <trkpt lat="47.27302" lon="6.83116">
        <ele>817.2</ele>
        <time>2020-08-29T09:40:03Z</time>
      </trkpt>
      <trkpt lat="47.27302" lon="6.83115">
        <ele>817.2</ele>
        <time>2020-08-29T09:40:04Z</time>
      </trkpt>
      <trkpt lat="47.27302" lon="6.83115">
        <ele>817.2</ele>
        <time>2020-08-29T09:40:10Z</time>
      </trkpt>
      <trkpt lat="47.27302" lon="6.83114">
        <ele>817.2</ele>
        <time>2020-08-29T09:40:11Z</time>
      </trkpt>
      <trkpt lat="47.273" lon="6.83108">
        <ele>817.2</ele>
        <time>2020-08-29T09:40:14Z</time>
      </trkpt>
      <trkpt lat="47.27298" lon="6.83105">
        <ele>817.2</ele>
        <time>2020-08-29T09:40:16Z</time>
      </trkpt>
      <trkpt lat="47.27297" lon="6.83103">
        <ele>817.2</ele>
        <time>2020-08-29T09:40:17Z</time>
      </trkpt>
      <trkpt lat="47.27291" lon="6.83094">
        <ele>817.2</ele>
        <time>2020-08-29T09:40:21Z</time>
      </trkpt>
      <trkpt lat="47.27289" lon="6.83087">
        <ele>817.6</ele>
        <time>2020-08-29T09:40:24Z</time>
      </trkpt>
      <trkpt lat="47.27289" lon="6.83085">
        <ele>818</ele>
        <time>2020-08-29T09:40:25Z</time>
      </trkpt>
      <trkpt lat="47.27287" lon="6.83083">
        <ele>818.4</ele>
        <time>2020-08-29T09:40:26Z</time>
      </trkpt>
      <trkpt lat="47.27287" lon="6.83082">
        <ele>818.8</ele>
        <time>2020-08-29T09:40:27Z</time>
      </trkpt>
      <trkpt lat="47.27286" lon="6.8308">
        <ele>819.2</ele>
        <time>2020-08-29T09:40:28Z</time>
      </trkpt>
      <trkpt lat="47.27275" lon="6.83066">
        <ele>819.2</ele>
        <time>2020-08-29T09:40:37Z</time>
      </trkpt>
      <trkpt lat="47.27267" lon="6.83053">
        <ele>819.2</ele>
        <time>2020-08-29T09:40:44Z</time>
      </trkpt>
      <trkpt lat="47.27266" lon="6.83041">
        <ele>819.6</ele>
        <time>2020-08-29T09:40:50Z</time>
      </trkpt>
      <trkpt lat="47.27265" lon="6.83039">
        <ele>820</ele>
        <time>2020-08-29T09:40:51Z</time>
      </trkpt>
      <trkpt lat="47.27265" lon="6.83038">
        <ele>820.4</ele>
        <time>2020-08-29T09:40:52Z</time>
      </trkpt>
      <trkpt lat="47.27264" lon="6.83037">
        <ele>820.8</ele>
        <time>2020-08-29T09:40:53Z</time>
      </trkpt>
      <trkpt lat="47.27264" lon="6.83035">
        <ele>821.2</ele>
        <time>2020-08-29T09:40:54Z</time>
      </trkpt>
      <trkpt lat="47.27262" lon="6.83029">
        <ele>821.2</ele>
        <time>2020-08-29T09:40:58Z</time>
      </trkpt>
      <trkpt lat="47.27257" lon="6.83022">
        <ele>821.6</ele>
        <time>2020-08-29T09:41:04Z</time>
      </trkpt>
      <trkpt lat="47.27256" lon="6.83022">
        <ele>822.6</ele>
        <time>2020-08-29T09:41:05Z</time>
      </trkpt>
      <trkpt lat="47.27255" lon="6.8302">
        <ele>823</ele>
        <time>2020-08-29T09:41:06Z</time>
      </trkpt>
      <trkpt lat="47.27253" lon="6.83019">
        <ele>823.4</ele>
        <time>2020-08-29T09:41:07Z</time>
      </trkpt>
      <trkpt lat="47.2725" lon="6.83016">
        <ele>823.4</ele>
        <time>2020-08-29T09:41:10Z</time>
      </trkpt>
      <trkpt lat="47.27246" lon="6.83013">
        <ele>823.8</ele>
        <time>2020-08-29T09:41:15Z</time>
      </trkpt>
      <trkpt lat="47.27245" lon="6.83013">
        <ele>824.2</ele>
        <time>2020-08-29T09:41:16Z</time>
      </trkpt>
      <trkpt lat="47.27245" lon="6.83012">
        <ele>824.6</ele>
        <time>2020-08-29T09:41:17Z</time>
      </trkpt>
      <trkpt lat="47.27244" lon="6.83011">
        <ele>825</ele>
        <time>2020-08-29T09:41:18Z</time>
      </trkpt>
      <trkpt lat="47.27243" lon="6.8301">
        <ele>825.6</ele>
        <time>2020-08-29T09:41:19Z</time>
      </trkpt>
      <trkpt lat="47.27242" lon="6.83008">
        <ele>825.6</ele>
        <time>2020-08-29T09:41:20Z</time>
      </trkpt>
      <trkpt lat="47.27238" lon="6.83002">
        <ele>825.6</ele>
        <time>2020-08-29T09:41:24Z</time>
      </trkpt>
      <trkpt lat="47.2723" lon="6.8299">
        <ele>826</ele>
        <time>2020-08-29T09:41:32Z</time>
      </trkpt>
      <trkpt lat="47.2723" lon="6.82989">
        <ele>826.4</ele>
        <time>2020-08-29T09:41:33Z</time>
      </trkpt>
      <trkpt lat="47.27229" lon="6.82988">
        <ele>826.8</ele>
        <time>2020-08-29T09:41:34Z</time>
      </trkpt>
      <trkpt lat="47.27228" lon="6.82986">
        <ele>827.2</ele>
        <time>2020-08-29T09:41:35Z</time>
      </trkpt>
      <trkpt lat="47.27227" lon="6.82986">
        <ele>827.6</ele>
        <time>2020-08-29T09:41:36Z</time>
      </trkpt>
      <trkpt lat="47.27224" lon="6.82981">
        <ele>827.6</ele>
        <time>2020-08-29T09:41:39Z</time>
      </trkpt>
      <trkpt lat="47.27222" lon="6.82978">
        <ele>827.6</ele>
        <time>2020-08-29T09:41:41Z</time>
      </trkpt>
      <trkpt lat="47.27218" lon="6.82973">
        <ele>827.6</ele>
        <time>2020-08-29T09:41:45Z</time>
      </trkpt>
      <trkpt lat="47.27217" lon="6.82968">
        <ele>828</ele>
        <time>2020-08-29T09:41:48Z</time>
      </trkpt>
      <trkpt lat="47.27215" lon="6.82966">
        <ele>828.4</ele>
        <time>2020-08-29T09:41:49Z</time>
      </trkpt>
      <trkpt lat="47.27214" lon="6.82965">
        <ele>828.8</ele>
        <time>2020-08-29T09:41:50Z</time>
      </trkpt>
      <trkpt lat="47.27213" lon="6.82964">
        <ele>829.2</ele>
        <time>2020-08-29T09:41:51Z</time>
      </trkpt>
      <trkpt lat="47.27212" lon="6.82963">
        <ele>829.6</ele>
        <time>2020-08-29T09:41:52Z</time>
      </trkpt>
      <trkpt lat="47.27208" lon="6.82957">
        <ele>829.6</ele>
        <time>2020-08-29T09:41:57Z</time>
      </trkpt>
      <trkpt lat="47.27201" lon="6.82952">
        <ele>830</ele>
        <time>2020-08-29T09:42:03Z</time>
      </trkpt>
      <trkpt lat="47.272" lon="6.82951">
        <ele>830.6</ele>
        <time>2020-08-29T09:42:04Z</time>
      </trkpt>
      <trkpt lat="47.27199" lon="6.8295">
        <ele>831</ele>
        <time>2020-08-29T09:42:05Z</time>
      </trkpt>
      <trkpt lat="47.27198" lon="6.82948">
        <ele>831.4</ele>
        <time>2020-08-29T09:42:06Z</time>
      </trkpt>
      <trkpt lat="47.27198" lon="6.82947">
        <ele>831.8</ele>
        <time>2020-08-29T09:42:07Z</time>
      </trkpt>
      <trkpt lat="47.27193" lon="6.82939">
        <ele>831.8</ele>
        <time>2020-08-29T09:42:14Z</time>
      </trkpt>
      <trkpt lat="47.27192" lon="6.82937">
        <ele>832.2</ele>
        <time>2020-08-29T09:42:16Z</time>
      </trkpt>
      <trkpt lat="47.27192" lon="6.82935">
        <ele>832.6</ele>
        <time>2020-08-29T09:42:17Z</time>
      </trkpt>
      <trkpt lat="47.27192" lon="6.82934">
        <ele>833</ele>
        <time>2020-08-29T09:42:18Z</time>
      </trkpt>
      <trkpt lat="47.27191" lon="6.82932">
        <ele>833.8</ele>
        <time>2020-08-29T09:42:19Z</time>
      </trkpt>
      <trkpt lat="47.27191" lon="6.82931">
        <ele>833.8</ele>
        <time>2020-08-29T09:42:20Z</time>
      </trkpt>
      <trkpt lat="47.27185" lon="6.82925">
        <ele>833.8</ele>
        <time>2020-08-29T09:42:27Z</time>
      </trkpt>
      <trkpt lat="47.27177" lon="6.82919">
        <ele>833.8</ele>
        <time>2020-08-29T09:42:35Z</time>
      </trkpt>
      <trkpt lat="47.27168" lon="6.82914">
        <ele>833.8</ele>
        <time>2020-08-29T09:42:43Z</time>
      </trkpt>
      <trkpt lat="47.27164" lon="6.82908">
        <ele>834.2</ele>
        <time>2020-08-29T09:42:48Z</time>
      </trkpt>
      <trkpt lat="47.27163" lon="6.82906">
        <ele>834.6</ele>
        <time>2020-08-29T09:42:49Z</time>
      </trkpt>
      <trkpt lat="47.27162" lon="6.82905">
        <ele>835</ele>
        <time>2020-08-29T09:42:50Z</time>
      </trkpt>
      <trkpt lat="47.2716" lon="6.82903">
        <ele>835.4</ele>
        <time>2020-08-29T09:42:51Z</time>
      </trkpt>
      <trkpt lat="47.27159" lon="6.82901">
        <ele>835.8</ele>
        <time>2020-08-29T09:42:52Z</time>
      </trkpt>
      <trkpt lat="47.27156" lon="6.82896">
        <ele>835.8</ele>
        <time>2020-08-29T09:42:56Z</time>
      </trkpt>
      <trkpt lat="47.27151" lon="6.82889">
        <ele>835.8</ele>
        <time>2020-08-29T09:43:02Z</time>
      </trkpt>
      <trkpt lat="47.2715" lon="6.82888">
        <ele>835.8</ele>
        <time>2020-08-29T09:43:03Z</time>
      </trkpt>
      <trkpt lat="47.27148" lon="6.82885">
        <ele>836.2</ele>
        <time>2020-08-29T09:43:05Z</time>
      </trkpt>
      <trkpt lat="47.27148" lon="6.82884">
        <ele>836.6</ele>
        <time>2020-08-29T09:43:06Z</time>
      </trkpt>
      <trkpt lat="47.27147" lon="6.82882">
        <ele>837.2</ele>
        <time>2020-08-29T09:43:07Z</time>
      </trkpt>
      <trkpt lat="47.27147" lon="6.8288">
        <ele>837.6</ele>
        <time>2020-08-29T09:43:08Z</time>
      </trkpt>
      <trkpt lat="47.27147" lon="6.82879">
        <ele>838</ele>
        <time>2020-08-29T09:43:09Z</time>
      </trkpt>
      <trkpt lat="47.27146" lon="6.82878">
        <ele>838</ele>
        <time>2020-08-29T09:43:10Z</time>
      </trkpt>
      <trkpt lat="47.27142" lon="6.82875">
        <ele>838</ele>
        <time>2020-08-29T09:43:14Z</time>
      </trkpt>
      <trkpt lat="47.2714" lon="6.82873">
        <ele>838.4</ele>
        <time>2020-08-29T09:43:18Z</time>
      </trkpt>
      <trkpt lat="47.27139" lon="6.82872">
        <ele>838.8</ele>
        <time>2020-08-29T09:43:19Z</time>
      </trkpt>
      <trkpt lat="47.27138" lon="6.8287">
        <ele>839.2</ele>
        <time>2020-08-29T09:43:20Z</time>
      </trkpt>
      <trkpt lat="47.27137" lon="6.82869">
        <ele>839.6</ele>
        <time>2020-08-29T09:43:21Z</time>
      </trkpt>
      <trkpt lat="47.27137" lon="6.82867">
        <ele>840</ele>
        <time>2020-08-29T09:43:22Z</time>
      </trkpt>
      <trkpt lat="47.27136" lon="6.82864">
        <ele>840</ele>
        <time>2020-08-29T09:43:24Z</time>
      </trkpt>
      <trkpt lat="47.27131" lon="6.8286">
        <ele>840</ele>
        <time>2020-08-29T09:43:30Z</time>
      </trkpt>
      <trkpt lat="47.27129" lon="6.82857">
        <ele>840</ele>
        <time>2020-08-29T09:43:32Z</time>
      </trkpt>
      <trkpt lat="47.27129" lon="6.82855">
        <ele>840.4</ele>
        <time>2020-08-29T09:43:34Z</time>
      </trkpt>
      <trkpt lat="47.27128" lon="6.82855">
        <ele>842</ele>
        <time>2020-08-29T09:43:41Z</time>
      </trkpt>
      <trkpt lat="47.27127" lon="6.82854">
        <ele>842</ele>
        <time>2020-08-29T09:43:43Z</time>
      </trkpt>
      <trkpt lat="47.27127" lon="6.82854">
        <ele>842</ele>
        <time>2020-08-29T09:43:44Z</time>
      </trkpt>
      <trkpt lat="47.27127" lon="6.82852">
        <ele>842</ele>
        <time>2020-08-29T09:43:46Z</time>
      </trkpt>
      <trkpt lat="47.27126" lon="6.82851">
        <ele>842</ele>
        <time>2020-08-29T09:43:48Z</time>
      </trkpt>
      <trkpt lat="47.27126" lon="6.82851">
        <ele>842</ele>
        <time>2020-08-29T09:43:59Z</time>
      </trkpt>
      <trkpt lat="47.27124" lon="6.82848">
        <ele>842</ele>
        <time>2020-08-29T09:44:03Z</time>
      </trkpt>
      <trkpt lat="47.27123" lon="6.82848">
        <ele>842</ele>
        <time>2020-08-29T09:44:11Z</time>
      </trkpt>
      <trkpt lat="47.27122" lon="6.82846">
        <ele>842</ele>
        <time>2020-08-29T09:44:12Z</time>
      </trkpt>
      <trkpt lat="47.27122" lon="6.82846">
        <ele>844.2</ele>
        <time>2020-08-29T09:44:17Z</time>
      </trkpt>
      <trkpt lat="47.2712" lon="6.82844">
        <ele>844.2</ele>
        <time>2020-08-29T09:44:19Z</time>
      </trkpt>
      <trkpt lat="47.27119" lon="6.82843">
        <ele>844.2</ele>
        <time>2020-08-29T09:44:21Z</time>
      </trkpt>
      <trkpt lat="47.27118" lon="6.82842">
        <ele>844.2</ele>
        <time>2020-08-29T09:44:28Z</time>
      </trkpt>
      <trkpt lat="47.27115" lon="6.82842">
        <ele>844.2</ele>
        <time>2020-08-29T09:44:31Z</time>
      </trkpt>
      <trkpt lat="47.27113" lon="6.82842">
        <ele>844.2</ele>
        <time>2020-08-29T09:44:32Z</time>
      </trkpt>
      <trkpt lat="47.27109" lon="6.82836">
        <ele>844.2</ele>
        <time>2020-08-29T09:44:37Z</time>
      </trkpt>
      <trkpt lat="47.27106" lon="6.82833">
        <ele>844.2</ele>
        <time>2020-08-29T09:44:40Z</time>
      </trkpt>
      <trkpt lat="47.27105" lon="6.8283">
        <ele>844.2</ele>
        <time>2020-08-29T09:44:42Z</time>
      </trkpt>
      <trkpt lat="47.27103" lon="6.82828">
        <ele>844.2</ele>
        <time>2020-08-29T09:44:44Z</time>
      </trkpt>
      <trkpt lat="47.27102" lon="6.82827">
        <ele>844.6</ele>
        <time>2020-08-29T09:44:45Z</time>
      </trkpt>
      <trkpt lat="47.27101" lon="6.82826">
        <ele>845</ele>
        <time>2020-08-29T09:44:46Z</time>
      </trkpt>
      <trkpt lat="47.27099" lon="6.82825">
        <ele>845.8</ele>
        <time>2020-08-29T09:44:47Z</time>
      </trkpt>
      <trkpt lat="47.27099" lon="6.82824">
        <ele>846.2</ele>
        <time>2020-08-29T09:44:48Z</time>
      </trkpt>
      <trkpt lat="47.27092" lon="6.82816">
        <ele>846.2</ele>
        <time>2020-08-29T09:44:55Z</time>
      </trkpt>
      <trkpt lat="47.27091" lon="6.82814">
        <ele>846.2</ele>
        <time>2020-08-29T09:44:56Z</time>
      </trkpt>
      <trkpt lat="47.2709" lon="6.82812">
        <ele>846.6</ele>
        <time>2020-08-29T09:44:58Z</time>
      </trkpt>
      <trkpt lat="47.27089" lon="6.82811">
        <ele>847.2</ele>
        <time>2020-08-29T09:44:59Z</time>
      </trkpt>
      <trkpt lat="47.27089" lon="6.8281">
        <ele>847.6</ele>
        <time>2020-08-29T09:45:00Z</time>
      </trkpt>
      <trkpt lat="47.27088" lon="6.8281">
        <ele>848</ele>
        <time>2020-08-29T09:45:01Z</time>
      </trkpt>
      <trkpt lat="47.27088" lon="6.82809">
        <ele>848.4</ele>
        <time>2020-08-29T09:45:02Z</time>
      </trkpt>
      <trkpt lat="47.27086" lon="6.82804">
        <ele>848.4</ele>
        <time>2020-08-29T09:45:05Z</time>
      </trkpt>
      <trkpt lat="47.27081" lon="6.82792">
        <ele>848.4</ele>
        <time>2020-08-29T09:45:11Z</time>
      </trkpt>
      <trkpt lat="47.27081" lon="6.82792">
        <ele>849.2</ele>
        <time>2020-08-29T09:45:12Z</time>
      </trkpt>
      <trkpt lat="47.2708" lon="6.82789">
        <ele>849.6</ele>
        <time>2020-08-29T09:45:13Z</time>
      </trkpt>
      <trkpt lat="47.27079" lon="6.82787">
        <ele>850</ele>
        <time>2020-08-29T09:45:14Z</time>
      </trkpt>
      <trkpt lat="47.27078" lon="6.82785">
        <ele>850.4</ele>
        <time>2020-08-29T09:45:15Z</time>
      </trkpt>
      <trkpt lat="47.27077" lon="6.82784">
        <ele>850.4</ele>
        <time>2020-08-29T09:45:16Z</time>
      </trkpt>
      <trkpt lat="47.27073" lon="6.82776">
        <ele>850.4</ele>
        <time>2020-08-29T09:45:22Z</time>
      </trkpt>
      <trkpt lat="47.27072" lon="6.82773">
        <ele>850.4</ele>
        <time>2020-08-29T09:45:25Z</time>
      </trkpt>
      <trkpt lat="47.27071" lon="6.82767">
        <ele>850.4</ele>
        <time>2020-08-29T09:45:28Z</time>
      </trkpt>
      <trkpt lat="47.27071" lon="6.82766">
        <ele>850.8</ele>
        <time>2020-08-29T09:45:29Z</time>
      </trkpt>
      <trkpt lat="47.27071" lon="6.82765">
        <ele>851.2</ele>
        <time>2020-08-29T09:45:30Z</time>
      </trkpt>
      <trkpt lat="47.2707" lon="6.82763">
        <ele>851.6</ele>
        <time>2020-08-29T09:45:31Z</time>
      </trkpt>
      <trkpt lat="47.2707" lon="6.82761">
        <ele>852</ele>
        <time>2020-08-29T09:45:32Z</time>
      </trkpt>
      <trkpt lat="47.27069" lon="6.8276">
        <ele>852.4</ele>
        <time>2020-08-29T09:45:33Z</time>
      </trkpt>
      <trkpt lat="47.27069" lon="6.82758">
        <ele>852.4</ele>
        <time>2020-08-29T09:45:34Z</time>
      </trkpt>
      <trkpt lat="47.27069" lon="6.82758">
        <ele>852.4</ele>
        <time>2020-08-29T09:45:35Z</time>
      </trkpt>
      <trkpt lat="47.27068" lon="6.82756">
        <ele>852.4</ele>
        <time>2020-08-29T09:45:36Z</time>
      </trkpt>
      <trkpt lat="47.27065" lon="6.82749">
        <ele>852.4</ele>
        <time>2020-08-29T09:45:39Z</time>
      </trkpt>
      <trkpt lat="47.27063" lon="6.82745">
        <ele>852.8</ele>
        <time>2020-08-29T09:45:42Z</time>
      </trkpt>
      <trkpt lat="47.27063" lon="6.82743">
        <ele>853.2</ele>
        <time>2020-08-29T09:45:43Z</time>
      </trkpt>
      <trkpt lat="47.27062" lon="6.82741">
        <ele>853.6</ele>
        <time>2020-08-29T09:45:44Z</time>
      </trkpt>
      <trkpt lat="47.27062" lon="6.8274">
        <ele>854</ele>
        <time>2020-08-29T09:45:45Z</time>
      </trkpt>
      <trkpt lat="47.27062" lon="6.82738">
        <ele>854.4</ele>
        <time>2020-08-29T09:45:46Z</time>
      </trkpt>
      <trkpt lat="47.27062" lon="6.82738">
        <ele>854.4</ele>
        <time>2020-08-29T09:45:47Z</time>
      </trkpt>
      <trkpt lat="47.27061" lon="6.82736">
        <ele>854.4</ele>
        <time>2020-08-29T09:45:48Z</time>
      </trkpt>
      <trkpt lat="47.2706" lon="6.82735">
        <ele>854.4</ele>
        <time>2020-08-29T09:45:49Z</time>
      </trkpt>
      <trkpt lat="47.27057" lon="6.82726">
        <ele>854.4</ele>
        <time>2020-08-29T09:45:54Z</time>
      </trkpt>
      <trkpt lat="47.27052" lon="6.82716">
        <ele>854.4</ele>
        <time>2020-08-29T09:46:00Z</time>
      </trkpt>
      <trkpt lat="47.27051" lon="6.82714">
        <ele>854.4</ele>
        <time>2020-08-29T09:46:01Z</time>
      </trkpt>
      <trkpt lat="47.27049" lon="6.82706">
        <ele>854.8</ele>
        <time>2020-08-29T09:46:05Z</time>
      </trkpt>
      <trkpt lat="47.27048" lon="6.82704">
        <ele>855.2</ele>
        <time>2020-08-29T09:46:06Z</time>
      </trkpt>
      <trkpt lat="47.27047" lon="6.82702">
        <ele>855.8</ele>
        <time>2020-08-29T09:46:07Z</time>
      </trkpt>
      <trkpt lat="47.27046" lon="6.827">
        <ele>856.2</ele>
        <time>2020-08-29T09:46:08Z</time>
      </trkpt>
      <trkpt lat="47.27045" lon="6.82699">
        <ele>856.6</ele>
        <time>2020-08-29T09:46:09Z</time>
      </trkpt>
      <trkpt lat="47.27043" lon="6.82694">
        <ele>856.6</ele>
        <time>2020-08-29T09:46:11Z</time>
      </trkpt>
      <trkpt lat="47.27038" lon="6.8268">
        <ele>856.6</ele>
        <time>2020-08-29T09:46:18Z</time>
      </trkpt>
      <trkpt lat="47.27033" lon="6.8267">
        <ele>856.6</ele>
        <time>2020-08-29T09:46:23Z</time>
      </trkpt>
      <trkpt lat="47.27028" lon="6.82658">
        <ele>856.6</ele>
        <time>2020-08-29T09:46:29Z</time>
      </trkpt>
      <trkpt lat="47.27027" lon="6.82657">
        <ele>856.6</ele>
        <time>2020-08-29T09:46:30Z</time>
      </trkpt>
      <trkpt lat="47.27027" lon="6.82652">
        <ele>857</ele>
        <time>2020-08-29T09:46:33Z</time>
      </trkpt>
      <trkpt lat="47.27026" lon="6.8265">
        <ele>857.4</ele>
        <time>2020-08-29T09:46:34Z</time>
      </trkpt>
      <trkpt lat="47.27025" lon="6.82647">
        <ele>857.8</ele>
        <time>2020-08-29T09:46:35Z</time>
      </trkpt>
      <trkpt lat="47.27024" lon="6.82644">
        <ele>858.2</ele>
        <time>2020-08-29T09:46:36Z</time>
      </trkpt>
      <trkpt lat="47.27024" lon="6.82642">
        <ele>858.6</ele>
        <time>2020-08-29T09:46:37Z</time>
      </trkpt>
      <trkpt lat="47.27023" lon="6.82639">
        <ele>858.6</ele>
        <time>2020-08-29T09:46:38Z</time>
      </trkpt>
      <trkpt lat="47.27021" lon="6.82631">
        <ele>858.6</ele>
        <time>2020-08-29T09:46:42Z</time>
      </trkpt>
      <trkpt lat="47.27018" lon="6.82618">
        <ele>858.6</ele>
        <time>2020-08-29T09:46:49Z</time>
      </trkpt>
      <trkpt lat="47.27016" lon="6.82611">
        <ele>858.6</ele>
        <time>2020-08-29T09:46:52Z</time>
      </trkpt>
      <trkpt lat="47.27016" lon="6.82608">
        <ele>859</ele>
        <time>2020-08-29T09:46:53Z</time>
      </trkpt>
      <trkpt lat="47.27016" lon="6.82606">
        <ele>859.4</ele>
        <time>2020-08-29T09:46:54Z</time>
      </trkpt>
      <trkpt lat="47.27015" lon="6.82604">
        <ele>859.8</ele>
        <time>2020-08-29T09:46:55Z</time>
      </trkpt>
      <trkpt lat="47.27015" lon="6.82602">
        <ele>860.2</ele>
        <time>2020-08-29T09:46:56Z</time>
      </trkpt>
      <trkpt lat="47.27014" lon="6.826">
        <ele>860.6</ele>
        <time>2020-08-29T09:46:57Z</time>
      </trkpt>
      <trkpt lat="47.27012" lon="6.82588">
        <ele>860.6</ele>
        <time>2020-08-29T09:47:03Z</time>
      </trkpt>
      <trkpt lat="47.27009" lon="6.82577">
        <ele>860.6</ele>
        <time>2020-08-29T09:47:07Z</time>
      </trkpt>
      <trkpt lat="47.27008" lon="6.82575">
        <ele>860.6</ele>
        <time>2020-08-29T09:47:08Z</time>
      </trkpt>
      <trkpt lat="47.27008" lon="6.82561">
        <ele>861</ele>
        <time>2020-08-29T09:47:15Z</time>
      </trkpt>
      <trkpt lat="47.27008" lon="6.82559">
        <ele>861.4</ele>
        <time>2020-08-29T09:47:16Z</time>
      </trkpt>
      <trkpt lat="47.27007" lon="6.82557">
        <ele>862.2</ele>
        <time>2020-08-29T09:47:17Z</time>
      </trkpt>
      <trkpt lat="47.27008" lon="6.82555">
        <ele>862.6</ele>
        <time>2020-08-29T09:47:18Z</time>
      </trkpt>
      <trkpt lat="47.27008" lon="6.82547">
        <ele>862.6</ele>
        <time>2020-08-29T09:47:22Z</time>
      </trkpt>
      <trkpt lat="47.27005" lon="6.82536">
        <ele>862.6</ele>
        <time>2020-08-29T09:47:26Z</time>
      </trkpt>
      <trkpt lat="47.27002" lon="6.82532">
        <ele>862.6</ele>
        <time>2020-08-29T09:47:28Z</time>
      </trkpt>
      <trkpt lat="47.26997" lon="6.82523">
        <ele>862.6</ele>
        <time>2020-08-29T09:47:31Z</time>
      </trkpt>
      <trkpt lat="47.26993" lon="6.82517">
        <ele>862.6</ele>
        <time>2020-08-29T09:47:34Z</time>
      </trkpt>
      <trkpt lat="47.26992" lon="6.82514">
        <ele>863</ele>
        <time>2020-08-29T09:47:35Z</time>
      </trkpt>
      <trkpt lat="47.26991" lon="6.82513">
        <ele>863.4</ele>
        <time>2020-08-29T09:47:36Z</time>
      </trkpt>
      <trkpt lat="47.2699" lon="6.82511">
        <ele>863.8</ele>
        <time>2020-08-29T09:47:37Z</time>
      </trkpt>
      <trkpt lat="47.26989" lon="6.82509">
        <ele>864.2</ele>
        <time>2020-08-29T09:47:38Z</time>
      </trkpt>
      <trkpt lat="47.26989" lon="6.82506">
        <ele>864.6</ele>
        <time>2020-08-29T09:47:39Z</time>
      </trkpt>
      <trkpt lat="47.26987" lon="6.82495">
        <ele>864.6</ele>
        <time>2020-08-29T09:47:43Z</time>
      </trkpt>
      <trkpt lat="47.26984" lon="6.82482">
        <ele>864.6</ele>
        <time>2020-08-29T09:47:48Z</time>
      </trkpt>
      <trkpt lat="47.26981" lon="6.82471">
        <ele>864.6</ele>
        <time>2020-08-29T09:47:54Z</time>
      </trkpt>
      <trkpt lat="47.26978" lon="6.82462">
        <ele>865</ele>
        <time>2020-08-29T09:47:59Z</time>
      </trkpt>
      <trkpt lat="47.26977" lon="6.8246">
        <ele>865.6</ele>
        <time>2020-08-29T09:48:00Z</time>
      </trkpt>
      <trkpt lat="47.26976" lon="6.82458">
        <ele>866</ele>
        <time>2020-08-29T09:48:01Z</time>
      </trkpt>
      <trkpt lat="47.26975" lon="6.82456">
        <ele>866.4</ele>
        <time>2020-08-29T09:48:02Z</time>
      </trkpt>
      <trkpt lat="47.26974" lon="6.82454">
        <ele>866.8</ele>
        <time>2020-08-29T09:48:03Z</time>
      </trkpt>
      <trkpt lat="47.26972" lon="6.8245">
        <ele>866.8</ele>
        <time>2020-08-29T09:48:06Z</time>
      </trkpt>
      <trkpt lat="47.2697" lon="6.82448">
        <ele>866.8</ele>
        <time>2020-08-29T09:48:07Z</time>
      </trkpt>
      <trkpt lat="47.26966" lon="6.82443">
        <ele>866.8</ele>
        <time>2020-08-29T09:48:10Z</time>
      </trkpt>
      <trkpt lat="47.26961" lon="6.82437">
        <ele>866.8</ele>
        <time>2020-08-29T09:48:13Z</time>
      </trkpt>
      <trkpt lat="47.26952" lon="6.82425">
        <ele>866.8</ele>
        <time>2020-08-29T09:48:19Z</time>
      </trkpt>
      <trkpt lat="47.26947" lon="6.82413">
        <ele>866.8</ele>
        <time>2020-08-29T09:48:24Z</time>
      </trkpt>
      <trkpt lat="47.26945" lon="6.82401">
        <ele>866.8</ele>
        <time>2020-08-29T09:48:28Z</time>
      </trkpt>
      <trkpt lat="47.26945" lon="6.82398">
        <ele>866.8</ele>
        <time>2020-08-29T09:48:29Z</time>
      </trkpt>
      <trkpt lat="47.26942" lon="6.82389">
        <ele>866.8</ele>
        <time>2020-08-29T09:48:33Z</time>
      </trkpt>
      <trkpt lat="47.2694" lon="6.82384">
        <ele>866.8</ele>
        <time>2020-08-29T09:48:35Z</time>
      </trkpt>
      <trkpt lat="47.2694" lon="6.82383">
        <ele>866.8</ele>
        <time>2020-08-29T09:48:36Z</time>
      </trkpt>
      <trkpt lat="47.26939" lon="6.82377">
        <ele>866.8</ele>
        <time>2020-08-29T09:48:38Z</time>
      </trkpt>
      <trkpt lat="47.26938" lon="6.82371">
        <ele>867.2</ele>
        <time>2020-08-29T09:48:40Z</time>
      </trkpt>
      <trkpt lat="47.26937" lon="6.82368">
        <ele>867.6</ele>
        <time>2020-08-29T09:48:41Z</time>
      </trkpt>
      <trkpt lat="47.26937" lon="6.82366">
        <ele>868</ele>
        <time>2020-08-29T09:48:42Z</time>
      </trkpt>
      <trkpt lat="47.26936" lon="6.82363">
        <ele>868.6</ele>
        <time>2020-08-29T09:48:43Z</time>
      </trkpt>
      <trkpt lat="47.26936" lon="6.8236">
        <ele>869</ele>
        <time>2020-08-29T09:48:44Z</time>
      </trkpt>
      <trkpt lat="47.26931" lon="6.82346">
        <ele>869</ele>
        <time>2020-08-29T09:48:49Z</time>
      </trkpt>
      <trkpt lat="47.26929" lon="6.82338">
        <ele>869</ele>
        <time>2020-08-29T09:48:52Z</time>
      </trkpt>
      <trkpt lat="47.26928" lon="6.82333">
        <ele>869</ele>
        <time>2020-08-29T09:48:54Z</time>
      </trkpt>
      <trkpt lat="47.26923" lon="6.82316">
        <ele>869</ele>
        <time>2020-08-29T09:49:00Z</time>
      </trkpt>
      <trkpt lat="47.26922" lon="6.82313">
        <ele>869.4</ele>
        <time>2020-08-29T09:49:02Z</time>
      </trkpt>
      <trkpt lat="47.26921" lon="6.8231">
        <ele>869.8</ele>
        <time>2020-08-29T09:49:03Z</time>
      </trkpt>
      <trkpt lat="47.2692" lon="6.82307">
        <ele>870.2</ele>
        <time>2020-08-29T09:49:04Z</time>
      </trkpt>
      <trkpt lat="47.26918" lon="6.82304">
        <ele>870.6</ele>
        <time>2020-08-29T09:49:05Z</time>
      </trkpt>
      <trkpt lat="47.26916" lon="6.82301">
        <ele>871</ele>
        <time>2020-08-29T09:49:06Z</time>
      </trkpt>
      <trkpt lat="47.26911" lon="6.8229">
        <ele>871</ele>
        <time>2020-08-29T09:49:10Z</time>
      </trkpt>
      <trkpt lat="47.26904" lon="6.82274">
        <ele>871</ele>
        <time>2020-08-29T09:49:16Z</time>
      </trkpt>
      <trkpt lat="47.26898" lon="6.82263">
        <ele>871</ele>
        <time>2020-08-29T09:49:21Z</time>
      </trkpt>
      <trkpt lat="47.26892" lon="6.82249">
        <ele>871</ele>
        <time>2020-08-29T09:49:26Z</time>
      </trkpt>
      <trkpt lat="47.26882" lon="6.8223">
        <ele>871</ele>
        <time>2020-08-29T09:49:33Z</time>
      </trkpt>
      <trkpt lat="47.26879" lon="6.82222">
        <ele>871</ele>
        <time>2020-08-29T09:49:36Z</time>
      </trkpt>
      <trkpt lat="47.26878" lon="6.82215">
        <ele>871</ele>
        <time>2020-08-29T09:49:38Z</time>
      </trkpt>
      <trkpt lat="47.26876" lon="6.82205">
        <ele>871.4</ele>
        <time>2020-08-29T09:49:41Z</time>
      </trkpt>
      <trkpt lat="47.26875" lon="6.82202">
        <ele>871.8</ele>
        <time>2020-08-29T09:49:42Z</time>
      </trkpt>
      <trkpt lat="47.26874" lon="6.822">
        <ele>872.2</ele>
        <time>2020-08-29T09:49:43Z</time>
      </trkpt>
      <trkpt lat="47.26873" lon="6.82198">
        <ele>873</ele>
        <time>2020-08-29T09:49:44Z</time>
      </trkpt>
      <trkpt lat="47.2687" lon="6.82186">
        <ele>873</ele>
        <time>2020-08-29T09:49:48Z</time>
      </trkpt>
      <trkpt lat="47.26866" lon="6.8217">
        <ele>873</ele>
        <time>2020-08-29T09:49:54Z</time>
      </trkpt>
      <trkpt lat="47.26864" lon="6.82164">
        <ele>873</ele>
        <time>2020-08-29T09:49:56Z</time>
      </trkpt>
      <trkpt lat="47.26863" lon="6.82159">
        <ele>873</ele>
        <time>2020-08-29T09:49:58Z</time>
      </trkpt>
      <trkpt lat="47.26855" lon="6.82143">
        <ele>873</ele>
        <time>2020-08-29T09:50:02Z</time>
      </trkpt>
      <trkpt lat="47.26852" lon="6.82139">
        <ele>873</ele>
        <time>2020-08-29T09:50:03Z</time>
      </trkpt>
      <trkpt lat="47.26839" lon="6.82118">
        <ele>873</ele>
        <time>2020-08-29T09:50:08Z</time>
      </trkpt>
      <trkpt lat="47.26829" lon="6.82097">
        <ele>873</ele>
        <time>2020-08-29T09:50:12Z</time>
      </trkpt>
      <trkpt lat="47.26824" lon="6.82086">
        <ele>873</ele>
        <time>2020-08-29T09:50:14Z</time>
      </trkpt>
      <trkpt lat="47.26817" lon="6.82068">
        <ele>873</ele>
        <time>2020-08-29T09:50:17Z</time>
      </trkpt>
      <trkpt lat="47.26809" lon="6.82052">
        <ele>872.6</ele>
        <time>2020-08-29T09:50:20Z</time>
      </trkpt>
      <trkpt lat="47.26808" lon="6.82046">
        <ele>872.2</ele>
        <time>2020-08-29T09:50:21Z</time>
      </trkpt>
      <trkpt lat="47.26807" lon="6.82041">
        <ele>871.8</ele>
        <time>2020-08-29T09:50:22Z</time>
      </trkpt>
      <trkpt lat="47.26805" lon="6.82036">
        <ele>871.4</ele>
        <time>2020-08-29T09:50:23Z</time>
      </trkpt>
      <trkpt lat="47.26804" lon="6.82032">
        <ele>871</ele>
        <time>2020-08-29T09:50:24Z</time>
      </trkpt>
      <trkpt lat="47.26803" lon="6.82027">
        <ele>871</ele>
        <time>2020-08-29T09:50:25Z</time>
      </trkpt>
      <trkpt lat="47.26802" lon="6.82023">
        <ele>871</ele>
        <time>2020-08-29T09:50:26Z</time>
      </trkpt>
      <trkpt lat="47.26791" lon="6.81999">
        <ele>871</ele>
        <time>2020-08-29T09:50:31Z</time>
      </trkpt>
      <trkpt lat="47.26788" lon="6.81994">
        <ele>871</ele>
        <time>2020-08-29T09:50:32Z</time>
      </trkpt>
      <trkpt lat="47.26783" lon="6.81985">
        <ele>871</ele>
        <time>2020-08-29T09:50:34Z</time>
      </trkpt>
      <trkpt lat="47.26773" lon="6.81965">
        <ele>871</ele>
        <time>2020-08-29T09:50:39Z</time>
      </trkpt>
      <trkpt lat="47.2677" lon="6.81954">
        <ele>871.4</ele>
        <time>2020-08-29T09:50:44Z</time>
      </trkpt>
      <trkpt lat="47.26769" lon="6.81951">
        <ele>871.8</ele>
        <time>2020-08-29T09:50:45Z</time>
      </trkpt>
      <trkpt lat="47.26768" lon="6.81948">
        <ele>872.2</ele>
        <time>2020-08-29T09:50:46Z</time>
      </trkpt>
      <trkpt lat="47.26767" lon="6.81946">
        <ele>872.6</ele>
        <time>2020-08-29T09:50:47Z</time>
      </trkpt>
      <trkpt lat="47.26767" lon="6.81945">
        <ele>873</ele>
        <time>2020-08-29T09:50:48Z</time>
      </trkpt>
      <trkpt lat="47.26766" lon="6.81942">
        <ele>873</ele>
        <time>2020-08-29T09:50:49Z</time>
      </trkpt>
      <trkpt lat="47.26764" lon="6.81933">
        <ele>873</ele>
        <time>2020-08-29T09:50:53Z</time>
      </trkpt>
      <trkpt lat="47.26762" lon="6.81929">
        <ele>873.4</ele>
        <time>2020-08-29T09:50:55Z</time>
      </trkpt>
      <trkpt lat="47.26761" lon="6.81926">
        <ele>873.8</ele>
        <time>2020-08-29T09:50:56Z</time>
      </trkpt>
      <trkpt lat="47.2676" lon="6.81924">
        <ele>874.2</ele>
        <time>2020-08-29T09:50:57Z</time>
      </trkpt>
      <trkpt lat="47.26759" lon="6.81922">
        <ele>875</ele>
        <time>2020-08-29T09:50:58Z</time>
      </trkpt>
      <trkpt lat="47.26758" lon="6.81919">
        <ele>875</ele>
        <time>2020-08-29T09:51:00Z</time>
      </trkpt>
      <trkpt lat="47.26754" lon="6.81907">
        <ele>875</ele>
        <time>2020-08-29T09:51:05Z</time>
      </trkpt>
      <trkpt lat="47.26753" lon="6.81906">
        <ele>875</ele>
        <time>2020-08-29T09:51:06Z</time>
      </trkpt>
      <trkpt lat="47.26748" lon="6.81898">
        <ele>875.4</ele>
        <time>2020-08-29T09:51:12Z</time>
      </trkpt>
      <trkpt lat="47.26747" lon="6.81895">
        <ele>876</ele>
        <time>2020-08-29T09:51:13Z</time>
      </trkpt>
      <trkpt lat="47.26747" lon="6.81893">
        <ele>876.4</ele>
        <time>2020-08-29T09:51:14Z</time>
      </trkpt>
      <trkpt lat="47.26746" lon="6.81891">
        <ele>876.8</ele>
        <time>2020-08-29T09:51:15Z</time>
      </trkpt>
      <trkpt lat="47.26745" lon="6.81888">
        <ele>877.2</ele>
        <time>2020-08-29T09:51:16Z</time>
      </trkpt>
      <trkpt lat="47.26746" lon="6.81882">
        <ele>877.2</ele>
        <time>2020-08-29T09:51:19Z</time>
      </trkpt>
      <trkpt lat="47.26745" lon="6.8188">
        <ele>877.2</ele>
        <time>2020-08-29T09:51:20Z</time>
      </trkpt>
      <trkpt lat="47.26743" lon="6.81871">
        <ele>877.2</ele>
        <time>2020-08-29T09:51:24Z</time>
      </trkpt>
      <trkpt lat="47.26743" lon="6.81869">
        <ele>877.2</ele>
        <time>2020-08-29T09:51:25Z</time>
      </trkpt>
      <trkpt lat="47.26741" lon="6.81863">
        <ele>877.2</ele>
        <time>2020-08-29T09:51:28Z</time>
      </trkpt>
      <trkpt lat="47.26739" lon="6.81849">
        <ele>877.2</ele>
        <time>2020-08-29T09:51:32Z</time>
      </trkpt>
      <trkpt lat="47.26736" lon="6.8183">
        <ele>877.2</ele>
        <time>2020-08-29T09:51:38Z</time>
      </trkpt>
      <trkpt lat="47.26732" lon="6.81823">
        <ele>877.2</ele>
        <time>2020-08-29T09:51:42Z</time>
      </trkpt>
      <trkpt lat="47.26731" lon="6.81821">
        <ele>877.2</ele>
        <time>2020-08-29T09:51:43Z</time>
      </trkpt>
      <trkpt lat="47.26727" lon="6.81814">
        <ele>877.2</ele>
        <time>2020-08-29T09:51:47Z</time>
      </trkpt>
      <trkpt lat="47.26726" lon="6.81812">
        <ele>877.2</ele>
        <time>2020-08-29T09:51:48Z</time>
      </trkpt>
      <trkpt lat="47.2672" lon="6.81802">
        <ele>877.2</ele>
        <time>2020-08-29T09:51:53Z</time>
      </trkpt>
      <trkpt lat="47.26718" lon="6.81798">
        <ele>877.6</ele>
        <time>2020-08-29T09:51:55Z</time>
      </trkpt>
      <trkpt lat="47.26717" lon="6.81796">
        <ele>878</ele>
        <time>2020-08-29T09:51:56Z</time>
      </trkpt>
      <trkpt lat="47.26717" lon="6.81795">
        <ele>878.4</ele>
        <time>2020-08-29T09:51:57Z</time>
      </trkpt>
      <trkpt lat="47.26716" lon="6.81793">
        <ele>878.8</ele>
        <time>2020-08-29T09:51:58Z</time>
      </trkpt>
      <trkpt lat="47.26716" lon="6.81791">
        <ele>879.2</ele>
        <time>2020-08-29T09:51:59Z</time>
      </trkpt>
      <trkpt lat="47.26715" lon="6.81788">
        <ele>879.2</ele>
        <time>2020-08-29T09:52:01Z</time>
      </trkpt>
      <trkpt lat="47.26713" lon="6.81782">
        <ele>879.2</ele>
        <time>2020-08-29T09:52:04Z</time>
      </trkpt>
      <trkpt lat="47.26709" lon="6.8177">
        <ele>879.2</ele>
        <time>2020-08-29T09:52:10Z</time>
      </trkpt>
      <trkpt lat="47.26708" lon="6.81768">
        <ele>879.2</ele>
        <time>2020-08-29T09:52:11Z</time>
      </trkpt>
      <trkpt lat="47.26706" lon="6.81761">
        <ele>879.2</ele>
        <time>2020-08-29T09:52:15Z</time>
      </trkpt>
      <trkpt lat="47.26704" lon="6.81759">
        <ele>879.2</ele>
        <time>2020-08-29T09:52:16Z</time>
      </trkpt>
      <trkpt lat="47.26702" lon="6.81752">
        <ele>879.2</ele>
        <time>2020-08-29T09:52:19Z</time>
      </trkpt>
      <trkpt lat="47.267" lon="6.81748">
        <ele>879.2</ele>
        <time>2020-08-29T09:52:23Z</time>
      </trkpt>
      <trkpt lat="47.26698" lon="6.81739">
        <ele>879.2</ele>
        <time>2020-08-29T09:52:28Z</time>
      </trkpt>
      <trkpt lat="47.26695" lon="6.8173">
        <ele>879.2</ele>
        <time>2020-08-29T09:52:33Z</time>
      </trkpt>
      <trkpt lat="47.26695" lon="6.81729">
        <ele>879.2</ele>
        <time>2020-08-29T09:52:34Z</time>
      </trkpt>
      <trkpt lat="47.26695" lon="6.81728">
        <ele>879.2</ele>
        <time>2020-08-29T09:52:35Z</time>
      </trkpt>
      <trkpt lat="47.26695" lon="6.81716">
        <ele>879.2</ele>
        <time>2020-08-29T09:52:38Z</time>
      </trkpt>
      <trkpt lat="47.26694" lon="6.8171">
        <ele>879.2</ele>
        <time>2020-08-29T09:52:41Z</time>
      </trkpt>
      <trkpt lat="47.2669" lon="6.81707">
        <ele>879.2</ele>
        <time>2020-08-29T09:52:44Z</time>
      </trkpt>
      <trkpt lat="47.26687" lon="6.81704">
        <ele>879.2</ele>
        <time>2020-08-29T09:52:46Z</time>
      </trkpt>
      <trkpt lat="47.26677" lon="6.8169">
        <ele>879.2</ele>
        <time>2020-08-29T09:52:53Z</time>
      </trkpt>
      <trkpt lat="47.26661" lon="6.81675">
        <ele>879.2</ele>
        <time>2020-08-29T09:53:02Z</time>
      </trkpt>
      <trkpt lat="47.26652" lon="6.81668">
        <ele>879.2</ele>
        <time>2020-08-29T09:53:08Z</time>
      </trkpt>
      <trkpt lat="47.26647" lon="6.81666">
        <ele>879.2</ele>
        <time>2020-08-29T09:53:11Z</time>
      </trkpt>
      <trkpt lat="47.26643" lon="6.81665">
        <ele>879.2</ele>
        <time>2020-08-29T09:53:13Z</time>
      </trkpt>
      <trkpt lat="47.26634" lon="6.81662">
        <ele>879.6</ele>
        <time>2020-08-29T09:53:19Z</time>
      </trkpt>
      <trkpt lat="47.26632" lon="6.81661">
        <ele>880</ele>
        <time>2020-08-29T09:53:20Z</time>
      </trkpt>
      <trkpt lat="47.2663" lon="6.81661">
        <ele>880.6</ele>
        <time>2020-08-29T09:53:21Z</time>
      </trkpt>
      <trkpt lat="47.26628" lon="6.81661">
        <ele>881</ele>
        <time>2020-08-29T09:53:22Z</time>
      </trkpt>
      <trkpt lat="47.26626" lon="6.81661">
        <ele>881.4</ele>
        <time>2020-08-29T09:53:23Z</time>
      </trkpt>
      <trkpt lat="47.26617" lon="6.81661">
        <ele>881.4</ele>
        <time>2020-08-29T09:53:30Z</time>
      </trkpt>
      <trkpt lat="47.26607" lon="6.81664">
        <ele>881.4</ele>
        <time>2020-08-29T09:53:37Z</time>
      </trkpt>
      <trkpt lat="47.26606" lon="6.81666">
        <ele>881.4</ele>
        <time>2020-08-29T09:53:38Z</time>
      </trkpt>
      <trkpt lat="47.26605" lon="6.81665">
        <ele>881.8</ele>
        <time>2020-08-29T09:53:39Z</time>
      </trkpt>
      <trkpt lat="47.26604" lon="6.81666">
        <ele>882.2</ele>
        <time>2020-08-29T09:53:40Z</time>
      </trkpt>
      <trkpt lat="47.26603" lon="6.81666">
        <ele>882.6</ele>
        <time>2020-08-29T09:53:41Z</time>
      </trkpt>
      <trkpt lat="47.26602" lon="6.81665">
        <ele>883</ele>
        <time>2020-08-29T09:53:42Z</time>
      </trkpt>
      <trkpt lat="47.266" lon="6.81665">
        <ele>883.4</ele>
        <time>2020-08-29T09:53:43Z</time>
      </trkpt>
      <trkpt lat="47.26596" lon="6.81664">
        <ele>883.4</ele>
        <time>2020-08-29T09:53:47Z</time>
      </trkpt>
      <trkpt lat="47.26594" lon="6.81663">
        <ele>883.4</ele>
        <time>2020-08-29T09:53:48Z</time>
      </trkpt>
      <trkpt lat="47.26592" lon="6.81662">
        <ele>883.4</ele>
        <time>2020-08-29T09:53:50Z</time>
      </trkpt>
      <trkpt lat="47.2659" lon="6.8166">
        <ele>883.4</ele>
        <time>2020-08-29T09:53:52Z</time>
      </trkpt>
      <trkpt lat="47.26583" lon="6.81655">
        <ele>883.4</ele>
        <time>2020-08-29T09:53:58Z</time>
      </trkpt>
      <trkpt lat="47.26575" lon="6.81651">
        <ele>883.4</ele>
        <time>2020-08-29T09:54:03Z</time>
      </trkpt>
      <trkpt lat="47.26573" lon="6.8165">
        <ele>883.4</ele>
        <time>2020-08-29T09:54:04Z</time>
      </trkpt>
      <trkpt lat="47.26566" lon="6.81646">
        <ele>883.4</ele>
        <time>2020-08-29T09:54:08Z</time>
      </trkpt>
      <trkpt lat="47.26562" lon="6.81643">
        <ele>883.4</ele>
        <time>2020-08-29T09:54:11Z</time>
      </trkpt>
      <trkpt lat="47.26554" lon="6.81639">
        <ele>883.4</ele>
        <time>2020-08-29T09:54:17Z</time>
      </trkpt>
      <trkpt lat="47.26552" lon="6.81639">
        <ele>883.4</ele>
        <time>2020-08-29T09:54:18Z</time>
      </trkpt>
      <trkpt lat="47.26549" lon="6.81638">
        <ele>883.4</ele>
        <time>2020-08-29T09:54:21Z</time>
      </trkpt>
      <trkpt lat="47.26548" lon="6.81637">
        <ele>885.4</ele>
        <time>2020-08-29T09:59:53Z</time>
      </trkpt>
      <trkpt lat="47.26545" lon="6.81638">
        <ele>885.4</ele>
        <time>2020-08-29T09:59:55Z</time>
      </trkpt>
      <trkpt lat="47.26539" lon="6.81639">
        <ele>885.4</ele>
        <time>2020-08-29T09:59:58Z</time>
      </trkpt>
      <trkpt lat="47.26537" lon="6.81639">
        <ele>885.4</ele>
        <time>2020-08-29T09:59:59Z</time>
      </trkpt>
      <trkpt lat="47.26521" lon="6.81638">
        <ele>885.4</ele>
        <time>2020-08-29T10:00:07Z</time>
      </trkpt>
      <trkpt lat="47.26508" lon="6.81638">
        <ele>885.4</ele>
        <time>2020-08-29T10:00:12Z</time>
      </trkpt>
      <trkpt lat="47.26498" lon="6.81645">
        <ele>885.4</ele>
        <time>2020-08-29T10:00:17Z</time>
      </trkpt>
      <trkpt lat="47.26498" lon="6.81647">
        <ele>885</ele>
        <time>2020-08-29T10:00:18Z</time>
      </trkpt>
      <trkpt lat="47.26496" lon="6.81648">
        <ele>884.6</ele>
        <time>2020-08-29T10:00:19Z</time>
      </trkpt>
      <trkpt lat="47.26495" lon="6.8165">
        <ele>884</ele>
        <time>2020-08-29T10:00:20Z</time>
      </trkpt>
      <trkpt lat="47.26493" lon="6.81651">
        <ele>883.6</ele>
        <time>2020-08-29T10:00:21Z</time>
      </trkpt>
      <trkpt lat="47.26492" lon="6.8165">
        <ele>883.2</ele>
        <time>2020-08-29T10:00:22Z</time>
      </trkpt>
      <trkpt lat="47.26489" lon="6.81645">
        <ele>883.2</ele>
        <time>2020-08-29T10:00:25Z</time>
      </trkpt>
      <trkpt lat="47.2648" lon="6.81633">
        <ele>883.2</ele>
        <time>2020-08-29T10:00:31Z</time>
      </trkpt>
      <trkpt lat="47.26474" lon="6.81628">
        <ele>882.8</ele>
        <time>2020-08-29T10:00:34Z</time>
      </trkpt>
      <trkpt lat="47.26471" lon="6.81625">
        <ele>882.4</ele>
        <time>2020-08-29T10:00:35Z</time>
      </trkpt>
      <trkpt lat="47.26469" lon="6.81623">
        <ele>881.8</ele>
        <time>2020-08-29T10:00:36Z</time>
      </trkpt>
      <trkpt lat="47.26466" lon="6.81621">
        <ele>881.4</ele>
        <time>2020-08-29T10:00:37Z</time>
      </trkpt>
      <trkpt lat="47.26463" lon="6.81619">
        <ele>881</ele>
        <time>2020-08-29T10:00:38Z</time>
      </trkpt>
      <trkpt lat="47.26446" lon="6.81612">
        <ele>881</ele>
        <time>2020-08-29T10:00:44Z</time>
      </trkpt>
      <trkpt lat="47.26443" lon="6.8161">
        <ele>880.6</ele>
        <time>2020-08-29T10:00:45Z</time>
      </trkpt>
      <trkpt lat="47.2644" lon="6.81609">
        <ele>880.2</ele>
        <time>2020-08-29T10:00:46Z</time>
      </trkpt>
      <trkpt lat="47.26436" lon="6.81609">
        <ele>879.8</ele>
        <time>2020-08-29T10:00:47Z</time>
      </trkpt>
      <trkpt lat="47.26433" lon="6.81608">
        <ele>879.4</ele>
        <time>2020-08-29T10:00:48Z</time>
      </trkpt>
      <trkpt lat="47.2643" lon="6.81607">
        <ele>879</ele>
        <time>2020-08-29T10:00:49Z</time>
      </trkpt>
      <trkpt lat="47.26407" lon="6.81602">
        <ele>879</ele>
        <time>2020-08-29T10:00:57Z</time>
      </trkpt>
      <trkpt lat="47.26395" lon="6.81599">
        <ele>879</ele>
        <time>2020-08-29T10:01:03Z</time>
      </trkpt>
      <trkpt lat="47.26393" lon="6.81596">
        <ele>879</ele>
        <time>2020-08-29T10:01:08Z</time>
      </trkpt>
      <trkpt lat="47.26392" lon="6.81595">
        <ele>879</ele>
        <time>2020-08-29T10:01:11Z</time>
      </trkpt>
      <trkpt lat="47.26392" lon="6.81595">
        <ele>879</ele>
        <time>2020-08-29T10:01:13Z</time>
      </trkpt>
      <trkpt lat="47.26391" lon="6.81594">
        <ele>879</ele>
        <time>2020-08-29T10:01:19Z</time>
      </trkpt>
      <trkpt lat="47.26391" lon="6.81594">
        <ele>879</ele>
        <time>2020-08-29T10:01:21Z</time>
      </trkpt>
      <trkpt lat="47.2639" lon="6.81593">
        <ele>879</ele>
        <time>2020-08-29T10:01:30Z</time>
      </trkpt>
      <trkpt lat="47.26388" lon="6.81593">
        <ele>878.6</ele>
        <time>2020-08-29T10:01:32Z</time>
      </trkpt>
      <trkpt lat="47.26387" lon="6.81592">
        <ele>878.2</ele>
        <time>2020-08-29T10:01:33Z</time>
      </trkpt>
      <trkpt lat="47.26385" lon="6.81592">
        <ele>877.8</ele>
        <time>2020-08-29T10:01:34Z</time>
      </trkpt>
      <trkpt lat="47.26385" lon="6.81592">
        <ele>877.2</ele>
        <time>2020-08-29T10:01:35Z</time>
      </trkpt>
      <trkpt lat="47.26384" lon="6.81591">
        <ele>876.8</ele>
        <time>2020-08-29T10:01:36Z</time>
      </trkpt>
      <trkpt lat="47.26382" lon="6.8159">
        <ele>876.8</ele>
        <time>2020-08-29T10:01:38Z</time>
      </trkpt>
      <trkpt lat="47.26381" lon="6.8159">
        <ele>876.8</ele>
        <time>2020-08-29T10:01:39Z</time>
      </trkpt>
      <trkpt lat="47.26369" lon="6.81586">
        <ele>876.8</ele>
        <time>2020-08-29T10:01:46Z</time>
      </trkpt>
      <trkpt lat="47.26359" lon="6.81575">
        <ele>876.8</ele>
        <time>2020-08-29T10:01:53Z</time>
      </trkpt>
      <trkpt lat="47.26343" lon="6.81559">
        <ele>876.8</ele>
        <time>2020-08-29T10:02:01Z</time>
      </trkpt>
      <trkpt lat="47.26334" lon="6.81547">
        <ele>876.8</ele>
        <time>2020-08-29T10:02:06Z</time>
      </trkpt>
      <trkpt lat="47.26322" lon="6.81532">
        <ele>876.8</ele>
        <time>2020-08-29T10:02:12Z</time>
      </trkpt>
      <trkpt lat="47.26313" lon="6.81516">
        <ele>876.8</ele>
        <time>2020-08-29T10:02:18Z</time>
      </trkpt>
      <trkpt lat="47.26299" lon="6.8149">
        <ele>876.8</ele>
        <time>2020-08-29T10:02:27Z</time>
      </trkpt>
      <trkpt lat="47.26278" lon="6.81453">
        <ele>876.8</ele>
        <time>2020-08-29T10:02:38Z</time>
      </trkpt>
      <trkpt lat="47.26268" lon="6.81435">
        <ele>876.8</ele>
        <time>2020-08-29T10:02:43Z</time>
      </trkpt>
      <trkpt lat="47.26247" lon="6.814">
        <ele>876.8</ele>
        <time>2020-08-29T10:02:53Z</time>
      </trkpt>
      <trkpt lat="47.26231" lon="6.81376">
        <ele>876.8</ele>
        <time>2020-08-29T10:03:01Z</time>
      </trkpt>
      <trkpt lat="47.26221" lon="6.81361">
        <ele>876.8</ele>
        <time>2020-08-29T10:03:07Z</time>
      </trkpt>
      <trkpt lat="47.26209" lon="6.8134">
        <ele>876.8</ele>
        <time>2020-08-29T10:03:14Z</time>
      </trkpt>
      <trkpt lat="47.26199" lon="6.81324">
        <ele>876.8</ele>
        <time>2020-08-29T10:03:19Z</time>
      </trkpt>
      <trkpt lat="47.2618" lon="6.81297">
        <ele>876.8</ele>
        <time>2020-08-29T10:03:27Z</time>
      </trkpt>
      <trkpt lat="47.2616" lon="6.81267">
        <ele>876.8</ele>
        <time>2020-08-29T10:03:35Z</time>
      </trkpt>
      <trkpt lat="47.26139" lon="6.81244">
        <ele>876.8</ele>
        <time>2020-08-29T10:03:42Z</time>
      </trkpt>
      <trkpt lat="47.26117" lon="6.81218">
        <ele>876.8</ele>
        <time>2020-08-29T10:03:50Z</time>
      </trkpt>
      <trkpt lat="47.26097" lon="6.81196">
        <ele>876.8</ele>
        <time>2020-08-29T10:03:57Z</time>
      </trkpt>
      <trkpt lat="47.26075" lon="6.81176">
        <ele>876.8</ele>
        <time>2020-08-29T10:04:05Z</time>
      </trkpt>
      <trkpt lat="47.26056" lon="6.81157">
        <ele>876.8</ele>
        <time>2020-08-29T10:04:13Z</time>
      </trkpt>
      <trkpt lat="47.26044" lon="6.81147">
        <ele>876.8</ele>
        <time>2020-08-29T10:04:19Z</time>
      </trkpt>
      <trkpt lat="47.26033" lon="6.81139">
        <ele>876.8</ele>
        <time>2020-08-29T10:04:24Z</time>
      </trkpt>
      <trkpt lat="47.26014" lon="6.81125">
        <ele>876.8</ele>
        <time>2020-08-29T10:04:31Z</time>
      </trkpt>
      <trkpt lat="47.25995" lon="6.81108">
        <ele>876.8</ele>
        <time>2020-08-29T10:04:38Z</time>
      </trkpt>
      <trkpt lat="47.25985" lon="6.81102">
        <ele>876.4</ele>
        <time>2020-08-29T10:04:41Z</time>
      </trkpt>
      <trkpt lat="47.25982" lon="6.811">
        <ele>876</ele>
        <time>2020-08-29T10:04:42Z</time>
      </trkpt>
      <trkpt lat="47.25979" lon="6.81098">
        <ele>875.6</ele>
        <time>2020-08-29T10:04:43Z</time>
      </trkpt>
      <trkpt lat="47.25976" lon="6.81096">
        <ele>875.2</ele>
        <time>2020-08-29T10:04:44Z</time>
      </trkpt>
      <trkpt lat="47.25972" lon="6.81094">
        <ele>874.8</ele>
        <time>2020-08-29T10:04:45Z</time>
      </trkpt>
      <trkpt lat="47.25956" lon="6.81091">
        <ele>874.8</ele>
        <time>2020-08-29T10:04:49Z</time>
      </trkpt>
      <trkpt lat="47.25942" lon="6.81091">
        <ele>874.8</ele>
        <time>2020-08-29T10:04:53Z</time>
      </trkpt>
      <trkpt lat="47.25938" lon="6.81091">
        <ele>874.8</ele>
        <time>2020-08-29T10:04:56Z</time>
      </trkpt>
      <trkpt lat="47.25938" lon="6.81091">
        <ele>874.8</ele>
        <time>2020-08-29T10:04:57Z</time>
      </trkpt>
      <trkpt lat="47.25936" lon="6.81092">
        <ele>874.8</ele>
        <time>2020-08-29T10:04:59Z</time>
      </trkpt>
      <trkpt lat="47.25934" lon="6.81091">
        <ele>874.8</ele>
        <time>2020-08-29T10:05:01Z</time>
      </trkpt>
      <trkpt lat="47.25932" lon="6.81091">
        <ele>875.2</ele>
        <time>2020-08-29T10:05:02Z</time>
      </trkpt>
      <trkpt lat="47.25932" lon="6.81091">
        <ele>875.6</ele>
        <time>2020-08-29T10:05:03Z</time>
      </trkpt>
      <trkpt lat="47.25931" lon="6.8109">
        <ele>876</ele>
        <time>2020-08-29T10:05:04Z</time>
      </trkpt>
      <trkpt lat="47.2593" lon="6.8109">
        <ele>876.4</ele>
        <time>2020-08-29T10:05:05Z</time>
      </trkpt>
      <trkpt lat="47.25929" lon="6.8109">
        <ele>877</ele>
        <time>2020-08-29T10:05:06Z</time>
      </trkpt>
      <trkpt lat="47.25918" lon="6.81091">
        <ele>877.4</ele>
        <time>2020-08-29T10:05:12Z</time>
      </trkpt>
      <trkpt lat="47.25917" lon="6.81091">
        <ele>877.8</ele>
        <time>2020-08-29T10:05:13Z</time>
      </trkpt>
      <trkpt lat="47.25917" lon="6.81091">
        <ele>878.2</ele>
        <time>2020-08-29T10:05:14Z</time>
      </trkpt>
      <trkpt lat="47.25915" lon="6.81091">
        <ele>878.6</ele>
        <time>2020-08-29T10:05:15Z</time>
      </trkpt>
      <trkpt lat="47.25914" lon="6.81091">
        <ele>879</ele>
        <time>2020-08-29T10:05:16Z</time>
      </trkpt>
      <trkpt lat="47.25912" lon="6.81091">
        <ele>879</ele>
        <time>2020-08-29T10:05:18Z</time>
      </trkpt>
      <trkpt lat="47.25904" lon="6.81092">
        <ele>879.8</ele>
        <time>2020-08-29T10:05:23Z</time>
      </trkpt>
      <trkpt lat="47.25903" lon="6.81092">
        <ele>880.2</ele>
        <time>2020-08-29T10:05:24Z</time>
      </trkpt>
      <trkpt lat="47.25902" lon="6.81093">
        <ele>880.6</ele>
        <time>2020-08-29T10:05:25Z</time>
      </trkpt>
      <trkpt lat="47.259" lon="6.81093">
        <ele>881</ele>
        <time>2020-08-29T10:05:26Z</time>
      </trkpt>
      <trkpt lat="47.25895" lon="6.81092">
        <ele>881</ele>
        <time>2020-08-29T10:05:30Z</time>
      </trkpt>
      <trkpt lat="47.25888" lon="6.81092">
        <ele>881.4</ele>
        <time>2020-08-29T10:05:36Z</time>
      </trkpt>
      <trkpt lat="47.25887" lon="6.81092">
        <ele>882</ele>
        <time>2020-08-29T10:05:37Z</time>
      </trkpt>
      <trkpt lat="47.25886" lon="6.81092">
        <ele>882.4</ele>
        <time>2020-08-29T10:05:38Z</time>
      </trkpt>
      <trkpt lat="47.25884" lon="6.81092">
        <ele>882.8</ele>
        <time>2020-08-29T10:05:39Z</time>
      </trkpt>
      <trkpt lat="47.25883" lon="6.81092">
        <ele>883.2</ele>
        <time>2020-08-29T10:05:40Z</time>
      </trkpt>
      <trkpt lat="47.25878" lon="6.81093">
        <ele>883.2</ele>
        <time>2020-08-29T10:05:45Z</time>
      </trkpt>
      <trkpt lat="47.25871" lon="6.81094">
        <ele>883.2</ele>
        <time>2020-08-29T10:05:50Z</time>
      </trkpt>
      <trkpt lat="47.2587" lon="6.81094">
        <ele>883.6</ele>
        <time>2020-08-29T10:05:51Z</time>
      </trkpt>
      <trkpt lat="47.25868" lon="6.81094">
        <ele>884</ele>
        <time>2020-08-29T10:05:52Z</time>
      </trkpt>
      <trkpt lat="47.25867" lon="6.81094">
        <ele>884.4</ele>
        <time>2020-08-29T10:05:53Z</time>
      </trkpt>
      <trkpt lat="47.25865" lon="6.81094">
        <ele>884.8</ele>
        <time>2020-08-29T10:05:54Z</time>
      </trkpt>
      <trkpt lat="47.25864" lon="6.81094">
        <ele>885.4</ele>
        <time>2020-08-29T10:05:55Z</time>
      </trkpt>
      <trkpt lat="47.25863" lon="6.81094">
        <ele>885.4</ele>
        <time>2020-08-29T10:05:56Z</time>
      </trkpt>
      <trkpt lat="47.25856" lon="6.81097">
        <ele>885.4</ele>
        <time>2020-08-29T10:06:02Z</time>
      </trkpt>
      <trkpt lat="47.25854" lon="6.81097">
        <ele>885.4</ele>
        <time>2020-08-29T10:06:05Z</time>
      </trkpt>
      <trkpt lat="47.25854" lon="6.81097">
        <ele>885.4</ele>
        <time>2020-08-29T10:06:06Z</time>
      </trkpt>
      <trkpt lat="47.25854" lon="6.81097">
        <ele>885.4</ele>
        <time>2020-08-29T10:06:08Z</time>
      </trkpt>
      <trkpt lat="47.2585" lon="6.81098">
        <ele>885.8</ele>
        <time>2020-08-29T10:06:11Z</time>
      </trkpt>
      <trkpt lat="47.25849" lon="6.81098">
        <ele>886.6</ele>
        <time>2020-08-29T10:06:12Z</time>
      </trkpt>
      <trkpt lat="47.25848" lon="6.81099">
        <ele>887</ele>
        <time>2020-08-29T10:06:13Z</time>
      </trkpt>
      <trkpt lat="47.25846" lon="6.81099">
        <ele>887.4</ele>
        <time>2020-08-29T10:06:14Z</time>
      </trkpt>
      <trkpt lat="47.2584" lon="6.81099">
        <ele>887.4</ele>
        <time>2020-08-29T10:06:20Z</time>
      </trkpt>
      <trkpt lat="47.25829" lon="6.81104">
        <ele>887.4</ele>
        <time>2020-08-29T10:06:27Z</time>
      </trkpt>
      <trkpt lat="47.25822" lon="6.81105">
        <ele>887.8</ele>
        <time>2020-08-29T10:06:31Z</time>
      </trkpt>
      <trkpt lat="47.25819" lon="6.81106">
        <ele>888.2</ele>
        <time>2020-08-29T10:06:32Z</time>
      </trkpt>
      <trkpt lat="47.25817" lon="6.81106">
        <ele>888.6</ele>
        <time>2020-08-29T10:06:33Z</time>
      </trkpt>
      <trkpt lat="47.25815" lon="6.81107">
        <ele>889</ele>
        <time>2020-08-29T10:06:34Z</time>
      </trkpt>
      <trkpt lat="47.25814" lon="6.81107">
        <ele>889.4</ele>
        <time>2020-08-29T10:06:35Z</time>
      </trkpt>
      <trkpt lat="47.25808" lon="6.81107">
        <ele>889.4</ele>
        <time>2020-08-29T10:06:39Z</time>
      </trkpt>
      <trkpt lat="47.25794" lon="6.81112">
        <ele>889.4</ele>
        <time>2020-08-29T10:06:45Z</time>
      </trkpt>
      <trkpt lat="47.25782" lon="6.81116">
        <ele>889.4</ele>
        <time>2020-08-29T10:06:51Z</time>
      </trkpt>
      <trkpt lat="47.25771" lon="6.81123">
        <ele>889.4</ele>
        <time>2020-08-29T10:06:58Z</time>
      </trkpt>
      <trkpt lat="47.25761" lon="6.81131">
        <ele>889.4</ele>
        <time>2020-08-29T10:07:04Z</time>
      </trkpt>
      <trkpt lat="47.25754" lon="6.81135">
        <ele>889.4</ele>
        <time>2020-08-29T10:07:09Z</time>
      </trkpt>
      <trkpt lat="47.25754" lon="6.81135">
        <ele>889.4</ele>
        <time>2020-08-29T10:07:10Z</time>
      </trkpt>
      <trkpt lat="47.25754" lon="6.81135">
        <ele>889.4</ele>
        <time>2020-08-29T10:07:14Z</time>
      </trkpt>
      <trkpt lat="47.25754" lon="6.81135">
        <ele>889.4</ele>
        <time>2020-08-29T10:07:15Z</time>
      </trkpt>
      <trkpt lat="47.25754" lon="6.81135">
        <ele>889.4</ele>
        <time>2020-08-29T10:08:02Z</time>
      </trkpt>
      <trkpt lat="47.25754" lon="6.81135">
        <ele>889.4</ele>
        <time>2020-08-29T10:08:03Z</time>
      </trkpt>
      <trkpt lat="47.25749" lon="6.81142">
        <ele>889.4</ele>
        <time>2020-08-29T10:08:08Z</time>
      </trkpt>
      <trkpt lat="47.25741" lon="6.81151">
        <ele>889.4</ele>
        <time>2020-08-29T10:08:14Z</time>
      </trkpt>
      <trkpt lat="47.25732" lon="6.81167">
        <ele>889.4</ele>
        <time>2020-08-29T10:08:21Z</time>
      </trkpt>
      <trkpt lat="47.25726" lon="6.81179">
        <ele>889.4</ele>
        <time>2020-08-29T10:08:26Z</time>
      </trkpt>
      <trkpt lat="47.25717" lon="6.81196">
        <ele>889.4</ele>
        <time>2020-08-29T10:08:32Z</time>
      </trkpt>
      <trkpt lat="47.25709" lon="6.81217">
        <ele>889.4</ele>
        <time>2020-08-29T10:08:40Z</time>
      </trkpt>
      <trkpt lat="47.25709" lon="6.8122">
        <ele>889.8</ele>
        <time>2020-08-29T10:08:41Z</time>
      </trkpt>
      <trkpt lat="47.25708" lon="6.81222">
        <ele>890.2</ele>
        <time>2020-08-29T10:08:42Z</time>
      </trkpt>
      <trkpt lat="47.25707" lon="6.81224">
        <ele>890.6</ele>
        <time>2020-08-29T10:08:43Z</time>
      </trkpt>
      <trkpt lat="47.25706" lon="6.81226">
        <ele>891</ele>
        <time>2020-08-29T10:08:44Z</time>
      </trkpt>
      <trkpt lat="47.25704" lon="6.81229">
        <ele>891.4</ele>
        <time>2020-08-29T10:08:45Z</time>
      </trkpt>
      <trkpt lat="47.25702" lon="6.81233">
        <ele>891.4</ele>
        <time>2020-08-29T10:08:47Z</time>
      </trkpt>
      <trkpt lat="47.25702" lon="6.81235">
        <ele>891.4</ele>
        <time>2020-08-29T10:08:48Z</time>
      </trkpt>
      <trkpt lat="47.25699" lon="6.81245">
        <ele>891.4</ele>
        <time>2020-08-29T10:08:52Z</time>
      </trkpt>
      <trkpt lat="47.25697" lon="6.81253">
        <ele>891.4</ele>
        <time>2020-08-29T10:08:55Z</time>
      </trkpt>
      <trkpt lat="47.25692" lon="6.81261">
        <ele>891.4</ele>
        <time>2020-08-29T10:08:58Z</time>
      </trkpt>
      <trkpt lat="47.25686" lon="6.81272">
        <ele>891.4</ele>
        <time>2020-08-29T10:09:03Z</time>
      </trkpt>
      <trkpt lat="47.25678" lon="6.81288">
        <ele>891.4</ele>
        <time>2020-08-29T10:09:09Z</time>
      </trkpt>
      <trkpt lat="47.25671" lon="6.81306">
        <ele>891.4</ele>
        <time>2020-08-29T10:09:16Z</time>
      </trkpt>
      <trkpt lat="47.25668" lon="6.81314">
        <ele>891.4</ele>
        <time>2020-08-29T10:09:19Z</time>
      </trkpt>
      <trkpt lat="47.25667" lon="6.8132">
        <ele>891.8</ele>
        <time>2020-08-29T10:09:21Z</time>
      </trkpt>
      <trkpt lat="47.25668" lon="6.81323">
        <ele>892.2</ele>
        <time>2020-08-29T10:09:22Z</time>
      </trkpt>
      <trkpt lat="47.25668" lon="6.81327">
        <ele>892.6</ele>
        <time>2020-08-29T10:09:23Z</time>
      </trkpt>
      <trkpt lat="47.25669" lon="6.81329">
        <ele>893</ele>
        <time>2020-08-29T10:09:24Z</time>
      </trkpt>
      <trkpt lat="47.2567" lon="6.81332">
        <ele>893.6</ele>
        <time>2020-08-29T10:09:25Z</time>
      </trkpt>
      <trkpt lat="47.25677" lon="6.81346">
        <ele>893.6</ele>
        <time>2020-08-29T10:09:31Z</time>
      </trkpt>
      <trkpt lat="47.25679" lon="6.81351">
        <ele>894</ele>
        <time>2020-08-29T10:09:33Z</time>
      </trkpt>
      <trkpt lat="47.2568" lon="6.81353">
        <ele>894.4</ele>
        <time>2020-08-29T10:09:34Z</time>
      </trkpt>
      <trkpt lat="47.25681" lon="6.81356">
        <ele>894.8</ele>
        <time>2020-08-29T10:09:35Z</time>
      </trkpt>
      <trkpt lat="47.25682" lon="6.81358">
        <ele>895.2</ele>
        <time>2020-08-29T10:09:36Z</time>
      </trkpt>
      <trkpt lat="47.25682" lon="6.8136">
        <ele>895.6</ele>
        <time>2020-08-29T10:09:37Z</time>
      </trkpt>
      <trkpt lat="47.25683" lon="6.81364">
        <ele>895.6</ele>
        <time>2020-08-29T10:09:39Z</time>
      </trkpt>
      <trkpt lat="47.25686" lon="6.81375">
        <ele>895.6</ele>
        <time>2020-08-29T10:09:45Z</time>
      </trkpt>
      <trkpt lat="47.25692" lon="6.81382">
        <ele>896</ele>
        <time>2020-08-29T10:09:52Z</time>
      </trkpt>
      <trkpt lat="47.25693" lon="6.81381">
        <ele>896.4</ele>
        <time>2020-08-29T10:09:53Z</time>
      </trkpt>
      <trkpt lat="47.25694" lon="6.8138">
        <ele>896.8</ele>
        <time>2020-08-29T10:09:54Z</time>
      </trkpt>
      <trkpt lat="47.25695" lon="6.81379">
        <ele>897.6</ele>
        <time>2020-08-29T10:09:55Z</time>
      </trkpt>
      <trkpt lat="47.25696" lon="6.81377">
        <ele>897.6</ele>
        <time>2020-08-29T10:09:57Z</time>
      </trkpt>
      <trkpt lat="47.257" lon="6.81373">
        <ele>897.6</ele>
        <time>2020-08-29T10:10:00Z</time>
      </trkpt>
      <trkpt lat="47.25704" lon="6.81366">
        <ele>897.6</ele>
        <time>2020-08-29T10:10:04Z</time>
      </trkpt>
      <trkpt lat="47.25708" lon="6.81359">
        <ele>897.6</ele>
        <time>2020-08-29T10:10:09Z</time>
      </trkpt>
      <trkpt lat="47.2571" lon="6.81357">
        <ele>897.6</ele>
        <time>2020-08-29T10:10:11Z</time>
      </trkpt>
      <trkpt lat="47.25712" lon="6.8135">
        <ele>897.6</ele>
        <time>2020-08-29T10:10:14Z</time>
      </trkpt>
      <trkpt lat="47.25715" lon="6.81332">
        <ele>897.6</ele>
        <time>2020-08-29T10:10:20Z</time>
      </trkpt>
      <trkpt lat="47.25716" lon="6.81317">
        <ele>897.6</ele>
        <time>2020-08-29T10:10:26Z</time>
      </trkpt>
      <trkpt lat="47.2572" lon="6.81306">
        <ele>897.6</ele>
        <time>2020-08-29T10:10:31Z</time>
      </trkpt>
      <trkpt lat="47.25721" lon="6.81303">
        <ele>897.6</ele>
        <time>2020-08-29T10:10:32Z</time>
      </trkpt>
      <trkpt lat="47.25727" lon="6.81282">
        <ele>897.6</ele>
        <time>2020-08-29T10:10:39Z</time>
      </trkpt>
      <trkpt lat="47.25735" lon="6.81255">
        <ele>897.6</ele>
        <time>2020-08-29T10:10:46Z</time>
      </trkpt>
      <trkpt lat="47.25745" lon="6.81237">
        <ele>897.6</ele>
        <time>2020-08-29T10:10:54Z</time>
      </trkpt>
      <trkpt lat="47.25751" lon="6.81224">
        <ele>897.6</ele>
        <time>2020-08-29T10:11:00Z</time>
      </trkpt>
      <trkpt lat="47.25759" lon="6.81215">
        <ele>897.6</ele>
        <time>2020-08-29T10:11:07Z</time>
      </trkpt>
      <trkpt lat="47.25762" lon="6.81214">
        <ele>897.6</ele>
        <time>2020-08-29T10:11:10Z</time>
      </trkpt>
      <trkpt lat="47.25762" lon="6.81214">
        <ele>897.6</ele>
        <time>2020-08-29T10:11:12Z</time>
      </trkpt>
      <trkpt lat="47.25764" lon="6.81215">
        <ele>897.6</ele>
        <time>2020-08-29T10:11:15Z</time>
      </trkpt>
      <trkpt lat="47.25766" lon="6.81219">
        <ele>897.6</ele>
        <time>2020-08-29T10:11:20Z</time>
      </trkpt>
      <trkpt lat="47.25767" lon="6.8122">
        <ele>898.2</ele>
        <time>2020-08-29T10:11:22Z</time>
      </trkpt>
      <trkpt lat="47.25767" lon="6.81223">
        <ele>898.6</ele>
        <time>2020-08-29T10:11:23Z</time>
      </trkpt>
      <trkpt lat="47.25767" lon="6.81226">
        <ele>899</ele>
        <time>2020-08-29T10:11:24Z</time>
      </trkpt>
      <trkpt lat="47.25767" lon="6.8123">
        <ele>899.4</ele>
        <time>2020-08-29T10:11:25Z</time>
      </trkpt>
      <trkpt lat="47.25768" lon="6.81233">
        <ele>899.8</ele>
        <time>2020-08-29T10:11:26Z</time>
      </trkpt>
      <trkpt lat="47.2577" lon="6.81242">
        <ele>899.8</ele>
        <time>2020-08-29T10:11:29Z</time>
      </trkpt>
      <trkpt lat="47.25772" lon="6.81246">
        <ele>899.8</ele>
        <time>2020-08-29T10:11:32Z</time>
      </trkpt>
      <trkpt lat="47.25773" lon="6.81249">
        <ele>900.2</ele>
        <time>2020-08-29T10:11:34Z</time>
      </trkpt>
      <trkpt lat="47.25774" lon="6.81251">
        <ele>900.6</ele>
        <time>2020-08-29T10:11:35Z</time>
      </trkpt>
      <trkpt lat="47.25775" lon="6.81254">
        <ele>901</ele>
        <time>2020-08-29T10:11:36Z</time>
      </trkpt>
      <trkpt lat="47.25776" lon="6.81257">
        <ele>901.6</ele>
        <time>2020-08-29T10:11:37Z</time>
      </trkpt>
      <trkpt lat="47.25775" lon="6.81259">
        <ele>902</ele>
        <time>2020-08-29T10:11:38Z</time>
      </trkpt>
      <trkpt lat="47.25775" lon="6.81261">
        <ele>902</ele>
        <time>2020-08-29T10:11:39Z</time>
      </trkpt>
      <trkpt lat="47.25773" lon="6.81264">
        <ele>902</ele>
        <time>2020-08-29T10:11:41Z</time>
      </trkpt>
      <trkpt lat="47.25769" lon="6.81269">
        <ele>902</ele>
        <time>2020-08-29T10:11:44Z</time>
      </trkpt>
      <trkpt lat="47.25764" lon="6.81276">
        <ele>902</ele>
        <time>2020-08-29T10:11:48Z</time>
      </trkpt>
      <trkpt lat="47.25763" lon="6.8128">
        <ele>902</ele>
        <time>2020-08-29T10:11:50Z</time>
      </trkpt>
      <trkpt lat="47.25763" lon="6.81287">
        <ele>902</ele>
        <time>2020-08-29T10:11:53Z</time>
      </trkpt>
      <trkpt lat="47.25764" lon="6.81293">
        <ele>902</ele>
        <time>2020-08-29T10:11:56Z</time>
      </trkpt>
      <trkpt lat="47.25765" lon="6.81302">
        <ele>902</ele>
        <time>2020-08-29T10:12:02Z</time>
      </trkpt>
      <trkpt lat="47.25764" lon="6.81307">
        <ele>902.4</ele>
        <time>2020-08-29T10:12:07Z</time>
      </trkpt>
      <trkpt lat="47.25763" lon="6.81308">
        <ele>902.8</ele>
        <time>2020-08-29T10:12:08Z</time>
      </trkpt>
      <trkpt lat="47.25763" lon="6.81309">
        <ele>903.2</ele>
        <time>2020-08-29T10:12:09Z</time>
      </trkpt>
      <trkpt lat="47.25763" lon="6.8131">
        <ele>903.6</ele>
        <time>2020-08-29T10:12:10Z</time>
      </trkpt>
      <trkpt lat="47.25763" lon="6.81311">
        <ele>904</ele>
        <time>2020-08-29T10:12:11Z</time>
      </trkpt>
      <trkpt lat="47.25763" lon="6.81311">
        <ele>904</ele>
        <time>2020-08-29T10:12:12Z</time>
      </trkpt>
      <trkpt lat="47.25764" lon="6.81316">
        <ele>904</ele>
        <time>2020-08-29T10:12:14Z</time>
      </trkpt>
      <trkpt lat="47.25765" lon="6.81328">
        <ele>904</ele>
        <time>2020-08-29T10:12:21Z</time>
      </trkpt>
      <trkpt lat="47.25765" lon="6.81329">
        <ele>904.4</ele>
        <time>2020-08-29T10:12:22Z</time>
      </trkpt>
      <trkpt lat="47.25765" lon="6.8133">
        <ele>904.8</ele>
        <time>2020-08-29T10:12:23Z</time>
      </trkpt>
      <trkpt lat="47.25765" lon="6.81332">
        <ele>905.8</ele>
        <time>2020-08-29T10:12:24Z</time>
      </trkpt>
      <trkpt lat="47.25765" lon="6.81333">
        <ele>906.2</ele>
        <time>2020-08-29T10:12:25Z</time>
      </trkpt>
      <trkpt lat="47.25764" lon="6.81335">
        <ele>906.2</ele>
        <time>2020-08-29T10:12:27Z</time>
      </trkpt>
      <trkpt lat="47.25765" lon="6.81338">
        <ele>906.2</ele>
        <time>2020-08-29T10:12:29Z</time>
      </trkpt>
      <trkpt lat="47.25765" lon="6.81343">
        <ele>906.6</ele>
        <time>2020-08-29T10:12:32Z</time>
      </trkpt>
      <trkpt lat="47.25766" lon="6.81344">
        <ele>907</ele>
        <time>2020-08-29T10:12:33Z</time>
      </trkpt>
      <trkpt lat="47.25766" lon="6.81345">
        <ele>907.4</ele>
        <time>2020-08-29T10:12:34Z</time>
      </trkpt>
      <trkpt lat="47.25767" lon="6.81346">
        <ele>907.8</ele>
        <time>2020-08-29T10:12:35Z</time>
      </trkpt>
      <trkpt lat="47.25768" lon="6.81347">
        <ele>908.2</ele>
        <time>2020-08-29T10:12:36Z</time>
      </trkpt>
      <trkpt lat="47.25771" lon="6.81357">
        <ele>908.2</ele>
        <time>2020-08-29T10:12:42Z</time>
      </trkpt>
      <trkpt lat="47.25772" lon="6.81361">
        <ele>908.6</ele>
        <time>2020-08-29T10:12:45Z</time>
      </trkpt>
      <trkpt lat="47.25772" lon="6.81363">
        <ele>909</ele>
        <time>2020-08-29T10:12:46Z</time>
      </trkpt>
      <trkpt lat="47.25772" lon="6.81364">
        <ele>909.4</ele>
        <time>2020-08-29T10:12:47Z</time>
      </trkpt>
      <trkpt lat="47.25772" lon="6.81365">
        <ele>910.2</ele>
        <time>2020-08-29T10:12:48Z</time>
      </trkpt>
      <trkpt lat="47.25772" lon="6.81366">
        <ele>910.2</ele>
        <time>2020-08-29T10:12:49Z</time>
      </trkpt>
      <trkpt lat="47.25772" lon="6.81368">
        <ele>910.2</ele>
        <time>2020-08-29T10:12:50Z</time>
      </trkpt>
      <trkpt lat="47.25774" lon="6.81375">
        <ele>910.6</ele>
        <time>2020-08-29T10:12:57Z</time>
      </trkpt>
      <trkpt lat="47.25775" lon="6.81376">
        <ele>911</ele>
        <time>2020-08-29T10:12:58Z</time>
      </trkpt>
      <trkpt lat="47.25775" lon="6.81377">
        <ele>911.4</ele>
        <time>2020-08-29T10:12:59Z</time>
      </trkpt>
      <trkpt lat="47.25776" lon="6.81378">
        <ele>911.8</ele>
        <time>2020-08-29T10:13:00Z</time>
      </trkpt>
      <trkpt lat="47.25776" lon="6.81378">
        <ele>912.4</ele>
        <time>2020-08-29T10:13:01Z</time>
      </trkpt>
      <trkpt lat="47.25777" lon="6.8138">
        <ele>912.4</ele>
        <time>2020-08-29T10:13:03Z</time>
      </trkpt>
      <trkpt lat="47.25777" lon="6.81381">
        <ele>912.4</ele>
        <time>2020-08-29T10:13:07Z</time>
      </trkpt>
      <trkpt lat="47.25782" lon="6.81381">
        <ele>912.4</ele>
        <time>2020-08-29T10:13:13Z</time>
      </trkpt>
      <trkpt lat="47.25783" lon="6.8138">
        <ele>912.8</ele>
        <time>2020-08-29T10:13:14Z</time>
      </trkpt>
      <trkpt lat="47.25783" lon="6.8138">
        <ele>913.2</ele>
        <time>2020-08-29T10:13:15Z</time>
      </trkpt>
      <trkpt lat="47.25784" lon="6.8138">
        <ele>913.6</ele>
        <time>2020-08-29T10:13:16Z</time>
      </trkpt>
      <trkpt lat="47.25784" lon="6.8138">
        <ele>914.4</ele>
        <time>2020-08-29T10:14:38Z</time>
      </trkpt>
      <trkpt lat="47.25784" lon="6.81381">
        <ele>914.4</ele>
        <time>2020-08-29T10:14:40Z</time>
      </trkpt>
      <trkpt lat="47.25784" lon="6.81382">
        <ele>914.4</ele>
        <time>2020-08-29T10:14:41Z</time>
      </trkpt>
      <trkpt lat="47.25784" lon="6.81383">
        <ele>914.4</ele>
        <time>2020-08-29T10:14:42Z</time>
      </trkpt>
      <trkpt lat="47.25786" lon="6.81389">
        <ele>914.4</ele>
        <time>2020-08-29T10:14:48Z</time>
      </trkpt>
      <trkpt lat="47.25787" lon="6.8139">
        <ele>914.8</ele>
        <time>2020-08-29T10:14:49Z</time>
      </trkpt>
      <trkpt lat="47.25788" lon="6.81391">
        <ele>915.2</ele>
        <time>2020-08-29T10:14:50Z</time>
      </trkpt>
      <trkpt lat="47.25789" lon="6.81392">
        <ele>915.6</ele>
        <time>2020-08-29T10:14:51Z</time>
      </trkpt>
      <trkpt lat="47.25789" lon="6.81393">
        <ele>916</ele>
        <time>2020-08-29T10:14:52Z</time>
      </trkpt>
      <trkpt lat="47.2579" lon="6.81394">
        <ele>916.4</ele>
        <time>2020-08-29T10:14:53Z</time>
      </trkpt>
      <trkpt lat="47.25791" lon="6.81396">
        <ele>916.4</ele>
        <time>2020-08-29T10:14:54Z</time>
      </trkpt>
      <trkpt lat="47.25792" lon="6.81397">
        <ele>916.4</ele>
        <time>2020-08-29T10:14:55Z</time>
      </trkpt>
      <trkpt lat="47.25792" lon="6.81398">
        <ele>916.4</ele>
        <time>2020-08-29T10:14:58Z</time>
      </trkpt>
      <trkpt lat="47.25796" lon="6.81406">
        <ele>916.4</ele>
        <time>2020-08-29T10:15:02Z</time>
      </trkpt>
      <trkpt lat="47.25797" lon="6.81407">
        <ele>916.8</ele>
        <time>2020-08-29T10:15:03Z</time>
      </trkpt>
      <trkpt lat="47.25798" lon="6.81409">
        <ele>917.2</ele>
        <time>2020-08-29T10:15:04Z</time>
      </trkpt>
      <trkpt lat="47.25799" lon="6.81409">
        <ele>917.6</ele>
        <time>2020-08-29T10:15:05Z</time>
      </trkpt>
      <trkpt lat="47.25799" lon="6.8141">
        <ele>918</ele>
        <time>2020-08-29T10:15:06Z</time>
      </trkpt>
      <trkpt lat="47.258" lon="6.8141">
        <ele>918.4</ele>
        <time>2020-08-29T10:15:07Z</time>
      </trkpt>
      <trkpt lat="47.25801" lon="6.81411">
        <ele>918.4</ele>
        <time>2020-08-29T10:15:08Z</time>
      </trkpt>
      <trkpt lat="47.25801" lon="6.81411">
        <ele>918.4</ele>
        <time>2020-08-29T10:15:09Z</time>
      </trkpt>
      <trkpt lat="47.25802" lon="6.81412">
        <ele>918.4</ele>
        <time>2020-08-29T10:15:10Z</time>
      </trkpt>
      <trkpt lat="47.25802" lon="6.81413">
        <ele>918.4</ele>
        <time>2020-08-29T10:15:11Z</time>
      </trkpt>
      <trkpt lat="47.25802" lon="6.81413">
        <ele>918.4</ele>
        <time>2020-08-29T10:15:12Z</time>
      </trkpt>
      <trkpt lat="47.25803" lon="6.81414">
        <ele>918.4</ele>
        <time>2020-08-29T10:15:13Z</time>
      </trkpt>
      <trkpt lat="47.25803" lon="6.81414">
        <ele>919.8</ele>
        <time>2020-08-29T10:15:16Z</time>
      </trkpt>
      <trkpt lat="47.25804" lon="6.81415">
        <ele>920.2</ele>
        <time>2020-08-29T10:15:17Z</time>
      </trkpt>
      <trkpt lat="47.25804" lon="6.81416">
        <ele>920.6</ele>
        <time>2020-08-29T10:15:18Z</time>
      </trkpt>
      <trkpt lat="47.25804" lon="6.81416">
        <ele>920.6</ele>
        <time>2020-08-29T10:15:19Z</time>
      </trkpt>
      <trkpt lat="47.25807" lon="6.81419">
        <ele>920.6</ele>
        <time>2020-08-29T10:15:22Z</time>
      </trkpt>
      <trkpt lat="47.25809" lon="6.81423">
        <ele>920.6</ele>
        <time>2020-08-29T10:15:26Z</time>
      </trkpt>
      <trkpt lat="47.25809" lon="6.81423">
        <ele>921</ele>
        <time>2020-08-29T10:15:27Z</time>
      </trkpt>
      <trkpt lat="47.2581" lon="6.81423">
        <ele>921.4</ele>
        <time>2020-08-29T10:15:28Z</time>
      </trkpt>
      <trkpt lat="47.25812" lon="6.81424">
        <ele>921.8</ele>
        <time>2020-08-29T10:15:29Z</time>
      </trkpt>
      <trkpt lat="47.25813" lon="6.81425">
        <ele>922.4</ele>
        <time>2020-08-29T10:15:30Z</time>
      </trkpt>
      <trkpt lat="47.25814" lon="6.81426">
        <ele>922.8</ele>
        <time>2020-08-29T10:15:31Z</time>
      </trkpt>
      <trkpt lat="47.25814" lon="6.81426">
        <ele>922.8</ele>
        <time>2020-08-29T10:15:35Z</time>
      </trkpt>
      <trkpt lat="47.25818" lon="6.81432">
        <ele>922.8</ele>
        <time>2020-08-29T10:15:39Z</time>
      </trkpt>
      <trkpt lat="47.25818" lon="6.81432">
        <ele>923.6</ele>
        <time>2020-08-29T10:15:41Z</time>
      </trkpt>
      <trkpt lat="47.25819" lon="6.81434">
        <ele>924</ele>
        <time>2020-08-29T10:15:42Z</time>
      </trkpt>
      <trkpt lat="47.2582" lon="6.81434">
        <ele>924.4</ele>
        <time>2020-08-29T10:15:43Z</time>
      </trkpt>
      <trkpt lat="47.25821" lon="6.81435">
        <ele>925</ele>
        <time>2020-08-29T10:15:44Z</time>
      </trkpt>
      <trkpt lat="47.25822" lon="6.81436">
        <ele>925</ele>
        <time>2020-08-29T10:15:46Z</time>
      </trkpt>
      <trkpt lat="47.25823" lon="6.81437">
        <ele>925</ele>
        <time>2020-08-29T10:15:47Z</time>
      </trkpt>
      <trkpt lat="47.25827" lon="6.81442">
        <ele>925.4</ele>
        <time>2020-08-29T10:15:52Z</time>
      </trkpt>
      <trkpt lat="47.25827" lon="6.81443">
        <ele>925.8</ele>
        <time>2020-08-29T10:15:53Z</time>
      </trkpt>
      <trkpt lat="47.25828" lon="6.81444">
        <ele>926.2</ele>
        <time>2020-08-29T10:15:54Z</time>
      </trkpt>
      <trkpt lat="47.25829" lon="6.81445">
        <ele>926.6</ele>
        <time>2020-08-29T10:15:55Z</time>
      </trkpt>
      <trkpt lat="47.2583" lon="6.81446">
        <ele>927</ele>
        <time>2020-08-29T10:15:56Z</time>
      </trkpt>
      <trkpt lat="47.25831" lon="6.81447">
        <ele>927</ele>
        <time>2020-08-29T10:15:58Z</time>
      </trkpt>
      <trkpt lat="47.25835" lon="6.81452">
        <ele>927</ele>
        <time>2020-08-29T10:16:03Z</time>
      </trkpt>
      <trkpt lat="47.25835" lon="6.81452">
        <ele>927.4</ele>
        <time>2020-08-29T10:16:04Z</time>
      </trkpt>
      <trkpt lat="47.25836" lon="6.81452">
        <ele>927.8</ele>
        <time>2020-08-29T10:16:05Z</time>
      </trkpt>
      <trkpt lat="47.25837" lon="6.81453">
        <ele>928.2</ele>
        <time>2020-08-29T10:16:06Z</time>
      </trkpt>
      <trkpt lat="47.25837" lon="6.81453">
        <ele>928.6</ele>
        <time>2020-08-29T10:16:07Z</time>
      </trkpt>
      <trkpt lat="47.25838" lon="6.81454">
        <ele>929</ele>
        <time>2020-08-29T10:16:08Z</time>
      </trkpt>
      <trkpt lat="47.25838" lon="6.81454">
        <ele>929</ele>
        <time>2020-08-29T10:16:09Z</time>
      </trkpt>
      <trkpt lat="47.25838" lon="6.81454">
        <ele>929</ele>
        <time>2020-08-29T10:16:10Z</time>
      </trkpt>
      <trkpt lat="47.25839" lon="6.81455">
        <ele>929</ele>
        <time>2020-08-29T10:16:13Z</time>
      </trkpt>
      <trkpt lat="47.2584" lon="6.81455">
        <ele>929</ele>
        <time>2020-08-29T10:16:15Z</time>
      </trkpt>
      <trkpt lat="47.2584" lon="6.81456">
        <ele>929</ele>
        <time>2020-08-29T10:16:17Z</time>
      </trkpt>
      <trkpt lat="47.25842" lon="6.81457">
        <ele>929.4</ele>
        <time>2020-08-29T10:16:20Z</time>
      </trkpt>
      <trkpt lat="47.25842" lon="6.81457">
        <ele>930</ele>
        <time>2020-08-29T10:16:21Z</time>
      </trkpt>
      <trkpt lat="47.25844" lon="6.81458">
        <ele>931.2</ele>
        <time>2020-08-29T10:16:26Z</time>
      </trkpt>
      <trkpt lat="47.25845" lon="6.81458">
        <ele>931.2</ele>
        <time>2020-08-29T10:16:27Z</time>
      </trkpt>
      <trkpt lat="47.25849" lon="6.8146">
        <ele>931.2</ele>
        <time>2020-08-29T10:16:30Z</time>
      </trkpt>
      <trkpt lat="47.2585" lon="6.81461">
        <ele>931.2</ele>
        <time>2020-08-29T10:16:31Z</time>
      </trkpt>
      <trkpt lat="47.25851" lon="6.81461">
        <ele>931.2</ele>
        <time>2020-08-29T10:16:32Z</time>
      </trkpt>
      <trkpt lat="47.25851" lon="6.81461">
        <ele>932.8</ele>
        <time>2020-08-29T10:16:36Z</time>
      </trkpt>
      <trkpt lat="47.25852" lon="6.81462">
        <ele>933.2</ele>
        <time>2020-08-29T10:16:37Z</time>
      </trkpt>
      <trkpt lat="47.25853" lon="6.81463">
        <ele>933.2</ele>
        <time>2020-08-29T10:16:38Z</time>
      </trkpt>
      <trkpt lat="47.25855" lon="6.81463">
        <ele>933.2</ele>
        <time>2020-08-29T10:16:40Z</time>
      </trkpt>
      <trkpt lat="47.25855" lon="6.81463">
        <ele>933.2</ele>
        <time>2020-08-29T10:16:41Z</time>
      </trkpt>
      <trkpt lat="47.25855" lon="6.81463">
        <ele>933.2</ele>
        <time>2020-08-29T10:16:42Z</time>
      </trkpt>
      <trkpt lat="47.25855" lon="6.81464">
        <ele>933.2</ele>
        <time>2020-08-29T10:16:43Z</time>
      </trkpt>
      <trkpt lat="47.25855" lon="6.81465">
        <ele>933.2</ele>
        <time>2020-08-29T10:16:44Z</time>
      </trkpt>
      <trkpt lat="47.25856" lon="6.81467">
        <ele>933.2</ele>
        <time>2020-08-29T10:16:46Z</time>
      </trkpt>
      <trkpt lat="47.25857" lon="6.81467">
        <ele>933.6</ele>
        <time>2020-08-29T10:16:48Z</time>
      </trkpt>
      <trkpt lat="47.25858" lon="6.81468">
        <ele>934</ele>
        <time>2020-08-29T10:16:49Z</time>
      </trkpt>
      <trkpt lat="47.25859" lon="6.81468">
        <ele>935</ele>
        <time>2020-08-29T10:16:50Z</time>
      </trkpt>
      <trkpt lat="47.25859" lon="6.81469">
        <ele>935.4</ele>
        <time>2020-08-29T10:16:51Z</time>
      </trkpt>
      <trkpt lat="47.2586" lon="6.81469">
        <ele>935.4</ele>
        <time>2020-08-29T10:16:52Z</time>
      </trkpt>
      <trkpt lat="47.25861" lon="6.8147">
        <ele>935.4</ele>
        <time>2020-08-29T10:16:53Z</time>
      </trkpt>
      <trkpt lat="47.25865" lon="6.81472">
        <ele>935.4</ele>
        <time>2020-08-29T10:16:58Z</time>
      </trkpt>
      <trkpt lat="47.25867" lon="6.81474">
        <ele>935.8</ele>
        <time>2020-08-29T10:17:01Z</time>
      </trkpt>
      <trkpt lat="47.25868" lon="6.81474">
        <ele>936.2</ele>
        <time>2020-08-29T10:17:02Z</time>
      </trkpt>
      <trkpt lat="47.25869" lon="6.81475">
        <ele>936.6</ele>
        <time>2020-08-29T10:17:03Z</time>
      </trkpt>
      <trkpt lat="47.25869" lon="6.81475">
        <ele>937</ele>
        <time>2020-08-29T10:17:04Z</time>
      </trkpt>
      <trkpt lat="47.25869" lon="6.81476">
        <ele>937.4</ele>
        <time>2020-08-29T10:17:05Z</time>
      </trkpt>
      <trkpt lat="47.2587" lon="6.81477">
        <ele>937.4</ele>
        <time>2020-08-29T10:17:07Z</time>
      </trkpt>
      <trkpt lat="47.25872" lon="6.81478">
        <ele>937.4</ele>
        <time>2020-08-29T10:17:10Z</time>
      </trkpt>
      <trkpt lat="47.25873" lon="6.81479">
        <ele>937.4</ele>
        <time>2020-08-29T10:17:13Z</time>
      </trkpt>
      <trkpt lat="47.25874" lon="6.8148">
        <ele>937.4</ele>
        <time>2020-08-29T10:17:14Z</time>
      </trkpt>
      <trkpt lat="47.25874" lon="6.8148">
        <ele>937.8</ele>
        <time>2020-08-29T10:17:15Z</time>
      </trkpt>
      <trkpt lat="47.25875" lon="6.81481">
        <ele>938.2</ele>
        <time>2020-08-29T10:17:16Z</time>
      </trkpt>
      <trkpt lat="47.25876" lon="6.81481">
        <ele>938.6</ele>
        <time>2020-08-29T10:17:17Z</time>
      </trkpt>
      <trkpt lat="47.25877" lon="6.81482">
        <ele>939</ele>
        <time>2020-08-29T10:17:18Z</time>
      </trkpt>
      <trkpt lat="47.25878" lon="6.81482">
        <ele>939.4</ele>
        <time>2020-08-29T10:17:19Z</time>
      </trkpt>
      <trkpt lat="47.2588" lon="6.81484">
        <ele>939.4</ele>
        <time>2020-08-29T10:17:21Z</time>
      </trkpt>
      <trkpt lat="47.2588" lon="6.81484">
        <ele>939.4</ele>
        <time>2020-08-29T10:17:22Z</time>
      </trkpt>
      <trkpt lat="47.25882" lon="6.81485">
        <ele>939.4</ele>
        <time>2020-08-29T10:17:23Z</time>
      </trkpt>
      <trkpt lat="47.25882" lon="6.81485">
        <ele>939.4</ele>
        <time>2020-08-29T10:17:24Z</time>
      </trkpt>
      <trkpt lat="47.25882" lon="6.81486">
        <ele>939.4</ele>
        <time>2020-08-29T10:17:25Z</time>
      </trkpt>
      <trkpt lat="47.25882" lon="6.81486">
        <ele>939.4</ele>
        <time>2020-08-29T10:17:26Z</time>
      </trkpt>
      <trkpt lat="47.25885" lon="6.81488">
        <ele>941</ele>
        <time>2020-08-29T10:17:32Z</time>
      </trkpt>
      <trkpt lat="47.25885" lon="6.81488">
        <ele>941.4</ele>
        <time>2020-08-29T10:17:33Z</time>
      </trkpt>
      <trkpt lat="47.25886" lon="6.81488">
        <ele>941.4</ele>
        <time>2020-08-29T10:17:34Z</time>
      </trkpt>
      <trkpt lat="47.25889" lon="6.8149">
        <ele>941.4</ele>
        <time>2020-08-29T10:17:39Z</time>
      </trkpt>
      <trkpt lat="47.25889" lon="6.8149">
        <ele>941.4</ele>
        <time>2020-08-29T10:17:40Z</time>
      </trkpt>
      <trkpt lat="47.25891" lon="6.81491">
        <ele>941.8</ele>
        <time>2020-08-29T10:17:43Z</time>
      </trkpt>
      <trkpt lat="47.25892" lon="6.81491">
        <ele>942.2</ele>
        <time>2020-08-29T10:17:44Z</time>
      </trkpt>
      <trkpt lat="47.25892" lon="6.81492">
        <ele>942.6</ele>
        <time>2020-08-29T10:17:45Z</time>
      </trkpt>
      <trkpt lat="47.25893" lon="6.81492">
        <ele>943</ele>
        <time>2020-08-29T10:17:46Z</time>
      </trkpt>
      <trkpt lat="47.25893" lon="6.81493">
        <ele>943.4</ele>
        <time>2020-08-29T10:17:47Z</time>
      </trkpt>
      <trkpt lat="47.25894" lon="6.81493">
        <ele>943.4</ele>
        <time>2020-08-29T10:17:48Z</time>
      </trkpt>
      <trkpt lat="47.25896" lon="6.81495">
        <ele>943.4</ele>
        <time>2020-08-29T10:17:51Z</time>
      </trkpt>
      <trkpt lat="47.25896" lon="6.81495">
        <ele>943.4</ele>
        <time>2020-08-29T10:17:52Z</time>
      </trkpt>
      <trkpt lat="47.25898" lon="6.81497">
        <ele>943.4</ele>
        <time>2020-08-29T10:17:54Z</time>
      </trkpt>
      <trkpt lat="47.25902" lon="6.81498">
        <ele>943.8</ele>
        <time>2020-08-29T10:17:59Z</time>
      </trkpt>
      <trkpt lat="47.25902" lon="6.81498">
        <ele>944.2</ele>
        <time>2020-08-29T10:18:00Z</time>
      </trkpt>
      <trkpt lat="47.25903" lon="6.81499">
        <ele>944.6</ele>
        <time>2020-08-29T10:18:01Z</time>
      </trkpt>
      <trkpt lat="47.25904" lon="6.815">
        <ele>945.2</ele>
        <time>2020-08-29T10:18:02Z</time>
      </trkpt>
      <trkpt lat="47.25905" lon="6.815">
        <ele>945.6</ele>
        <time>2020-08-29T10:18:03Z</time>
      </trkpt>
      <trkpt lat="47.25906" lon="6.815">
        <ele>945.6</ele>
        <time>2020-08-29T10:18:06Z</time>
      </trkpt>
      <trkpt lat="47.25907" lon="6.815">
        <ele>945.6</ele>
        <time>2020-08-29T10:18:07Z</time>
      </trkpt>
      <trkpt lat="47.25909" lon="6.81501">
        <ele>945.6</ele>
        <time>2020-08-29T10:18:10Z</time>
      </trkpt>
      <trkpt lat="47.25913" lon="6.81502">
        <ele>946</ele>
        <time>2020-08-29T10:18:16Z</time>
      </trkpt>
      <trkpt lat="47.25914" lon="6.81502">
        <ele>946.4</ele>
        <time>2020-08-29T10:18:17Z</time>
      </trkpt>
      <trkpt lat="47.25914" lon="6.81502">
        <ele>946.8</ele>
        <time>2020-08-29T10:18:18Z</time>
      </trkpt>
      <trkpt lat="47.25915" lon="6.81503">
        <ele>947.2</ele>
        <time>2020-08-29T10:18:19Z</time>
      </trkpt>
      <trkpt lat="47.25915" lon="6.81504">
        <ele>947.6</ele>
        <time>2020-08-29T10:18:20Z</time>
      </trkpt>
      <trkpt lat="47.25918" lon="6.81505">
        <ele>947.6</ele>
        <time>2020-08-29T10:18:24Z</time>
      </trkpt>
      <trkpt lat="47.25927" lon="6.81505">
        <ele>947.6</ele>
        <time>2020-08-29T10:18:32Z</time>
      </trkpt>
      <trkpt lat="47.25931" lon="6.81504">
        <ele>948</ele>
        <time>2020-08-29T10:18:36Z</time>
      </trkpt>
      <trkpt lat="47.25932" lon="6.81504">
        <ele>948.4</ele>
        <time>2020-08-29T10:18:37Z</time>
      </trkpt>
      <trkpt lat="47.25933" lon="6.81505">
        <ele>949</ele>
        <time>2020-08-29T10:18:38Z</time>
      </trkpt>
      <trkpt lat="47.25934" lon="6.81505">
        <ele>949.4</ele>
        <time>2020-08-29T10:18:39Z</time>
      </trkpt>
      <trkpt lat="47.25935" lon="6.81505">
        <ele>949.8</ele>
        <time>2020-08-29T10:18:40Z</time>
      </trkpt>
      <trkpt lat="47.25938" lon="6.81507">
        <ele>949.8</ele>
        <time>2020-08-29T10:18:44Z</time>
      </trkpt>
      <trkpt lat="47.25939" lon="6.81508">
        <ele>949.8</ele>
        <time>2020-08-29T10:18:45Z</time>
      </trkpt>
      <trkpt lat="47.25942" lon="6.81509">
        <ele>949.8</ele>
        <time>2020-08-29T10:18:49Z</time>
      </trkpt>
      <trkpt lat="47.25942" lon="6.81509">
        <ele>949.8</ele>
        <time>2020-08-29T10:18:50Z</time>
      </trkpt>
      <trkpt lat="47.25944" lon="6.81509">
        <ele>949.8</ele>
        <time>2020-08-29T10:18:52Z</time>
      </trkpt>
      <trkpt lat="47.25944" lon="6.8151">
        <ele>949.8</ele>
        <time>2020-08-29T10:18:59Z</time>
      </trkpt>
      <trkpt lat="47.25944" lon="6.8151">
        <ele>950.2</ele>
        <time>2020-08-29T10:19:01Z</time>
      </trkpt>
      <trkpt lat="47.25944" lon="6.8151">
        <ele>950.6</ele>
        <time>2020-08-29T10:19:02Z</time>
      </trkpt>
      <trkpt lat="47.25944" lon="6.8151">
        <ele>951</ele>
        <time>2020-08-29T10:19:03Z</time>
      </trkpt>
      <trkpt lat="47.25944" lon="6.8151">
        <ele>951.4</ele>
        <time>2020-08-29T10:19:04Z</time>
      </trkpt>
      <trkpt lat="47.25944" lon="6.8151">
        <ele>951.8</ele>
        <time>2020-08-29T10:19:05Z</time>
      </trkpt>
      <trkpt lat="47.25949" lon="6.8151">
        <ele>951.8</ele>
        <time>2020-08-29T10:19:10Z</time>
      </trkpt>
      <trkpt lat="47.25951" lon="6.8151">
        <ele>951.8</ele>
        <time>2020-08-29T10:19:11Z</time>
      </trkpt>
      <trkpt lat="47.25954" lon="6.8151">
        <ele>951.8</ele>
        <time>2020-08-29T10:19:14Z</time>
      </trkpt>
      <trkpt lat="47.25956" lon="6.8151">
        <ele>951.8</ele>
        <time>2020-08-29T10:19:15Z</time>
      </trkpt>
      <trkpt lat="47.25957" lon="6.8151">
        <ele>951.8</ele>
        <time>2020-08-29T10:19:16Z</time>
      </trkpt>
      <trkpt lat="47.25968" lon="6.81512">
        <ele>951.8</ele>
        <time>2020-08-29T10:19:23Z</time>
      </trkpt>
      <trkpt lat="47.25973" lon="6.81513">
        <ele>952.2</ele>
        <time>2020-08-29T10:19:26Z</time>
      </trkpt>
      <trkpt lat="47.25975" lon="6.81513">
        <ele>952.6</ele>
        <time>2020-08-29T10:19:27Z</time>
      </trkpt>
      <trkpt lat="47.25977" lon="6.81513">
        <ele>953</ele>
        <time>2020-08-29T10:19:28Z</time>
      </trkpt>
      <trkpt lat="47.25978" lon="6.81513">
        <ele>953.4</ele>
        <time>2020-08-29T10:19:29Z</time>
      </trkpt>
      <trkpt lat="47.2598" lon="6.81513">
        <ele>953.8</ele>
        <time>2020-08-29T10:19:30Z</time>
      </trkpt>
      <trkpt lat="47.2599" lon="6.81515">
        <ele>953.8</ele>
        <time>2020-08-29T10:19:36Z</time>
      </trkpt>
      <trkpt lat="47.25999" lon="6.8152">
        <ele>953.8</ele>
        <time>2020-08-29T10:19:42Z</time>
      </trkpt>
      <trkpt lat="47.26" lon="6.81521">
        <ele>953.8</ele>
        <time>2020-08-29T10:19:43Z</time>
      </trkpt>
      <trkpt lat="47.26006" lon="6.81525">
        <ele>953.8</ele>
        <time>2020-08-29T10:19:46Z</time>
      </trkpt>
      <trkpt lat="47.26014" lon="6.81532">
        <ele>953.8</ele>
        <time>2020-08-29T10:19:49Z</time>
      </trkpt>
      <trkpt lat="47.26024" lon="6.81541">
        <ele>953.8</ele>
        <time>2020-08-29T10:19:54Z</time>
      </trkpt>
      <trkpt lat="47.26037" lon="6.81553">
        <ele>953.8</ele>
        <time>2020-08-29T10:19:59Z</time>
      </trkpt>
      <trkpt lat="47.26047" lon="6.81558">
        <ele>953.8</ele>
        <time>2020-08-29T10:20:04Z</time>
      </trkpt>
      <trkpt lat="47.26057" lon="6.81574">
        <ele>953.8</ele>
        <time>2020-08-29T10:20:11Z</time>
      </trkpt>
      <trkpt lat="47.2607" lon="6.81595">
        <ele>953.8</ele>
        <time>2020-08-29T10:20:15Z</time>
      </trkpt>
      <trkpt lat="47.26075" lon="6.81602">
        <ele>953.4</ele>
        <time>2020-08-29T10:20:16Z</time>
      </trkpt>
      <trkpt lat="47.26079" lon="6.8161">
        <ele>952.8</ele>
        <time>2020-08-29T10:20:17Z</time>
      </trkpt>
      <trkpt lat="47.26083" lon="6.81616">
        <ele>952.4</ele>
        <time>2020-08-29T10:20:18Z</time>
      </trkpt>
      <trkpt lat="47.26088" lon="6.81623">
        <ele>951.8</ele>
        <time>2020-08-29T10:20:19Z</time>
      </trkpt>
      <trkpt lat="47.26093" lon="6.81631">
        <ele>951.2</ele>
        <time>2020-08-29T10:20:20Z</time>
      </trkpt>
      <trkpt lat="47.26098" lon="6.81638">
        <ele>950.6</ele>
        <time>2020-08-29T10:20:21Z</time>
      </trkpt>
      <trkpt lat="47.26103" lon="6.81644">
        <ele>950</ele>
        <time>2020-08-29T10:20:22Z</time>
      </trkpt>
      <trkpt lat="47.26106" lon="6.81649">
        <ele>949.2</ele>
        <time>2020-08-29T10:20:23Z</time>
      </trkpt>
      <trkpt lat="47.26109" lon="6.81655">
        <ele>948.6</ele>
        <time>2020-08-29T10:20:24Z</time>
      </trkpt>
      <trkpt lat="47.26113" lon="6.8166">
        <ele>947.8</ele>
        <time>2020-08-29T10:20:25Z</time>
      </trkpt>
      <trkpt lat="47.26116" lon="6.81665">
        <ele>947</ele>
        <time>2020-08-29T10:20:26Z</time>
      </trkpt>
      <trkpt lat="47.2612" lon="6.81668">
        <ele>946.2</ele>
        <time>2020-08-29T10:20:27Z</time>
      </trkpt>
      <trkpt lat="47.26123" lon="6.81673">
        <ele>946.2</ele>
        <time>2020-08-29T10:20:29Z</time>
      </trkpt>
      <trkpt lat="47.26126" lon="6.81677">
        <ele>946.2</ele>
        <time>2020-08-29T10:20:33Z</time>
      </trkpt>
      <trkpt lat="47.26126" lon="6.81677">
        <ele>946.2</ele>
        <time>2020-08-29T10:20:34Z</time>
      </trkpt>
      <trkpt lat="47.26126" lon="6.81677">
        <ele>946.2</ele>
        <time>2020-08-29T10:20:38Z</time>
      </trkpt>
      <trkpt lat="47.26126" lon="6.81677">
        <ele>946.2</ele>
        <time>2020-08-29T10:20:40Z</time>
      </trkpt>
      <trkpt lat="47.26127" lon="6.81681">
        <ele>946.2</ele>
        <time>2020-08-29T10:20:41Z</time>
      </trkpt>
      <trkpt lat="47.26128" lon="6.81682">
        <ele>946.2</ele>
        <time>2020-08-29T10:20:43Z</time>
      </trkpt>
      <trkpt lat="47.26128" lon="6.81683">
        <ele>946.2</ele>
        <time>2020-08-29T10:20:48Z</time>
      </trkpt>
      <trkpt lat="47.26127" lon="6.81686">
        <ele>946.2</ele>
        <time>2020-08-29T10:20:49Z</time>
      </trkpt>
      <trkpt lat="47.26125" lon="6.81707">
        <ele>946.2</ele>
        <time>2020-08-29T10:20:55Z</time>
      </trkpt>
      <trkpt lat="47.26125" lon="6.81728">
        <ele>946.2</ele>
        <time>2020-08-29T10:21:01Z</time>
      </trkpt>
      <trkpt lat="47.26126" lon="6.81746">
        <ele>946.2</ele>
        <time>2020-08-29T10:21:06Z</time>
      </trkpt>
      <trkpt lat="47.26126" lon="6.81773">
        <ele>946.2</ele>
        <time>2020-08-29T10:21:14Z</time>
      </trkpt>
      <trkpt lat="47.26126" lon="6.81795">
        <ele>946.2</ele>
        <time>2020-08-29T10:21:21Z</time>
      </trkpt>
      <trkpt lat="47.26126" lon="6.81816">
        <ele>946.2</ele>
        <time>2020-08-29T10:21:28Z</time>
      </trkpt>
      <trkpt lat="47.26124" lon="6.81825">
        <ele>946.6</ele>
        <time>2020-08-29T10:21:32Z</time>
      </trkpt>
      <trkpt lat="47.26123" lon="6.81829">
        <ele>947</ele>
        <time>2020-08-29T10:21:33Z</time>
      </trkpt>
      <trkpt lat="47.26124" lon="6.81832">
        <ele>947.4</ele>
        <time>2020-08-29T10:21:34Z</time>
      </trkpt>
      <trkpt lat="47.26124" lon="6.81834">
        <ele>948</ele>
        <time>2020-08-29T10:21:35Z</time>
      </trkpt>
      <trkpt lat="47.26124" lon="6.81837">
        <ele>948.4</ele>
        <time>2020-08-29T10:21:36Z</time>
      </trkpt>
      <trkpt lat="47.26124" lon="6.81851">
        <ele>948.4</ele>
        <time>2020-08-29T10:21:41Z</time>
      </trkpt>
      <trkpt lat="47.26124" lon="6.81871">
        <ele>948.4</ele>
        <time>2020-08-29T10:21:48Z</time>
      </trkpt>
      <trkpt lat="47.26123" lon="6.81881">
        <ele>948.8</ele>
        <time>2020-08-29T10:21:52Z</time>
      </trkpt>
      <trkpt lat="47.26123" lon="6.81883">
        <ele>949.2</ele>
        <time>2020-08-29T10:21:53Z</time>
      </trkpt>
      <trkpt lat="47.26123" lon="6.81886">
        <ele>949.6</ele>
        <time>2020-08-29T10:21:54Z</time>
      </trkpt>
      <trkpt lat="47.26123" lon="6.81888">
        <ele>950</ele>
        <time>2020-08-29T10:21:55Z</time>
      </trkpt>
      <trkpt lat="47.26123" lon="6.81891">
        <ele>950.4</ele>
        <time>2020-08-29T10:21:56Z</time>
      </trkpt>
      <trkpt lat="47.26121" lon="6.81907">
        <ele>950.4</ele>
        <time>2020-08-29T10:22:02Z</time>
      </trkpt>
      <trkpt lat="47.2612" lon="6.81918">
        <ele>950.4</ele>
        <time>2020-08-29T10:22:06Z</time>
      </trkpt>
      <trkpt lat="47.2612" lon="6.81926">
        <ele>950.4</ele>
        <time>2020-08-29T10:22:09Z</time>
      </trkpt>
      <trkpt lat="47.2612" lon="6.81944">
        <ele>950.8</ele>
        <time>2020-08-29T10:22:16Z</time>
      </trkpt>
      <trkpt lat="47.26121" lon="6.81946">
        <ele>951.2</ele>
        <time>2020-08-29T10:22:17Z</time>
      </trkpt>
      <trkpt lat="47.26121" lon="6.81948">
        <ele>951.6</ele>
        <time>2020-08-29T10:22:18Z</time>
      </trkpt>
      <trkpt lat="47.26121" lon="6.81949">
        <ele>952</ele>
        <time>2020-08-29T10:22:19Z</time>
      </trkpt>
      <trkpt lat="47.26121" lon="6.81951">
        <ele>952.4</ele>
        <time>2020-08-29T10:22:20Z</time>
      </trkpt>
      <trkpt lat="47.2612" lon="6.81956">
        <ele>952.4</ele>
        <time>2020-08-29T10:22:22Z</time>
      </trkpt>
      <trkpt lat="47.2612" lon="6.8197">
        <ele>952.4</ele>
        <time>2020-08-29T10:22:29Z</time>
      </trkpt>
      <trkpt lat="47.26119" lon="6.81987">
        <ele>952.4</ele>
        <time>2020-08-29T10:22:37Z</time>
      </trkpt>
      <trkpt lat="47.26117" lon="6.82002">
        <ele>952.8</ele>
        <time>2020-08-29T10:22:44Z</time>
      </trkpt>
      <trkpt lat="47.26118" lon="6.82004">
        <ele>953.2</ele>
        <time>2020-08-29T10:22:45Z</time>
      </trkpt>
      <trkpt lat="47.26118" lon="6.82006">
        <ele>953.6</ele>
        <time>2020-08-29T10:22:46Z</time>
      </trkpt>
      <trkpt lat="47.26118" lon="6.82008">
        <ele>954</ele>
        <time>2020-08-29T10:22:47Z</time>
      </trkpt>
      <trkpt lat="47.26118" lon="6.8201">
        <ele>954.4</ele>
        <time>2020-08-29T10:22:48Z</time>
      </trkpt>
      <trkpt lat="47.26118" lon="6.82018">
        <ele>954.4</ele>
        <time>2020-08-29T10:22:52Z</time>
      </trkpt>
      <trkpt lat="47.26117" lon="6.82037">
        <ele>954.4</ele>
        <time>2020-08-29T10:23:00Z</time>
      </trkpt>
      <trkpt lat="47.26116" lon="6.82053">
        <ele>954.4</ele>
        <time>2020-08-29T10:23:07Z</time>
      </trkpt>
      <trkpt lat="47.26114" lon="6.82069">
        <ele>954.4</ele>
        <time>2020-08-29T10:23:14Z</time>
      </trkpt>
      <trkpt lat="47.26112" lon="6.82083">
        <ele>954.4</ele>
        <time>2020-08-29T10:23:20Z</time>
      </trkpt>
      <trkpt lat="47.2611" lon="6.82097">
        <ele>954.4</ele>
        <time>2020-08-29T10:23:27Z</time>
      </trkpt>
      <trkpt lat="47.26109" lon="6.82113">
        <ele>954.4</ele>
        <time>2020-08-29T10:23:34Z</time>
      </trkpt>
      <trkpt lat="47.26106" lon="6.82127">
        <ele>954.4</ele>
        <time>2020-08-29T10:23:40Z</time>
      </trkpt>
      <trkpt lat="47.26105" lon="6.8213">
        <ele>954.4</ele>
        <time>2020-08-29T10:23:43Z</time>
      </trkpt>
      <trkpt lat="47.26106" lon="6.82131">
        <ele>954.4</ele>
        <time>2020-08-29T10:23:46Z</time>
      </trkpt>
      <trkpt lat="47.26105" lon="6.82131">
        <ele>954.4</ele>
        <time>2020-08-29T10:23:50Z</time>
      </trkpt>
      <trkpt lat="47.26104" lon="6.82133">
        <ele>954.4</ele>
        <time>2020-08-29T10:23:55Z</time>
      </trkpt>
      <trkpt lat="47.26103" lon="6.82137">
        <ele>954.4</ele>
        <time>2020-08-29T10:23:59Z</time>
      </trkpt>
      <trkpt lat="47.26102" lon="6.82138">
        <ele>954.4</ele>
        <time>2020-08-29T10:24:03Z</time>
      </trkpt>
      <trkpt lat="47.26103" lon="6.82141">
        <ele>954.4</ele>
        <time>2020-08-29T10:24:05Z</time>
      </trkpt>
      <trkpt lat="47.26101" lon="6.82143">
        <ele>954.4</ele>
        <time>2020-08-29T10:24:06Z</time>
      </trkpt>
      <trkpt lat="47.26098" lon="6.82163">
        <ele>954.4</ele>
        <time>2020-08-29T10:24:10Z</time>
      </trkpt>
      <trkpt lat="47.26098" lon="6.8218">
        <ele>954</ele>
        <time>2020-08-29T10:24:12Z</time>
      </trkpt>
      <trkpt lat="47.26098" lon="6.8219">
        <ele>953.6</ele>
        <time>2020-08-29T10:24:13Z</time>
      </trkpt>
      <trkpt lat="47.26098" lon="6.82199">
        <ele>952.8</ele>
        <time>2020-08-29T10:24:14Z</time>
      </trkpt>
      <trkpt lat="47.26098" lon="6.82213">
        <ele>952.2</ele>
        <time>2020-08-29T10:24:15Z</time>
      </trkpt>
      <trkpt lat="47.26099" lon="6.82224">
        <ele>950.6</ele>
        <time>2020-08-29T10:24:16Z</time>
      </trkpt>
      <trkpt lat="47.261" lon="6.82233">
        <ele>949.8</ele>
        <time>2020-08-29T10:24:17Z</time>
      </trkpt>
      <trkpt lat="47.261" lon="6.82238">
        <ele>949.2</ele>
        <time>2020-08-29T10:24:18Z</time>
      </trkpt>
      <trkpt lat="47.261" lon="6.82239">
        <ele>948.4</ele>
        <time>2020-08-29T10:24:19Z</time>
      </trkpt>
      <trkpt lat="47.26099" lon="6.82241">
        <ele>947.6</ele>
        <time>2020-08-29T10:24:20Z</time>
      </trkpt>
      <trkpt lat="47.26099" lon="6.82241">
        <ele>947.6</ele>
        <time>2020-08-29T10:24:21Z</time>
      </trkpt>
      <trkpt lat="47.261" lon="6.82242">
        <ele>947.6</ele>
        <time>2020-08-29T10:24:37Z</time>
      </trkpt>
      <trkpt lat="47.26102" lon="6.82261">
        <ele>947.6</ele>
        <time>2020-08-29T10:24:42Z</time>
      </trkpt>
      <trkpt lat="47.26102" lon="6.82279">
        <ele>947.6</ele>
        <time>2020-08-29T10:24:46Z</time>
      </trkpt>
      <trkpt lat="47.261" lon="6.82279">
        <ele>947.6</ele>
        <time>2020-08-29T10:24:47Z</time>
      </trkpt>
      <trkpt lat="47.26098" lon="6.8228">
        <ele>947.6</ele>
        <time>2020-08-29T10:24:50Z</time>
      </trkpt>
      <trkpt lat="47.26096" lon="6.82281">
        <ele>947.2</ele>
        <time>2020-08-29T10:24:56Z</time>
      </trkpt>
      <trkpt lat="47.26096" lon="6.82281">
        <ele>946.8</ele>
        <time>2020-08-29T10:24:57Z</time>
      </trkpt>
      <trkpt lat="47.26096" lon="6.82282">
        <ele>945.6</ele>
        <time>2020-08-29T10:25:10Z</time>
      </trkpt>
      <trkpt lat="47.26092" lon="6.82283">
        <ele>945.6</ele>
        <time>2020-08-29T10:25:13Z</time>
      </trkpt>
      <trkpt lat="47.26091" lon="6.82283">
        <ele>945.6</ele>
        <time>2020-08-29T10:25:14Z</time>
      </trkpt>
      <trkpt lat="47.26086" lon="6.82284">
        <ele>945.6</ele>
        <time>2020-08-29T10:25:17Z</time>
      </trkpt>
      <trkpt lat="47.2608" lon="6.82282">
        <ele>945.6</ele>
        <time>2020-08-29T10:25:20Z</time>
      </trkpt>
      <trkpt lat="47.26067" lon="6.82271">
        <ele>945.6</ele>
        <time>2020-08-29T10:25:27Z</time>
      </trkpt>
      <trkpt lat="47.26049" lon="6.8226">
        <ele>945.6</ele>
        <time>2020-08-29T10:25:35Z</time>
      </trkpt>
      <trkpt lat="47.26036" lon="6.82253">
        <ele>945.6</ele>
        <time>2020-08-29T10:25:41Z</time>
      </trkpt>
      <trkpt lat="47.26015" lon="6.8224">
        <ele>945.6</ele>
        <time>2020-08-29T10:25:50Z</time>
      </trkpt>
      <trkpt lat="47.26" lon="6.8223">
        <ele>945.6</ele>
        <time>2020-08-29T10:25:57Z</time>
      </trkpt>
      <trkpt lat="47.25996" lon="6.82225">
        <ele>945.6</ele>
        <time>2020-08-29T10:26:02Z</time>
      </trkpt>
      <trkpt lat="47.25996" lon="6.82225">
        <ele>945.6</ele>
        <time>2020-08-29T10:26:10Z</time>
      </trkpt>
      <trkpt lat="47.25996" lon="6.82225">
        <ele>945.6</ele>
        <time>2020-08-29T10:26:11Z</time>
      </trkpt>
      <trkpt lat="47.25996" lon="6.82225">
        <ele>945.6</ele>
        <time>2020-08-29T10:26:12Z</time>
      </trkpt>
      <trkpt lat="47.25995" lon="6.82223">
        <ele>945.6</ele>
        <time>2020-08-29T10:26:15Z</time>
      </trkpt>
      <trkpt lat="47.25994" lon="6.82223">
        <ele>945.6</ele>
        <time>2020-08-29T10:26:21Z</time>
      </trkpt>
      <trkpt lat="47.25994" lon="6.82222">
        <ele>945.6</ele>
        <time>2020-08-29T10:26:22Z</time>
      </trkpt>
      <trkpt lat="47.25994" lon="6.82221">
        <ele>945.6</ele>
        <time>2020-08-29T10:26:23Z</time>
      </trkpt>
      <trkpt lat="47.25993" lon="6.8222">
        <ele>945.6</ele>
        <time>2020-08-29T10:26:25Z</time>
      </trkpt>
      <trkpt lat="47.25993" lon="6.82219">
        <ele>945.6</ele>
        <time>2020-08-29T10:26:28Z</time>
      </trkpt>
      <trkpt lat="47.25993" lon="6.82219">
        <ele>945.6</ele>
        <time>2020-08-29T10:26:30Z</time>
      </trkpt>
      <trkpt lat="47.25992" lon="6.82218">
        <ele>945.6</ele>
        <time>2020-08-29T10:26:32Z</time>
      </trkpt>
      <trkpt lat="47.25992" lon="6.82218">
        <ele>945.6</ele>
        <time>2020-08-29T10:26:33Z</time>
      </trkpt>
      <trkpt lat="47.25991" lon="6.82218">
        <ele>945.6</ele>
        <time>2020-08-29T10:26:34Z</time>
      </trkpt>
      <trkpt lat="47.25991" lon="6.82218">
        <ele>945.6</ele>
        <time>2020-08-29T10:26:58Z</time>
      </trkpt>
      <trkpt lat="47.25991" lon="6.82217">
        <ele>945.6</ele>
        <time>2020-08-29T10:26:59Z</time>
      </trkpt>
      <trkpt lat="47.2599" lon="6.82217">
        <ele>945.6</ele>
        <time>2020-08-29T10:27:03Z</time>
      </trkpt>
      <trkpt lat="47.25987" lon="6.82213">
        <ele>945.6</ele>
        <time>2020-08-29T10:27:06Z</time>
      </trkpt>
      <trkpt lat="47.25985" lon="6.8221">
        <ele>945.6</ele>
        <time>2020-08-29T10:27:07Z</time>
      </trkpt>
      <trkpt lat="47.25978" lon="6.82195">
        <ele>945.6</ele>
        <time>2020-08-29T10:27:11Z</time>
      </trkpt>
      <trkpt lat="47.25976" lon="6.8219">
        <ele>945</ele>
        <time>2020-08-29T10:27:12Z</time>
      </trkpt>
      <trkpt lat="47.25974" lon="6.82185">
        <ele>944.6</ele>
        <time>2020-08-29T10:27:13Z</time>
      </trkpt>
      <trkpt lat="47.25972" lon="6.8218">
        <ele>944.2</ele>
        <time>2020-08-29T10:27:14Z</time>
      </trkpt>
      <trkpt lat="47.2597" lon="6.82176">
        <ele>943.6</ele>
        <time>2020-08-29T10:27:15Z</time>
      </trkpt>
      <trkpt lat="47.25968" lon="6.82172">
        <ele>943.2</ele>
        <time>2020-08-29T10:27:16Z</time>
      </trkpt>
      <trkpt lat="47.25967" lon="6.82168">
        <ele>943.2</ele>
        <time>2020-08-29T10:27:17Z</time>
      </trkpt>
      <trkpt lat="47.25963" lon="6.82157">
        <ele>942.8</ele>
        <time>2020-08-29T10:27:20Z</time>
      </trkpt>
      <trkpt lat="47.25961" lon="6.82153">
        <ele>942.4</ele>
        <time>2020-08-29T10:27:21Z</time>
      </trkpt>
      <trkpt lat="47.25959" lon="6.82149">
        <ele>942</ele>
        <time>2020-08-29T10:27:22Z</time>
      </trkpt>
      <trkpt lat="47.25957" lon="6.82145">
        <ele>941.6</ele>
        <time>2020-08-29T10:27:23Z</time>
      </trkpt>
      <trkpt lat="47.25955" lon="6.82143">
        <ele>941.2</ele>
        <time>2020-08-29T10:27:24Z</time>
      </trkpt>
      <trkpt lat="47.2595" lon="6.82128">
        <ele>941.2</ele>
        <time>2020-08-29T10:27:30Z</time>
      </trkpt>
      <trkpt lat="47.2595" lon="6.82128">
        <ele>941.2</ele>
        <time>2020-08-29T10:27:31Z</time>
      </trkpt>
      <trkpt lat="47.2595" lon="6.82128">
        <ele>941.2</ele>
        <time>2020-08-29T10:27:41Z</time>
      </trkpt>
      <trkpt lat="47.2595" lon="6.82128">
        <ele>941.2</ele>
        <time>2020-08-29T10:27:45Z</time>
      </trkpt>
      <trkpt lat="47.25949" lon="6.82127">
        <ele>941.2</ele>
        <time>2020-08-29T10:27:46Z</time>
      </trkpt>
      <trkpt lat="47.25949" lon="6.82127">
        <ele>941.2</ele>
        <time>2020-08-29T10:27:50Z</time>
      </trkpt>
      <trkpt lat="47.25948" lon="6.82126">
        <ele>941.2</ele>
        <time>2020-08-29T10:27:51Z</time>
      </trkpt>
      <trkpt lat="47.25944" lon="6.82121">
        <ele>941.2</ele>
        <time>2020-08-29T10:27:53Z</time>
      </trkpt>
      <trkpt lat="47.25943" lon="6.8212">
        <ele>941.2</ele>
        <time>2020-08-29T10:27:54Z</time>
      </trkpt>
      <trkpt lat="47.25939" lon="6.82116">
        <ele>941.2</ele>
        <time>2020-08-29T10:27:58Z</time>
      </trkpt>
      <trkpt lat="47.25938" lon="6.82116">
        <ele>941.2</ele>
        <time>2020-08-29T10:27:59Z</time>
      </trkpt>
      <trkpt lat="47.25935" lon="6.82113">
        <ele>941.2</ele>
        <time>2020-08-29T10:28:03Z</time>
      </trkpt>
      <trkpt lat="47.25934" lon="6.82111">
        <ele>941.2</ele>
        <time>2020-08-29T10:28:06Z</time>
      </trkpt>
      <trkpt lat="47.25931" lon="6.82104">
        <ele>941.2</ele>
        <time>2020-08-29T10:28:11Z</time>
      </trkpt>
      <trkpt lat="47.25931" lon="6.82104">
        <ele>941.2</ele>
        <time>2020-08-29T10:28:12Z</time>
      </trkpt>
      <trkpt lat="47.2593" lon="6.82104">
        <ele>941.2</ele>
        <time>2020-08-29T10:28:13Z</time>
      </trkpt>
      <trkpt lat="47.25929" lon="6.82102">
        <ele>941.2</ele>
        <time>2020-08-29T10:28:15Z</time>
      </trkpt>
      <trkpt lat="47.25928" lon="6.821">
        <ele>941.6</ele>
        <time>2020-08-29T10:28:16Z</time>
      </trkpt>
      <trkpt lat="47.25927" lon="6.82098">
        <ele>942</ele>
        <time>2020-08-29T10:28:17Z</time>
      </trkpt>
      <trkpt lat="47.25927" lon="6.82096">
        <ele>942.4</ele>
        <time>2020-08-29T10:28:18Z</time>
      </trkpt>
      <trkpt lat="47.25926" lon="6.82095">
        <ele>942.8</ele>
        <time>2020-08-29T10:28:19Z</time>
      </trkpt>
      <trkpt lat="47.25925" lon="6.82093">
        <ele>943.4</ele>
        <time>2020-08-29T10:28:20Z</time>
      </trkpt>
      <trkpt lat="47.25922" lon="6.82086">
        <ele>943.4</ele>
        <time>2020-08-29T10:28:27Z</time>
      </trkpt>
      <trkpt lat="47.25921" lon="6.82086">
        <ele>943.4</ele>
        <time>2020-08-29T10:28:28Z</time>
      </trkpt>
      <trkpt lat="47.2592" lon="6.82086">
        <ele>943.4</ele>
        <time>2020-08-29T10:28:29Z</time>
      </trkpt>
      <trkpt lat="47.25919" lon="6.82085">
        <ele>943.4</ele>
        <time>2020-08-29T10:28:31Z</time>
      </trkpt>
      <trkpt lat="47.25918" lon="6.82082">
        <ele>943.4</ele>
        <time>2020-08-29T10:28:33Z</time>
      </trkpt>
      <trkpt lat="47.25914" lon="6.82077">
        <ele>943.4</ele>
        <time>2020-08-29T10:28:39Z</time>
      </trkpt>
      <trkpt lat="47.2591" lon="6.82072">
        <ele>943.4</ele>
        <time>2020-08-29T10:28:46Z</time>
      </trkpt>
      <trkpt lat="47.2591" lon="6.82072">
        <ele>943.8</ele>
        <time>2020-08-29T10:28:52Z</time>
      </trkpt>
      <trkpt lat="47.25909" lon="6.82072">
        <ele>944.2</ele>
        <time>2020-08-29T10:28:53Z</time>
      </trkpt>
      <trkpt lat="47.25909" lon="6.82072">
        <ele>945.4</ele>
        <time>2020-08-29T10:28:56Z</time>
      </trkpt>
      <trkpt lat="47.25908" lon="6.82071">
        <ele>945.4</ele>
        <time>2020-08-29T10:28:58Z</time>
      </trkpt>
      <trkpt lat="47.25908" lon="6.82071">
        <ele>945.4</ele>
        <time>2020-08-29T10:28:59Z</time>
      </trkpt>
      <trkpt lat="47.25903" lon="6.82063">
        <ele>945.4</ele>
        <time>2020-08-29T10:29:06Z</time>
      </trkpt>
      <trkpt lat="47.25901" lon="6.82058">
        <ele>945.4</ele>
        <time>2020-08-29T10:29:10Z</time>
      </trkpt>
      <trkpt lat="47.259" lon="6.82054">
        <ele>945.4</ele>
        <time>2020-08-29T10:29:14Z</time>
      </trkpt>
      <trkpt lat="47.25896" lon="6.82046">
        <ele>945.4</ele>
        <time>2020-08-29T10:29:20Z</time>
      </trkpt>
      <trkpt lat="47.25894" lon="6.82037">
        <ele>945.4</ele>
        <time>2020-08-29T10:29:27Z</time>
      </trkpt>
      <trkpt lat="47.25892" lon="6.82036">
        <ele>945.4</ele>
        <time>2020-08-29T10:29:29Z</time>
      </trkpt>
      <trkpt lat="47.25888" lon="6.82033">
        <ele>945.4</ele>
        <time>2020-08-29T10:29:34Z</time>
      </trkpt>
      <trkpt lat="47.25884" lon="6.82028">
        <ele>945.4</ele>
        <time>2020-08-29T10:29:39Z</time>
      </trkpt>
      <trkpt lat="47.25878" lon="6.82019">
        <ele>945.4</ele>
        <time>2020-08-29T10:29:47Z</time>
      </trkpt>
      <trkpt lat="47.25876" lon="6.82015">
        <ele>945.4</ele>
        <time>2020-08-29T10:29:50Z</time>
      </trkpt>
      <trkpt lat="47.25876" lon="6.82013">
        <ele>945.4</ele>
        <time>2020-08-29T10:29:52Z</time>
      </trkpt>
      <trkpt lat="47.25875" lon="6.82011">
        <ele>945.4</ele>
        <time>2020-08-29T10:29:54Z</time>
      </trkpt>
      <trkpt lat="47.25871" lon="6.82003">
        <ele>945.4</ele>
        <time>2020-08-29T10:30:01Z</time>
      </trkpt>
      <trkpt lat="47.25871" lon="6.82002">
        <ele>945.4</ele>
        <time>2020-08-29T10:30:02Z</time>
      </trkpt>
      <trkpt lat="47.25871" lon="6.82002">
        <ele>945.4</ele>
        <time>2020-08-29T10:30:03Z</time>
      </trkpt>
      <trkpt lat="47.2587" lon="6.82001">
        <ele>945.4</ele>
        <time>2020-08-29T10:30:04Z</time>
      </trkpt>
      <trkpt lat="47.25869" lon="6.82">
        <ele>945.4</ele>
        <time>2020-08-29T10:30:07Z</time>
      </trkpt>
      <trkpt lat="47.25867" lon="6.81999">
        <ele>945.4</ele>
        <time>2020-08-29T10:30:09Z</time>
      </trkpt>
      <trkpt lat="47.25863" lon="6.81997">
        <ele>945.4</ele>
        <time>2020-08-29T10:30:16Z</time>
      </trkpt>
      <trkpt lat="47.25862" lon="6.81997">
        <ele>945.4</ele>
        <time>2020-08-29T10:30:17Z</time>
      </trkpt>
      <trkpt lat="47.25861" lon="6.81996">
        <ele>945.8</ele>
        <time>2020-08-29T10:30:18Z</time>
      </trkpt>
      <trkpt lat="47.25861" lon="6.81996">
        <ele>946.2</ele>
        <time>2020-08-29T10:30:19Z</time>
      </trkpt>
      <trkpt lat="47.2586" lon="6.81996">
        <ele>946.6</ele>
        <time>2020-08-29T10:30:20Z</time>
      </trkpt>
      <trkpt lat="47.25859" lon="6.81995">
        <ele>947.2</ele>
        <time>2020-08-29T10:30:21Z</time>
      </trkpt>
      <trkpt lat="47.25857" lon="6.81994">
        <ele>947.6</ele>
        <time>2020-08-29T10:30:24Z</time>
      </trkpt>
      <trkpt lat="47.25855" lon="6.81994">
        <ele>947.6</ele>
        <time>2020-08-29T10:30:25Z</time>
      </trkpt>
      <trkpt lat="47.2585" lon="6.8199">
        <ele>947.6</ele>
        <time>2020-08-29T10:30:31Z</time>
      </trkpt>
      <trkpt lat="47.25849" lon="6.81989">
        <ele>947.6</ele>
        <time>2020-08-29T10:30:33Z</time>
      </trkpt>
      <trkpt lat="47.25847" lon="6.81987">
        <ele>947.6</ele>
        <time>2020-08-29T10:30:36Z</time>
      </trkpt>
      <trkpt lat="47.25846" lon="6.81986">
        <ele>947.6</ele>
        <time>2020-08-29T10:30:37Z</time>
      </trkpt>
      <trkpt lat="47.25845" lon="6.81985">
        <ele>949.6</ele>
        <time>2020-08-29T10:30:48Z</time>
      </trkpt>
      <trkpt lat="47.25845" lon="6.81985">
        <ele>949.6</ele>
        <time>2020-08-29T10:30:49Z</time>
      </trkpt>
      <trkpt lat="47.25841" lon="6.81984">
        <ele>953.8</ele>
        <time>2020-08-29T10:31:11Z</time>
      </trkpt>
      <trkpt lat="47.25838" lon="6.81982">
        <ele>953.8</ele>
        <time>2020-08-29T10:31:13Z</time>
      </trkpt>
      <trkpt lat="47.25837" lon="6.81982">
        <ele>953.8</ele>
        <time>2020-08-29T10:31:21Z</time>
      </trkpt>
      <trkpt lat="47.25836" lon="6.81985">
        <ele>953.8</ele>
        <time>2020-08-29T10:31:23Z</time>
      </trkpt>
      <trkpt lat="47.25834" lon="6.81991">
        <ele>953.8</ele>
        <time>2020-08-29T10:31:28Z</time>
      </trkpt>
      <trkpt lat="47.25836" lon="6.82002">
        <ele>953.8</ele>
        <time>2020-08-29T10:31:34Z</time>
      </trkpt>
      <trkpt lat="47.2584" lon="6.82007">
        <ele>953.8</ele>
        <time>2020-08-29T10:31:39Z</time>
      </trkpt>
      <trkpt lat="47.25841" lon="6.82008">
        <ele>953.8</ele>
        <time>2020-08-29T10:31:40Z</time>
      </trkpt>
      <trkpt lat="47.25843" lon="6.8201">
        <ele>954.2</ele>
        <time>2020-08-29T10:31:42Z</time>
      </trkpt>
      <trkpt lat="47.25844" lon="6.82013">
        <ele>954.6</ele>
        <time>2020-08-29T10:31:43Z</time>
      </trkpt>
      <trkpt lat="47.25846" lon="6.82016">
        <ele>955</ele>
        <time>2020-08-29T10:31:44Z</time>
      </trkpt>
      <trkpt lat="47.25847" lon="6.82019">
        <ele>955.4</ele>
        <time>2020-08-29T10:31:45Z</time>
      </trkpt>
      <trkpt lat="47.25848" lon="6.82022">
        <ele>955.8</ele>
        <time>2020-08-29T10:31:46Z</time>
      </trkpt>
      <trkpt lat="47.25854" lon="6.82038">
        <ele>955.8</ele>
        <time>2020-08-29T10:31:52Z</time>
      </trkpt>
      <trkpt lat="47.25856" lon="6.82047">
        <ele>955.8</ele>
        <time>2020-08-29T10:31:57Z</time>
      </trkpt>
      <trkpt lat="47.25857" lon="6.82055">
        <ele>955.8</ele>
        <time>2020-08-29T10:32:01Z</time>
      </trkpt>
      <trkpt lat="47.25856" lon="6.82056">
        <ele>955.8</ele>
        <time>2020-08-29T10:32:17Z</time>
      </trkpt>
      <trkpt lat="47.25855" lon="6.82057">
        <ele>955.8</ele>
        <time>2020-08-29T10:32:18Z</time>
      </trkpt>
      <trkpt lat="47.25853" lon="6.82064">
        <ele>955.8</ele>
        <time>2020-08-29T10:32:23Z</time>
      </trkpt>
      <trkpt lat="47.25858" lon="6.8208">
        <ele>955.8</ele>
        <time>2020-08-29T10:32:30Z</time>
      </trkpt>
      <trkpt lat="47.2586" lon="6.82082">
        <ele>956.2</ele>
        <time>2020-08-29T10:32:32Z</time>
      </trkpt>
      <trkpt lat="47.25861" lon="6.82083">
        <ele>956.6</ele>
        <time>2020-08-29T10:32:33Z</time>
      </trkpt>
      <trkpt lat="47.25861" lon="6.82084">
        <ele>957</ele>
        <time>2020-08-29T10:32:34Z</time>
      </trkpt>
      <trkpt lat="47.25862" lon="6.82084">
        <ele>957.6</ele>
        <time>2020-08-29T10:32:35Z</time>
      </trkpt>
      <trkpt lat="47.25863" lon="6.82085">
        <ele>958</ele>
        <time>2020-08-29T10:32:36Z</time>
      </trkpt>
      <trkpt lat="47.25868" lon="6.82089">
        <ele>958</ele>
        <time>2020-08-29T10:32:42Z</time>
      </trkpt>
      <trkpt lat="47.2587" lon="6.82096">
        <ele>958</ele>
        <time>2020-08-29T10:32:48Z</time>
      </trkpt>
      <trkpt lat="47.2587" lon="6.82097">
        <ele>958</ele>
        <time>2020-08-29T10:32:49Z</time>
      </trkpt>
      <trkpt lat="47.25875" lon="6.82107">
        <ele>958.4</ele>
        <time>2020-08-29T10:32:55Z</time>
      </trkpt>
      <trkpt lat="47.25875" lon="6.82107">
        <ele>959.6</ele>
        <time>2020-08-29T10:32:58Z</time>
      </trkpt>
      <trkpt lat="47.25876" lon="6.82109">
        <ele>960</ele>
        <time>2020-08-29T10:32:59Z</time>
      </trkpt>
      <trkpt lat="47.25878" lon="6.82113">
        <ele>960</ele>
        <time>2020-08-29T10:33:02Z</time>
      </trkpt>
      <trkpt lat="47.25878" lon="6.82115">
        <ele>960</ele>
        <time>2020-08-29T10:33:04Z</time>
      </trkpt>
      <trkpt lat="47.2588" lon="6.82117">
        <ele>960</ele>
        <time>2020-08-29T10:33:07Z</time>
      </trkpt>
      <trkpt lat="47.25881" lon="6.8212">
        <ele>960</ele>
        <time>2020-08-29T10:33:10Z</time>
      </trkpt>
      <trkpt lat="47.25882" lon="6.82123">
        <ele>960.4</ele>
        <time>2020-08-29T10:33:12Z</time>
      </trkpt>
      <trkpt lat="47.25883" lon="6.82125">
        <ele>960.8</ele>
        <time>2020-08-29T10:33:13Z</time>
      </trkpt>
      <trkpt lat="47.25884" lon="6.82126">
        <ele>961.2</ele>
        <time>2020-08-29T10:33:14Z</time>
      </trkpt>
      <trkpt lat="47.25884" lon="6.82127">
        <ele>961.8</ele>
        <time>2020-08-29T10:33:15Z</time>
      </trkpt>
      <trkpt lat="47.25885" lon="6.82128">
        <ele>962.2</ele>
        <time>2020-08-29T10:33:16Z</time>
      </trkpt>
      <trkpt lat="47.25885" lon="6.82128">
        <ele>962.2</ele>
        <time>2020-08-29T10:33:17Z</time>
      </trkpt>
      <trkpt lat="47.25886" lon="6.82129">
        <ele>962.2</ele>
        <time>2020-08-29T10:33:18Z</time>
      </trkpt>
      <trkpt lat="47.25888" lon="6.82131">
        <ele>962.2</ele>
        <time>2020-08-29T10:33:23Z</time>
      </trkpt>
      <trkpt lat="47.25887" lon="6.82131">
        <ele>962.2</ele>
        <time>2020-08-29T10:33:24Z</time>
      </trkpt>
      <trkpt lat="47.25888" lon="6.82133">
        <ele>962.6</ele>
        <time>2020-08-29T10:33:25Z</time>
      </trkpt>
      <trkpt lat="47.25888" lon="6.82134">
        <ele>963</ele>
        <time>2020-08-29T10:33:26Z</time>
      </trkpt>
      <trkpt lat="47.25888" lon="6.82135">
        <ele>963.4</ele>
        <time>2020-08-29T10:33:27Z</time>
      </trkpt>
      <trkpt lat="47.25887" lon="6.82135">
        <ele>963.8</ele>
        <time>2020-08-29T10:33:28Z</time>
      </trkpt>
      <trkpt lat="47.25887" lon="6.82135">
        <ele>964.2</ele>
        <time>2020-08-29T10:33:32Z</time>
      </trkpt>
      <trkpt lat="47.25888" lon="6.82136">
        <ele>964.2</ele>
        <time>2020-08-29T10:33:33Z</time>
      </trkpt>
      <trkpt lat="47.25888" lon="6.82137">
        <ele>964.2</ele>
        <time>2020-08-29T10:33:35Z</time>
      </trkpt>
      <trkpt lat="47.25889" lon="6.82138">
        <ele>964.2</ele>
        <time>2020-08-29T10:33:36Z</time>
      </trkpt>
      <trkpt lat="47.25889" lon="6.8214">
        <ele>965.6</ele>
        <time>2020-08-29T10:33:41Z</time>
      </trkpt>
      <trkpt lat="47.2589" lon="6.82141">
        <ele>966</ele>
        <time>2020-08-29T10:33:42Z</time>
      </trkpt>
      <trkpt lat="47.25891" lon="6.82142">
        <ele>966.4</ele>
        <time>2020-08-29T10:33:45Z</time>
      </trkpt>
      <trkpt lat="47.25892" lon="6.82143">
        <ele>966.4</ele>
        <time>2020-08-29T10:33:46Z</time>
      </trkpt>
      <trkpt lat="47.25898" lon="6.82149">
        <ele>966.4</ele>
        <time>2020-08-29T10:33:52Z</time>
      </trkpt>
      <trkpt lat="47.25898" lon="6.8215">
        <ele>966.4</ele>
        <time>2020-08-29T10:33:53Z</time>
      </trkpt>
      <trkpt lat="47.25898" lon="6.82151">
        <ele>966.4</ele>
        <time>2020-08-29T10:33:56Z</time>
      </trkpt>
      <trkpt lat="47.259" lon="6.82153">
        <ele>966.8</ele>
        <time>2020-08-29T10:33:58Z</time>
      </trkpt>
      <trkpt lat="47.25901" lon="6.82155">
        <ele>967.2</ele>
        <time>2020-08-29T10:33:59Z</time>
      </trkpt>
      <trkpt lat="47.25901" lon="6.82155">
        <ele>967.6</ele>
        <time>2020-08-29T10:34:00Z</time>
      </trkpt>
      <trkpt lat="47.25901" lon="6.82156">
        <ele>968.4</ele>
        <time>2020-08-29T10:34:11Z</time>
      </trkpt>
      <trkpt lat="47.25902" lon="6.82156">
        <ele>968.4</ele>
        <time>2020-08-29T10:34:12Z</time>
      </trkpt>
      <trkpt lat="47.25907" lon="6.82169">
        <ele>968.4</ele>
        <time>2020-08-29T10:34:20Z</time>
      </trkpt>
      <trkpt lat="47.2591" lon="6.82177">
        <ele>968.4</ele>
        <time>2020-08-29T10:34:25Z</time>
      </trkpt>
      <trkpt lat="47.25911" lon="6.8218">
        <ele>968.4</ele>
        <time>2020-08-29T10:34:26Z</time>
      </trkpt>
      <trkpt lat="47.25912" lon="6.82189">
        <ele>968.4</ele>
        <time>2020-08-29T10:34:29Z</time>
      </trkpt>
      <trkpt lat="47.25912" lon="6.82191">
        <ele>968.4</ele>
        <time>2020-08-29T10:34:30Z</time>
      </trkpt>
      <trkpt lat="47.25913" lon="6.82192">
        <ele>968.4</ele>
        <time>2020-08-29T10:36:57Z</time>
      </trkpt>
      <trkpt lat="47.25916" lon="6.82196">
        <ele>968.4</ele>
        <time>2020-08-29T10:36:59Z</time>
      </trkpt>
      <trkpt lat="47.25921" lon="6.8221">
        <ele>968.4</ele>
        <time>2020-08-29T10:37:05Z</time>
      </trkpt>
      <trkpt lat="47.25921" lon="6.82212">
        <ele>968.4</ele>
        <time>2020-08-29T10:37:06Z</time>
      </trkpt>
      <trkpt lat="47.25921" lon="6.82216">
        <ele>968.4</ele>
        <time>2020-08-29T10:37:08Z</time>
      </trkpt>
      <trkpt lat="47.25923" lon="6.82222">
        <ele>968.4</ele>
        <time>2020-08-29T10:37:11Z</time>
      </trkpt>
      <trkpt lat="47.25925" lon="6.82224">
        <ele>968.4</ele>
        <time>2020-08-29T10:37:12Z</time>
      </trkpt>
      <trkpt lat="47.25929" lon="6.82231">
        <ele>968.4</ele>
        <time>2020-08-29T10:37:16Z</time>
      </trkpt>
      <trkpt lat="47.25934" lon="6.8224">
        <ele>968.4</ele>
        <time>2020-08-29T10:37:22Z</time>
      </trkpt>
      <trkpt lat="47.2594" lon="6.82262">
        <ele>968.4</ele>
        <time>2020-08-29T10:37:28Z</time>
      </trkpt>
      <trkpt lat="47.25946" lon="6.82279">
        <ele>968.4</ele>
        <time>2020-08-29T10:37:33Z</time>
      </trkpt>
      <trkpt lat="47.25947" lon="6.82281">
        <ele>968.4</ele>
        <time>2020-08-29T10:37:34Z</time>
      </trkpt>
      <trkpt lat="47.2595" lon="6.82292">
        <ele>968.4</ele>
        <time>2020-08-29T10:37:38Z</time>
      </trkpt>
      <trkpt lat="47.25952" lon="6.82296">
        <ele>968.4</ele>
        <time>2020-08-29T10:37:40Z</time>
      </trkpt>
      <trkpt lat="47.25952" lon="6.82302">
        <ele>968.4</ele>
        <time>2020-08-29T10:37:42Z</time>
      </trkpt>
      <trkpt lat="47.25953" lon="6.82321">
        <ele>968.4</ele>
        <time>2020-08-29T10:37:48Z</time>
      </trkpt>
      <trkpt lat="47.25953" lon="6.82323">
        <ele>968.4</ele>
        <time>2020-08-29T10:37:49Z</time>
      </trkpt>
      <trkpt lat="47.25953" lon="6.82323">
        <ele>968.4</ele>
        <time>2020-08-29T10:37:50Z</time>
      </trkpt>
      <trkpt lat="47.25953" lon="6.82324">
        <ele>968.4</ele>
        <time>2020-08-29T10:37:57Z</time>
      </trkpt>
      <trkpt lat="47.25953" lon="6.82324">
        <ele>968.4</ele>
        <time>2020-08-29T10:37:59Z</time>
      </trkpt>
      <trkpt lat="47.25953" lon="6.82324">
        <ele>968.4</ele>
        <time>2020-08-29T10:38:06Z</time>
      </trkpt>
      <trkpt lat="47.25953" lon="6.82324">
        <ele>968.4</ele>
        <time>2020-08-29T10:38:07Z</time>
      </trkpt>
      <trkpt lat="47.25953" lon="6.82319">
        <ele>968.4</ele>
        <time>2020-08-29T10:38:10Z</time>
      </trkpt>
      <trkpt lat="47.25952" lon="6.82309">
        <ele>968.4</ele>
        <time>2020-08-29T10:38:14Z</time>
      </trkpt>
      <trkpt lat="47.25953" lon="6.82301">
        <ele>968.4</ele>
        <time>2020-08-29T10:38:18Z</time>
      </trkpt>
      <trkpt lat="47.25952" lon="6.82293">
        <ele>968.4</ele>
        <time>2020-08-29T10:38:21Z</time>
      </trkpt>
      <trkpt lat="47.25948" lon="6.82285">
        <ele>968.4</ele>
        <time>2020-08-29T10:38:24Z</time>
      </trkpt>
      <trkpt lat="47.25944" lon="6.82281">
        <ele>968.4</ele>
        <time>2020-08-29T10:38:27Z</time>
      </trkpt>
      <trkpt lat="47.25941" lon="6.82282">
        <ele>968.4</ele>
        <time>2020-08-29T10:38:29Z</time>
      </trkpt>
      <trkpt lat="47.25937" lon="6.82281">
        <ele>968.4</ele>
        <time>2020-08-29T10:38:32Z</time>
      </trkpt>
      <trkpt lat="47.25934" lon="6.82278">
        <ele>968.4</ele>
        <time>2020-08-29T10:38:34Z</time>
      </trkpt>
      <trkpt lat="47.25931" lon="6.82277">
        <ele>968.4</ele>
        <time>2020-08-29T10:38:36Z</time>
      </trkpt>
      <trkpt lat="47.25928" lon="6.82277">
        <ele>968</ele>
        <time>2020-08-29T10:38:38Z</time>
      </trkpt>
      <trkpt lat="47.25927" lon="6.82277">
        <ele>967.6</ele>
        <time>2020-08-29T10:38:39Z</time>
      </trkpt>
      <trkpt lat="47.25925" lon="6.82276">
        <ele>967.2</ele>
        <time>2020-08-29T10:38:40Z</time>
      </trkpt>
      <trkpt lat="47.25923" lon="6.82276">
        <ele>966.8</ele>
        <time>2020-08-29T10:38:41Z</time>
      </trkpt>
      <trkpt lat="47.25921" lon="6.82276">
        <ele>965.8</ele>
        <time>2020-08-29T10:38:42Z</time>
      </trkpt>
      <trkpt lat="47.2592" lon="6.82276">
        <ele>965.4</ele>
        <time>2020-08-29T10:38:43Z</time>
      </trkpt>
      <trkpt lat="47.25919" lon="6.82276">
        <ele>965</ele>
        <time>2020-08-29T10:38:44Z</time>
      </trkpt>
      <trkpt lat="47.25918" lon="6.82276">
        <ele>964.6</ele>
        <time>2020-08-29T10:38:45Z</time>
      </trkpt>
      <trkpt lat="47.25916" lon="6.82276">
        <ele>964</ele>
        <time>2020-08-29T10:38:46Z</time>
      </trkpt>
      <trkpt lat="47.25914" lon="6.82277">
        <ele>963.6</ele>
        <time>2020-08-29T10:38:47Z</time>
      </trkpt>
      <trkpt lat="47.25912" lon="6.82277">
        <ele>963.2</ele>
        <time>2020-08-29T10:38:48Z</time>
      </trkpt>
      <trkpt lat="47.25911" lon="6.82278">
        <ele>962.8</ele>
        <time>2020-08-29T10:38:49Z</time>
      </trkpt>
      <trkpt lat="47.2591" lon="6.82278">
        <ele>962.4</ele>
        <time>2020-08-29T10:38:50Z</time>
      </trkpt>
      <trkpt lat="47.25909" lon="6.82278">
        <ele>961.8</ele>
        <time>2020-08-29T10:38:51Z</time>
      </trkpt>
      <trkpt lat="47.25908" lon="6.82277">
        <ele>961.4</ele>
        <time>2020-08-29T10:38:52Z</time>
      </trkpt>
      <trkpt lat="47.25907" lon="6.82277">
        <ele>961</ele>
        <time>2020-08-29T10:38:53Z</time>
      </trkpt>
      <trkpt lat="47.25906" lon="6.82276">
        <ele>960.6</ele>
        <time>2020-08-29T10:38:54Z</time>
      </trkpt>
      <trkpt lat="47.25906" lon="6.82275">
        <ele>960.2</ele>
        <time>2020-08-29T10:38:55Z</time>
      </trkpt>
      <trkpt lat="47.25906" lon="6.82274">
        <ele>959.8</ele>
        <time>2020-08-29T10:38:56Z</time>
      </trkpt>
      <trkpt lat="47.25905" lon="6.82273">
        <ele>959.8</ele>
        <time>2020-08-29T10:38:57Z</time>
      </trkpt>
      <trkpt lat="47.25904" lon="6.82274">
        <ele>959.8</ele>
        <time>2020-08-29T10:38:58Z</time>
      </trkpt>
      <trkpt lat="47.25901" lon="6.82273">
        <ele>959.4</ele>
        <time>2020-08-29T10:39:00Z</time>
      </trkpt>
      <trkpt lat="47.259" lon="6.82272">
        <ele>958.8</ele>
        <time>2020-08-29T10:39:01Z</time>
      </trkpt>
      <trkpt lat="47.25898" lon="6.82271">
        <ele>958.4</ele>
        <time>2020-08-29T10:39:02Z</time>
      </trkpt>
      <trkpt lat="47.25896" lon="6.8227">
        <ele>958</ele>
        <time>2020-08-29T10:39:03Z</time>
      </trkpt>
      <trkpt lat="47.25894" lon="6.8227">
        <ele>957.6</ele>
        <time>2020-08-29T10:39:04Z</time>
      </trkpt>
      <trkpt lat="47.2589" lon="6.8227">
        <ele>956.6</ele>
        <time>2020-08-29T10:39:06Z</time>
      </trkpt>
      <trkpt lat="47.25889" lon="6.8227">
        <ele>956</ele>
        <time>2020-08-29T10:39:07Z</time>
      </trkpt>
      <trkpt lat="47.25887" lon="6.8227">
        <ele>955.6</ele>
        <time>2020-08-29T10:39:08Z</time>
      </trkpt>
      <trkpt lat="47.25886" lon="6.82269">
        <ele>955</ele>
        <time>2020-08-29T10:39:09Z</time>
      </trkpt>
      <trkpt lat="47.25885" lon="6.82269">
        <ele>954.4</ele>
        <time>2020-08-29T10:39:10Z</time>
      </trkpt>
      <trkpt lat="47.25883" lon="6.82269">
        <ele>953.8</ele>
        <time>2020-08-29T10:39:11Z</time>
      </trkpt>
      <trkpt lat="47.25882" lon="6.82269">
        <ele>953.4</ele>
        <time>2020-08-29T10:39:12Z</time>
      </trkpt>
      <trkpt lat="47.25881" lon="6.82269">
        <ele>952.8</ele>
        <time>2020-08-29T10:39:13Z</time>
      </trkpt>
      <trkpt lat="47.2588" lon="6.82268">
        <ele>952.4</ele>
        <time>2020-08-29T10:39:14Z</time>
      </trkpt>
      <trkpt lat="47.2588" lon="6.82268">
        <ele>952</ele>
        <time>2020-08-29T10:39:15Z</time>
      </trkpt>
      <trkpt lat="47.25879" lon="6.82267">
        <ele>951.6</ele>
        <time>2020-08-29T10:39:16Z</time>
      </trkpt>
      <trkpt lat="47.25879" lon="6.82267">
        <ele>951.2</ele>
        <time>2020-08-29T10:39:17Z</time>
      </trkpt>
      <trkpt lat="47.25878" lon="6.82267">
        <ele>950.6</ele>
        <time>2020-08-29T10:39:31Z</time>
      </trkpt>
      <trkpt lat="47.25878" lon="6.82272">
        <ele>950.6</ele>
        <time>2020-08-29T10:39:34Z</time>
      </trkpt>
      <trkpt lat="47.25877" lon="6.82275">
        <ele>950.2</ele>
        <time>2020-08-29T10:39:35Z</time>
      </trkpt>
      <trkpt lat="47.25876" lon="6.82277">
        <ele>949.8</ele>
        <time>2020-08-29T10:39:36Z</time>
      </trkpt>
      <trkpt lat="47.25875" lon="6.8228">
        <ele>949.4</ele>
        <time>2020-08-29T10:39:37Z</time>
      </trkpt>
      <trkpt lat="47.25875" lon="6.82282">
        <ele>949</ele>
        <time>2020-08-29T10:39:38Z</time>
      </trkpt>
      <trkpt lat="47.25873" lon="6.82285">
        <ele>948.6</ele>
        <time>2020-08-29T10:39:39Z</time>
      </trkpt>
      <trkpt lat="47.25871" lon="6.82288">
        <ele>948.6</ele>
        <time>2020-08-29T10:39:40Z</time>
      </trkpt>
      <trkpt lat="47.2587" lon="6.82291">
        <ele>948</ele>
        <time>2020-08-29T10:39:41Z</time>
      </trkpt>
      <trkpt lat="47.25869" lon="6.82294">
        <ele>947.6</ele>
        <time>2020-08-29T10:39:42Z</time>
      </trkpt>
      <trkpt lat="47.25867" lon="6.82296">
        <ele>947</ele>
        <time>2020-08-29T10:39:43Z</time>
      </trkpt>
      <trkpt lat="47.25864" lon="6.82299">
        <ele>946.2</ele>
        <time>2020-08-29T10:39:44Z</time>
      </trkpt>
      <trkpt lat="47.25862" lon="6.82302">
        <ele>945.4</ele>
        <time>2020-08-29T10:39:45Z</time>
      </trkpt>
      <trkpt lat="47.2586" lon="6.82306">
        <ele>944.6</ele>
        <time>2020-08-29T10:39:46Z</time>
      </trkpt>
      <trkpt lat="47.25859" lon="6.8231">
        <ele>943.8</ele>
        <time>2020-08-29T10:39:47Z</time>
      </trkpt>
      <trkpt lat="47.25857" lon="6.82312">
        <ele>943.2</ele>
        <time>2020-08-29T10:39:48Z</time>
      </trkpt>
      <trkpt lat="47.25856" lon="6.82315">
        <ele>942.6</ele>
        <time>2020-08-29T10:39:49Z</time>
      </trkpt>
      <trkpt lat="47.25856" lon="6.82318">
        <ele>941.8</ele>
        <time>2020-08-29T10:39:50Z</time>
      </trkpt>
      <trkpt lat="47.25856" lon="6.8232">
        <ele>941.2</ele>
        <time>2020-08-29T10:39:51Z</time>
      </trkpt>
      <trkpt lat="47.25855" lon="6.82322">
        <ele>940.6</ele>
        <time>2020-08-29T10:39:52Z</time>
      </trkpt>
      <trkpt lat="47.25856" lon="6.82329">
        <ele>940.6</ele>
        <time>2020-08-29T10:39:54Z</time>
      </trkpt>
      <trkpt lat="47.25856" lon="6.82332">
        <ele>940.2</ele>
        <time>2020-08-29T10:39:55Z</time>
      </trkpt>
      <trkpt lat="47.25855" lon="6.82335">
        <ele>939.2</ele>
        <time>2020-08-29T10:39:56Z</time>
      </trkpt>
      <trkpt lat="47.25855" lon="6.82337">
        <ele>938.8</ele>
        <time>2020-08-29T10:39:57Z</time>
      </trkpt>
      <trkpt lat="47.25855" lon="6.82339">
        <ele>938.4</ele>
        <time>2020-08-29T10:39:58Z</time>
      </trkpt>
      <trkpt lat="47.25855" lon="6.82344">
        <ele>938.4</ele>
        <time>2020-08-29T10:40:01Z</time>
      </trkpt>
      <trkpt lat="47.25864" lon="6.8236">
        <ele>938.4</ele>
        <time>2020-08-29T10:40:08Z</time>
      </trkpt>
      <trkpt lat="47.25866" lon="6.8237">
        <ele>938.4</ele>
        <time>2020-08-29T10:40:13Z</time>
      </trkpt>
      <trkpt lat="47.25869" lon="6.82385">
        <ele>938.4</ele>
        <time>2020-08-29T10:40:18Z</time>
      </trkpt>
      <trkpt lat="47.25871" lon="6.82406">
        <ele>938.4</ele>
        <time>2020-08-29T10:40:23Z</time>
      </trkpt>
      <trkpt lat="47.25875" lon="6.82442">
        <ele>938</ele>
        <time>2020-08-29T10:40:29Z</time>
      </trkpt>
      <trkpt lat="47.25876" lon="6.82448">
        <ele>937.6</ele>
        <time>2020-08-29T10:40:30Z</time>
      </trkpt>
      <trkpt lat="47.25877" lon="6.82454">
        <ele>937.2</ele>
        <time>2020-08-29T10:40:31Z</time>
      </trkpt>
      <trkpt lat="47.25877" lon="6.8246">
        <ele>936.8</ele>
        <time>2020-08-29T10:40:32Z</time>
      </trkpt>
      <trkpt lat="47.25877" lon="6.82466">
        <ele>936.4</ele>
        <time>2020-08-29T10:40:33Z</time>
      </trkpt>
      <trkpt lat="47.25878" lon="6.82478">
        <ele>936</ele>
        <time>2020-08-29T10:40:35Z</time>
      </trkpt>
      <trkpt lat="47.25878" lon="6.82484">
        <ele>935.4</ele>
        <time>2020-08-29T10:40:36Z</time>
      </trkpt>
      <trkpt lat="47.25877" lon="6.8249">
        <ele>935</ele>
        <time>2020-08-29T10:40:37Z</time>
      </trkpt>
      <trkpt lat="47.25877" lon="6.82497">
        <ele>934.4</ele>
        <time>2020-08-29T10:40:38Z</time>
      </trkpt>
      <trkpt lat="47.25877" lon="6.82505">
        <ele>933.8</ele>
        <time>2020-08-29T10:40:39Z</time>
      </trkpt>
      <trkpt lat="47.25878" lon="6.8251">
        <ele>933.4</ele>
        <time>2020-08-29T10:40:40Z</time>
      </trkpt>
      <trkpt lat="47.25878" lon="6.82516">
        <ele>932.8</ele>
        <time>2020-08-29T10:40:41Z</time>
      </trkpt>
      <trkpt lat="47.25878" lon="6.82519">
        <ele>932</ele>
        <time>2020-08-29T10:40:42Z</time>
      </trkpt>
      <trkpt lat="47.25878" lon="6.82522">
        <ele>931.4</ele>
        <time>2020-08-29T10:40:43Z</time>
      </trkpt>
      <trkpt lat="47.25879" lon="6.82524">
        <ele>930.8</ele>
        <time>2020-08-29T10:40:44Z</time>
      </trkpt>
      <trkpt lat="47.2588" lon="6.82527">
        <ele>929.4</ele>
        <time>2020-08-29T10:40:45Z</time>
      </trkpt>
      <trkpt lat="47.25879" lon="6.82531">
        <ele>929.4</ele>
        <time>2020-08-29T10:40:49Z</time>
      </trkpt>
      <trkpt lat="47.25879" lon="6.82532">
        <ele>929</ele>
        <time>2020-08-29T10:40:50Z</time>
      </trkpt>
      <trkpt lat="47.25879" lon="6.82532">
        <ele>928.6</ele>
        <time>2020-08-29T10:40:51Z</time>
      </trkpt>
      <trkpt lat="47.25879" lon="6.82531">
        <ele>927.8</ele>
        <time>2020-08-29T10:40:53Z</time>
      </trkpt>
      <trkpt lat="47.25879" lon="6.8253">
        <ele>927.4</ele>
        <time>2020-08-29T10:40:54Z</time>
      </trkpt>
      <trkpt lat="47.25877" lon="6.82525">
        <ele>927.4</ele>
        <time>2020-08-29T10:40:56Z</time>
      </trkpt>
      <trkpt lat="47.25874" lon="6.82518">
        <ele>927.4</ele>
        <time>2020-08-29T10:41:00Z</time>
      </trkpt>
      <trkpt lat="47.25874" lon="6.82518">
        <ele>927.4</ele>
        <time>2020-08-29T10:41:14Z</time>
      </trkpt>
      <trkpt lat="47.25874" lon="6.82519">
        <ele>927.4</ele>
        <time>2020-08-29T10:41:15Z</time>
      </trkpt>
      <trkpt lat="47.25874" lon="6.82519">
        <ele>927.4</ele>
        <time>2020-08-29T10:41:16Z</time>
      </trkpt>
      <trkpt lat="47.25875" lon="6.82521">
        <ele>927.4</ele>
        <time>2020-08-29T10:41:18Z</time>
      </trkpt>
      <trkpt lat="47.25879" lon="6.82529">
        <ele>927.4</ele>
        <time>2020-08-29T10:41:25Z</time>
      </trkpt>
      <trkpt lat="47.2588" lon="6.82532">
        <ele>927.4</ele>
        <time>2020-08-29T10:41:29Z</time>
      </trkpt>
      <trkpt lat="47.2588" lon="6.82533">
        <ele>927.4</ele>
        <time>2020-08-29T10:41:41Z</time>
      </trkpt>
      <trkpt lat="47.2588" lon="6.82537">
        <ele>927.4</ele>
        <time>2020-08-29T10:41:43Z</time>
      </trkpt>
      <trkpt lat="47.2588" lon="6.8254">
        <ele>927.4</ele>
        <time>2020-08-29T10:41:44Z</time>
      </trkpt>
      <trkpt lat="47.25886" lon="6.82559">
        <ele>927.4</ele>
        <time>2020-08-29T10:41:49Z</time>
      </trkpt>
      <trkpt lat="47.25888" lon="6.82568">
        <ele>927</ele>
        <time>2020-08-29T10:41:51Z</time>
      </trkpt>
      <trkpt lat="47.2589" lon="6.82572">
        <ele>926.6</ele>
        <time>2020-08-29T10:41:52Z</time>
      </trkpt>
      <trkpt lat="47.25892" lon="6.82577">
        <ele>926.2</ele>
        <time>2020-08-29T10:41:53Z</time>
      </trkpt>
      <trkpt lat="47.25893" lon="6.82581">
        <ele>925.8</ele>
        <time>2020-08-29T10:41:54Z</time>
      </trkpt>
      <trkpt lat="47.25894" lon="6.82586">
        <ele>925.4</ele>
        <time>2020-08-29T10:41:55Z</time>
      </trkpt>
      <trkpt lat="47.25901" lon="6.82616">
        <ele>925.4</ele>
        <time>2020-08-29T10:42:01Z</time>
      </trkpt>
      <trkpt lat="47.25902" lon="6.82622">
        <ele>925</ele>
        <time>2020-08-29T10:42:02Z</time>
      </trkpt>
      <trkpt lat="47.25903" lon="6.82629">
        <ele>924.6</ele>
        <time>2020-08-29T10:42:03Z</time>
      </trkpt>
      <trkpt lat="47.25905" lon="6.82636">
        <ele>924</ele>
        <time>2020-08-29T10:42:04Z</time>
      </trkpt>
      <trkpt lat="47.25906" lon="6.82643">
        <ele>923.6</ele>
        <time>2020-08-29T10:42:05Z</time>
      </trkpt>
      <trkpt lat="47.25907" lon="6.82649">
        <ele>923.2</ele>
        <time>2020-08-29T10:42:06Z</time>
      </trkpt>
      <trkpt lat="47.25907" lon="6.82656">
        <ele>923.2</ele>
        <time>2020-08-29T10:42:07Z</time>
      </trkpt>
      <trkpt lat="47.25908" lon="6.82663">
        <ele>922.8</ele>
        <time>2020-08-29T10:42:08Z</time>
      </trkpt>
      <trkpt lat="47.25908" lon="6.82671">
        <ele>922.4</ele>
        <time>2020-08-29T10:42:09Z</time>
      </trkpt>
      <trkpt lat="47.25909" lon="6.82677">
        <ele>921.8</ele>
        <time>2020-08-29T10:42:10Z</time>
      </trkpt>
      <trkpt lat="47.2591" lon="6.82684">
        <ele>921.4</ele>
        <time>2020-08-29T10:42:11Z</time>
      </trkpt>
      <trkpt lat="47.2591" lon="6.8269">
        <ele>921</ele>
        <time>2020-08-29T10:42:12Z</time>
      </trkpt>
      <trkpt lat="47.25911" lon="6.82697">
        <ele>920.4</ele>
        <time>2020-08-29T10:42:13Z</time>
      </trkpt>
      <trkpt lat="47.25912" lon="6.82705">
        <ele>920</ele>
        <time>2020-08-29T10:42:14Z</time>
      </trkpt>
      <trkpt lat="47.25912" lon="6.82712">
        <ele>919.2</ele>
        <time>2020-08-29T10:42:15Z</time>
      </trkpt>
      <trkpt lat="47.25913" lon="6.8272">
        <ele>918.6</ele>
        <time>2020-08-29T10:42:16Z</time>
      </trkpt>
      <trkpt lat="47.25914" lon="6.82728">
        <ele>917.8</ele>
        <time>2020-08-29T10:42:17Z</time>
      </trkpt>
      <trkpt lat="47.25914" lon="6.82736">
        <ele>917.2</ele>
        <time>2020-08-29T10:42:18Z</time>
      </trkpt>
      <trkpt lat="47.25914" lon="6.82744">
        <ele>916.4</ele>
        <time>2020-08-29T10:42:19Z</time>
      </trkpt>
      <trkpt lat="47.25915" lon="6.82751">
        <ele>915.6</ele>
        <time>2020-08-29T10:42:20Z</time>
      </trkpt>
      <trkpt lat="47.25915" lon="6.82758">
        <ele>914.8</ele>
        <time>2020-08-29T10:42:21Z</time>
      </trkpt>
      <trkpt lat="47.25916" lon="6.82763">
        <ele>914</ele>
        <time>2020-08-29T10:42:22Z</time>
      </trkpt>
      <trkpt lat="47.25917" lon="6.82769">
        <ele>913.2</ele>
        <time>2020-08-29T10:42:23Z</time>
      </trkpt>
      <trkpt lat="47.25918" lon="6.82777">
        <ele>911.6</ele>
        <time>2020-08-29T10:42:24Z</time>
      </trkpt>
      <trkpt lat="47.25919" lon="6.82784">
        <ele>911</ele>
        <time>2020-08-29T10:42:25Z</time>
      </trkpt>
      <trkpt lat="47.2592" lon="6.8279">
        <ele>910.2</ele>
        <time>2020-08-29T10:42:26Z</time>
      </trkpt>
      <trkpt lat="47.25921" lon="6.82797">
        <ele>909.4</ele>
        <time>2020-08-29T10:42:27Z</time>
      </trkpt>
      <trkpt lat="47.25922" lon="6.82803">
        <ele>908.6</ele>
        <time>2020-08-29T10:42:28Z</time>
      </trkpt>
      <trkpt lat="47.25923" lon="6.8281">
        <ele>907.8</ele>
        <time>2020-08-29T10:42:29Z</time>
      </trkpt>
      <trkpt lat="47.25924" lon="6.82817">
        <ele>907</ele>
        <time>2020-08-29T10:42:30Z</time>
      </trkpt>
      <trkpt lat="47.25925" lon="6.82823">
        <ele>906.2</ele>
        <time>2020-08-29T10:42:31Z</time>
      </trkpt>
      <trkpt lat="47.25926" lon="6.82831">
        <ele>905.4</ele>
        <time>2020-08-29T10:42:32Z</time>
      </trkpt>
      <trkpt lat="47.25927" lon="6.82837">
        <ele>904.6</ele>
        <time>2020-08-29T10:42:33Z</time>
      </trkpt>
      <trkpt lat="47.25928" lon="6.82844">
        <ele>904</ele>
        <time>2020-08-29T10:42:34Z</time>
      </trkpt>
      <trkpt lat="47.25929" lon="6.82851">
        <ele>903.4</ele>
        <time>2020-08-29T10:42:35Z</time>
      </trkpt>
      <trkpt lat="47.2593" lon="6.82858">
        <ele>902.6</ele>
        <time>2020-08-29T10:42:36Z</time>
      </trkpt>
      <trkpt lat="47.25932" lon="6.82866">
        <ele>902</ele>
        <time>2020-08-29T10:42:37Z</time>
      </trkpt>
      <trkpt lat="47.25935" lon="6.82874">
        <ele>901.4</ele>
        <time>2020-08-29T10:42:38Z</time>
      </trkpt>
      <trkpt lat="47.25937" lon="6.82881">
        <ele>900.6</ele>
        <time>2020-08-29T10:42:39Z</time>
      </trkpt>
      <trkpt lat="47.2594" lon="6.82887">
        <ele>900</ele>
        <time>2020-08-29T10:42:40Z</time>
      </trkpt>
      <trkpt lat="47.25943" lon="6.82893">
        <ele>899.4</ele>
        <time>2020-08-29T10:42:41Z</time>
      </trkpt>
      <trkpt lat="47.25945" lon="6.82898">
        <ele>898.6</ele>
        <time>2020-08-29T10:42:42Z</time>
      </trkpt>
      <trkpt lat="47.25954" lon="6.82923">
        <ele>898.6</ele>
        <time>2020-08-29T10:42:47Z</time>
      </trkpt>
      <trkpt lat="47.25958" lon="6.82934">
        <ele>898.2</ele>
        <time>2020-08-29T10:42:49Z</time>
      </trkpt>
      <trkpt lat="47.2596" lon="6.82939">
        <ele>897.8</ele>
        <time>2020-08-29T10:42:50Z</time>
      </trkpt>
      <trkpt lat="47.25962" lon="6.82945">
        <ele>897.4</ele>
        <time>2020-08-29T10:42:51Z</time>
      </trkpt>
      <trkpt lat="47.25965" lon="6.8295">
        <ele>897</ele>
        <time>2020-08-29T10:42:52Z</time>
      </trkpt>
      <trkpt lat="47.25968" lon="6.82954">
        <ele>896.4</ele>
        <time>2020-08-29T10:42:53Z</time>
      </trkpt>
      <trkpt lat="47.25971" lon="6.82961">
        <ele>896.4</ele>
        <time>2020-08-29T10:42:55Z</time>
      </trkpt>
      <trkpt lat="47.25971" lon="6.82963">
        <ele>896.4</ele>
        <time>2020-08-29T10:42:56Z</time>
      </trkpt>
      <trkpt lat="47.25961" lon="6.82957">
        <ele>896</ele>
        <time>2020-08-29T10:42:59Z</time>
      </trkpt>
      <trkpt lat="47.25957" lon="6.82954">
        <ele>895.6</ele>
        <time>2020-08-29T10:43:00Z</time>
      </trkpt>
      <trkpt lat="47.25953" lon="6.8295">
        <ele>895.2</ele>
        <time>2020-08-29T10:43:01Z</time>
      </trkpt>
      <trkpt lat="47.25949" lon="6.82945">
        <ele>894.6</ele>
        <time>2020-08-29T10:43:02Z</time>
      </trkpt>
      <trkpt lat="47.25944" lon="6.8294">
        <ele>894.2</ele>
        <time>2020-08-29T10:43:03Z</time>
      </trkpt>
      <trkpt lat="47.25938" lon="6.82935">
        <ele>893.6</ele>
        <time>2020-08-29T10:43:04Z</time>
      </trkpt>
      <trkpt lat="47.25932" lon="6.82929">
        <ele>893.2</ele>
        <time>2020-08-29T10:43:05Z</time>
      </trkpt>
      <trkpt lat="47.25925" lon="6.82922">
        <ele>892.6</ele>
        <time>2020-08-29T10:43:06Z</time>
      </trkpt>
      <trkpt lat="47.25919" lon="6.82917">
        <ele>891.8</ele>
        <time>2020-08-29T10:43:07Z</time>
      </trkpt>
      <trkpt lat="47.25912" lon="6.8291">
        <ele>891</ele>
        <time>2020-08-29T10:43:08Z</time>
      </trkpt>
      <trkpt lat="47.25904" lon="6.82903">
        <ele>890.2</ele>
        <time>2020-08-29T10:43:09Z</time>
      </trkpt>
      <trkpt lat="47.25897" lon="6.82896">
        <ele>889.4</ele>
        <time>2020-08-29T10:43:10Z</time>
      </trkpt>
      <trkpt lat="47.25891" lon="6.8289">
        <ele>888.2</ele>
        <time>2020-08-29T10:43:11Z</time>
      </trkpt>
      <trkpt lat="47.25885" lon="6.82883">
        <ele>887.2</ele>
        <time>2020-08-29T10:43:12Z</time>
      </trkpt>
      <trkpt lat="47.25879" lon="6.82876">
        <ele>886.2</ele>
        <time>2020-08-29T10:43:13Z</time>
      </trkpt>
      <trkpt lat="47.25873" lon="6.82869">
        <ele>884.4</ele>
        <time>2020-08-29T10:43:14Z</time>
      </trkpt>
      <trkpt lat="47.25867" lon="6.82862">
        <ele>883.4</ele>
        <time>2020-08-29T10:43:15Z</time>
      </trkpt>
      <trkpt lat="47.25861" lon="6.82855">
        <ele>882.6</ele>
        <time>2020-08-29T10:43:16Z</time>
      </trkpt>
      <trkpt lat="47.25856" lon="6.82849">
        <ele>881.8</ele>
        <time>2020-08-29T10:43:17Z</time>
      </trkpt>
      <trkpt lat="47.2585" lon="6.82843">
        <ele>881</ele>
        <time>2020-08-29T10:43:18Z</time>
      </trkpt>
      <trkpt lat="47.25845" lon="6.82836">
        <ele>880.2</ele>
        <time>2020-08-29T10:43:19Z</time>
      </trkpt>
      <trkpt lat="47.25841" lon="6.82827">
        <ele>879.4</ele>
        <time>2020-08-29T10:43:20Z</time>
      </trkpt>
      <trkpt lat="47.25838" lon="6.82818">
        <ele>878.6</ele>
        <time>2020-08-29T10:43:21Z</time>
      </trkpt>
      <trkpt lat="47.25837" lon="6.82809">
        <ele>877.8</ele>
        <time>2020-08-29T10:43:22Z</time>
      </trkpt>
      <trkpt lat="47.25836" lon="6.82804">
        <ele>877</ele>
        <time>2020-08-29T10:43:23Z</time>
      </trkpt>
      <trkpt lat="47.25835" lon="6.82796">
        <ele>877</ele>
        <time>2020-08-29T10:43:25Z</time>
      </trkpt>
      <trkpt lat="47.25832" lon="6.82781">
        <ele>877</ele>
        <time>2020-08-29T10:43:30Z</time>
      </trkpt>
      <trkpt lat="47.25832" lon="6.82779">
        <ele>877</ele>
        <time>2020-08-29T10:43:32Z</time>
      </trkpt>
      <trkpt lat="47.25832" lon="6.82779">
        <ele>877</ele>
        <time>2020-08-29T10:43:34Z</time>
      </trkpt>
      <trkpt lat="47.25832" lon="6.82778">
        <ele>877.4</ele>
        <time>2020-08-29T10:43:35Z</time>
      </trkpt>
      <trkpt lat="47.25832" lon="6.82777">
        <ele>877.8</ele>
        <time>2020-08-29T10:43:36Z</time>
      </trkpt>
      <trkpt lat="47.25832" lon="6.82776">
        <ele>878.2</ele>
        <time>2020-08-29T10:43:37Z</time>
      </trkpt>
      <trkpt lat="47.25832" lon="6.82776">
        <ele>879</ele>
        <time>2020-08-29T10:43:38Z</time>
      </trkpt>
      <trkpt lat="47.25832" lon="6.82774">
        <ele>879</ele>
        <time>2020-08-29T10:43:41Z</time>
      </trkpt>
      <trkpt lat="47.25832" lon="6.82774">
        <ele>879</ele>
        <time>2020-08-29T10:43:43Z</time>
      </trkpt>
      <trkpt lat="47.25831" lon="6.82773">
        <ele>879</ele>
        <time>2020-08-29T10:43:48Z</time>
      </trkpt>
      <trkpt lat="47.25828" lon="6.82768">
        <ele>879</ele>
        <time>2020-08-29T10:43:51Z</time>
      </trkpt>
      <trkpt lat="47.25824" lon="6.82765">
        <ele>879</ele>
        <time>2020-08-29T10:43:52Z</time>
      </trkpt>
      <trkpt lat="47.25819" lon="6.82759">
        <ele>879</ele>
        <time>2020-08-29T10:43:55Z</time>
      </trkpt>
      <trkpt lat="47.25808" lon="6.82741">
        <ele>879</ele>
        <time>2020-08-29T10:44:00Z</time>
      </trkpt>
      <trkpt lat="47.25796" lon="6.82719">
        <ele>879</ele>
        <time>2020-08-29T10:44:06Z</time>
      </trkpt>
      <trkpt lat="47.25784" lon="6.82698">
        <ele>879</ele>
        <time>2020-08-29T10:44:12Z</time>
      </trkpt>
      <trkpt lat="47.25769" lon="6.82673">
        <ele>879</ele>
        <time>2020-08-29T10:44:20Z</time>
      </trkpt>
      <trkpt lat="47.25759" lon="6.82659">
        <ele>879</ele>
        <time>2020-08-29T10:44:26Z</time>
      </trkpt>
      <trkpt lat="47.25744" lon="6.82636">
        <ele>879</ele>
        <time>2020-08-29T10:44:35Z</time>
      </trkpt>
      <trkpt lat="47.25736" lon="6.82623">
        <ele>879</ele>
        <time>2020-08-29T10:44:40Z</time>
      </trkpt>
      <trkpt lat="47.2573" lon="6.82615">
        <ele>879.4</ele>
        <time>2020-08-29T10:44:44Z</time>
      </trkpt>
      <trkpt lat="47.25729" lon="6.82613">
        <ele>879.8</ele>
        <time>2020-08-29T10:44:45Z</time>
      </trkpt>
      <trkpt lat="47.25727" lon="6.82611">
        <ele>880.2</ele>
        <time>2020-08-29T10:44:46Z</time>
      </trkpt>
      <trkpt lat="47.25726" lon="6.82609">
        <ele>880.6</ele>
        <time>2020-08-29T10:44:47Z</time>
      </trkpt>
      <trkpt lat="47.25724" lon="6.82607">
        <ele>881</ele>
        <time>2020-08-29T10:44:48Z</time>
      </trkpt>
      <trkpt lat="47.2572" lon="6.82602">
        <ele>881</ele>
        <time>2020-08-29T10:44:52Z</time>
      </trkpt>
      <trkpt lat="47.25715" lon="6.82595">
        <ele>881.4</ele>
        <time>2020-08-29T10:44:57Z</time>
      </trkpt>
      <trkpt lat="47.25714" lon="6.82594">
        <ele>882</ele>
        <time>2020-08-29T10:44:58Z</time>
      </trkpt>
      <trkpt lat="47.25713" lon="6.82593">
        <ele>882.4</ele>
        <time>2020-08-29T10:44:59Z</time>
      </trkpt>
      <trkpt lat="47.25713" lon="6.82592">
        <ele>882.8</ele>
        <time>2020-08-29T10:45:00Z</time>
      </trkpt>
      <trkpt lat="47.25712" lon="6.82591">
        <ele>883.2</ele>
        <time>2020-08-29T10:45:01Z</time>
      </trkpt>
      <trkpt lat="47.25708" lon="6.82583">
        <ele>883.2</ele>
        <time>2020-08-29T10:45:07Z</time>
      </trkpt>
      <trkpt lat="47.25705" lon="6.82577">
        <ele>883.6</ele>
        <time>2020-08-29T10:45:11Z</time>
      </trkpt>
      <trkpt lat="47.25705" lon="6.82575">
        <ele>884</ele>
        <time>2020-08-29T10:45:12Z</time>
      </trkpt>
      <trkpt lat="47.25704" lon="6.82574">
        <ele>884.4</ele>
        <time>2020-08-29T10:45:13Z</time>
      </trkpt>
      <trkpt lat="47.25703" lon="6.82573">
        <ele>884.8</ele>
        <time>2020-08-29T10:45:14Z</time>
      </trkpt>
      <trkpt lat="47.25702" lon="6.82572">
        <ele>885.2</ele>
        <time>2020-08-29T10:45:15Z</time>
      </trkpt>
      <trkpt lat="47.25701" lon="6.82571">
        <ele>885.2</ele>
        <time>2020-08-29T10:45:16Z</time>
      </trkpt>
      <trkpt lat="47.25699" lon="6.82568">
        <ele>885.2</ele>
        <time>2020-08-29T10:45:19Z</time>
      </trkpt>
      <trkpt lat="47.25695" lon="6.82563">
        <ele>885.2</ele>
        <time>2020-08-29T10:45:23Z</time>
      </trkpt>
      <trkpt lat="47.25694" lon="6.82562">
        <ele>885.2</ele>
        <time>2020-08-29T10:45:24Z</time>
      </trkpt>
      <trkpt lat="47.25689" lon="6.82554">
        <ele>885.2</ele>
        <time>2020-08-29T10:45:30Z</time>
      </trkpt>
      <trkpt lat="47.25684" lon="6.8254">
        <ele>885.2</ele>
        <time>2020-08-29T10:45:38Z</time>
      </trkpt>
      <trkpt lat="47.25684" lon="6.82538">
        <ele>885.6</ele>
        <time>2020-08-29T10:45:39Z</time>
      </trkpt>
      <trkpt lat="47.25683" lon="6.82536">
        <ele>886</ele>
        <time>2020-08-29T10:45:40Z</time>
      </trkpt>
      <trkpt lat="47.25682" lon="6.82534">
        <ele>886.4</ele>
        <time>2020-08-29T10:45:41Z</time>
      </trkpt>
      <trkpt lat="47.25682" lon="6.82532">
        <ele>886.8</ele>
        <time>2020-08-29T10:45:42Z</time>
      </trkpt>
      <trkpt lat="47.25682" lon="6.8253">
        <ele>887.2</ele>
        <time>2020-08-29T10:45:43Z</time>
      </trkpt>
      <trkpt lat="47.25681" lon="6.82526">
        <ele>887.2</ele>
        <time>2020-08-29T10:45:45Z</time>
      </trkpt>
      <trkpt lat="47.25679" lon="6.82522">
        <ele>887.2</ele>
        <time>2020-08-29T10:45:49Z</time>
      </trkpt>
      <trkpt lat="47.25679" lon="6.82521">
        <ele>887.2</ele>
        <time>2020-08-29T10:45:56Z</time>
      </trkpt>
      <trkpt lat="47.25679" lon="6.82521">
        <ele>887.2</ele>
        <time>2020-08-29T10:45:57Z</time>
      </trkpt>
      <trkpt lat="47.25679" lon="6.82521">
        <ele>887.2</ele>
        <time>2020-08-29T10:45:58Z</time>
      </trkpt>
      <trkpt lat="47.25678" lon="6.82518">
        <ele>887.2</ele>
        <time>2020-08-29T10:46:02Z</time>
      </trkpt>
      <trkpt lat="47.25678" lon="6.82516">
        <ele>887.2</ele>
        <time>2020-08-29T10:46:21Z</time>
      </trkpt>
      <trkpt lat="47.25677" lon="6.82507">
        <ele>887.2</ele>
        <time>2020-08-29T10:46:25Z</time>
      </trkpt>
      <trkpt lat="47.25674" lon="6.82503">
        <ele>887.2</ele>
        <time>2020-08-29T10:46:27Z</time>
      </trkpt>
      <trkpt lat="47.25672" lon="6.82498">
        <ele>887.2</ele>
        <time>2020-08-29T10:46:30Z</time>
      </trkpt>
      <trkpt lat="47.25671" lon="6.82487">
        <ele>887.2</ele>
        <time>2020-08-29T10:46:35Z</time>
      </trkpt>
      <trkpt lat="47.2567" lon="6.82483">
        <ele>887.6</ele>
        <time>2020-08-29T10:46:36Z</time>
      </trkpt>
      <trkpt lat="47.25669" lon="6.82481">
        <ele>888</ele>
        <time>2020-08-29T10:46:37Z</time>
      </trkpt>
      <trkpt lat="47.25668" lon="6.82478">
        <ele>888.4</ele>
        <time>2020-08-29T10:46:38Z</time>
      </trkpt>
      <trkpt lat="47.25668" lon="6.82476">
        <ele>888.8</ele>
        <time>2020-08-29T10:46:39Z</time>
      </trkpt>
      <trkpt lat="47.25667" lon="6.82474">
        <ele>889.2</ele>
        <time>2020-08-29T10:46:40Z</time>
      </trkpt>
      <trkpt lat="47.25667" lon="6.82471">
        <ele>889.2</ele>
        <time>2020-08-29T10:46:41Z</time>
      </trkpt>
      <trkpt lat="47.25663" lon="6.82458">
        <ele>889.2</ele>
        <time>2020-08-29T10:46:46Z</time>
      </trkpt>
      <trkpt lat="47.25662" lon="6.82447">
        <ele>889.2</ele>
        <time>2020-08-29T10:46:51Z</time>
      </trkpt>
      <trkpt lat="47.25663" lon="6.82445">
        <ele>889.2</ele>
        <time>2020-08-29T10:46:52Z</time>
      </trkpt>
      <trkpt lat="47.25662" lon="6.82435">
        <ele>889.2</ele>
        <time>2020-08-29T10:46:57Z</time>
      </trkpt>
      <trkpt lat="47.2566" lon="6.82432">
        <ele>889.2</ele>
        <time>2020-08-29T10:46:58Z</time>
      </trkpt>
      <trkpt lat="47.25651" lon="6.82409">
        <ele>889.2</ele>
        <time>2020-08-29T10:47:03Z</time>
      </trkpt>
      <trkpt lat="47.25641" lon="6.82385">
        <ele>889.2</ele>
        <time>2020-08-29T10:47:07Z</time>
      </trkpt>
      <trkpt lat="47.25632" lon="6.82363">
        <ele>889.2</ele>
        <time>2020-08-29T10:47:10Z</time>
      </trkpt>
      <trkpt lat="47.25624" lon="6.82347">
        <ele>889.2</ele>
        <time>2020-08-29T10:47:13Z</time>
      </trkpt>
      <trkpt lat="47.25611" lon="6.8232">
        <ele>889.2</ele>
        <time>2020-08-29T10:47:19Z</time>
      </trkpt>
      <trkpt lat="47.25607" lon="6.823">
        <ele>889.2</ele>
        <time>2020-08-29T10:47:23Z</time>
      </trkpt>
      <trkpt lat="47.25596" lon="6.82281">
        <ele>888.8</ele>
        <time>2020-08-29T10:47:27Z</time>
      </trkpt>
      <trkpt lat="47.25593" lon="6.82275">
        <ele>888.4</ele>
        <time>2020-08-29T10:47:28Z</time>
      </trkpt>
      <trkpt lat="47.25591" lon="6.82269">
        <ele>888</ele>
        <time>2020-08-29T10:47:29Z</time>
      </trkpt>
      <trkpt lat="47.25589" lon="6.82263">
        <ele>887.4</ele>
        <time>2020-08-29T10:47:30Z</time>
      </trkpt>
      <trkpt lat="47.25587" lon="6.82258">
        <ele>887</ele>
        <time>2020-08-29T10:47:31Z</time>
      </trkpt>
      <trkpt lat="47.25585" lon="6.82252">
        <ele>887</ele>
        <time>2020-08-29T10:47:32Z</time>
      </trkpt>
      <trkpt lat="47.25575" lon="6.82217">
        <ele>887</ele>
        <time>2020-08-29T10:47:38Z</time>
      </trkpt>
      <trkpt lat="47.25564" lon="6.82192">
        <ele>887</ele>
        <time>2020-08-29T10:47:43Z</time>
      </trkpt>
      <trkpt lat="47.25555" lon="6.82167">
        <ele>886.6</ele>
        <time>2020-08-29T10:47:47Z</time>
      </trkpt>
      <trkpt lat="47.25553" lon="6.82162">
        <ele>886.2</ele>
        <time>2020-08-29T10:47:48Z</time>
      </trkpt>
      <trkpt lat="47.25551" lon="6.82157">
        <ele>885.8</ele>
        <time>2020-08-29T10:47:49Z</time>
      </trkpt>
      <trkpt lat="47.2555" lon="6.82151">
        <ele>885.4</ele>
        <time>2020-08-29T10:47:50Z</time>
      </trkpt>
      <trkpt lat="47.25548" lon="6.82146">
        <ele>885</ele>
        <time>2020-08-29T10:47:51Z</time>
      </trkpt>
      <trkpt lat="47.25547" lon="6.82135">
        <ele>885</ele>
        <time>2020-08-29T10:47:53Z</time>
      </trkpt>
      <trkpt lat="47.25541" lon="6.82111">
        <ele>885</ele>
        <time>2020-08-29T10:47:58Z</time>
      </trkpt>
      <trkpt lat="47.25536" lon="6.82092">
        <ele>885</ele>
        <time>2020-08-29T10:48:03Z</time>
      </trkpt>
      <trkpt lat="47.25533" lon="6.82078">
        <ele>885</ele>
        <time>2020-08-29T10:48:08Z</time>
      </trkpt>
      <trkpt lat="47.25527" lon="6.82058">
        <ele>885</ele>
        <time>2020-08-29T10:48:13Z</time>
      </trkpt>
      <trkpt lat="47.25523" lon="6.82026">
        <ele>885</ele>
        <time>2020-08-29T10:48:20Z</time>
      </trkpt>
      <trkpt lat="47.25518" lon="6.82008">
        <ele>885</ele>
        <time>2020-08-29T10:48:24Z</time>
      </trkpt>
      <trkpt lat="47.25515" lon="6.81996">
        <ele>885</ele>
        <time>2020-08-29T10:48:27Z</time>
      </trkpt>
      <trkpt lat="47.25514" lon="6.81992">
        <ele>885</ele>
        <time>2020-08-29T10:48:28Z</time>
      </trkpt>
      <trkpt lat="47.25512" lon="6.81976">
        <ele>885</ele>
        <time>2020-08-29T10:48:32Z</time>
      </trkpt>
      <trkpt lat="47.25509" lon="6.81955">
        <ele>885</ele>
        <time>2020-08-29T10:48:37Z</time>
      </trkpt>
      <trkpt lat="47.25508" lon="6.81951">
        <ele>885</ele>
        <time>2020-08-29T10:48:38Z</time>
      </trkpt>
      <trkpt lat="47.25508" lon="6.81947">
        <ele>885.4</ele>
        <time>2020-08-29T10:48:39Z</time>
      </trkpt>
      <trkpt lat="47.25507" lon="6.81943">
        <ele>885.8</ele>
        <time>2020-08-29T10:48:40Z</time>
      </trkpt>
      <trkpt lat="47.25506" lon="6.81939">
        <ele>886.2</ele>
        <time>2020-08-29T10:48:41Z</time>
      </trkpt>
      <trkpt lat="47.25505" lon="6.81936">
        <ele>886.6</ele>
        <time>2020-08-29T10:48:42Z</time>
      </trkpt>
      <trkpt lat="47.25504" lon="6.81932">
        <ele>887</ele>
        <time>2020-08-29T10:48:43Z</time>
      </trkpt>
      <trkpt lat="47.25502" lon="6.81914">
        <ele>887</ele>
        <time>2020-08-29T10:48:48Z</time>
      </trkpt>
      <trkpt lat="47.255" lon="6.8191">
        <ele>887</ele>
        <time>2020-08-29T10:48:50Z</time>
      </trkpt>
      <trkpt lat="47.25499" lon="6.81905">
        <ele>887</ele>
        <time>2020-08-29T10:48:53Z</time>
      </trkpt>
      <trkpt lat="47.25496" lon="6.81905">
        <ele>887</ele>
        <time>2020-08-29T10:48:54Z</time>
      </trkpt>
      <trkpt lat="47.2549" lon="6.81904">
        <ele>887</ele>
        <time>2020-08-29T10:48:57Z</time>
      </trkpt>
      <trkpt lat="47.25482" lon="6.81904">
        <ele>886.2</ele>
        <time>2020-08-29T10:49:00Z</time>
      </trkpt>
      <trkpt lat="47.25481" lon="6.81903">
        <ele>885.6</ele>
        <time>2020-08-29T10:49:01Z</time>
      </trkpt>
      <trkpt lat="47.2548" lon="6.81901">
        <ele>885.2</ele>
        <time>2020-08-29T10:49:02Z</time>
      </trkpt>
      <trkpt lat="47.25478" lon="6.81897">
        <ele>884.6</ele>
        <time>2020-08-29T10:49:03Z</time>
      </trkpt>
      <trkpt lat="47.25476" lon="6.81894">
        <ele>884.2</ele>
        <time>2020-08-29T10:49:04Z</time>
      </trkpt>
      <trkpt lat="47.25473" lon="6.81892">
        <ele>883.6</ele>
        <time>2020-08-29T10:49:05Z</time>
      </trkpt>
      <trkpt lat="47.25471" lon="6.81891">
        <ele>883.2</ele>
        <time>2020-08-29T10:49:06Z</time>
      </trkpt>
      <trkpt lat="47.25468" lon="6.8189">
        <ele>882.6</ele>
        <time>2020-08-29T10:49:07Z</time>
      </trkpt>
      <trkpt lat="47.25466" lon="6.8189">
        <ele>882.2</ele>
        <time>2020-08-29T10:49:08Z</time>
      </trkpt>
      <trkpt lat="47.25464" lon="6.81889">
        <ele>881.6</ele>
        <time>2020-08-29T10:49:09Z</time>
      </trkpt>
      <trkpt lat="47.25461" lon="6.81887">
        <ele>881.2</ele>
        <time>2020-08-29T10:49:10Z</time>
      </trkpt>
      <trkpt lat="47.25457" lon="6.81885">
        <ele>880.4</ele>
        <time>2020-08-29T10:49:11Z</time>
      </trkpt>
      <trkpt lat="47.25453" lon="6.81882">
        <ele>879.6</ele>
        <time>2020-08-29T10:49:12Z</time>
      </trkpt>
      <trkpt lat="47.25448" lon="6.8188">
        <ele>878.6</ele>
        <time>2020-08-29T10:49:13Z</time>
      </trkpt>
      <trkpt lat="47.25444" lon="6.81877">
        <ele>877.6</ele>
        <time>2020-08-29T10:49:14Z</time>
      </trkpt>
      <trkpt lat="47.25438" lon="6.81873">
        <ele>876.6</ele>
        <time>2020-08-29T10:49:15Z</time>
      </trkpt>
      <trkpt lat="47.25434" lon="6.8187">
        <ele>875.6</ele>
        <time>2020-08-29T10:49:16Z</time>
      </trkpt>
      <trkpt lat="47.25428" lon="6.81866">
        <ele>874.6</ele>
        <time>2020-08-29T10:49:17Z</time>
      </trkpt>
      <trkpt lat="47.25423" lon="6.81862">
        <ele>873.4</ele>
        <time>2020-08-29T10:49:18Z</time>
      </trkpt>
      <trkpt lat="47.25418" lon="6.81858">
        <ele>872.2</ele>
        <time>2020-08-29T10:49:19Z</time>
      </trkpt>
      <trkpt lat="47.25412" lon="6.8185">
        <ele>871</ele>
        <time>2020-08-29T10:49:20Z</time>
      </trkpt>
      <trkpt lat="47.25406" lon="6.81843">
        <ele>869.8</ele>
        <time>2020-08-29T10:49:21Z</time>
      </trkpt>
      <trkpt lat="47.25401" lon="6.81836">
        <ele>868.6</ele>
        <time>2020-08-29T10:49:22Z</time>
      </trkpt>
      <trkpt lat="47.25396" lon="6.81829">
        <ele>867.4</ele>
        <time>2020-08-29T10:49:23Z</time>
      </trkpt>
      <trkpt lat="47.25392" lon="6.8182">
        <ele>866.6</ele>
        <time>2020-08-29T10:49:24Z</time>
      </trkpt>
      <trkpt lat="47.25387" lon="6.81812">
        <ele>865</ele>
        <time>2020-08-29T10:49:25Z</time>
      </trkpt>
      <trkpt lat="47.25383" lon="6.81804">
        <ele>864.2</ele>
        <time>2020-08-29T10:49:26Z</time>
      </trkpt>
      <trkpt lat="47.25378" lon="6.81795">
        <ele>863.6</ele>
        <time>2020-08-29T10:49:27Z</time>
      </trkpt>
      <trkpt lat="47.25374" lon="6.81787">
        <ele>862.8</ele>
        <time>2020-08-29T10:49:28Z</time>
      </trkpt>
      <trkpt lat="47.2537" lon="6.8178">
        <ele>862</ele>
        <time>2020-08-29T10:49:29Z</time>
      </trkpt>
      <trkpt lat="47.25365" lon="6.81775">
        <ele>861.2</ele>
        <time>2020-08-29T10:49:30Z</time>
      </trkpt>
      <trkpt lat="47.2536" lon="6.81769">
        <ele>860.8</ele>
        <time>2020-08-29T10:49:31Z</time>
      </trkpt>
      <trkpt lat="47.25356" lon="6.81763">
        <ele>860.4</ele>
        <time>2020-08-29T10:49:32Z</time>
      </trkpt>
      <trkpt lat="47.25351" lon="6.81757">
        <ele>859.8</ele>
        <time>2020-08-29T10:49:33Z</time>
      </trkpt>
      <trkpt lat="47.25345" lon="6.81749">
        <ele>859.2</ele>
        <time>2020-08-29T10:49:34Z</time>
      </trkpt>
      <trkpt lat="47.2534" lon="6.81742">
        <ele>858.4</ele>
        <time>2020-08-29T10:49:35Z</time>
      </trkpt>
      <trkpt lat="47.25332" lon="6.81733">
        <ele>857.6</ele>
        <time>2020-08-29T10:49:36Z</time>
      </trkpt>
      <trkpt lat="47.25329" lon="6.81728">
        <ele>857</ele>
        <time>2020-08-29T10:49:37Z</time>
      </trkpt>
      <trkpt lat="47.25324" lon="6.81723">
        <ele>856.2</ele>
        <time>2020-08-29T10:49:38Z</time>
      </trkpt>
      <trkpt lat="47.2532" lon="6.81723">
        <ele>855.8</ele>
        <time>2020-08-29T10:49:39Z</time>
      </trkpt>
      <trkpt lat="47.25318" lon="6.81722">
        <ele>855.4</ele>
        <time>2020-08-29T10:49:40Z</time>
      </trkpt>
      <trkpt lat="47.25317" lon="6.81721">
        <ele>855</ele>
        <time>2020-08-29T10:49:41Z</time>
      </trkpt>
      <trkpt lat="47.25315" lon="6.8172">
        <ele>854</ele>
        <time>2020-08-29T10:49:42Z</time>
      </trkpt>
      <trkpt lat="47.25314" lon="6.8172">
        <ele>854</ele>
        <time>2020-08-29T10:49:47Z</time>
      </trkpt>
      <trkpt lat="47.25307" lon="6.81726">
        <ele>854</ele>
        <time>2020-08-29T10:49:50Z</time>
      </trkpt>
      <trkpt lat="47.25298" lon="6.81732">
        <ele>853.6</ele>
        <time>2020-08-29T10:49:53Z</time>
      </trkpt>
      <trkpt lat="47.25295" lon="6.81733">
        <ele>853</ele>
        <time>2020-08-29T10:49:54Z</time>
      </trkpt>
      <trkpt lat="47.25293" lon="6.81734">
        <ele>852.6</ele>
        <time>2020-08-29T10:49:55Z</time>
      </trkpt>
      <trkpt lat="47.25289" lon="6.81736">
        <ele>852</ele>
        <time>2020-08-29T10:49:56Z</time>
      </trkpt>
      <trkpt lat="47.25285" lon="6.81739">
        <ele>851.4</ele>
        <time>2020-08-29T10:49:57Z</time>
      </trkpt>
      <trkpt lat="47.25281" lon="6.81741">
        <ele>851</ele>
        <time>2020-08-29T10:49:58Z</time>
      </trkpt>
      <trkpt lat="47.25276" lon="6.81744">
        <ele>850.4</ele>
        <time>2020-08-29T10:49:59Z</time>
      </trkpt>
      <trkpt lat="47.25272" lon="6.81747">
        <ele>849.6</ele>
        <time>2020-08-29T10:50:00Z</time>
      </trkpt>
      <trkpt lat="47.25267" lon="6.8175">
        <ele>848.8</ele>
        <time>2020-08-29T10:50:01Z</time>
      </trkpt>
      <trkpt lat="47.25261" lon="6.81754">
        <ele>847.4</ele>
        <time>2020-08-29T10:50:02Z</time>
      </trkpt>
      <trkpt lat="47.25257" lon="6.81757">
        <ele>846.6</ele>
        <time>2020-08-29T10:50:03Z</time>
      </trkpt>
      <trkpt lat="47.25253" lon="6.8176">
        <ele>846</ele>
        <time>2020-08-29T10:50:04Z</time>
      </trkpt>
      <trkpt lat="47.25249" lon="6.81765">
        <ele>845.2</ele>
        <time>2020-08-29T10:50:05Z</time>
      </trkpt>
      <trkpt lat="47.25247" lon="6.8177">
        <ele>844.4</ele>
        <time>2020-08-29T10:50:06Z</time>
      </trkpt>
      <trkpt lat="47.25245" lon="6.81777">
        <ele>843.6</ele>
        <time>2020-08-29T10:50:07Z</time>
      </trkpt>
      <trkpt lat="47.25242" lon="6.81783">
        <ele>843</ele>
        <time>2020-08-29T10:50:08Z</time>
      </trkpt>
      <trkpt lat="47.2524" lon="6.8179">
        <ele>842.2</ele>
        <time>2020-08-29T10:50:09Z</time>
      </trkpt>
      <trkpt lat="47.25238" lon="6.81797">
        <ele>841.8</ele>
        <time>2020-08-29T10:50:10Z</time>
      </trkpt>
      <trkpt lat="47.25235" lon="6.81802">
        <ele>841.4</ele>
        <time>2020-08-29T10:50:11Z</time>
      </trkpt>
      <trkpt lat="47.25233" lon="6.81807">
        <ele>840.8</ele>
        <time>2020-08-29T10:50:12Z</time>
      </trkpt>
      <trkpt lat="47.25229" lon="6.81813">
        <ele>840.4</ele>
        <time>2020-08-29T10:50:13Z</time>
      </trkpt>
      <trkpt lat="47.25227" lon="6.81816">
        <ele>840</ele>
        <time>2020-08-29T10:50:14Z</time>
      </trkpt>
      <trkpt lat="47.25221" lon="6.81824">
        <ele>840</ele>
        <time>2020-08-29T10:50:16Z</time>
      </trkpt>
      <trkpt lat="47.25212" lon="6.81834">
        <ele>840</ele>
        <time>2020-08-29T10:50:19Z</time>
      </trkpt>
      <trkpt lat="47.2521" lon="6.81839">
        <ele>840</ele>
        <time>2020-08-29T10:50:21Z</time>
      </trkpt>
      <trkpt lat="47.25211" lon="6.81843">
        <ele>840</ele>
        <time>2020-08-29T10:50:23Z</time>
      </trkpt>
      <trkpt lat="47.25212" lon="6.81843">
        <ele>840</ele>
        <time>2020-08-29T10:50:25Z</time>
      </trkpt>
      <trkpt lat="47.25212" lon="6.81843">
        <ele>838</ele>
        <time>2020-08-29T10:52:22Z</time>
      </trkpt>
      <trkpt lat="47.25211" lon="6.81844">
        <ele>838</ele>
        <time>2020-08-29T10:52:23Z</time>
      </trkpt>
      <trkpt lat="47.2521" lon="6.81844">
        <ele>838</ele>
        <time>2020-08-29T10:52:24Z</time>
      </trkpt>
      <trkpt lat="47.25205" lon="6.81844">
        <ele>838</ele>
        <time>2020-08-29T10:52:27Z</time>
      </trkpt>
      <trkpt lat="47.25203" lon="6.81846">
        <ele>838</ele>
        <time>2020-08-29T10:52:28Z</time>
      </trkpt>
      <trkpt lat="47.25189" lon="6.81861">
        <ele>838</ele>
        <time>2020-08-29T10:52:34Z</time>
      </trkpt>
      <trkpt lat="47.25177" lon="6.81875">
        <ele>838</ele>
        <time>2020-08-29T10:52:39Z</time>
      </trkpt>
      <trkpt lat="47.25172" lon="6.81867">
        <ele>838</ele>
        <time>2020-08-29T10:52:42Z</time>
      </trkpt>
      <trkpt lat="47.25169" lon="6.81863">
        <ele>838</ele>
        <time>2020-08-29T10:52:43Z</time>
      </trkpt>
      <trkpt lat="47.25165" lon="6.81852">
        <ele>837.6</ele>
        <time>2020-08-29T10:52:45Z</time>
      </trkpt>
      <trkpt lat="47.25163" lon="6.81846">
        <ele>837.2</ele>
        <time>2020-08-29T10:52:46Z</time>
      </trkpt>
      <trkpt lat="47.25161" lon="6.81839">
        <ele>836.8</ele>
        <time>2020-08-29T10:52:47Z</time>
      </trkpt>
      <trkpt lat="47.25159" lon="6.81833">
        <ele>836.4</ele>
        <time>2020-08-29T10:52:48Z</time>
      </trkpt>
      <trkpt lat="47.25156" lon="6.81827">
        <ele>836</ele>
        <time>2020-08-29T10:52:49Z</time>
      </trkpt>
      <trkpt lat="47.25154" lon="6.8182">
        <ele>835.6</ele>
        <time>2020-08-29T10:52:50Z</time>
      </trkpt>
      <trkpt lat="47.25151" lon="6.81813">
        <ele>835.2</ele>
        <time>2020-08-29T10:52:51Z</time>
      </trkpt>
      <trkpt lat="47.25149" lon="6.81806">
        <ele>834.8</ele>
        <time>2020-08-29T10:52:52Z</time>
      </trkpt>
      <trkpt lat="47.25146" lon="6.81799">
        <ele>834.4</ele>
        <time>2020-08-29T10:52:53Z</time>
      </trkpt>
      <trkpt lat="47.25143" lon="6.81791">
        <ele>834</ele>
        <time>2020-08-29T10:52:54Z</time>
      </trkpt>
      <trkpt lat="47.2514" lon="6.81784">
        <ele>833</ele>
        <time>2020-08-29T10:52:55Z</time>
      </trkpt>
      <trkpt lat="47.25138" lon="6.81776">
        <ele>832.6</ele>
        <time>2020-08-29T10:52:56Z</time>
      </trkpt>
      <trkpt lat="47.25135" lon="6.81768">
        <ele>832.2</ele>
        <time>2020-08-29T10:52:57Z</time>
      </trkpt>
      <trkpt lat="47.25132" lon="6.81761">
        <ele>831.8</ele>
        <time>2020-08-29T10:52:58Z</time>
      </trkpt>
      <trkpt lat="47.2513" lon="6.81753">
        <ele>831.8</ele>
        <time>2020-08-29T10:52:59Z</time>
      </trkpt>
      <trkpt lat="47.25122" lon="6.81732">
        <ele>831.4</ele>
        <time>2020-08-29T10:53:02Z</time>
      </trkpt>
      <trkpt lat="47.25119" lon="6.81726">
        <ele>831</ele>
        <time>2020-08-29T10:53:03Z</time>
      </trkpt>
      <trkpt lat="47.25116" lon="6.81721">
        <ele>830.4</ele>
        <time>2020-08-29T10:53:04Z</time>
      </trkpt>
      <trkpt lat="47.25112" lon="6.81719">
        <ele>830</ele>
        <time>2020-08-29T10:53:05Z</time>
      </trkpt>
      <trkpt lat="47.25107" lon="6.81718">
        <ele>829.6</ele>
        <time>2020-08-29T10:53:06Z</time>
      </trkpt>
      <trkpt lat="47.25102" lon="6.81719">
        <ele>829.6</ele>
        <time>2020-08-29T10:53:07Z</time>
      </trkpt>
      <trkpt lat="47.25093" lon="6.81722">
        <ele>829.2</ele>
        <time>2020-08-29T10:53:09Z</time>
      </trkpt>
      <trkpt lat="47.25088" lon="6.81724">
        <ele>828.8</ele>
        <time>2020-08-29T10:53:10Z</time>
      </trkpt>
      <trkpt lat="47.25083" lon="6.81726">
        <ele>828.4</ele>
        <time>2020-08-29T10:53:11Z</time>
      </trkpt>
      <trkpt lat="47.25078" lon="6.81727">
        <ele>828</ele>
        <time>2020-08-29T10:53:12Z</time>
      </trkpt>
      <trkpt lat="47.25073" lon="6.81729">
        <ele>827.6</ele>
        <time>2020-08-29T10:53:13Z</time>
      </trkpt>
      <trkpt lat="47.25062" lon="6.81733">
        <ele>827.2</ele>
        <time>2020-08-29T10:53:15Z</time>
      </trkpt>
      <trkpt lat="47.25057" lon="6.81735">
        <ele>826.8</ele>
        <time>2020-08-29T10:53:16Z</time>
      </trkpt>
      <trkpt lat="47.25052" lon="6.8174">
        <ele>826.2</ele>
        <time>2020-08-29T10:53:17Z</time>
      </trkpt>
      <trkpt lat="47.25048" lon="6.81746">
        <ele>825.8</ele>
        <time>2020-08-29T10:53:18Z</time>
      </trkpt>
      <trkpt lat="47.25044" lon="6.81751">
        <ele>825</ele>
        <time>2020-08-29T10:53:19Z</time>
      </trkpt>
      <trkpt lat="47.2504" lon="6.81754">
        <ele>824.6</ele>
        <time>2020-08-29T10:53:20Z</time>
      </trkpt>
      <trkpt lat="47.25036" lon="6.81755">
        <ele>824</ele>
        <time>2020-08-29T10:53:21Z</time>
      </trkpt>
      <trkpt lat="47.25031" lon="6.81755">
        <ele>823.6</ele>
        <time>2020-08-29T10:53:22Z</time>
      </trkpt>
      <trkpt lat="47.25026" lon="6.81755">
        <ele>823.2</ele>
        <time>2020-08-29T10:53:23Z</time>
      </trkpt>
      <trkpt lat="47.25021" lon="6.81754">
        <ele>823.2</ele>
        <time>2020-08-29T10:53:24Z</time>
      </trkpt>
      <trkpt lat="47.25016" lon="6.81751">
        <ele>823.2</ele>
        <time>2020-08-29T10:53:25Z</time>
      </trkpt>
      <trkpt lat="47.25005" lon="6.81747">
        <ele>822.6</ele>
        <time>2020-08-29T10:53:27Z</time>
      </trkpt>
      <trkpt lat="47.24999" lon="6.81743">
        <ele>822.2</ele>
        <time>2020-08-29T10:53:28Z</time>
      </trkpt>
      <trkpt lat="47.24993" lon="6.8174">
        <ele>821.6</ele>
        <time>2020-08-29T10:53:29Z</time>
      </trkpt>
      <trkpt lat="47.24987" lon="6.81739">
        <ele>821</ele>
        <time>2020-08-29T10:53:30Z</time>
      </trkpt>
      <trkpt lat="47.24981" lon="6.81739">
        <ele>820.6</ele>
        <time>2020-08-29T10:53:31Z</time>
      </trkpt>
      <trkpt lat="47.24974" lon="6.8174">
        <ele>820.2</ele>
        <time>2020-08-29T10:53:32Z</time>
      </trkpt>
      <trkpt lat="47.24968" lon="6.81743">
        <ele>819.6</ele>
        <time>2020-08-29T10:53:33Z</time>
      </trkpt>
      <trkpt lat="47.24961" lon="6.81746">
        <ele>819.2</ele>
        <time>2020-08-29T10:53:34Z</time>
      </trkpt>
      <trkpt lat="47.24955" lon="6.81748">
        <ele>818.8</ele>
        <time>2020-08-29T10:53:35Z</time>
      </trkpt>
      <trkpt lat="47.24949" lon="6.81751">
        <ele>818.4</ele>
        <time>2020-08-29T10:53:36Z</time>
      </trkpt>
      <trkpt lat="47.24944" lon="6.81754">
        <ele>818.4</ele>
        <time>2020-08-29T10:53:37Z</time>
      </trkpt>
      <trkpt lat="47.24927" lon="6.81764">
        <ele>818</ele>
        <time>2020-08-29T10:53:40Z</time>
      </trkpt>
      <trkpt lat="47.24921" lon="6.81767">
        <ele>817.6</ele>
        <time>2020-08-29T10:53:41Z</time>
      </trkpt>
      <trkpt lat="47.24916" lon="6.81771">
        <ele>817.2</ele>
        <time>2020-08-29T10:53:42Z</time>
      </trkpt>
      <trkpt lat="47.2491" lon="6.81774">
        <ele>816.8</ele>
        <time>2020-08-29T10:53:43Z</time>
      </trkpt>
      <trkpt lat="47.24906" lon="6.81776">
        <ele>816.4</ele>
        <time>2020-08-29T10:53:44Z</time>
      </trkpt>
      <trkpt lat="47.24901" lon="6.81776">
        <ele>816.4</ele>
        <time>2020-08-29T10:53:45Z</time>
      </trkpt>
      <trkpt lat="47.24893" lon="6.81763">
        <ele>816.4</ele>
        <time>2020-08-29T10:53:48Z</time>
      </trkpt>
      <trkpt lat="47.24891" lon="6.81751">
        <ele>816.4</ele>
        <time>2020-08-29T10:53:50Z</time>
      </trkpt>
      <trkpt lat="47.24888" lon="6.81739">
        <ele>816</ele>
        <time>2020-08-29T10:53:52Z</time>
      </trkpt>
      <trkpt lat="47.24887" lon="6.81732">
        <ele>815.6</ele>
        <time>2020-08-29T10:53:53Z</time>
      </trkpt>
      <trkpt lat="47.24886" lon="6.81725">
        <ele>815.2</ele>
        <time>2020-08-29T10:53:54Z</time>
      </trkpt>
      <trkpt lat="47.24885" lon="6.81718">
        <ele>814.8</ele>
        <time>2020-08-29T10:53:55Z</time>
      </trkpt>
      <trkpt lat="47.24884" lon="6.8171">
        <ele>814.4</ele>
        <time>2020-08-29T10:53:56Z</time>
      </trkpt>
      <trkpt lat="47.24882" lon="6.81695">
        <ele>814</ele>
        <time>2020-08-29T10:53:58Z</time>
      </trkpt>
      <trkpt lat="47.2488" lon="6.81686">
        <ele>813.6</ele>
        <time>2020-08-29T10:53:59Z</time>
      </trkpt>
      <trkpt lat="47.24879" lon="6.81677">
        <ele>813.2</ele>
        <time>2020-08-29T10:54:00Z</time>
      </trkpt>
      <trkpt lat="47.24878" lon="6.81669">
        <ele>812.8</ele>
        <time>2020-08-29T10:54:01Z</time>
      </trkpt>
      <trkpt lat="47.24876" lon="6.81661">
        <ele>812.4</ele>
        <time>2020-08-29T10:54:02Z</time>
      </trkpt>
      <trkpt lat="47.24871" lon="6.81628">
        <ele>812</ele>
        <time>2020-08-29T10:54:06Z</time>
      </trkpt>
      <trkpt lat="47.24869" lon="6.81619">
        <ele>811.6</ele>
        <time>2020-08-29T10:54:07Z</time>
      </trkpt>
      <trkpt lat="47.24868" lon="6.81611">
        <ele>811.2</ele>
        <time>2020-08-29T10:54:08Z</time>
      </trkpt>
      <trkpt lat="47.24867" lon="6.81602">
        <ele>810.2</ele>
        <time>2020-08-29T10:54:09Z</time>
      </trkpt>
      <trkpt lat="47.24864" lon="6.81575">
        <ele>810.2</ele>
        <time>2020-08-29T10:54:12Z</time>
      </trkpt>
      <trkpt lat="47.24864" lon="6.81556">
        <ele>810.2</ele>
        <time>2020-08-29T10:54:14Z</time>
      </trkpt>
      <trkpt lat="47.24867" lon="6.8153">
        <ele>810.2</ele>
        <time>2020-08-29T10:54:17Z</time>
      </trkpt>
      <trkpt lat="47.24868" lon="6.81523">
        <ele>810.2</ele>
        <time>2020-08-29T10:54:18Z</time>
      </trkpt>
      <trkpt lat="47.24868" lon="6.81523">
        <ele>810.2</ele>
        <time>2020-08-29T10:54:18Z</time>
      </trkpt>
      <trkpt lat="47.24868" lon="6.81523">
        <ele>810.2</ele>
        <time>2020-08-29T10:54:18Z</time>
      </trkpt>
    </trkseg>
  </trk>
</gpx>